<?xml version="1.0" encoding="UTF-8" standalone="no" ?>
<gpx xmlns="http://www.topografix.com/GPX/1/1" xmlns:xsi="http://www.w3.org/2001/XMLSchema-instance" xsi:schemaLocation="http://www.topografix.com/GPX/1/1 http://www.topografix.com/GPX/1/1/gpx.xsd" version="1.1" creator="VisuGPX - https://www.visugpx.com">
  <metadata>
    <name>NORD TOULOUSAIN 07-2024</name>
  </metadata>
  <trk>
    <name><![CDATA[NORD TOULOUSAIN TEST 07-2024]]></name>
    <extensions>
      <line xmlns="http://www.topografix.com/GPX/gpx_style/0/2">
        <color>ff0000</color>
        <width>4</width>
          <extensions>
            <sens>1</sens>
          </extensions>
      </line>
    </extensions>
    <trkseg>
      <trkpt lat="43.65589" lon="1.44615">
        <ele>134.2002</ele>
        <time>2024-07-13T15:21:39+02:00</time>
      </trkpt>
      <trkpt lat="43.65585" lon="1.44616">
        <ele>134.2998</ele>
        <time>2024-07-13T15:21:46+02:00</time>
      </trkpt>
      <trkpt lat="43.65585" lon="1.44615">
        <ele>134.2998</ele>
        <time>2024-07-13T15:21:51+02:00</time>
      </trkpt>
      <trkpt lat="43.65587" lon="1.44613">
        <ele>134.2998</ele>
        <time>2024-07-13T15:22:11+02:00</time>
      </trkpt>
      <trkpt lat="43.65586" lon="1.44613">
        <ele>134.2998</ele>
        <time>2024-07-13T15:22:21+02:00</time>
      </trkpt>
      <trkpt lat="43.65587" lon="1.44612">
        <ele>134.2998</ele>
        <time>2024-07-13T15:22:31+02:00</time>
      </trkpt>
      <trkpt lat="43.65587" lon="1.44612">
        <ele>134.2998</ele>
        <time>2024-07-13T15:22:32+02:00</time>
      </trkpt>
      <trkpt lat="43.65586" lon="1.44612">
        <ele>134.2998</ele>
        <time>2024-07-13T15:22:35+02:00</time>
      </trkpt>
      <trkpt lat="43.65586" lon="1.44612">
        <ele>134.2998</ele>
        <time>2024-07-13T15:22:36+02:00</time>
      </trkpt>
      <trkpt lat="43.65587" lon="1.44611">
        <ele>134.2998</ele>
        <time>2024-07-13T15:22:40+02:00</time>
      </trkpt>
      <trkpt lat="43.65587" lon="1.44611">
        <ele>134.2998</ele>
        <time>2024-07-13T15:22:41+02:00</time>
      </trkpt>
      <trkpt lat="43.65588" lon="1.44611">
        <ele>134.2998</ele>
        <time>2024-07-13T15:22:45+02:00</time>
      </trkpt>
      <trkpt lat="43.65587" lon="1.44611">
        <ele>134.2998</ele>
        <time>2024-07-13T15:22:46+02:00</time>
      </trkpt>
      <trkpt lat="43.65586" lon="1.44612">
        <ele>134.2998</ele>
        <time>2024-07-13T15:22:50+02:00</time>
      </trkpt>
      <trkpt lat="43.65586" lon="1.44612">
        <ele>134.2998</ele>
        <time>2024-07-13T15:22:51+02:00</time>
      </trkpt>
      <trkpt lat="43.65586" lon="1.44613">
        <ele>134.2998</ele>
        <time>2024-07-13T15:22:55+02:00</time>
      </trkpt>
      <trkpt lat="43.65586" lon="1.44613">
        <ele>134.2998</ele>
        <time>2024-07-13T15:22:56+02:00</time>
      </trkpt>
      <trkpt lat="43.65587" lon="1.44612">
        <ele>134.2998</ele>
        <time>2024-07-13T15:23:00+02:00</time>
      </trkpt>
      <trkpt lat="43.65587" lon="1.44612">
        <ele>134.2998</ele>
        <time>2024-07-13T15:23:01+02:00</time>
      </trkpt>
      <trkpt lat="43.65588" lon="1.44613">
        <ele>134.2998</ele>
        <time>2024-07-13T15:23:05+02:00</time>
      </trkpt>
      <trkpt lat="43.65589" lon="1.44613">
        <ele>134.2998</ele>
        <time>2024-07-13T15:23:06+02:00</time>
      </trkpt>
      <trkpt lat="43.65589" lon="1.44613">
        <ele>134.2002</ele>
        <time>2024-07-13T15:23:10+02:00</time>
      </trkpt>
      <trkpt lat="43.65589" lon="1.44613">
        <ele>134.2002</ele>
        <time>2024-07-13T15:23:11+02:00</time>
      </trkpt>
      <trkpt lat="43.65588" lon="1.44613">
        <ele>134.2998</ele>
        <time>2024-07-13T15:23:14+02:00</time>
      </trkpt>
      <trkpt lat="43.65588" lon="1.44613">
        <ele>134.2998</ele>
        <time>2024-07-13T15:23:15+02:00</time>
      </trkpt>
      <trkpt lat="43.65588" lon="1.44615">
        <ele>134.2998</ele>
        <time>2024-07-13T15:23:19+02:00</time>
      </trkpt>
      <trkpt lat="43.65588" lon="1.44614">
        <ele>134.2998</ele>
        <time>2024-07-13T15:23:20+02:00</time>
      </trkpt>
      <trkpt lat="43.65587" lon="1.44615">
        <ele>134.2998</ele>
        <time>2024-07-13T15:23:24+02:00</time>
      </trkpt>
      <trkpt lat="43.65587" lon="1.44615">
        <ele>134.2998</ele>
        <time>2024-07-13T15:23:25+02:00</time>
      </trkpt>
      <trkpt lat="43.65587" lon="1.44615">
        <ele>134.2998</ele>
        <time>2024-07-13T15:23:29+02:00</time>
      </trkpt>
      <trkpt lat="43.65587" lon="1.44615">
        <ele>134.2998</ele>
        <time>2024-07-13T15:23:30+02:00</time>
      </trkpt>
      <trkpt lat="43.65587" lon="1.44615">
        <ele>134.2998</ele>
        <time>2024-07-13T15:23:34+02:00</time>
      </trkpt>
      <trkpt lat="43.65587" lon="1.44615">
        <ele>134.2998</ele>
        <time>2024-07-13T15:23:35+02:00</time>
      </trkpt>
      <trkpt lat="43.65587" lon="1.44615">
        <ele>134.2998</ele>
        <time>2024-07-13T15:23:39+02:00</time>
      </trkpt>
      <trkpt lat="43.65587" lon="1.44615">
        <ele>134.2998</ele>
        <time>2024-07-13T15:23:40+02:00</time>
      </trkpt>
      <trkpt lat="43.65587" lon="1.44614">
        <ele>134.2998</ele>
        <time>2024-07-13T15:23:44+02:00</time>
      </trkpt>
      <trkpt lat="43.65587" lon="1.44614">
        <ele>134.2998</ele>
        <time>2024-07-13T15:23:45+02:00</time>
      </trkpt>
      <trkpt lat="43.65587" lon="1.44614">
        <ele>134.2998</ele>
        <time>2024-07-13T15:23:49+02:00</time>
      </trkpt>
      <trkpt lat="43.65587" lon="1.44614">
        <ele>134.2998</ele>
        <time>2024-07-13T15:23:50+02:00</time>
      </trkpt>
      <trkpt lat="43.65587" lon="1.44614">
        <ele>134.2998</ele>
        <time>2024-07-13T15:23:54+02:00</time>
      </trkpt>
      <trkpt lat="43.65587" lon="1.44614">
        <ele>134.2998</ele>
        <time>2024-07-13T15:23:55+02:00</time>
      </trkpt>
      <trkpt lat="43.65587" lon="1.44614">
        <ele>134.2998</ele>
        <time>2024-07-13T15:23:59+02:00</time>
      </trkpt>
      <trkpt lat="43.65587" lon="1.44614">
        <ele>134.2998</ele>
        <time>2024-07-13T15:24:00+02:00</time>
      </trkpt>
      <trkpt lat="43.65587" lon="1.44614">
        <ele>134.2998</ele>
        <time>2024-07-13T15:24:04+02:00</time>
      </trkpt>
      <trkpt lat="43.65587" lon="1.44614">
        <ele>134.2998</ele>
        <time>2024-07-13T15:24:05+02:00</time>
      </trkpt>
      <trkpt lat="43.65587" lon="1.44614">
        <ele>134.2998</ele>
        <time>2024-07-13T15:24:09+02:00</time>
      </trkpt>
      <trkpt lat="43.65587" lon="1.44614">
        <ele>134.2998</ele>
        <time>2024-07-13T15:24:10+02:00</time>
      </trkpt>
      <trkpt lat="43.65587" lon="1.44614">
        <ele>134.2998</ele>
        <time>2024-07-13T15:24:14+02:00</time>
      </trkpt>
      <trkpt lat="43.65587" lon="1.44614">
        <ele>134.2998</ele>
        <time>2024-07-13T15:24:15+02:00</time>
      </trkpt>
      <trkpt lat="43.65587" lon="1.44614">
        <ele>134.2998</ele>
        <time>2024-07-13T15:24:19+02:00</time>
      </trkpt>
      <trkpt lat="43.65587" lon="1.44614">
        <ele>134.2998</ele>
        <time>2024-07-13T15:24:20+02:00</time>
      </trkpt>
      <trkpt lat="43.65587" lon="1.44615">
        <ele>134.2998</ele>
        <time>2024-07-13T15:24:23+02:00</time>
      </trkpt>
      <trkpt lat="43.65587" lon="1.44615">
        <ele>134.2998</ele>
        <time>2024-07-13T15:24:28+02:00</time>
      </trkpt>
      <trkpt lat="43.65587" lon="1.44615">
        <ele>134.2998</ele>
        <time>2024-07-13T15:24:38+02:00</time>
      </trkpt>
      <trkpt lat="43.65587" lon="1.44615">
        <ele>134.2998</ele>
        <time>2024-07-13T15:24:39+02:00</time>
      </trkpt>
      <trkpt lat="43.65587" lon="1.44615">
        <ele>134.2998</ele>
        <time>2024-07-13T15:24:45+02:00</time>
      </trkpt>
      <trkpt lat="43.65587" lon="1.44615">
        <ele>134.2998</ele>
        <time>2024-07-13T15:24:48+02:00</time>
      </trkpt>
      <trkpt lat="43.65587" lon="1.44615">
        <ele>134.2998</ele>
        <time>2024-07-13T15:24:55+02:00</time>
      </trkpt>
      <trkpt lat="43.65587" lon="1.44615">
        <ele>134.2998</ele>
        <time>2024-07-13T15:24:58+02:00</time>
      </trkpt>
      <trkpt lat="43.65587" lon="1.44615">
        <ele>134.2998</ele>
        <time>2024-07-13T15:25:05+02:00</time>
      </trkpt>
      <trkpt lat="43.65587" lon="1.44615">
        <ele>134.2998</ele>
        <time>2024-07-13T15:25:08+02:00</time>
      </trkpt>
      <trkpt lat="43.65587" lon="1.44615">
        <ele>134.2998</ele>
        <time>2024-07-13T15:25:15+02:00</time>
      </trkpt>
      <trkpt lat="43.65587" lon="1.44614">
        <ele>134.2998</ele>
        <time>2024-07-13T15:25:18+02:00</time>
      </trkpt>
      <trkpt lat="43.65587" lon="1.44614">
        <ele>134.2998</ele>
        <time>2024-07-13T15:25:25+02:00</time>
      </trkpt>
      <trkpt lat="43.65587" lon="1.44613">
        <ele>134.2998</ele>
        <time>2024-07-13T15:25:28+02:00</time>
      </trkpt>
      <trkpt lat="43.65587" lon="1.44613">
        <ele>134.2998</ele>
        <time>2024-07-13T15:25:35+02:00</time>
      </trkpt>
      <trkpt lat="43.65587" lon="1.44613">
        <ele>134.2998</ele>
        <time>2024-07-13T15:25:38+02:00</time>
      </trkpt>
      <trkpt lat="43.65587" lon="1.44613">
        <ele>134.2998</ele>
        <time>2024-07-13T15:25:45+02:00</time>
      </trkpt>
      <trkpt lat="43.65586" lon="1.44613">
        <ele>134.2998</ele>
        <time>2024-07-13T15:25:48+02:00</time>
      </trkpt>
      <trkpt lat="43.65586" lon="1.44613">
        <ele>134.2998</ele>
        <time>2024-07-13T15:25:55+02:00</time>
      </trkpt>
      <trkpt lat="43.65586" lon="1.44613">
        <ele>134.2998</ele>
        <time>2024-07-13T15:25:58+02:00</time>
      </trkpt>
      <trkpt lat="43.65586" lon="1.44613">
        <ele>134.2998</ele>
        <time>2024-07-13T15:26:01+02:00</time>
      </trkpt>
      <trkpt lat="43.65586" lon="1.44613">
        <ele>134.2998</ele>
        <time>2024-07-13T15:26:02+02:00</time>
      </trkpt>
      <trkpt lat="43.65587" lon="1.44614">
        <ele>134.2998</ele>
        <time>2024-07-13T15:26:06+02:00</time>
      </trkpt>
      <trkpt lat="43.65587" lon="1.44614">
        <ele>134.2998</ele>
        <time>2024-07-13T15:26:07+02:00</time>
      </trkpt>
      <trkpt lat="43.65587" lon="1.44614">
        <ele>134.2998</ele>
        <time>2024-07-13T15:26:11+02:00</time>
      </trkpt>
      <trkpt lat="43.65587" lon="1.44614">
        <ele>134.2998</ele>
        <time>2024-07-13T15:26:12+02:00</time>
      </trkpt>
      <trkpt lat="43.65587" lon="1.44614">
        <ele>134.2998</ele>
        <time>2024-07-13T15:26:16+02:00</time>
      </trkpt>
      <trkpt lat="43.65587" lon="1.44614">
        <ele>134.2998</ele>
        <time>2024-07-13T15:26:17+02:00</time>
      </trkpt>
      <trkpt lat="43.65587" lon="1.44615">
        <ele>134.2998</ele>
        <time>2024-07-13T15:26:21+02:00</time>
      </trkpt>
      <trkpt lat="43.65587" lon="1.44615">
        <ele>134.2998</ele>
        <time>2024-07-13T15:26:22+02:00</time>
      </trkpt>
      <trkpt lat="43.65587" lon="1.44615">
        <ele>134.2998</ele>
        <time>2024-07-13T15:26:26+02:00</time>
      </trkpt>
      <trkpt lat="43.65587" lon="1.44615">
        <ele>134.2998</ele>
        <time>2024-07-13T15:26:27+02:00</time>
      </trkpt>
      <trkpt lat="43.65588" lon="1.44614">
        <ele>134.2998</ele>
        <time>2024-07-13T15:26:31+02:00</time>
      </trkpt>
      <trkpt lat="43.65588" lon="1.44614">
        <ele>134.2998</ele>
        <time>2024-07-13T15:26:32+02:00</time>
      </trkpt>
      <trkpt lat="43.65588" lon="1.44614">
        <ele>134.2998</ele>
        <time>2024-07-13T15:26:36+02:00</time>
      </trkpt>
      <trkpt lat="43.65588" lon="1.44614">
        <ele>134.2998</ele>
        <time>2024-07-13T15:26:37+02:00</time>
      </trkpt>
      <trkpt lat="43.65588" lon="1.44614">
        <ele>134.2998</ele>
        <time>2024-07-13T15:26:41+02:00</time>
      </trkpt>
      <trkpt lat="43.65588" lon="1.44614">
        <ele>134.2998</ele>
        <time>2024-07-13T15:26:42+02:00</time>
      </trkpt>
      <trkpt lat="43.65588" lon="1.44614">
        <ele>134.2998</ele>
        <time>2024-07-13T15:26:46+02:00</time>
      </trkpt>
      <trkpt lat="43.65588" lon="1.44614">
        <ele>134.2998</ele>
        <time>2024-07-13T15:26:47+02:00</time>
      </trkpt>
      <trkpt lat="43.65587" lon="1.44614">
        <ele>134.2998</ele>
        <time>2024-07-13T15:26:51+02:00</time>
      </trkpt>
      <trkpt lat="43.65587" lon="1.44614">
        <ele>134.2998</ele>
        <time>2024-07-13T15:26:52+02:00</time>
      </trkpt>
      <trkpt lat="43.65588" lon="1.44614">
        <ele>134.2998</ele>
        <time>2024-07-13T15:26:56+02:00</time>
      </trkpt>
      <trkpt lat="43.65588" lon="1.44614">
        <ele>134.2998</ele>
        <time>2024-07-13T15:26:57+02:00</time>
      </trkpt>
      <trkpt lat="43.65588" lon="1.44614">
        <ele>134.2998</ele>
        <time>2024-07-13T15:27:01+02:00</time>
      </trkpt>
      <trkpt lat="43.65588" lon="1.44614">
        <ele>134.2998</ele>
        <time>2024-07-13T15:27:02+02:00</time>
      </trkpt>
      <trkpt lat="43.65588" lon="1.44614">
        <ele>134.2998</ele>
        <time>2024-07-13T15:27:06+02:00</time>
      </trkpt>
      <trkpt lat="43.65588" lon="1.44614">
        <ele>134.2998</ele>
        <time>2024-07-13T15:27:07+02:00</time>
      </trkpt>
      <trkpt lat="43.65588" lon="1.44614">
        <ele>134.2998</ele>
        <time>2024-07-13T15:27:11+02:00</time>
      </trkpt>
      <trkpt lat="43.65588" lon="1.44614">
        <ele>134.2998</ele>
        <time>2024-07-13T15:27:12+02:00</time>
      </trkpt>
      <trkpt lat="43.65588" lon="1.44614">
        <ele>134.2998</ele>
        <time>2024-07-13T15:27:16+02:00</time>
      </trkpt>
      <trkpt lat="43.65588" lon="1.44614">
        <ele>134.2998</ele>
        <time>2024-07-13T15:27:17+02:00</time>
      </trkpt>
      <trkpt lat="43.65588" lon="1.44614">
        <ele>134.2998</ele>
        <time>2024-07-13T15:27:21+02:00</time>
      </trkpt>
      <trkpt lat="43.65588" lon="1.44614">
        <ele>134.2998</ele>
        <time>2024-07-13T15:27:22+02:00</time>
      </trkpt>
      <trkpt lat="43.65588" lon="1.44614">
        <ele>134.2998</ele>
        <time>2024-07-13T15:27:26+02:00</time>
      </trkpt>
      <trkpt lat="43.65587" lon="1.44614">
        <ele>134.2998</ele>
        <time>2024-07-13T15:27:27+02:00</time>
      </trkpt>
      <trkpt lat="43.65587" lon="1.44614">
        <ele>134.2998</ele>
        <time>2024-07-13T15:27:31+02:00</time>
      </trkpt>
      <trkpt lat="43.65587" lon="1.44614">
        <ele>134.2998</ele>
        <time>2024-07-13T15:27:32+02:00</time>
      </trkpt>
      <trkpt lat="43.65587" lon="1.44614">
        <ele>134.2998</ele>
        <time>2024-07-13T15:27:36+02:00</time>
      </trkpt>
      <trkpt lat="43.65587" lon="1.44614">
        <ele>134.2998</ele>
        <time>2024-07-13T15:27:37+02:00</time>
      </trkpt>
      <trkpt lat="43.65587" lon="1.44614">
        <ele>134.2998</ele>
        <time>2024-07-13T15:27:40+02:00</time>
      </trkpt>
      <trkpt lat="43.65587" lon="1.44614">
        <ele>134.2998</ele>
        <time>2024-07-13T15:27:45+02:00</time>
      </trkpt>
      <trkpt lat="43.65587" lon="1.44614">
        <ele>134.2998</ele>
        <time>2024-07-13T15:27:48+02:00</time>
      </trkpt>
      <trkpt lat="43.65587" lon="1.44615">
        <ele>134.2998</ele>
        <time>2024-07-13T15:27:49+02:00</time>
      </trkpt>
      <trkpt lat="43.6559" lon="1.44616">
        <ele>134.2002</ele>
        <time>2024-07-13T15:27:53+02:00</time>
      </trkpt>
      <trkpt lat="43.65591" lon="1.44616">
        <ele>134.40039</ele>
        <time>2024-07-13T15:27:54+02:00</time>
      </trkpt>
      <trkpt lat="43.65599" lon="1.44622">
        <ele>134.2998</ele>
        <time>2024-07-13T15:27:58+02:00</time>
      </trkpt>
      <trkpt lat="43.65601" lon="1.44623">
        <ele>134.2998</ele>
        <time>2024-07-13T15:27:59+02:00</time>
      </trkpt>
      <trkpt lat="43.65609" lon="1.44627">
        <ele>134.40039</ele>
        <time>2024-07-13T15:28:03+02:00</time>
      </trkpt>
      <trkpt lat="43.65611" lon="1.44629">
        <ele>134.40039</ele>
        <time>2024-07-13T15:28:04+02:00</time>
      </trkpt>
      <trkpt lat="43.65611" lon="1.44644">
        <ele>134.60059</ele>
        <time>2024-07-13T15:28:08+02:00</time>
      </trkpt>
      <trkpt lat="43.6561" lon="1.44649">
        <ele>134.60059</ele>
        <time>2024-07-13T15:28:09+02:00</time>
      </trkpt>
      <trkpt lat="43.65608" lon="1.44667">
        <ele>134.7998</ele>
        <time>2024-07-13T15:28:13+02:00</time>
      </trkpt>
      <trkpt lat="43.65606" lon="1.4467">
        <ele>134.90039</ele>
        <time>2024-07-13T15:28:14+02:00</time>
      </trkpt>
      <trkpt lat="43.65595" lon="1.44683">
        <ele>135</ele>
        <time>2024-07-13T15:28:18+02:00</time>
      </trkpt>
      <trkpt lat="43.65593" lon="1.44688">
        <ele>135</ele>
        <time>2024-07-13T15:28:19+02:00</time>
      </trkpt>
      <trkpt lat="43.65583" lon="1.44707">
        <ele>135.10059</ele>
        <time>2024-07-13T15:28:23+02:00</time>
      </trkpt>
      <trkpt lat="43.65581" lon="1.44712">
        <ele>135.10059</ele>
        <time>2024-07-13T15:28:24+02:00</time>
      </trkpt>
      <trkpt lat="43.65572" lon="1.4473">
        <ele>135.10059</ele>
        <time>2024-07-13T15:28:28+02:00</time>
      </trkpt>
      <trkpt lat="43.6557" lon="1.44735">
        <ele>135.2002</ele>
        <time>2024-07-13T15:28:29+02:00</time>
      </trkpt>
      <trkpt lat="43.65558" lon="1.44755">
        <ele>135.2002</ele>
        <time>2024-07-13T15:28:33+02:00</time>
      </trkpt>
      <trkpt lat="43.65556" lon="1.4476">
        <ele>135.2002</ele>
        <time>2024-07-13T15:28:34+02:00</time>
      </trkpt>
      <trkpt lat="43.65544" lon="1.44783">
        <ele>135.2002</ele>
        <time>2024-07-13T15:28:38+02:00</time>
      </trkpt>
      <trkpt lat="43.65541" lon="1.44789">
        <ele>135.2002</ele>
        <time>2024-07-13T15:28:39+02:00</time>
      </trkpt>
      <trkpt lat="43.65529" lon="1.44809">
        <ele>135.10059</ele>
        <time>2024-07-13T15:28:43+02:00</time>
      </trkpt>
      <trkpt lat="43.65525" lon="1.44813">
        <ele>135.10059</ele>
        <time>2024-07-13T15:28:44+02:00</time>
      </trkpt>
      <trkpt lat="43.65513" lon="1.44834">
        <ele>135</ele>
        <time>2024-07-13T15:28:48+02:00</time>
      </trkpt>
      <trkpt lat="43.65511" lon="1.4484">
        <ele>135</ele>
        <time>2024-07-13T15:28:49+02:00</time>
      </trkpt>
      <trkpt lat="43.65505" lon="1.44864">
        <ele>135</ele>
        <time>2024-07-13T15:28:53+02:00</time>
      </trkpt>
      <trkpt lat="43.65503" lon="1.4487">
        <ele>135</ele>
        <time>2024-07-13T15:28:54+02:00</time>
      </trkpt>
      <trkpt lat="43.65492" lon="1.44891">
        <ele>136.10059</ele>
        <time>2024-07-13T15:28:58+02:00</time>
      </trkpt>
      <trkpt lat="43.65489" lon="1.44897">
        <ele>136.5</ele>
        <time>2024-07-13T15:28:59+02:00</time>
      </trkpt>
      <trkpt lat="43.65481" lon="1.44919">
        <ele>137.7998</ele>
        <time>2024-07-13T15:29:03+02:00</time>
      </trkpt>
      <trkpt lat="43.65479" lon="1.44925">
        <ele>137.7998</ele>
        <time>2024-07-13T15:29:04+02:00</time>
      </trkpt>
      <trkpt lat="43.65483" lon="1.44947">
        <ele>138.2998</ele>
        <time>2024-07-13T15:29:08+02:00</time>
      </trkpt>
      <trkpt lat="43.65486" lon="1.44952">
        <ele>137.7998</ele>
        <time>2024-07-13T15:29:09+02:00</time>
      </trkpt>
      <trkpt lat="43.65497" lon="1.44967">
        <ele>136.7002</ele>
        <time>2024-07-13T15:29:13+02:00</time>
      </trkpt>
      <trkpt lat="43.65498" lon="1.4497">
        <ele>136.7002</ele>
        <time>2024-07-13T15:29:14+02:00</time>
      </trkpt>
      <trkpt lat="43.65512" lon="1.4499">
        <ele>135.40039</ele>
        <time>2024-07-13T15:29:18+02:00</time>
      </trkpt>
      <trkpt lat="43.65516" lon="1.44995">
        <ele>135</ele>
        <time>2024-07-13T15:29:19+02:00</time>
      </trkpt>
      <trkpt lat="43.65527" lon="1.45014">
        <ele>134.7998</ele>
        <time>2024-07-13T15:29:23+02:00</time>
      </trkpt>
      <trkpt lat="43.6553" lon="1.45019">
        <ele>134.7998</ele>
        <time>2024-07-13T15:29:24+02:00</time>
      </trkpt>
      <trkpt lat="43.65544" lon="1.45037">
        <ele>134.7002</ele>
        <time>2024-07-13T15:29:28+02:00</time>
      </trkpt>
      <trkpt lat="43.65545" lon="1.45039">
        <ele>134.7002</ele>
        <time>2024-07-13T15:29:29+02:00</time>
      </trkpt>
      <trkpt lat="43.65561" lon="1.4506">
        <ele>134.7002</ele>
        <time>2024-07-13T15:29:33+02:00</time>
      </trkpt>
      <trkpt lat="43.65563" lon="1.45063">
        <ele>134.7002</ele>
        <time>2024-07-13T15:29:34+02:00</time>
      </trkpt>
      <trkpt lat="43.65575" lon="1.4508">
        <ele>134.60059</ele>
        <time>2024-07-13T15:29:38+02:00</time>
      </trkpt>
      <trkpt lat="43.65578" lon="1.45085">
        <ele>134.60059</ele>
        <time>2024-07-13T15:29:39+02:00</time>
      </trkpt>
      <trkpt lat="43.65591" lon="1.45103">
        <ele>134.2998</ele>
        <time>2024-07-13T15:29:43+02:00</time>
      </trkpt>
      <trkpt lat="43.65594" lon="1.45107">
        <ele>134.2002</ele>
        <time>2024-07-13T15:29:44+02:00</time>
      </trkpt>
      <trkpt lat="43.65598" lon="1.45122">
        <ele>134</ele>
        <time>2024-07-13T15:29:48+02:00</time>
      </trkpt>
      <trkpt lat="43.65596" lon="1.45124">
        <ele>133.90039</ele>
        <time>2024-07-13T15:29:49+02:00</time>
      </trkpt>
      <trkpt lat="43.6558" lon="1.45129">
        <ele>134.2998</ele>
        <time>2024-07-13T15:29:53+02:00</time>
      </trkpt>
      <trkpt lat="43.65576" lon="1.45132">
        <ele>134.2002</ele>
        <time>2024-07-13T15:29:54+02:00</time>
      </trkpt>
      <trkpt lat="43.6556" lon="1.45146">
        <ele>134.5</ele>
        <time>2024-07-13T15:29:58+02:00</time>
      </trkpt>
      <trkpt lat="43.65554" lon="1.45149">
        <ele>134.60059</ele>
        <time>2024-07-13T15:29:59+02:00</time>
      </trkpt>
      <trkpt lat="43.65534" lon="1.45164">
        <ele>135</ele>
        <time>2024-07-13T15:30:03+02:00</time>
      </trkpt>
      <trkpt lat="43.6553" lon="1.45166">
        <ele>135.2002</ele>
        <time>2024-07-13T15:30:04+02:00</time>
      </trkpt>
      <trkpt lat="43.65511" lon="1.45179">
        <ele>135.7002</ele>
        <time>2024-07-13T15:30:08+02:00</time>
      </trkpt>
      <trkpt lat="43.65507" lon="1.45182">
        <ele>135.7998</ele>
        <time>2024-07-13T15:30:09+02:00</time>
      </trkpt>
      <trkpt lat="43.65489" lon="1.45193">
        <ele>136.2002</ele>
        <time>2024-07-13T15:30:13+02:00</time>
      </trkpt>
      <trkpt lat="43.65485" lon="1.45196">
        <ele>136.2002</ele>
        <time>2024-07-13T15:30:14+02:00</time>
      </trkpt>
      <trkpt lat="43.65473" lon="1.45208">
        <ele>136.2998</ele>
        <time>2024-07-13T15:30:18+02:00</time>
      </trkpt>
      <trkpt lat="43.65469" lon="1.45211">
        <ele>136.40039</ele>
        <time>2024-07-13T15:30:19+02:00</time>
      </trkpt>
      <trkpt lat="43.65449" lon="1.45225">
        <ele>136.2002</ele>
        <time>2024-07-13T15:30:23+02:00</time>
      </trkpt>
      <trkpt lat="43.65445" lon="1.45228">
        <ele>136.2002</ele>
        <time>2024-07-13T15:30:24+02:00</time>
      </trkpt>
      <trkpt lat="43.65425" lon="1.45237">
        <ele>136</ele>
        <time>2024-07-13T15:30:28+02:00</time>
      </trkpt>
      <trkpt lat="43.65421" lon="1.45239">
        <ele>136</ele>
        <time>2024-07-13T15:30:29+02:00</time>
      </trkpt>
      <trkpt lat="43.65402" lon="1.45246">
        <ele>135.90039</ele>
        <time>2024-07-13T15:30:33+02:00</time>
      </trkpt>
      <trkpt lat="43.65398" lon="1.45251">
        <ele>135.90039</ele>
        <time>2024-07-13T15:30:34+02:00</time>
      </trkpt>
      <trkpt lat="43.65384" lon="1.45272">
        <ele>135.60059</ele>
        <time>2024-07-13T15:30:38+02:00</time>
      </trkpt>
      <trkpt lat="43.6538" lon="1.45278">
        <ele>135.5</ele>
        <time>2024-07-13T15:30:39+02:00</time>
      </trkpt>
      <trkpt lat="43.6537" lon="1.45295">
        <ele>135.2998</ele>
        <time>2024-07-13T15:30:43+02:00</time>
      </trkpt>
      <trkpt lat="43.65371" lon="1.45297">
        <ele>135.2998</ele>
        <time>2024-07-13T15:30:44+02:00</time>
      </trkpt>
      <trkpt lat="43.65384" lon="1.45312">
        <ele>135.2002</ele>
        <time>2024-07-13T15:30:48+02:00</time>
      </trkpt>
      <trkpt lat="43.65387" lon="1.45316">
        <ele>135.2002</ele>
        <time>2024-07-13T15:30:49+02:00</time>
      </trkpt>
      <trkpt lat="43.654" lon="1.45333">
        <ele>135</ele>
        <time>2024-07-13T15:30:53+02:00</time>
      </trkpt>
      <trkpt lat="43.65403" lon="1.45337">
        <ele>135</ele>
        <time>2024-07-13T15:30:54+02:00</time>
      </trkpt>
      <trkpt lat="43.65415" lon="1.45353">
        <ele>135</ele>
        <time>2024-07-13T15:30:58+02:00</time>
      </trkpt>
      <trkpt lat="43.65418" lon="1.45354">
        <ele>135</ele>
        <time>2024-07-13T15:30:59+02:00</time>
      </trkpt>
      <trkpt lat="43.65431" lon="1.45356">
        <ele>134.90039</ele>
        <time>2024-07-13T15:31:03+02:00</time>
      </trkpt>
      <trkpt lat="43.65434" lon="1.45358">
        <ele>134.7998</ele>
        <time>2024-07-13T15:31:04+02:00</time>
      </trkpt>
      <trkpt lat="43.65446" lon="1.45367">
        <ele>134.7002</ele>
        <time>2024-07-13T15:31:08+02:00</time>
      </trkpt>
      <trkpt lat="43.6545" lon="1.45368">
        <ele>134.5</ele>
        <time>2024-07-13T15:31:09+02:00</time>
      </trkpt>
      <trkpt lat="43.65469" lon="1.45373">
        <ele>134.10059</ele>
        <time>2024-07-13T15:31:13+02:00</time>
      </trkpt>
      <trkpt lat="43.65474" lon="1.45375">
        <ele>133.90039</ele>
        <time>2024-07-13T15:31:14+02:00</time>
      </trkpt>
      <trkpt lat="43.65494" lon="1.45383">
        <ele>133.60059</ele>
        <time>2024-07-13T15:31:18+02:00</time>
      </trkpt>
      <trkpt lat="43.65499" lon="1.45385">
        <ele>133.5</ele>
        <time>2024-07-13T15:31:19+02:00</time>
      </trkpt>
      <trkpt lat="43.65519" lon="1.45393">
        <ele>133.2998</ele>
        <time>2024-07-13T15:31:23+02:00</time>
      </trkpt>
      <trkpt lat="43.65524" lon="1.45394">
        <ele>133.2998</ele>
        <time>2024-07-13T15:31:24+02:00</time>
      </trkpt>
      <trkpt lat="43.65545" lon="1.45402">
        <ele>133.2998</ele>
        <time>2024-07-13T15:31:28+02:00</time>
      </trkpt>
      <trkpt lat="43.65551" lon="1.45404">
        <ele>133.2998</ele>
        <time>2024-07-13T15:31:29+02:00</time>
      </trkpt>
      <trkpt lat="43.65572" lon="1.45411">
        <ele>133.2998</ele>
        <time>2024-07-13T15:31:33+02:00</time>
      </trkpt>
      <trkpt lat="43.65578" lon="1.45413">
        <ele>133.2998</ele>
        <time>2024-07-13T15:31:34+02:00</time>
      </trkpt>
      <trkpt lat="43.656" lon="1.45421">
        <ele>133.40039</ele>
        <time>2024-07-13T15:31:38+02:00</time>
      </trkpt>
      <trkpt lat="43.65606" lon="1.45423">
        <ele>133.5</ele>
        <time>2024-07-13T15:31:39+02:00</time>
      </trkpt>
      <trkpt lat="43.65627" lon="1.45431">
        <ele>133.7002</ele>
        <time>2024-07-13T15:31:43+02:00</time>
      </trkpt>
      <trkpt lat="43.65632" lon="1.45434">
        <ele>133.7002</ele>
        <time>2024-07-13T15:31:44+02:00</time>
      </trkpt>
      <trkpt lat="43.65653" lon="1.45443">
        <ele>133.90039</ele>
        <time>2024-07-13T15:31:48+02:00</time>
      </trkpt>
      <trkpt lat="43.65658" lon="1.45445">
        <ele>133.90039</ele>
        <time>2024-07-13T15:31:49+02:00</time>
      </trkpt>
      <trkpt lat="43.65679" lon="1.45453">
        <ele>134.2002</ele>
        <time>2024-07-13T15:31:53+02:00</time>
      </trkpt>
      <trkpt lat="43.65684" lon="1.45455">
        <ele>134.2002</ele>
        <time>2024-07-13T15:31:54+02:00</time>
      </trkpt>
      <trkpt lat="43.65704" lon="1.45464">
        <ele>134.5</ele>
        <time>2024-07-13T15:31:58+02:00</time>
      </trkpt>
      <trkpt lat="43.6571" lon="1.45466">
        <ele>134.7002</ele>
        <time>2024-07-13T15:31:59+02:00</time>
      </trkpt>
      <trkpt lat="43.65731" lon="1.45475">
        <ele>135.2002</ele>
        <time>2024-07-13T15:32:03+02:00</time>
      </trkpt>
      <trkpt lat="43.65736" lon="1.45476">
        <ele>135.2002</ele>
        <time>2024-07-13T15:32:04+02:00</time>
      </trkpt>
      <trkpt lat="43.65757" lon="1.45479">
        <ele>135.5</ele>
        <time>2024-07-13T15:32:08+02:00</time>
      </trkpt>
      <trkpt lat="43.65763" lon="1.4548">
        <ele>135.5</ele>
        <time>2024-07-13T15:32:09+02:00</time>
      </trkpt>
      <trkpt lat="43.65783" lon="1.45486">
        <ele>135.7002</ele>
        <time>2024-07-13T15:32:13+02:00</time>
      </trkpt>
      <trkpt lat="43.65788" lon="1.45487">
        <ele>135.7002</ele>
        <time>2024-07-13T15:32:14+02:00</time>
      </trkpt>
      <trkpt lat="43.65808" lon="1.45496">
        <ele>135.7002</ele>
        <time>2024-07-13T15:32:18+02:00</time>
      </trkpt>
      <trkpt lat="43.65813" lon="1.45495">
        <ele>135.7002</ele>
        <time>2024-07-13T15:32:19+02:00</time>
      </trkpt>
      <trkpt lat="43.65833" lon="1.45487">
        <ele>135.5</ele>
        <time>2024-07-13T15:32:23+02:00</time>
      </trkpt>
      <trkpt lat="43.65837" lon="1.45486">
        <ele>135.40039</ele>
        <time>2024-07-13T15:32:24+02:00</time>
      </trkpt>
      <trkpt lat="43.65854" lon="1.45479">
        <ele>135.2998</ele>
        <time>2024-07-13T15:32:28+02:00</time>
      </trkpt>
      <trkpt lat="43.65859" lon="1.45478">
        <ele>135.2002</ele>
        <time>2024-07-13T15:32:29+02:00</time>
      </trkpt>
      <trkpt lat="43.65878" lon="1.45474">
        <ele>135</ele>
        <time>2024-07-13T15:32:33+02:00</time>
      </trkpt>
      <trkpt lat="43.65883" lon="1.45473">
        <ele>135</ele>
        <time>2024-07-13T15:32:34+02:00</time>
      </trkpt>
      <trkpt lat="43.65898" lon="1.45471">
        <ele>134.90039</ele>
        <time>2024-07-13T15:32:38+02:00</time>
      </trkpt>
      <trkpt lat="43.65903" lon="1.45471">
        <ele>134.7998</ele>
        <time>2024-07-13T15:32:39+02:00</time>
      </trkpt>
      <trkpt lat="43.65921" lon="1.45469">
        <ele>134.90039</ele>
        <time>2024-07-13T15:32:43+02:00</time>
      </trkpt>
      <trkpt lat="43.65925" lon="1.45468">
        <ele>135</ele>
        <time>2024-07-13T15:32:44+02:00</time>
      </trkpt>
      <trkpt lat="43.6594" lon="1.45453">
        <ele>135.5</ele>
        <time>2024-07-13T15:32:48+02:00</time>
      </trkpt>
      <trkpt lat="43.65943" lon="1.45448">
        <ele>135.7998</ele>
        <time>2024-07-13T15:32:49+02:00</time>
      </trkpt>
      <trkpt lat="43.65952" lon="1.45439">
        <ele>136</ele>
        <time>2024-07-13T15:32:53+02:00</time>
      </trkpt>
      <trkpt lat="43.65955" lon="1.45439">
        <ele>136</ele>
        <time>2024-07-13T15:32:54+02:00</time>
      </trkpt>
      <trkpt lat="43.65968" lon="1.45452">
        <ele>136.10059</ele>
        <time>2024-07-13T15:32:58+02:00</time>
      </trkpt>
      <trkpt lat="43.65971" lon="1.45456">
        <ele>136.10059</ele>
        <time>2024-07-13T15:32:59+02:00</time>
      </trkpt>
      <trkpt lat="43.65985" lon="1.45476">
        <ele>135.7998</ele>
        <time>2024-07-13T15:33:03+02:00</time>
      </trkpt>
      <trkpt lat="43.65989" lon="1.45479">
        <ele>135.90039</ele>
        <time>2024-07-13T15:33:04+02:00</time>
      </trkpt>
      <trkpt lat="43.66008" lon="1.45487">
        <ele>135.7998</ele>
        <time>2024-07-13T15:33:08+02:00</time>
      </trkpt>
      <trkpt lat="43.66013" lon="1.45491">
        <ele>135.7998</ele>
        <time>2024-07-13T15:33:09+02:00</time>
      </trkpt>
      <trkpt lat="43.66033" lon="1.45511">
        <ele>135.2002</ele>
        <time>2024-07-13T15:33:13+02:00</time>
      </trkpt>
      <trkpt lat="43.66038" lon="1.45516">
        <ele>135.2002</ele>
        <time>2024-07-13T15:33:14+02:00</time>
      </trkpt>
      <trkpt lat="43.66059" lon="1.45529">
        <ele>134.7002</ele>
        <time>2024-07-13T15:33:18+02:00</time>
      </trkpt>
      <trkpt lat="43.66064" lon="1.45532">
        <ele>134.7002</ele>
        <time>2024-07-13T15:33:19+02:00</time>
      </trkpt>
      <trkpt lat="43.66081" lon="1.45531">
        <ele>134.40039</ele>
        <time>2024-07-13T15:33:23+02:00</time>
      </trkpt>
      <trkpt lat="43.66085" lon="1.45529">
        <ele>134.40039</ele>
        <time>2024-07-13T15:33:24+02:00</time>
      </trkpt>
      <trkpt lat="43.66105" lon="1.45538">
        <ele>133.7002</ele>
        <time>2024-07-13T15:33:28+02:00</time>
      </trkpt>
      <trkpt lat="43.66109" lon="1.45541">
        <ele>133.7002</ele>
        <time>2024-07-13T15:33:29+02:00</time>
      </trkpt>
      <trkpt lat="43.66119" lon="1.45548">
        <ele>133.2002</ele>
        <time>2024-07-13T15:33:33+02:00</time>
      </trkpt>
      <trkpt lat="43.66122" lon="1.4555">
        <ele>133.2002</ele>
        <time>2024-07-13T15:33:34+02:00</time>
      </trkpt>
      <trkpt lat="43.66132" lon="1.4556">
        <ele>132.2002</ele>
        <time>2024-07-13T15:33:38+02:00</time>
      </trkpt>
      <trkpt lat="43.66135" lon="1.45563">
        <ele>132.2002</ele>
        <time>2024-07-13T15:33:39+02:00</time>
      </trkpt>
      <trkpt lat="43.66147" lon="1.45573">
        <ele>131.40039</ele>
        <time>2024-07-13T15:33:43+02:00</time>
      </trkpt>
      <trkpt lat="43.66149" lon="1.45575">
        <ele>131.10059</ele>
        <time>2024-07-13T15:33:44+02:00</time>
      </trkpt>
      <trkpt lat="43.66158" lon="1.45583">
        <ele>130.7002</ele>
        <time>2024-07-13T15:33:48+02:00</time>
      </trkpt>
      <trkpt lat="43.66162" lon="1.45586">
        <ele>130.40039</ele>
        <time>2024-07-13T15:33:49+02:00</time>
      </trkpt>
      <trkpt lat="43.66174" lon="1.45604">
        <ele>129.90039</ele>
        <time>2024-07-13T15:33:53+02:00</time>
      </trkpt>
      <trkpt lat="43.66177" lon="1.45609">
        <ele>129.90039</ele>
        <time>2024-07-13T15:33:54+02:00</time>
      </trkpt>
      <trkpt lat="43.66193" lon="1.45627">
        <ele>129.5</ele>
        <time>2024-07-13T15:33:58+02:00</time>
      </trkpt>
      <trkpt lat="43.66196" lon="1.4563">
        <ele>129.60059</ele>
        <time>2024-07-13T15:33:59+02:00</time>
      </trkpt>
      <trkpt lat="43.66205" lon="1.45632">
        <ele>129.2998</ele>
        <time>2024-07-13T15:34:01+02:00</time>
      </trkpt>
      <trkpt lat="43.66213" lon="1.45622">
        <ele>129.2002</ele>
        <time>2024-07-13T15:34:03+02:00</time>
      </trkpt>
      <trkpt lat="43.66215" lon="1.45615">
        <ele>129.10059</ele>
        <time>2024-07-13T15:34:04+02:00</time>
      </trkpt>
      <trkpt lat="43.66221" lon="1.45588">
        <ele>129</ele>
        <time>2024-07-13T15:34:08+02:00</time>
      </trkpt>
      <trkpt lat="43.66223" lon="1.45582">
        <ele>128.90039</ele>
        <time>2024-07-13T15:34:09+02:00</time>
      </trkpt>
      <trkpt lat="43.66231" lon="1.45556">
        <ele>129</ele>
        <time>2024-07-13T15:34:13+02:00</time>
      </trkpt>
      <trkpt lat="43.66233" lon="1.4555">
        <ele>129.2002</ele>
        <time>2024-07-13T15:34:14+02:00</time>
      </trkpt>
      <trkpt lat="43.66241" lon="1.45525">
        <ele>129.60059</ele>
        <time>2024-07-13T15:34:18+02:00</time>
      </trkpt>
      <trkpt lat="43.66242" lon="1.45518">
        <ele>129.60059</ele>
        <time>2024-07-13T15:34:19+02:00</time>
      </trkpt>
      <trkpt lat="43.66249" lon="1.45493">
        <ele>130</ele>
        <time>2024-07-13T15:34:23+02:00</time>
      </trkpt>
      <trkpt lat="43.66251" lon="1.45487">
        <ele>130.10059</ele>
        <time>2024-07-13T15:34:24+02:00</time>
      </trkpt>
      <trkpt lat="43.66259" lon="1.45461">
        <ele>130.2002</ele>
        <time>2024-07-13T15:34:28+02:00</time>
      </trkpt>
      <trkpt lat="43.6626" lon="1.45454">
        <ele>130.2002</ele>
        <time>2024-07-13T15:34:29+02:00</time>
      </trkpt>
      <trkpt lat="43.66269" lon="1.45418">
        <ele>130.10059</ele>
        <time>2024-07-13T15:34:34+02:00</time>
      </trkpt>
      <trkpt lat="43.6627" lon="1.45411">
        <ele>130.10059</ele>
        <time>2024-07-13T15:34:35+02:00</time>
      </trkpt>
      <trkpt lat="43.66278" lon="1.45387">
        <ele>130</ele>
        <time>2024-07-13T15:34:39+02:00</time>
      </trkpt>
      <trkpt lat="43.6628" lon="1.45381">
        <ele>130</ele>
        <time>2024-07-13T15:34:40+02:00</time>
      </trkpt>
      <trkpt lat="43.66288" lon="1.45361">
        <ele>129.7998</ele>
        <time>2024-07-13T15:34:44+02:00</time>
      </trkpt>
      <trkpt lat="43.6629" lon="1.45356">
        <ele>129.7998</ele>
        <time>2024-07-13T15:34:45+02:00</time>
      </trkpt>
      <trkpt lat="43.66297" lon="1.45335">
        <ele>129.7998</ele>
        <time>2024-07-13T15:34:49+02:00</time>
      </trkpt>
      <trkpt lat="43.663" lon="1.4533">
        <ele>129.7998</ele>
        <time>2024-07-13T15:34:50+02:00</time>
      </trkpt>
      <trkpt lat="43.6631" lon="1.45309">
        <ele>129.90039</ele>
        <time>2024-07-13T15:34:54+02:00</time>
      </trkpt>
      <trkpt lat="43.66313" lon="1.45304">
        <ele>129.90039</ele>
        <time>2024-07-13T15:34:55+02:00</time>
      </trkpt>
      <trkpt lat="43.66324" lon="1.45283">
        <ele>130</ele>
        <time>2024-07-13T15:34:59+02:00</time>
      </trkpt>
      <trkpt lat="43.66327" lon="1.45277">
        <ele>130.2002</ele>
        <time>2024-07-13T15:35:00+02:00</time>
      </trkpt>
      <trkpt lat="43.66337" lon="1.45254">
        <ele>130.10059</ele>
        <time>2024-07-13T15:35:04+02:00</time>
      </trkpt>
      <trkpt lat="43.66339" lon="1.4525">
        <ele>130.2002</ele>
        <time>2024-07-13T15:35:05+02:00</time>
      </trkpt>
      <trkpt lat="43.66345" lon="1.4524">
        <ele>130</ele>
        <time>2024-07-13T15:35:09+02:00</time>
      </trkpt>
      <trkpt lat="43.66348" lon="1.45236">
        <ele>129.7002</ele>
        <time>2024-07-13T15:35:10+02:00</time>
      </trkpt>
      <trkpt lat="43.66354" lon="1.4521">
        <ele>130.10059</ele>
        <time>2024-07-13T15:35:14+02:00</time>
      </trkpt>
      <trkpt lat="43.66355" lon="1.45205">
        <ele>130.2002</ele>
        <time>2024-07-13T15:35:15+02:00</time>
      </trkpt>
      <trkpt lat="43.66363" lon="1.45181">
        <ele>130</ele>
        <time>2024-07-13T15:35:19+02:00</time>
      </trkpt>
      <trkpt lat="43.66364" lon="1.45174">
        <ele>130</ele>
        <time>2024-07-13T15:35:20+02:00</time>
      </trkpt>
      <trkpt lat="43.66359" lon="1.45156">
        <ele>131.10059</ele>
        <time>2024-07-13T15:35:24+02:00</time>
      </trkpt>
      <trkpt lat="43.66362" lon="1.45152">
        <ele>131.10059</ele>
        <time>2024-07-13T15:35:25+02:00</time>
      </trkpt>
      <trkpt lat="43.66372" lon="1.45135">
        <ele>130.7998</ele>
        <time>2024-07-13T15:35:29+02:00</time>
      </trkpt>
      <trkpt lat="43.66374" lon="1.45129">
        <ele>131.10059</ele>
        <time>2024-07-13T15:35:30+02:00</time>
      </trkpt>
      <trkpt lat="43.66383" lon="1.45107">
        <ele>131.2998</ele>
        <time>2024-07-13T15:35:34+02:00</time>
      </trkpt>
      <trkpt lat="43.66386" lon="1.45101">
        <ele>131.10059</ele>
        <time>2024-07-13T15:35:35+02:00</time>
      </trkpt>
      <trkpt lat="43.66395" lon="1.45075">
        <ele>130.7998</ele>
        <time>2024-07-13T15:35:39+02:00</time>
      </trkpt>
      <trkpt lat="43.66396" lon="1.45067">
        <ele>130.5</ele>
        <time>2024-07-13T15:35:40+02:00</time>
      </trkpt>
      <trkpt lat="43.66407" lon="1.45039">
        <ele>131.2002</ele>
        <time>2024-07-13T15:35:44+02:00</time>
      </trkpt>
      <trkpt lat="43.66409" lon="1.45032">
        <ele>131</ele>
        <time>2024-07-13T15:35:45+02:00</time>
      </trkpt>
      <trkpt lat="43.66413" lon="1.45008">
        <ele>131.7998</ele>
        <time>2024-07-13T15:35:49+02:00</time>
      </trkpt>
      <trkpt lat="43.66414" lon="1.45002">
        <ele>132</ele>
        <time>2024-07-13T15:35:50+02:00</time>
      </trkpt>
      <trkpt lat="43.66419" lon="1.44974">
        <ele>131.60059</ele>
        <time>2024-07-13T15:35:54+02:00</time>
      </trkpt>
      <trkpt lat="43.6642" lon="1.44967">
        <ele>131.60059</ele>
        <time>2024-07-13T15:35:55+02:00</time>
      </trkpt>
      <trkpt lat="43.6643" lon="1.4494">
        <ele>131.2998</ele>
        <time>2024-07-13T15:35:59+02:00</time>
      </trkpt>
      <trkpt lat="43.66432" lon="1.44933">
        <ele>131.2998</ele>
        <time>2024-07-13T15:36:00+02:00</time>
      </trkpt>
      <trkpt lat="43.66442" lon="1.44906">
        <ele>130.7002</ele>
        <time>2024-07-13T15:36:04+02:00</time>
      </trkpt>
      <trkpt lat="43.66445" lon="1.449">
        <ele>130.7002</ele>
        <time>2024-07-13T15:36:05+02:00</time>
      </trkpt>
      <trkpt lat="43.66455" lon="1.44871">
        <ele>130.5</ele>
        <time>2024-07-13T15:36:09+02:00</time>
      </trkpt>
      <trkpt lat="43.66456" lon="1.44864">
        <ele>130.60059</ele>
        <time>2024-07-13T15:36:10+02:00</time>
      </trkpt>
      <trkpt lat="43.66463" lon="1.44836">
        <ele>130.5</ele>
        <time>2024-07-13T15:36:14+02:00</time>
      </trkpt>
      <trkpt lat="43.66466" lon="1.44829">
        <ele>130.5</ele>
        <time>2024-07-13T15:36:15+02:00</time>
      </trkpt>
      <trkpt lat="43.66476" lon="1.44802">
        <ele>130.60059</ele>
        <time>2024-07-13T15:36:19+02:00</time>
      </trkpt>
      <trkpt lat="43.6648" lon="1.44796">
        <ele>130.5</ele>
        <time>2024-07-13T15:36:20+02:00</time>
      </trkpt>
      <trkpt lat="43.66492" lon="1.4477">
        <ele>130.2002</ele>
        <time>2024-07-13T15:36:24+02:00</time>
      </trkpt>
      <trkpt lat="43.66495" lon="1.44763">
        <ele>130.2002</ele>
        <time>2024-07-13T15:36:25+02:00</time>
      </trkpt>
      <trkpt lat="43.66504" lon="1.44737">
        <ele>129.7998</ele>
        <time>2024-07-13T15:36:29+02:00</time>
      </trkpt>
      <trkpt lat="43.66506" lon="1.4473">
        <ele>129.7998</ele>
        <time>2024-07-13T15:36:30+02:00</time>
      </trkpt>
      <trkpt lat="43.66515" lon="1.44707">
        <ele>129.7002</ele>
        <time>2024-07-13T15:36:34+02:00</time>
      </trkpt>
      <trkpt lat="43.66517" lon="1.44705">
        <ele>129.7002</ele>
        <time>2024-07-13T15:36:35+02:00</time>
      </trkpt>
      <trkpt lat="43.66534" lon="1.44718">
        <ele>129.40039</ele>
        <time>2024-07-13T15:36:39+02:00</time>
      </trkpt>
      <trkpt lat="43.66539" lon="1.44722">
        <ele>129.40039</ele>
        <time>2024-07-13T15:36:40+02:00</time>
      </trkpt>
      <trkpt lat="43.66554" lon="1.44735">
        <ele>129.60059</ele>
        <time>2024-07-13T15:36:44+02:00</time>
      </trkpt>
      <trkpt lat="43.66559" lon="1.4474">
        <ele>129.7002</ele>
        <time>2024-07-13T15:36:45+02:00</time>
      </trkpt>
      <trkpt lat="43.66577" lon="1.44767">
        <ele>129.7998</ele>
        <time>2024-07-13T15:36:49+02:00</time>
      </trkpt>
      <trkpt lat="43.66582" lon="1.44773">
        <ele>129.7998</ele>
        <time>2024-07-13T15:36:50+02:00</time>
      </trkpt>
      <trkpt lat="43.66598" lon="1.44799">
        <ele>129.40039</ele>
        <time>2024-07-13T15:36:54+02:00</time>
      </trkpt>
      <trkpt lat="43.66602" lon="1.44805">
        <ele>129.40039</ele>
        <time>2024-07-13T15:36:55+02:00</time>
      </trkpt>
      <trkpt lat="43.66619" lon="1.44829">
        <ele>129.2002</ele>
        <time>2024-07-13T15:36:59+02:00</time>
      </trkpt>
      <trkpt lat="43.66623" lon="1.44835">
        <ele>129.10059</ele>
        <time>2024-07-13T15:37:00+02:00</time>
      </trkpt>
      <trkpt lat="43.6664" lon="1.44855">
        <ele>129.2002</ele>
        <time>2024-07-13T15:37:04+02:00</time>
      </trkpt>
      <trkpt lat="43.66645" lon="1.44858">
        <ele>129.2998</ele>
        <time>2024-07-13T15:37:05+02:00</time>
      </trkpt>
      <trkpt lat="43.66668" lon="1.44859">
        <ele>129.5</ele>
        <time>2024-07-13T15:37:09+02:00</time>
      </trkpt>
      <trkpt lat="43.66674" lon="1.44858">
        <ele>129.5</ele>
        <time>2024-07-13T15:37:10+02:00</time>
      </trkpt>
      <trkpt lat="43.66696" lon="1.4485">
        <ele>129.90039</ele>
        <time>2024-07-13T15:37:14+02:00</time>
      </trkpt>
      <trkpt lat="43.66702" lon="1.44846">
        <ele>130</ele>
        <time>2024-07-13T15:37:15+02:00</time>
      </trkpt>
      <trkpt lat="43.66723" lon="1.44826">
        <ele>130.40039</ele>
        <time>2024-07-13T15:37:19+02:00</time>
      </trkpt>
      <trkpt lat="43.66728" lon="1.44822">
        <ele>130.60059</ele>
        <time>2024-07-13T15:37:20+02:00</time>
      </trkpt>
      <trkpt lat="43.66751" lon="1.44821">
        <ele>130.60059</ele>
        <time>2024-07-13T15:37:24+02:00</time>
      </trkpt>
      <trkpt lat="43.66756" lon="1.44827">
        <ele>130.60059</ele>
        <time>2024-07-13T15:37:25+02:00</time>
      </trkpt>
      <trkpt lat="43.66759" lon="1.44863">
        <ele>130.2998</ele>
        <time>2024-07-13T15:37:29+02:00</time>
      </trkpt>
      <trkpt lat="43.66761" lon="1.4487">
        <ele>130.2998</ele>
        <time>2024-07-13T15:37:30+02:00</time>
      </trkpt>
      <trkpt lat="43.66779" lon="1.44892">
        <ele>130</ele>
        <time>2024-07-13T15:37:34+02:00</time>
      </trkpt>
      <trkpt lat="43.66783" lon="1.44896">
        <ele>130</ele>
        <time>2024-07-13T15:37:35+02:00</time>
      </trkpt>
      <trkpt lat="43.66804" lon="1.4491">
        <ele>129.7998</ele>
        <time>2024-07-13T15:37:39+02:00</time>
      </trkpt>
      <trkpt lat="43.6681" lon="1.44912">
        <ele>129.7998</ele>
        <time>2024-07-13T15:37:40+02:00</time>
      </trkpt>
      <trkpt lat="43.66831" lon="1.4492">
        <ele>129.7998</ele>
        <time>2024-07-13T15:37:44+02:00</time>
      </trkpt>
      <trkpt lat="43.66837" lon="1.44922">
        <ele>129.7998</ele>
        <time>2024-07-13T15:37:45+02:00</time>
      </trkpt>
      <trkpt lat="43.6686" lon="1.44928">
        <ele>129.7002</ele>
        <time>2024-07-13T15:37:49+02:00</time>
      </trkpt>
      <trkpt lat="43.66866" lon="1.44929">
        <ele>129.7002</ele>
        <time>2024-07-13T15:37:50+02:00</time>
      </trkpt>
      <trkpt lat="43.66889" lon="1.44934">
        <ele>129.7002</ele>
        <time>2024-07-13T15:37:54+02:00</time>
      </trkpt>
      <trkpt lat="43.66895" lon="1.44936">
        <ele>129.7002</ele>
        <time>2024-07-13T15:37:55+02:00</time>
      </trkpt>
      <trkpt lat="43.66917" lon="1.44943">
        <ele>129.60059</ele>
        <time>2024-07-13T15:37:59+02:00</time>
      </trkpt>
      <trkpt lat="43.66922" lon="1.44946">
        <ele>129.7002</ele>
        <time>2024-07-13T15:38:00+02:00</time>
      </trkpt>
      <trkpt lat="43.66934" lon="1.44971">
        <ele>129.5</ele>
        <time>2024-07-13T15:38:04+02:00</time>
      </trkpt>
      <trkpt lat="43.66937" lon="1.44978">
        <ele>129.5</ele>
        <time>2024-07-13T15:38:05+02:00</time>
      </trkpt>
      <trkpt lat="43.66947" lon="1.45004">
        <ele>129.40039</ele>
        <time>2024-07-13T15:38:09+02:00</time>
      </trkpt>
      <trkpt lat="43.66949" lon="1.4501">
        <ele>129.5</ele>
        <time>2024-07-13T15:38:10+02:00</time>
      </trkpt>
      <trkpt lat="43.66959" lon="1.45037">
        <ele>129.5</ele>
        <time>2024-07-13T15:38:14+02:00</time>
      </trkpt>
      <trkpt lat="43.66961" lon="1.45044">
        <ele>129.60059</ele>
        <time>2024-07-13T15:38:15+02:00</time>
      </trkpt>
      <trkpt lat="43.66975" lon="1.45069">
        <ele>129.7998</ele>
        <time>2024-07-13T15:38:19+02:00</time>
      </trkpt>
      <trkpt lat="43.66978" lon="1.45075">
        <ele>129.7998</ele>
        <time>2024-07-13T15:38:20+02:00</time>
      </trkpt>
      <trkpt lat="43.66991" lon="1.45097">
        <ele>130</ele>
        <time>2024-07-13T15:38:24+02:00</time>
      </trkpt>
      <trkpt lat="43.66994" lon="1.45103">
        <ele>130.10059</ele>
        <time>2024-07-13T15:38:25+02:00</time>
      </trkpt>
      <trkpt lat="43.67006" lon="1.45128">
        <ele>130.2998</ele>
        <time>2024-07-13T15:38:29+02:00</time>
      </trkpt>
      <trkpt lat="43.67009" lon="1.45134">
        <ele>130.2998</ele>
        <time>2024-07-13T15:38:30+02:00</time>
      </trkpt>
      <trkpt lat="43.67018" lon="1.4516">
        <ele>130.5</ele>
        <time>2024-07-13T15:38:34+02:00</time>
      </trkpt>
      <trkpt lat="43.67022" lon="1.45164">
        <ele>130.5</ele>
        <time>2024-07-13T15:38:35+02:00</time>
      </trkpt>
      <trkpt lat="43.67043" lon="1.45151">
        <ele>131.2002</ele>
        <time>2024-07-13T15:38:39+02:00</time>
      </trkpt>
      <trkpt lat="43.67048" lon="1.45147">
        <ele>131.2998</ele>
        <time>2024-07-13T15:38:40+02:00</time>
      </trkpt>
      <trkpt lat="43.6707" lon="1.45139">
        <ele>131.7998</ele>
        <time>2024-07-13T15:38:44+02:00</time>
      </trkpt>
      <trkpt lat="43.67074" lon="1.45144">
        <ele>132</ele>
        <time>2024-07-13T15:38:45+02:00</time>
      </trkpt>
      <trkpt lat="43.67085" lon="1.45169">
        <ele>132.10059</ele>
        <time>2024-07-13T15:38:49+02:00</time>
      </trkpt>
      <trkpt lat="43.67087" lon="1.45172">
        <ele>132.10059</ele>
        <time>2024-07-13T15:38:50+02:00</time>
      </trkpt>
      <trkpt lat="43.67096" lon="1.45193">
        <ele>131.90039</ele>
        <time>2024-07-13T15:38:54+02:00</time>
      </trkpt>
      <trkpt lat="43.67101" lon="1.452">
        <ele>131.7998</ele>
        <time>2024-07-13T15:38:55+02:00</time>
      </trkpt>
      <trkpt lat="43.67114" lon="1.45217">
        <ele>131.5</ele>
        <time>2024-07-13T15:38:59+02:00</time>
      </trkpt>
      <trkpt lat="43.67117" lon="1.4522">
        <ele>131.60059</ele>
        <time>2024-07-13T15:39:00+02:00</time>
      </trkpt>
      <trkpt lat="43.67122" lon="1.45234">
        <ele>131</ele>
        <time>2024-07-13T15:39:04+02:00</time>
      </trkpt>
      <trkpt lat="43.67124" lon="1.45239">
        <ele>131.10059</ele>
        <time>2024-07-13T15:39:05+02:00</time>
      </trkpt>
      <trkpt lat="43.67136" lon="1.45262">
        <ele>130.7998</ele>
        <time>2024-07-13T15:39:09+02:00</time>
      </trkpt>
      <trkpt lat="43.67139" lon="1.45268">
        <ele>130.7998</ele>
        <time>2024-07-13T15:39:10+02:00</time>
      </trkpt>
      <trkpt lat="43.6715" lon="1.4529">
        <ele>130.90039</ele>
        <time>2024-07-13T15:39:14+02:00</time>
      </trkpt>
      <trkpt lat="43.67153" lon="1.45295">
        <ele>130.90039</ele>
        <time>2024-07-13T15:39:15+02:00</time>
      </trkpt>
      <trkpt lat="43.67162" lon="1.45315">
        <ele>131.10059</ele>
        <time>2024-07-13T15:39:19+02:00</time>
      </trkpt>
      <trkpt lat="43.67163" lon="1.45319">
        <ele>131.10059</ele>
        <time>2024-07-13T15:39:20+02:00</time>
      </trkpt>
      <trkpt lat="43.67165" lon="1.45316">
        <ele>131.10059</ele>
        <time>2024-07-13T15:40:15+02:00</time>
      </trkpt>
      <trkpt lat="43.67178" lon="1.45305">
        <ele>131.40039</ele>
        <time>2024-07-13T15:40:19+02:00</time>
      </trkpt>
      <trkpt lat="43.67181" lon="1.45302">
        <ele>131.5</ele>
        <time>2024-07-13T15:40:20+02:00</time>
      </trkpt>
      <trkpt lat="43.67194" lon="1.45291">
        <ele>131.7998</ele>
        <time>2024-07-13T15:40:24+02:00</time>
      </trkpt>
      <trkpt lat="43.67198" lon="1.45288">
        <ele>132</ele>
        <time>2024-07-13T15:40:25+02:00</time>
      </trkpt>
      <trkpt lat="43.67212" lon="1.45278">
        <ele>132.40039</ele>
        <time>2024-07-13T15:40:29+02:00</time>
      </trkpt>
      <trkpt lat="43.67215" lon="1.45275">
        <ele>132.40039</ele>
        <time>2024-07-13T15:40:30+02:00</time>
      </trkpt>
      <trkpt lat="43.67229" lon="1.45264">
        <ele>132.7998</ele>
        <time>2024-07-13T15:40:34+02:00</time>
      </trkpt>
      <trkpt lat="43.67233" lon="1.45262">
        <ele>132.7998</ele>
        <time>2024-07-13T15:40:35+02:00</time>
      </trkpt>
      <trkpt lat="43.67246" lon="1.45259">
        <ele>133</ele>
        <time>2024-07-13T15:40:39+02:00</time>
      </trkpt>
      <trkpt lat="43.67248" lon="1.45262">
        <ele>133.10059</ele>
        <time>2024-07-13T15:40:40+02:00</time>
      </trkpt>
      <trkpt lat="43.67254" lon="1.45285">
        <ele>133.2998</ele>
        <time>2024-07-13T15:40:44+02:00</time>
      </trkpt>
      <trkpt lat="43.67255" lon="1.4529">
        <ele>133.40039</ele>
        <time>2024-07-13T15:40:45+02:00</time>
      </trkpt>
      <trkpt lat="43.67259" lon="1.45314">
        <ele>133.7002</ele>
        <time>2024-07-13T15:40:49+02:00</time>
      </trkpt>
      <trkpt lat="43.6726" lon="1.4532">
        <ele>133.7002</ele>
        <time>2024-07-13T15:40:50+02:00</time>
      </trkpt>
      <trkpt lat="43.67268" lon="1.45334">
        <ele>133.7998</ele>
        <time>2024-07-13T15:40:54+02:00</time>
      </trkpt>
      <trkpt lat="43.67272" lon="1.45332">
        <ele>133.7998</ele>
        <time>2024-07-13T15:40:55+02:00</time>
      </trkpt>
      <trkpt lat="43.67289" lon="1.45313">
        <ele>133.7998</ele>
        <time>2024-07-13T15:40:59+02:00</time>
      </trkpt>
      <trkpt lat="43.67294" lon="1.45311">
        <ele>133.7002</ele>
        <time>2024-07-13T15:41:00+02:00</time>
      </trkpt>
      <trkpt lat="43.67313" lon="1.45302">
        <ele>133.60059</ele>
        <time>2024-07-13T15:41:04+02:00</time>
      </trkpt>
      <trkpt lat="43.67319" lon="1.45299">
        <ele>133.60059</ele>
        <time>2024-07-13T15:41:05+02:00</time>
      </trkpt>
      <trkpt lat="43.67341" lon="1.45302">
        <ele>133.5</ele>
        <time>2024-07-13T15:41:09+02:00</time>
      </trkpt>
      <trkpt lat="43.67347" lon="1.45304">
        <ele>133.60059</ele>
        <time>2024-07-13T15:41:10+02:00</time>
      </trkpt>
      <trkpt lat="43.67369" lon="1.45309">
        <ele>133.60059</ele>
        <time>2024-07-13T15:41:14+02:00</time>
      </trkpt>
      <trkpt lat="43.67375" lon="1.4531">
        <ele>133.5</ele>
        <time>2024-07-13T15:41:15+02:00</time>
      </trkpt>
      <trkpt lat="43.67396" lon="1.45298">
        <ele>133.2998</ele>
        <time>2024-07-13T15:41:19+02:00</time>
      </trkpt>
      <trkpt lat="43.67402" lon="1.45294">
        <ele>133.2998</ele>
        <time>2024-07-13T15:41:20+02:00</time>
      </trkpt>
      <trkpt lat="43.67423" lon="1.45282">
        <ele>132.90039</ele>
        <time>2024-07-13T15:41:24+02:00</time>
      </trkpt>
      <trkpt lat="43.67429" lon="1.4528">
        <ele>133</ele>
        <time>2024-07-13T15:41:25+02:00</time>
      </trkpt>
      <trkpt lat="43.67445" lon="1.45305">
        <ele>133.5</ele>
        <time>2024-07-13T15:41:29+02:00</time>
      </trkpt>
      <trkpt lat="43.67447" lon="1.45314">
        <ele>133.7002</ele>
        <time>2024-07-13T15:41:30+02:00</time>
      </trkpt>
      <trkpt lat="43.67457" lon="1.45344">
        <ele>133.7998</ele>
        <time>2024-07-13T15:41:34+02:00</time>
      </trkpt>
      <trkpt lat="43.6746" lon="1.45351">
        <ele>133.7998</ele>
        <time>2024-07-13T15:41:35+02:00</time>
      </trkpt>
      <trkpt lat="43.67475" lon="1.45373">
        <ele>133.60059</ele>
        <time>2024-07-13T15:41:39+02:00</time>
      </trkpt>
      <trkpt lat="43.6748" lon="1.45378">
        <ele>133.60059</ele>
        <time>2024-07-13T15:41:40+02:00</time>
      </trkpt>
      <trkpt lat="43.67499" lon="1.45389">
        <ele>133.2998</ele>
        <time>2024-07-13T15:41:44+02:00</time>
      </trkpt>
      <trkpt lat="43.67504" lon="1.45386">
        <ele>133.40039</ele>
        <time>2024-07-13T15:41:45+02:00</time>
      </trkpt>
      <trkpt lat="43.67522" lon="1.45362">
        <ele>133.60059</ele>
        <time>2024-07-13T15:41:49+02:00</time>
      </trkpt>
      <trkpt lat="43.67526" lon="1.45357">
        <ele>133.60059</ele>
        <time>2024-07-13T15:41:50+02:00</time>
      </trkpt>
      <trkpt lat="43.67544" lon="1.45342">
        <ele>133.7998</ele>
        <time>2024-07-13T15:41:54+02:00</time>
      </trkpt>
      <trkpt lat="43.67549" lon="1.45339">
        <ele>133.7998</ele>
        <time>2024-07-13T15:41:55+02:00</time>
      </trkpt>
      <trkpt lat="43.67569" lon="1.45327">
        <ele>133.7002</ele>
        <time>2024-07-13T15:41:59+02:00</time>
      </trkpt>
      <trkpt lat="43.67573" lon="1.45324">
        <ele>133.7002</ele>
        <time>2024-07-13T15:42:00+02:00</time>
      </trkpt>
      <trkpt lat="43.67592" lon="1.45313">
        <ele>133.60059</ele>
        <time>2024-07-13T15:42:04+02:00</time>
      </trkpt>
      <trkpt lat="43.67597" lon="1.45311">
        <ele>133.5</ele>
        <time>2024-07-13T15:42:05+02:00</time>
      </trkpt>
      <trkpt lat="43.67614" lon="1.4531">
        <ele>133.60059</ele>
        <time>2024-07-13T15:42:09+02:00</time>
      </trkpt>
      <trkpt lat="43.67617" lon="1.45313">
        <ele>133.7002</ele>
        <time>2024-07-13T15:42:10+02:00</time>
      </trkpt>
      <trkpt lat="43.67632" lon="1.45313">
        <ele>133.7998</ele>
        <time>2024-07-13T15:42:14+02:00</time>
      </trkpt>
      <trkpt lat="43.67636" lon="1.45313">
        <ele>133.7998</ele>
        <time>2024-07-13T15:42:15+02:00</time>
      </trkpt>
      <trkpt lat="43.67651" lon="1.45308">
        <ele>133.60059</ele>
        <time>2024-07-13T15:42:19+02:00</time>
      </trkpt>
      <trkpt lat="43.67654" lon="1.45309">
        <ele>133.60059</ele>
        <time>2024-07-13T15:42:20+02:00</time>
      </trkpt>
      <trkpt lat="43.6767" lon="1.45318">
        <ele>133.60059</ele>
        <time>2024-07-13T15:42:24+02:00</time>
      </trkpt>
      <trkpt lat="43.67674" lon="1.45319">
        <ele>133.60059</ele>
        <time>2024-07-13T15:42:25+02:00</time>
      </trkpt>
      <trkpt lat="43.67692" lon="1.45321">
        <ele>133.60059</ele>
        <time>2024-07-13T15:42:29+02:00</time>
      </trkpt>
      <trkpt lat="43.67697" lon="1.45322">
        <ele>133.5</ele>
        <time>2024-07-13T15:42:30+02:00</time>
      </trkpt>
      <trkpt lat="43.67711" lon="1.45328">
        <ele>133.2998</ele>
        <time>2024-07-13T15:42:34+02:00</time>
      </trkpt>
      <trkpt lat="43.67715" lon="1.45331">
        <ele>133.5</ele>
        <time>2024-07-13T15:42:35+02:00</time>
      </trkpt>
      <trkpt lat="43.6773" lon="1.45342">
        <ele>133.5</ele>
        <time>2024-07-13T15:42:39+02:00</time>
      </trkpt>
      <trkpt lat="43.67734" lon="1.45345">
        <ele>133.5</ele>
        <time>2024-07-13T15:42:40+02:00</time>
      </trkpt>
      <trkpt lat="43.67749" lon="1.45357">
        <ele>133.90039</ele>
        <time>2024-07-13T15:42:44+02:00</time>
      </trkpt>
      <trkpt lat="43.67754" lon="1.4536">
        <ele>133.90039</ele>
        <time>2024-07-13T15:42:45+02:00</time>
      </trkpt>
      <trkpt lat="43.6777" lon="1.4537">
        <ele>134.2002</ele>
        <time>2024-07-13T15:42:49+02:00</time>
      </trkpt>
      <trkpt lat="43.67774" lon="1.45374">
        <ele>134.40039</ele>
        <time>2024-07-13T15:42:50+02:00</time>
      </trkpt>
      <trkpt lat="43.6779" lon="1.45387">
        <ele>134.7998</ele>
        <time>2024-07-13T15:42:54+02:00</time>
      </trkpt>
      <trkpt lat="43.67794" lon="1.4539">
        <ele>135.10059</ele>
        <time>2024-07-13T15:42:55+02:00</time>
      </trkpt>
      <trkpt lat="43.67812" lon="1.45399">
        <ele>135.40039</ele>
        <time>2024-07-13T15:42:59+02:00</time>
      </trkpt>
      <trkpt lat="43.67816" lon="1.45403">
        <ele>135.40039</ele>
        <time>2024-07-13T15:43:00+02:00</time>
      </trkpt>
      <trkpt lat="43.67832" lon="1.45423">
        <ele>135.7002</ele>
        <time>2024-07-13T15:43:04+02:00</time>
      </trkpt>
      <trkpt lat="43.67836" lon="1.45426">
        <ele>135.7998</ele>
        <time>2024-07-13T15:43:05+02:00</time>
      </trkpt>
      <trkpt lat="43.67852" lon="1.45435">
        <ele>135.7998</ele>
        <time>2024-07-13T15:43:09+02:00</time>
      </trkpt>
      <trkpt lat="43.67855" lon="1.45435">
        <ele>135.7002</ele>
        <time>2024-07-13T15:43:10+02:00</time>
      </trkpt>
      <trkpt lat="43.67868" lon="1.45427">
        <ele>135.60059</ele>
        <time>2024-07-13T15:43:14+02:00</time>
      </trkpt>
      <trkpt lat="43.67872" lon="1.45424">
        <ele>135.60059</ele>
        <time>2024-07-13T15:43:15+02:00</time>
      </trkpt>
      <trkpt lat="43.67889" lon="1.4541">
        <ele>135.2002</ele>
        <time>2024-07-13T15:43:19+02:00</time>
      </trkpt>
      <trkpt lat="43.67893" lon="1.45405">
        <ele>135.10059</ele>
        <time>2024-07-13T15:43:20+02:00</time>
      </trkpt>
      <trkpt lat="43.6791" lon="1.45393">
        <ele>135</ele>
        <time>2024-07-13T15:43:24+02:00</time>
      </trkpt>
      <trkpt lat="43.67915" lon="1.45392">
        <ele>135.10059</ele>
        <time>2024-07-13T15:43:25+02:00</time>
      </trkpt>
      <trkpt lat="43.67933" lon="1.45384">
        <ele>135.2998</ele>
        <time>2024-07-13T15:43:29+02:00</time>
      </trkpt>
      <trkpt lat="43.67938" lon="1.45381">
        <ele>135.5</ele>
        <time>2024-07-13T15:43:30+02:00</time>
      </trkpt>
      <trkpt lat="43.6796" lon="1.4537">
        <ele>135.90039</ele>
        <time>2024-07-13T15:43:34+02:00</time>
      </trkpt>
      <trkpt lat="43.67966" lon="1.45369">
        <ele>136.10059</ele>
        <time>2024-07-13T15:43:35+02:00</time>
      </trkpt>
      <trkpt lat="43.67985" lon="1.45354">
        <ele>136.5</ele>
        <time>2024-07-13T15:43:39+02:00</time>
      </trkpt>
      <trkpt lat="43.6799" lon="1.45349">
        <ele>136.60059</ele>
        <time>2024-07-13T15:43:40+02:00</time>
      </trkpt>
      <trkpt lat="43.6801" lon="1.45335">
        <ele>136.7002</ele>
        <time>2024-07-13T15:43:44+02:00</time>
      </trkpt>
      <trkpt lat="43.68015" lon="1.45332">
        <ele>136.60059</ele>
        <time>2024-07-13T15:43:45+02:00</time>
      </trkpt>
      <trkpt lat="43.68034" lon="1.45316">
        <ele>136.40039</ele>
        <time>2024-07-13T15:43:49+02:00</time>
      </trkpt>
      <trkpt lat="43.68038" lon="1.45311">
        <ele>136.2002</ele>
        <time>2024-07-13T15:43:50+02:00</time>
      </trkpt>
      <trkpt lat="43.68057" lon="1.45294">
        <ele>135.7998</ele>
        <time>2024-07-13T15:43:54+02:00</time>
      </trkpt>
      <trkpt lat="43.68062" lon="1.45289">
        <ele>135.7002</ele>
        <time>2024-07-13T15:43:55+02:00</time>
      </trkpt>
      <trkpt lat="43.68082" lon="1.45276">
        <ele>135.5</ele>
        <time>2024-07-13T15:43:59+02:00</time>
      </trkpt>
      <trkpt lat="43.68086" lon="1.45272">
        <ele>135.5</ele>
        <time>2024-07-13T15:44:00+02:00</time>
      </trkpt>
      <trkpt lat="43.68105" lon="1.45255">
        <ele>135.40039</ele>
        <time>2024-07-13T15:44:04+02:00</time>
      </trkpt>
      <trkpt lat="43.68109" lon="1.45251">
        <ele>135.2998</ele>
        <time>2024-07-13T15:44:05+02:00</time>
      </trkpt>
      <trkpt lat="43.68128" lon="1.45235">
        <ele>135.40039</ele>
        <time>2024-07-13T15:44:09+02:00</time>
      </trkpt>
      <trkpt lat="43.68132" lon="1.4523">
        <ele>135.2998</ele>
        <time>2024-07-13T15:44:10+02:00</time>
      </trkpt>
      <trkpt lat="43.6815" lon="1.45213">
        <ele>135</ele>
        <time>2024-07-13T15:44:14+02:00</time>
      </trkpt>
      <trkpt lat="43.68155" lon="1.45209">
        <ele>135</ele>
        <time>2024-07-13T15:44:15+02:00</time>
      </trkpt>
      <trkpt lat="43.68164" lon="1.45203">
        <ele>134.7998</ele>
        <time>2024-07-13T15:44:17+02:00</time>
      </trkpt>
      <trkpt lat="43.68172" lon="1.45209">
        <ele>134.7998</ele>
        <time>2024-07-13T15:44:19+02:00</time>
      </trkpt>
      <trkpt lat="43.68175" lon="1.45215">
        <ele>134.7998</ele>
        <time>2024-07-13T15:44:20+02:00</time>
      </trkpt>
      <trkpt lat="43.68181" lon="1.45251">
        <ele>135.2002</ele>
        <time>2024-07-13T15:44:24+02:00</time>
      </trkpt>
      <trkpt lat="43.68182" lon="1.45259">
        <ele>135.2998</ele>
        <time>2024-07-13T15:44:25+02:00</time>
      </trkpt>
      <trkpt lat="43.68188" lon="1.4529">
        <ele>135.40039</ele>
        <time>2024-07-13T15:44:29+02:00</time>
      </trkpt>
      <trkpt lat="43.68189" lon="1.45298">
        <ele>135.5</ele>
        <time>2024-07-13T15:44:30+02:00</time>
      </trkpt>
      <trkpt lat="43.68197" lon="1.45327">
        <ele>135.5</ele>
        <time>2024-07-13T15:44:34+02:00</time>
      </trkpt>
      <trkpt lat="43.68199" lon="1.45335">
        <ele>135.60059</ele>
        <time>2024-07-13T15:44:35+02:00</time>
      </trkpt>
      <trkpt lat="43.68206" lon="1.45364">
        <ele>135.7002</ele>
        <time>2024-07-13T15:44:39+02:00</time>
      </trkpt>
      <trkpt lat="43.68208" lon="1.45371">
        <ele>135.7002</ele>
        <time>2024-07-13T15:44:40+02:00</time>
      </trkpt>
      <trkpt lat="43.68217" lon="1.45399">
        <ele>135.60059</ele>
        <time>2024-07-13T15:44:44+02:00</time>
      </trkpt>
      <trkpt lat="43.68219" lon="1.45406">
        <ele>135.60059</ele>
        <time>2024-07-13T15:44:45+02:00</time>
      </trkpt>
      <trkpt lat="43.68226" lon="1.45436">
        <ele>135.5</ele>
        <time>2024-07-13T15:44:49+02:00</time>
      </trkpt>
      <trkpt lat="43.68228" lon="1.45443">
        <ele>135.40039</ele>
        <time>2024-07-13T15:44:50+02:00</time>
      </trkpt>
      <trkpt lat="43.68238" lon="1.45473">
        <ele>135.2998</ele>
        <time>2024-07-13T15:44:54+02:00</time>
      </trkpt>
      <trkpt lat="43.6824" lon="1.4548">
        <ele>135.2998</ele>
        <time>2024-07-13T15:44:55+02:00</time>
      </trkpt>
      <trkpt lat="43.68249" lon="1.45508">
        <ele>135.2998</ele>
        <time>2024-07-13T15:44:59+02:00</time>
      </trkpt>
      <trkpt lat="43.68251" lon="1.45515">
        <ele>135.40039</ele>
        <time>2024-07-13T15:45:00+02:00</time>
      </trkpt>
      <trkpt lat="43.68258" lon="1.45542">
        <ele>135.7002</ele>
        <time>2024-07-13T15:45:04+02:00</time>
      </trkpt>
      <trkpt lat="43.6826" lon="1.45549">
        <ele>135.7998</ele>
        <time>2024-07-13T15:45:05+02:00</time>
      </trkpt>
      <trkpt lat="43.68266" lon="1.45577">
        <ele>136.2002</ele>
        <time>2024-07-13T15:45:09+02:00</time>
      </trkpt>
      <trkpt lat="43.68267" lon="1.45584">
        <ele>136.2998</ele>
        <time>2024-07-13T15:45:10+02:00</time>
      </trkpt>
      <trkpt lat="43.68273" lon="1.45609">
        <ele>136.7998</ele>
        <time>2024-07-13T15:45:14+02:00</time>
      </trkpt>
      <trkpt lat="43.68274" lon="1.45615">
        <ele>137</ele>
        <time>2024-07-13T15:45:15+02:00</time>
      </trkpt>
      <trkpt lat="43.68277" lon="1.45632">
        <ele>137.2002</ele>
        <time>2024-07-13T15:45:19+02:00</time>
      </trkpt>
      <trkpt lat="43.68277" lon="1.45636">
        <ele>137.2002</ele>
        <time>2024-07-13T15:45:20+02:00</time>
      </trkpt>
      <trkpt lat="43.68279" lon="1.45652">
        <ele>137.60059</ele>
        <time>2024-07-13T15:45:24+02:00</time>
      </trkpt>
      <trkpt lat="43.6828" lon="1.45657">
        <ele>137.7998</ele>
        <time>2024-07-13T15:45:25+02:00</time>
      </trkpt>
      <trkpt lat="43.68282" lon="1.45684">
        <ele>138.10059</ele>
        <time>2024-07-13T15:45:29+02:00</time>
      </trkpt>
      <trkpt lat="43.68282" lon="1.4569">
        <ele>138.2002</ele>
        <time>2024-07-13T15:45:30+02:00</time>
      </trkpt>
      <trkpt lat="43.6828" lon="1.45716">
        <ele>138.5</ele>
        <time>2024-07-13T15:45:34+02:00</time>
      </trkpt>
      <trkpt lat="43.6828" lon="1.45723">
        <ele>138.5</ele>
        <time>2024-07-13T15:45:35+02:00</time>
      </trkpt>
      <trkpt lat="43.68278" lon="1.45747">
        <ele>138.90039</ele>
        <time>2024-07-13T15:45:39+02:00</time>
      </trkpt>
      <trkpt lat="43.68278" lon="1.45752">
        <ele>139</ele>
        <time>2024-07-13T15:45:40+02:00</time>
      </trkpt>
      <trkpt lat="43.68277" lon="1.45774">
        <ele>139.2998</ele>
        <time>2024-07-13T15:45:44+02:00</time>
      </trkpt>
      <trkpt lat="43.68277" lon="1.4578">
        <ele>139.5</ele>
        <time>2024-07-13T15:45:45+02:00</time>
      </trkpt>
      <trkpt lat="43.68276" lon="1.45806">
        <ele>139.90039</ele>
        <time>2024-07-13T15:45:49+02:00</time>
      </trkpt>
      <trkpt lat="43.68276" lon="1.45812">
        <ele>140</ele>
        <time>2024-07-13T15:45:50+02:00</time>
      </trkpt>
      <trkpt lat="43.68274" lon="1.45836">
        <ele>140.60059</ele>
        <time>2024-07-13T15:45:54+02:00</time>
      </trkpt>
      <trkpt lat="43.68274" lon="1.45841">
        <ele>140.60059</ele>
        <time>2024-07-13T15:45:55+02:00</time>
      </trkpt>
      <trkpt lat="43.68273" lon="1.45863">
        <ele>141.2002</ele>
        <time>2024-07-13T15:45:59+02:00</time>
      </trkpt>
      <trkpt lat="43.68272" lon="1.45869">
        <ele>141.2002</ele>
        <time>2024-07-13T15:46:00+02:00</time>
      </trkpt>
      <trkpt lat="43.6827" lon="1.45889">
        <ele>141.7998</ele>
        <time>2024-07-13T15:46:04+02:00</time>
      </trkpt>
      <trkpt lat="43.6827" lon="1.45892">
        <ele>141.7998</ele>
        <time>2024-07-13T15:46:05+02:00</time>
      </trkpt>
      <trkpt lat="43.6827" lon="1.45904">
        <ele>142.5</ele>
        <time>2024-07-13T15:46:09+02:00</time>
      </trkpt>
      <trkpt lat="43.6827" lon="1.45909">
        <ele>142.5</ele>
        <time>2024-07-13T15:46:10+02:00</time>
      </trkpt>
      <trkpt lat="43.68267" lon="1.45932">
        <ele>143.7998</ele>
        <time>2024-07-13T15:46:14+02:00</time>
      </trkpt>
      <trkpt lat="43.68266" lon="1.45938">
        <ele>144.40039</ele>
        <time>2024-07-13T15:46:15+02:00</time>
      </trkpt>
      <trkpt lat="43.68265" lon="1.45965">
        <ele>145.90039</ele>
        <time>2024-07-13T15:46:19+02:00</time>
      </trkpt>
      <trkpt lat="43.68265" lon="1.45971">
        <ele>145.90039</ele>
        <time>2024-07-13T15:46:20+02:00</time>
      </trkpt>
      <trkpt lat="43.68265" lon="1.45997">
        <ele>147.2002</ele>
        <time>2024-07-13T15:46:24+02:00</time>
      </trkpt>
      <trkpt lat="43.68266" lon="1.46003">
        <ele>147.60059</ele>
        <time>2024-07-13T15:46:25+02:00</time>
      </trkpt>
      <trkpt lat="43.68272" lon="1.46025">
        <ele>148.5</ele>
        <time>2024-07-13T15:46:29+02:00</time>
      </trkpt>
      <trkpt lat="43.68274" lon="1.4603">
        <ele>148.5</ele>
        <time>2024-07-13T15:46:30+02:00</time>
      </trkpt>
      <trkpt lat="43.68279" lon="1.46053">
        <ele>149.2002</ele>
        <time>2024-07-13T15:46:34+02:00</time>
      </trkpt>
      <trkpt lat="43.6828" lon="1.46059">
        <ele>149.5</ele>
        <time>2024-07-13T15:46:35+02:00</time>
      </trkpt>
      <trkpt lat="43.68281" lon="1.46081">
        <ele>150</ele>
        <time>2024-07-13T15:46:39+02:00</time>
      </trkpt>
      <trkpt lat="43.68281" lon="1.46087">
        <ele>150.2998</ele>
        <time>2024-07-13T15:46:40+02:00</time>
      </trkpt>
      <trkpt lat="43.68282" lon="1.4611">
        <ele>150.90039</ele>
        <time>2024-07-13T15:46:44+02:00</time>
      </trkpt>
      <trkpt lat="43.68283" lon="1.46115">
        <ele>150.90039</ele>
        <time>2024-07-13T15:46:45+02:00</time>
      </trkpt>
      <trkpt lat="43.68284" lon="1.46137">
        <ele>151</ele>
        <time>2024-07-13T15:46:49+02:00</time>
      </trkpt>
      <trkpt lat="43.68284" lon="1.46143">
        <ele>151</ele>
        <time>2024-07-13T15:46:50+02:00</time>
      </trkpt>
      <trkpt lat="43.68281" lon="1.46166">
        <ele>151.2998</ele>
        <time>2024-07-13T15:46:54+02:00</time>
      </trkpt>
      <trkpt lat="43.6828" lon="1.46172">
        <ele>151.2998</ele>
        <time>2024-07-13T15:46:55+02:00</time>
      </trkpt>
      <trkpt lat="43.68273" lon="1.46195">
        <ele>151.60059</ele>
        <time>2024-07-13T15:46:59+02:00</time>
      </trkpt>
      <trkpt lat="43.68271" lon="1.46201">
        <ele>151.60059</ele>
        <time>2024-07-13T15:47:00+02:00</time>
      </trkpt>
      <trkpt lat="43.68262" lon="1.46227">
        <ele>152.2002</ele>
        <time>2024-07-13T15:47:04+02:00</time>
      </trkpt>
      <trkpt lat="43.6826" lon="1.46233">
        <ele>152.2002</ele>
        <time>2024-07-13T15:47:05+02:00</time>
      </trkpt>
      <trkpt lat="43.68253" lon="1.46258">
        <ele>152.5</ele>
        <time>2024-07-13T15:47:09+02:00</time>
      </trkpt>
      <trkpt lat="43.68251" lon="1.46264">
        <ele>152.7002</ele>
        <time>2024-07-13T15:47:10+02:00</time>
      </trkpt>
      <trkpt lat="43.68241" lon="1.46287">
        <ele>152.7002</ele>
        <time>2024-07-13T15:47:14+02:00</time>
      </trkpt>
      <trkpt lat="43.68239" lon="1.46293">
        <ele>152.7998</ele>
        <time>2024-07-13T15:47:15+02:00</time>
      </trkpt>
      <trkpt lat="43.68227" lon="1.46314">
        <ele>153.10059</ele>
        <time>2024-07-13T15:47:19+02:00</time>
      </trkpt>
      <trkpt lat="43.68223" lon="1.46319">
        <ele>153.10059</ele>
        <time>2024-07-13T15:47:20+02:00</time>
      </trkpt>
      <trkpt lat="43.68211" lon="1.46338">
        <ele>153.40039</ele>
        <time>2024-07-13T15:47:24+02:00</time>
      </trkpt>
      <trkpt lat="43.68208" lon="1.46343">
        <ele>153.5</ele>
        <time>2024-07-13T15:47:25+02:00</time>
      </trkpt>
      <trkpt lat="43.68195" lon="1.4636">
        <ele>153.7998</ele>
        <time>2024-07-13T15:47:29+02:00</time>
      </trkpt>
      <trkpt lat="43.68193" lon="1.46363">
        <ele>153.7998</ele>
        <time>2024-07-13T15:47:30+02:00</time>
      </trkpt>
      <trkpt lat="43.68187" lon="1.46378">
        <ele>154.10059</ele>
        <time>2024-07-13T15:47:34+02:00</time>
      </trkpt>
      <trkpt lat="43.68191" lon="1.46383">
        <ele>154</ele>
        <time>2024-07-13T15:47:35+02:00</time>
      </trkpt>
      <trkpt lat="43.68214" lon="1.46396">
        <ele>154.40039</ele>
        <time>2024-07-13T15:47:39+02:00</time>
      </trkpt>
      <trkpt lat="43.6822" lon="1.464">
        <ele>154.40039</ele>
        <time>2024-07-13T15:47:40+02:00</time>
      </trkpt>
      <trkpt lat="43.68245" lon="1.46416">
        <ele>154.7002</ele>
        <time>2024-07-13T15:47:44+02:00</time>
      </trkpt>
      <trkpt lat="43.68251" lon="1.46419">
        <ele>155.10059</ele>
        <time>2024-07-13T15:47:45+02:00</time>
      </trkpt>
      <trkpt lat="43.68273" lon="1.46429">
        <ele>157.10059</ele>
        <time>2024-07-13T15:47:49+02:00</time>
      </trkpt>
      <trkpt lat="43.68278" lon="1.46431">
        <ele>157.7002</ele>
        <time>2024-07-13T15:47:50+02:00</time>
      </trkpt>
      <trkpt lat="43.68295" lon="1.4644">
        <ele>159.7002</ele>
        <time>2024-07-13T15:47:54+02:00</time>
      </trkpt>
      <trkpt lat="43.68298" lon="1.46441">
        <ele>160.40039</ele>
        <time>2024-07-13T15:47:55+02:00</time>
      </trkpt>
      <trkpt lat="43.68305" lon="1.46447">
        <ele>161.7998</ele>
        <time>2024-07-13T15:47:59+02:00</time>
      </trkpt>
      <trkpt lat="43.68308" lon="1.46449">
        <ele>161.7998</ele>
        <time>2024-07-13T15:48:00+02:00</time>
      </trkpt>
      <trkpt lat="43.68319" lon="1.46457">
        <ele>163.7998</ele>
        <time>2024-07-13T15:48:04+02:00</time>
      </trkpt>
      <trkpt lat="43.68322" lon="1.46459">
        <ele>164.40039</ele>
        <time>2024-07-13T15:48:05+02:00</time>
      </trkpt>
      <trkpt lat="43.68333" lon="1.46468">
        <ele>166.2002</ele>
        <time>2024-07-13T15:48:09+02:00</time>
      </trkpt>
      <trkpt lat="43.68336" lon="1.4647">
        <ele>166.2002</ele>
        <time>2024-07-13T15:48:10+02:00</time>
      </trkpt>
      <trkpt lat="43.68347" lon="1.46477">
        <ele>168.10059</ele>
        <time>2024-07-13T15:48:14+02:00</time>
      </trkpt>
      <trkpt lat="43.68349" lon="1.46479">
        <ele>168.7002</ele>
        <time>2024-07-13T15:48:15+02:00</time>
      </trkpt>
      <trkpt lat="43.68356" lon="1.46492">
        <ele>169.7002</ele>
        <time>2024-07-13T15:48:19+02:00</time>
      </trkpt>
      <trkpt lat="43.68356" lon="1.46497">
        <ele>170.2998</ele>
        <time>2024-07-13T15:48:20+02:00</time>
      </trkpt>
      <trkpt lat="43.68346" lon="1.46513">
        <ele>171.10059</ele>
        <time>2024-07-13T15:48:24+02:00</time>
      </trkpt>
      <trkpt lat="43.68344" lon="1.46517">
        <ele>170.7998</ele>
        <time>2024-07-13T15:48:25+02:00</time>
      </trkpt>
      <trkpt lat="43.68334" lon="1.46533">
        <ele>171.5</ele>
        <time>2024-07-13T15:48:29+02:00</time>
      </trkpt>
      <trkpt lat="43.68332" lon="1.46537">
        <ele>171</ele>
        <time>2024-07-13T15:48:30+02:00</time>
      </trkpt>
      <trkpt lat="43.68324" lon="1.46552">
        <ele>171.7998</ele>
        <time>2024-07-13T15:48:34+02:00</time>
      </trkpt>
      <trkpt lat="43.68322" lon="1.46556">
        <ele>172.40039</ele>
        <time>2024-07-13T15:48:35+02:00</time>
      </trkpt>
      <trkpt lat="43.68314" lon="1.46575">
        <ele>173.2002</ele>
        <time>2024-07-13T15:48:39+02:00</time>
      </trkpt>
      <trkpt lat="43.68312" lon="1.4658">
        <ele>172.60059</ele>
        <time>2024-07-13T15:48:40+02:00</time>
      </trkpt>
      <trkpt lat="43.68307" lon="1.46597">
        <ele>173.40039</ele>
        <time>2024-07-13T15:48:44+02:00</time>
      </trkpt>
      <trkpt lat="43.68306" lon="1.46601">
        <ele>174.10059</ele>
        <time>2024-07-13T15:48:45+02:00</time>
      </trkpt>
      <trkpt lat="43.68302" lon="1.46619">
        <ele>174.5</ele>
        <time>2024-07-13T15:48:49+02:00</time>
      </trkpt>
      <trkpt lat="43.68301" lon="1.46624">
        <ele>174.5</ele>
        <time>2024-07-13T15:48:50+02:00</time>
      </trkpt>
      <trkpt lat="43.68296" lon="1.46642">
        <ele>176</ele>
        <time>2024-07-13T15:48:54+02:00</time>
      </trkpt>
      <trkpt lat="43.68295" lon="1.46647">
        <ele>175.2998</ele>
        <time>2024-07-13T15:48:55+02:00</time>
      </trkpt>
      <trkpt lat="43.6829" lon="1.46666">
        <ele>176.5</ele>
        <time>2024-07-13T15:48:59+02:00</time>
      </trkpt>
      <trkpt lat="43.68289" lon="1.46671">
        <ele>176.40039</ele>
        <time>2024-07-13T15:49:00+02:00</time>
      </trkpt>
      <trkpt lat="43.68294" lon="1.46687">
        <ele>178.2002</ele>
        <time>2024-07-13T15:49:04+02:00</time>
      </trkpt>
      <trkpt lat="43.68296" lon="1.4669">
        <ele>178.7002</ele>
        <time>2024-07-13T15:49:05+02:00</time>
      </trkpt>
      <trkpt lat="43.68306" lon="1.46701">
        <ele>179.7002</ele>
        <time>2024-07-13T15:49:09+02:00</time>
      </trkpt>
      <trkpt lat="43.68309" lon="1.46704">
        <ele>180.60059</ele>
        <time>2024-07-13T15:49:10+02:00</time>
      </trkpt>
      <trkpt lat="43.68318" lon="1.46716">
        <ele>181.5</ele>
        <time>2024-07-13T15:49:14+02:00</time>
      </trkpt>
      <trkpt lat="43.6832" lon="1.46719">
        <ele>182</ele>
        <time>2024-07-13T15:49:15+02:00</time>
      </trkpt>
      <trkpt lat="43.6833" lon="1.46734">
        <ele>182.90039</ele>
        <time>2024-07-13T15:49:19+02:00</time>
      </trkpt>
      <trkpt lat="43.68333" lon="1.46738">
        <ele>183.2998</ele>
        <time>2024-07-13T15:49:20+02:00</time>
      </trkpt>
      <trkpt lat="43.68342" lon="1.46752">
        <ele>184</ele>
        <time>2024-07-13T15:49:24+02:00</time>
      </trkpt>
      <trkpt lat="43.68345" lon="1.46756">
        <ele>184.40039</ele>
        <time>2024-07-13T15:49:25+02:00</time>
      </trkpt>
      <trkpt lat="43.68355" lon="1.46769">
        <ele>185.10059</ele>
        <time>2024-07-13T15:49:29+02:00</time>
      </trkpt>
      <trkpt lat="43.68358" lon="1.46772">
        <ele>185.60059</ele>
        <time>2024-07-13T15:49:30+02:00</time>
      </trkpt>
      <trkpt lat="43.68368" lon="1.46786">
        <ele>186.2002</ele>
        <time>2024-07-13T15:49:34+02:00</time>
      </trkpt>
      <trkpt lat="43.68371" lon="1.4679">
        <ele>186.7002</ele>
        <time>2024-07-13T15:49:35+02:00</time>
      </trkpt>
      <trkpt lat="43.68381" lon="1.46803">
        <ele>187.2998</ele>
        <time>2024-07-13T15:49:39+02:00</time>
      </trkpt>
      <trkpt lat="43.68383" lon="1.46807">
        <ele>187.90039</ele>
        <time>2024-07-13T15:49:40+02:00</time>
      </trkpt>
      <trkpt lat="43.68393" lon="1.46822">
        <ele>188.7002</ele>
        <time>2024-07-13T15:49:44+02:00</time>
      </trkpt>
      <trkpt lat="43.68396" lon="1.46826">
        <ele>189</ele>
        <time>2024-07-13T15:49:45+02:00</time>
      </trkpt>
      <trkpt lat="43.68407" lon="1.4684">
        <ele>190</ele>
        <time>2024-07-13T15:49:49+02:00</time>
      </trkpt>
      <trkpt lat="43.68409" lon="1.46843">
        <ele>190.40039</ele>
        <time>2024-07-13T15:49:50+02:00</time>
      </trkpt>
      <trkpt lat="43.68421" lon="1.46856">
        <ele>191.2998</ele>
        <time>2024-07-13T15:49:54+02:00</time>
      </trkpt>
      <trkpt lat="43.68423" lon="1.46859">
        <ele>191.7002</ele>
        <time>2024-07-13T15:49:55+02:00</time>
      </trkpt>
      <trkpt lat="43.68427" lon="1.46867">
        <ele>192.2998</ele>
        <time>2024-07-13T15:49:59+02:00</time>
      </trkpt>
      <trkpt lat="43.68429" lon="1.46868">
        <ele>192.2998</ele>
        <time>2024-07-13T15:50:00+02:00</time>
      </trkpt>
      <trkpt lat="43.68438" lon="1.46855">
        <ele>191.7998</ele>
        <time>2024-07-13T15:50:04+02:00</time>
      </trkpt>
      <trkpt lat="43.68441" lon="1.46849">
        <ele>191.7998</ele>
        <time>2024-07-13T15:50:05+02:00</time>
      </trkpt>
      <trkpt lat="43.68455" lon="1.46827">
        <ele>190.7002</ele>
        <time>2024-07-13T15:50:09+02:00</time>
      </trkpt>
      <trkpt lat="43.68459" lon="1.46821">
        <ele>190.2998</ele>
        <time>2024-07-13T15:50:10+02:00</time>
      </trkpt>
      <trkpt lat="43.68479" lon="1.46801">
        <ele>189.60059</ele>
        <time>2024-07-13T15:50:14+02:00</time>
      </trkpt>
      <trkpt lat="43.68485" lon="1.46799">
        <ele>189.7002</ele>
        <time>2024-07-13T15:50:15+02:00</time>
      </trkpt>
      <trkpt lat="43.68508" lon="1.468">
        <ele>189.7998</ele>
        <time>2024-07-13T15:50:19+02:00</time>
      </trkpt>
      <trkpt lat="43.68514" lon="1.46802">
        <ele>189.7002</ele>
        <time>2024-07-13T15:50:20+02:00</time>
      </trkpt>
      <trkpt lat="43.68531" lon="1.46821">
        <ele>190.5</ele>
        <time>2024-07-13T15:50:24+02:00</time>
      </trkpt>
      <trkpt lat="43.68534" lon="1.46827">
        <ele>190.7998</ele>
        <time>2024-07-13T15:50:25+02:00</time>
      </trkpt>
      <trkpt lat="43.68546" lon="1.4685">
        <ele>191.7002</ele>
        <time>2024-07-13T15:50:29+02:00</time>
      </trkpt>
      <trkpt lat="43.68549" lon="1.46856">
        <ele>191.7002</ele>
        <time>2024-07-13T15:50:30+02:00</time>
      </trkpt>
      <trkpt lat="43.68558" lon="1.46882">
        <ele>192.5</ele>
        <time>2024-07-13T15:50:34+02:00</time>
      </trkpt>
      <trkpt lat="43.68557" lon="1.46888">
        <ele>192.5</ele>
        <time>2024-07-13T15:50:35+02:00</time>
      </trkpt>
      <trkpt lat="43.68553" lon="1.46911">
        <ele>193.2998</ele>
        <time>2024-07-13T15:50:39+02:00</time>
      </trkpt>
      <trkpt lat="43.68554" lon="1.46916">
        <ele>193.5</ele>
        <time>2024-07-13T15:50:40+02:00</time>
      </trkpt>
      <trkpt lat="43.68565" lon="1.46934">
        <ele>193.10059</ele>
        <time>2024-07-13T15:50:44+02:00</time>
      </trkpt>
      <trkpt lat="43.68568" lon="1.46938">
        <ele>193.10059</ele>
        <time>2024-07-13T15:50:45+02:00</time>
      </trkpt>
      <trkpt lat="43.68584" lon="1.46956">
        <ele>192</ele>
        <time>2024-07-13T15:50:49+02:00</time>
      </trkpt>
      <trkpt lat="43.68588" lon="1.46961">
        <ele>191.60059</ele>
        <time>2024-07-13T15:50:50+02:00</time>
      </trkpt>
      <trkpt lat="43.68604" lon="1.46982">
        <ele>190.7998</ele>
        <time>2024-07-13T15:50:54+02:00</time>
      </trkpt>
      <trkpt lat="43.68608" lon="1.46988">
        <ele>190.40039</ele>
        <time>2024-07-13T15:50:55+02:00</time>
      </trkpt>
      <trkpt lat="43.68626" lon="1.47014">
        <ele>189.2002</ele>
        <time>2024-07-13T15:50:59+02:00</time>
      </trkpt>
      <trkpt lat="43.6863" lon="1.47021">
        <ele>189.2998</ele>
        <time>2024-07-13T15:51:00+02:00</time>
      </trkpt>
      <trkpt lat="43.68651" lon="1.47048">
        <ele>187.7998</ele>
        <time>2024-07-13T15:51:04+02:00</time>
      </trkpt>
      <trkpt lat="43.68656" lon="1.47054">
        <ele>187.5</ele>
        <time>2024-07-13T15:51:05+02:00</time>
      </trkpt>
      <trkpt lat="43.68676" lon="1.4708">
        <ele>186.5</ele>
        <time>2024-07-13T15:51:09+02:00</time>
      </trkpt>
      <trkpt lat="43.6868" lon="1.47086">
        <ele>186.5</ele>
        <time>2024-07-13T15:51:10+02:00</time>
      </trkpt>
      <trkpt lat="43.68702" lon="1.47107">
        <ele>185.40039</ele>
        <time>2024-07-13T15:51:14+02:00</time>
      </trkpt>
      <trkpt lat="43.68708" lon="1.47106">
        <ele>185.2002</ele>
        <time>2024-07-13T15:51:15+02:00</time>
      </trkpt>
      <trkpt lat="43.6873" lon="1.47075">
        <ele>183.90039</ele>
        <time>2024-07-13T15:51:19+02:00</time>
      </trkpt>
      <trkpt lat="43.68735" lon="1.47065">
        <ele>183.90039</ele>
        <time>2024-07-13T15:51:20+02:00</time>
      </trkpt>
      <trkpt lat="43.68756" lon="1.47032">
        <ele>182.7998</ele>
        <time>2024-07-13T15:51:24+02:00</time>
      </trkpt>
      <trkpt lat="43.68763" lon="1.4703">
        <ele>182.5</ele>
        <time>2024-07-13T15:51:25+02:00</time>
      </trkpt>
      <trkpt lat="43.68797" lon="1.47061">
        <ele>181.2002</ele>
        <time>2024-07-13T15:51:29+02:00</time>
      </trkpt>
      <trkpt lat="43.68804" lon="1.4707">
        <ele>180.7998</ele>
        <time>2024-07-13T15:51:30+02:00</time>
      </trkpt>
      <trkpt lat="43.68827" lon="1.4711">
        <ele>178.2002</ele>
        <time>2024-07-13T15:51:34+02:00</time>
      </trkpt>
      <trkpt lat="43.68833" lon="1.47121">
        <ele>177.7002</ele>
        <time>2024-07-13T15:51:35+02:00</time>
      </trkpt>
      <trkpt lat="43.68868" lon="1.47158">
        <ele>176</ele>
        <time>2024-07-13T15:51:39+02:00</time>
      </trkpt>
      <trkpt lat="43.68876" lon="1.47168">
        <ele>176</ele>
        <time>2024-07-13T15:51:40+02:00</time>
      </trkpt>
      <trkpt lat="43.68899" lon="1.47197">
        <ele>176.5</ele>
        <time>2024-07-13T15:51:44+02:00</time>
      </trkpt>
      <trkpt lat="43.68903" lon="1.47201">
        <ele>176.7998</ele>
        <time>2024-07-13T15:51:45+02:00</time>
      </trkpt>
      <trkpt lat="43.68916" lon="1.47218">
        <ele>177.2002</ele>
        <time>2024-07-13T15:51:49+02:00</time>
      </trkpt>
      <trkpt lat="43.68919" lon="1.47222">
        <ele>177.10059</ele>
        <time>2024-07-13T15:51:50+02:00</time>
      </trkpt>
      <trkpt lat="43.68934" lon="1.4724">
        <ele>177.2002</ele>
        <time>2024-07-13T15:51:54+02:00</time>
      </trkpt>
      <trkpt lat="43.68936" lon="1.47245">
        <ele>177.10059</ele>
        <time>2024-07-13T15:51:55+02:00</time>
      </trkpt>
      <trkpt lat="43.68941" lon="1.47271">
        <ele>177.40039</ele>
        <time>2024-07-13T15:51:59+02:00</time>
      </trkpt>
      <trkpt lat="43.6894" lon="1.47278">
        <ele>177.40039</ele>
        <time>2024-07-13T15:52:00+02:00</time>
      </trkpt>
      <trkpt lat="43.6893" lon="1.47304">
        <ele>177.7998</ele>
        <time>2024-07-13T15:52:04+02:00</time>
      </trkpt>
      <trkpt lat="43.68926" lon="1.47311">
        <ele>178.2998</ele>
        <time>2024-07-13T15:52:05+02:00</time>
      </trkpt>
      <trkpt lat="43.68914" lon="1.47336">
        <ele>178.90039</ele>
        <time>2024-07-13T15:52:09+02:00</time>
      </trkpt>
      <trkpt lat="43.68911" lon="1.47342">
        <ele>178.7998</ele>
        <time>2024-07-13T15:52:10+02:00</time>
      </trkpt>
      <trkpt lat="43.68901" lon="1.4737">
        <ele>179.2998</ele>
        <time>2024-07-13T15:52:14+02:00</time>
      </trkpt>
      <trkpt lat="43.68901" lon="1.47378">
        <ele>179.10059</ele>
        <time>2024-07-13T15:52:15+02:00</time>
      </trkpt>
      <trkpt lat="43.68914" lon="1.47403">
        <ele>177.90039</ele>
        <time>2024-07-13T15:52:19+02:00</time>
      </trkpt>
      <trkpt lat="43.6892" lon="1.47407">
        <ele>177.5</ele>
        <time>2024-07-13T15:52:20+02:00</time>
      </trkpt>
      <trkpt lat="43.68938" lon="1.47428">
        <ele>176.90039</ele>
        <time>2024-07-13T15:52:24+02:00</time>
      </trkpt>
      <trkpt lat="43.68939" lon="1.4743">
        <ele>176.90039</ele>
        <time>2024-07-13T15:52:25+02:00</time>
      </trkpt>
      <trkpt lat="43.68949" lon="1.47433">
        <ele>176.5</ele>
        <time>2024-07-13T15:52:29+02:00</time>
      </trkpt>
      <trkpt lat="43.68954" lon="1.47432">
        <ele>176.2002</ele>
        <time>2024-07-13T15:52:30+02:00</time>
      </trkpt>
      <trkpt lat="43.68966" lon="1.47423">
        <ele>175.7002</ele>
        <time>2024-07-13T15:52:34+02:00</time>
      </trkpt>
      <trkpt lat="43.68969" lon="1.47421">
        <ele>175.2002</ele>
        <time>2024-07-13T15:52:35+02:00</time>
      </trkpt>
      <trkpt lat="43.68987" lon="1.47409">
        <ele>174</ele>
        <time>2024-07-13T15:52:39+02:00</time>
      </trkpt>
      <trkpt lat="43.68993" lon="1.47406">
        <ele>173.7998</ele>
        <time>2024-07-13T15:52:40+02:00</time>
      </trkpt>
      <trkpt lat="43.69022" lon="1.47391">
        <ele>173.2002</ele>
        <time>2024-07-13T15:52:44+02:00</time>
      </trkpt>
      <trkpt lat="43.69031" lon="1.47385">
        <ele>173.2998</ele>
        <time>2024-07-13T15:52:45+02:00</time>
      </trkpt>
      <trkpt lat="43.69052" lon="1.47364">
        <ele>173.90039</ele>
        <time>2024-07-13T15:52:49+02:00</time>
      </trkpt>
      <trkpt lat="43.69054" lon="1.47362">
        <ele>174</ele>
        <time>2024-07-13T15:52:50+02:00</time>
      </trkpt>
      <trkpt lat="43.6906" lon="1.47375">
        <ele>175.60059</ele>
        <time>2024-07-13T15:52:54+02:00</time>
      </trkpt>
      <trkpt lat="43.69063" lon="1.47379">
        <ele>175.60059</ele>
        <time>2024-07-13T15:52:55+02:00</time>
      </trkpt>
      <trkpt lat="43.69073" lon="1.47396">
        <ele>177.7002</ele>
        <time>2024-07-13T15:52:59+02:00</time>
      </trkpt>
      <trkpt lat="43.69076" lon="1.474">
        <ele>178.10059</ele>
        <time>2024-07-13T15:53:00+02:00</time>
      </trkpt>
      <trkpt lat="43.69085" lon="1.47415">
        <ele>179.7998</ele>
        <time>2024-07-13T15:53:04+02:00</time>
      </trkpt>
      <trkpt lat="43.69088" lon="1.4742">
        <ele>179.7998</ele>
        <time>2024-07-13T15:53:05+02:00</time>
      </trkpt>
      <trkpt lat="43.69094" lon="1.47436">
        <ele>180.90039</ele>
        <time>2024-07-13T15:53:09+02:00</time>
      </trkpt>
      <trkpt lat="43.69096" lon="1.47439">
        <ele>180.90039</ele>
        <time>2024-07-13T15:53:10+02:00</time>
      </trkpt>
      <trkpt lat="43.69103" lon="1.47456">
        <ele>182.7998</ele>
        <time>2024-07-13T15:53:14+02:00</time>
      </trkpt>
      <trkpt lat="43.69105" lon="1.4746">
        <ele>183.10059</ele>
        <time>2024-07-13T15:53:15+02:00</time>
      </trkpt>
      <trkpt lat="43.6911" lon="1.47476">
        <ele>184.40039</ele>
        <time>2024-07-13T15:53:19+02:00</time>
      </trkpt>
      <trkpt lat="43.69111" lon="1.4748">
        <ele>184.40039</ele>
        <time>2024-07-13T15:53:20+02:00</time>
      </trkpt>
      <trkpt lat="43.69115" lon="1.47499">
        <ele>185.2998</ele>
        <time>2024-07-13T15:53:24+02:00</time>
      </trkpt>
      <trkpt lat="43.69116" lon="1.47504">
        <ele>185.40039</ele>
        <time>2024-07-13T15:53:25+02:00</time>
      </trkpt>
      <trkpt lat="43.6912" lon="1.4752">
        <ele>185.5</ele>
        <time>2024-07-13T15:53:29+02:00</time>
      </trkpt>
      <trkpt lat="43.69121" lon="1.47524">
        <ele>185.5</ele>
        <time>2024-07-13T15:53:30+02:00</time>
      </trkpt>
      <trkpt lat="43.69125" lon="1.47542">
        <ele>186.2002</ele>
        <time>2024-07-13T15:53:34+02:00</time>
      </trkpt>
      <trkpt lat="43.69126" lon="1.47547">
        <ele>186.2002</ele>
        <time>2024-07-13T15:53:35+02:00</time>
      </trkpt>
      <trkpt lat="43.69131" lon="1.47563">
        <ele>186.7998</ele>
        <time>2024-07-13T15:53:39+02:00</time>
      </trkpt>
      <trkpt lat="43.69132" lon="1.47567">
        <ele>186.7998</ele>
        <time>2024-07-13T15:53:40+02:00</time>
      </trkpt>
      <trkpt lat="43.69137" lon="1.47582">
        <ele>187</ele>
        <time>2024-07-13T15:53:44+02:00</time>
      </trkpt>
      <trkpt lat="43.69138" lon="1.47586">
        <ele>186.7002</ele>
        <time>2024-07-13T15:53:45+02:00</time>
      </trkpt>
      <trkpt lat="43.69145" lon="1.47601">
        <ele>186.90039</ele>
        <time>2024-07-13T15:53:49+02:00</time>
      </trkpt>
      <trkpt lat="43.69146" lon="1.47605">
        <ele>187.10059</ele>
        <time>2024-07-13T15:53:50+02:00</time>
      </trkpt>
      <trkpt lat="43.69153" lon="1.47618">
        <ele>187.2002</ele>
        <time>2024-07-13T15:53:54+02:00</time>
      </trkpt>
      <trkpt lat="43.69156" lon="1.47621">
        <ele>186.7002</ele>
        <time>2024-07-13T15:53:55+02:00</time>
      </trkpt>
      <trkpt lat="43.69164" lon="1.47634">
        <ele>186.5</ele>
        <time>2024-07-13T15:53:59+02:00</time>
      </trkpt>
      <trkpt lat="43.69167" lon="1.47637">
        <ele>186.7998</ele>
        <time>2024-07-13T15:54:00+02:00</time>
      </trkpt>
      <trkpt lat="43.69177" lon="1.47647">
        <ele>185.60059</ele>
        <time>2024-07-13T15:54:04+02:00</time>
      </trkpt>
      <trkpt lat="43.69179" lon="1.47649">
        <ele>185.90039</ele>
        <time>2024-07-13T15:54:05+02:00</time>
      </trkpt>
      <trkpt lat="43.6919" lon="1.47657">
        <ele>186</ele>
        <time>2024-07-13T15:54:09+02:00</time>
      </trkpt>
      <trkpt lat="43.69192" lon="1.4766">
        <ele>186</ele>
        <time>2024-07-13T15:54:10+02:00</time>
      </trkpt>
      <trkpt lat="43.69204" lon="1.4767">
        <ele>186.2998</ele>
        <time>2024-07-13T15:54:15+02:00</time>
      </trkpt>
      <trkpt lat="43.69207" lon="1.47672">
        <ele>185.7002</ele>
        <time>2024-07-13T15:54:16+02:00</time>
      </trkpt>
      <trkpt lat="43.69218" lon="1.47681">
        <ele>185.7998</ele>
        <time>2024-07-13T15:54:20+02:00</time>
      </trkpt>
      <trkpt lat="43.6922" lon="1.47684">
        <ele>185.7998</ele>
        <time>2024-07-13T15:54:21+02:00</time>
      </trkpt>
      <trkpt lat="43.69232" lon="1.47691">
        <ele>186</ele>
        <time>2024-07-13T15:54:25+02:00</time>
      </trkpt>
      <trkpt lat="43.69235" lon="1.47694">
        <ele>186.5</ele>
        <time>2024-07-13T15:54:26+02:00</time>
      </trkpt>
      <trkpt lat="43.69247" lon="1.47707">
        <ele>186.7002</ele>
        <time>2024-07-13T15:54:30+02:00</time>
      </trkpt>
      <trkpt lat="43.69251" lon="1.4771">
        <ele>186.7002</ele>
        <time>2024-07-13T15:54:31+02:00</time>
      </trkpt>
      <trkpt lat="43.69269" lon="1.47728">
        <ele>188</ele>
        <time>2024-07-13T15:54:35+02:00</time>
      </trkpt>
      <trkpt lat="43.69274" lon="1.47733">
        <ele>188.2998</ele>
        <time>2024-07-13T15:54:36+02:00</time>
      </trkpt>
      <trkpt lat="43.69291" lon="1.47755">
        <ele>189.5</ele>
        <time>2024-07-13T15:54:40+02:00</time>
      </trkpt>
      <trkpt lat="43.69295" lon="1.4776">
        <ele>189.60059</ele>
        <time>2024-07-13T15:54:41+02:00</time>
      </trkpt>
      <trkpt lat="43.69311" lon="1.47776">
        <ele>189.7998</ele>
        <time>2024-07-13T15:54:45+02:00</time>
      </trkpt>
      <trkpt lat="43.69315" lon="1.47778">
        <ele>190.2002</ele>
        <time>2024-07-13T15:54:46+02:00</time>
      </trkpt>
      <trkpt lat="43.69333" lon="1.47781">
        <ele>191.7002</ele>
        <time>2024-07-13T15:54:50+02:00</time>
      </trkpt>
      <trkpt lat="43.69338" lon="1.4778">
        <ele>191.7002</ele>
        <time>2024-07-13T15:54:51+02:00</time>
      </trkpt>
      <trkpt lat="43.69358" lon="1.47778">
        <ele>193.60059</ele>
        <time>2024-07-13T15:54:55+02:00</time>
      </trkpt>
      <trkpt lat="43.69363" lon="1.47777">
        <ele>193.60059</ele>
        <time>2024-07-13T15:54:56+02:00</time>
      </trkpt>
      <trkpt lat="43.69383" lon="1.47777">
        <ele>195.2998</ele>
        <time>2024-07-13T15:55:00+02:00</time>
      </trkpt>
      <trkpt lat="43.69388" lon="1.47777">
        <ele>195.7002</ele>
        <time>2024-07-13T15:55:01+02:00</time>
      </trkpt>
      <trkpt lat="43.69409" lon="1.47776">
        <ele>197.2998</ele>
        <time>2024-07-13T15:55:05+02:00</time>
      </trkpt>
      <trkpt lat="43.69414" lon="1.47775">
        <ele>197.90039</ele>
        <time>2024-07-13T15:55:06+02:00</time>
      </trkpt>
      <trkpt lat="43.6943" lon="1.47776">
        <ele>199.2002</ele>
        <time>2024-07-13T15:55:10+02:00</time>
      </trkpt>
      <trkpt lat="43.69435" lon="1.47776">
        <ele>199.90039</ele>
        <time>2024-07-13T15:55:11+02:00</time>
      </trkpt>
      <trkpt lat="43.6945" lon="1.47757">
        <ele>201.40039</ele>
        <time>2024-07-13T15:55:15+02:00</time>
      </trkpt>
      <trkpt lat="43.69452" lon="1.47751">
        <ele>202</ele>
        <time>2024-07-13T15:55:16+02:00</time>
      </trkpt>
      <trkpt lat="43.6946" lon="1.47731">
        <ele>203</ele>
        <time>2024-07-13T15:55:20+02:00</time>
      </trkpt>
      <trkpt lat="43.69462" lon="1.47726">
        <ele>203</ele>
        <time>2024-07-13T15:55:21+02:00</time>
      </trkpt>
      <trkpt lat="43.69471" lon="1.47707">
        <ele>204.5</ele>
        <time>2024-07-13T15:55:25+02:00</time>
      </trkpt>
      <trkpt lat="43.69473" lon="1.47702">
        <ele>204.7002</ele>
        <time>2024-07-13T15:55:26+02:00</time>
      </trkpt>
      <trkpt lat="43.69481" lon="1.47684">
        <ele>205.7998</ele>
        <time>2024-07-13T15:55:30+02:00</time>
      </trkpt>
      <trkpt lat="43.69483" lon="1.47679">
        <ele>205.90039</ele>
        <time>2024-07-13T15:55:31+02:00</time>
      </trkpt>
      <trkpt lat="43.69485" lon="1.4766">
        <ele>206</ele>
        <time>2024-07-13T15:55:35+02:00</time>
      </trkpt>
      <trkpt lat="43.69485" lon="1.47656">
        <ele>206</ele>
        <time>2024-07-13T15:55:36+02:00</time>
      </trkpt>
      <trkpt lat="43.69488" lon="1.47638">
        <ele>206.5</ele>
        <time>2024-07-13T15:55:40+02:00</time>
      </trkpt>
      <trkpt lat="43.69489" lon="1.47632">
        <ele>206.5</ele>
        <time>2024-07-13T15:55:41+02:00</time>
      </trkpt>
      <trkpt lat="43.69493" lon="1.47611">
        <ele>206.5</ele>
        <time>2024-07-13T15:55:45+02:00</time>
      </trkpt>
      <trkpt lat="43.69494" lon="1.47606">
        <ele>206.7998</ele>
        <time>2024-07-13T15:55:46+02:00</time>
      </trkpt>
      <trkpt lat="43.69499" lon="1.47586">
        <ele>206.60059</ele>
        <time>2024-07-13T15:55:50+02:00</time>
      </trkpt>
      <trkpt lat="43.69501" lon="1.47582">
        <ele>206.90039</ele>
        <time>2024-07-13T15:55:51+02:00</time>
      </trkpt>
      <trkpt lat="43.69509" lon="1.47566">
        <ele>207</ele>
        <time>2024-07-13T15:55:55+02:00</time>
      </trkpt>
      <trkpt lat="43.69511" lon="1.47561">
        <ele>207</ele>
        <time>2024-07-13T15:55:56+02:00</time>
      </trkpt>
      <trkpt lat="43.6952" lon="1.47547">
        <ele>207.60059</ele>
        <time>2024-07-13T15:56:00+02:00</time>
      </trkpt>
      <trkpt lat="43.69522" lon="1.47544">
        <ele>207.60059</ele>
        <time>2024-07-13T15:56:01+02:00</time>
      </trkpt>
      <trkpt lat="43.69533" lon="1.47528">
        <ele>208.2002</ele>
        <time>2024-07-13T15:56:05+02:00</time>
      </trkpt>
      <trkpt lat="43.69536" lon="1.47524">
        <ele>208.2998</ele>
        <time>2024-07-13T15:56:06+02:00</time>
      </trkpt>
      <trkpt lat="43.69543" lon="1.47515">
        <ele>208.60059</ele>
        <time>2024-07-13T15:56:10+02:00</time>
      </trkpt>
      <trkpt lat="43.69544" lon="1.47514">
        <ele>208.7998</ele>
        <time>2024-07-13T15:56:11+02:00</time>
      </trkpt>
      <trkpt lat="43.69553" lon="1.47522">
        <ele>209.10059</ele>
        <time>2024-07-13T15:56:15+02:00</time>
      </trkpt>
      <trkpt lat="43.69558" lon="1.47525">
        <ele>209.2998</ele>
        <time>2024-07-13T15:56:16+02:00</time>
      </trkpt>
      <trkpt lat="43.69574" lon="1.47541">
        <ele>209.40039</ele>
        <time>2024-07-13T15:56:20+02:00</time>
      </trkpt>
      <trkpt lat="43.69577" lon="1.47547">
        <ele>209.5</ele>
        <time>2024-07-13T15:56:21+02:00</time>
      </trkpt>
      <trkpt lat="43.69584" lon="1.47576">
        <ele>209.40039</ele>
        <time>2024-07-13T15:56:25+02:00</time>
      </trkpt>
      <trkpt lat="43.69584" lon="1.47583">
        <ele>209.2998</ele>
        <time>2024-07-13T15:56:26+02:00</time>
      </trkpt>
      <trkpt lat="43.69588" lon="1.47611">
        <ele>209.2998</ele>
        <time>2024-07-13T15:56:30+02:00</time>
      </trkpt>
      <trkpt lat="43.6959" lon="1.47617">
        <ele>209.2998</ele>
        <time>2024-07-13T15:56:31+02:00</time>
      </trkpt>
      <trkpt lat="43.69601" lon="1.47642">
        <ele>209.40039</ele>
        <time>2024-07-13T15:56:35+02:00</time>
      </trkpt>
      <trkpt lat="43.69603" lon="1.47648">
        <ele>209.40039</ele>
        <time>2024-07-13T15:56:36+02:00</time>
      </trkpt>
      <trkpt lat="43.69613" lon="1.47671">
        <ele>209.60059</ele>
        <time>2024-07-13T15:56:40+02:00</time>
      </trkpt>
      <trkpt lat="43.69616" lon="1.47677">
        <ele>209.7002</ele>
        <time>2024-07-13T15:56:41+02:00</time>
      </trkpt>
      <trkpt lat="43.69624" lon="1.47701">
        <ele>210.10059</ele>
        <time>2024-07-13T15:56:45+02:00</time>
      </trkpt>
      <trkpt lat="43.69627" lon="1.47707">
        <ele>210.2002</ele>
        <time>2024-07-13T15:56:46+02:00</time>
      </trkpt>
      <trkpt lat="43.69636" lon="1.47731">
        <ele>210.40039</ele>
        <time>2024-07-13T15:56:50+02:00</time>
      </trkpt>
      <trkpt lat="43.69638" lon="1.47736">
        <ele>210.60059</ele>
        <time>2024-07-13T15:56:51+02:00</time>
      </trkpt>
      <trkpt lat="43.69644" lon="1.47751">
        <ele>210.7002</ele>
        <time>2024-07-13T15:56:55+02:00</time>
      </trkpt>
      <trkpt lat="43.69644" lon="1.47754">
        <ele>210.7002</ele>
        <time>2024-07-13T15:56:56+02:00</time>
      </trkpt>
      <trkpt lat="43.69649" lon="1.47765">
        <ele>210.7002</ele>
        <time>2024-07-13T15:57:00+02:00</time>
      </trkpt>
      <trkpt lat="43.69653" lon="1.47768">
        <ele>210.7002</ele>
        <time>2024-07-13T15:57:01+02:00</time>
      </trkpt>
      <trkpt lat="43.69667" lon="1.47783">
        <ele>210.60059</ele>
        <time>2024-07-13T15:57:05+02:00</time>
      </trkpt>
      <trkpt lat="43.69671" lon="1.47788">
        <ele>210.60059</ele>
        <time>2024-07-13T15:57:06+02:00</time>
      </trkpt>
      <trkpt lat="43.69685" lon="1.47805">
        <ele>210.40039</ele>
        <time>2024-07-13T15:57:10+02:00</time>
      </trkpt>
      <trkpt lat="43.69688" lon="1.47809">
        <ele>210.2998</ele>
        <time>2024-07-13T15:57:11+02:00</time>
      </trkpt>
      <trkpt lat="43.69704" lon="1.47827">
        <ele>210.10059</ele>
        <time>2024-07-13T15:57:15+02:00</time>
      </trkpt>
      <trkpt lat="43.69708" lon="1.4783">
        <ele>210.10059</ele>
        <time>2024-07-13T15:57:16+02:00</time>
      </trkpt>
      <trkpt lat="43.69728" lon="1.47838">
        <ele>210.10059</ele>
        <time>2024-07-13T15:57:20+02:00</time>
      </trkpt>
      <trkpt lat="43.69733" lon="1.47838">
        <ele>210</ele>
        <time>2024-07-13T15:57:21+02:00</time>
      </trkpt>
      <trkpt lat="43.69754" lon="1.47836">
        <ele>209.7002</ele>
        <time>2024-07-13T15:57:25+02:00</time>
      </trkpt>
      <trkpt lat="43.69759" lon="1.47835">
        <ele>209.5</ele>
        <time>2024-07-13T15:57:26+02:00</time>
      </trkpt>
      <trkpt lat="43.69782" lon="1.4783">
        <ele>208.7998</ele>
        <time>2024-07-13T15:57:30+02:00</time>
      </trkpt>
      <trkpt lat="43.69788" lon="1.47828">
        <ele>208.7002</ele>
        <time>2024-07-13T15:57:31+02:00</time>
      </trkpt>
      <trkpt lat="43.69812" lon="1.47818">
        <ele>208.10059</ele>
        <time>2024-07-13T15:57:35+02:00</time>
      </trkpt>
      <trkpt lat="43.69818" lon="1.47816">
        <ele>208</ele>
        <time>2024-07-13T15:57:36+02:00</time>
      </trkpt>
      <trkpt lat="43.69845" lon="1.47806">
        <ele>207.10059</ele>
        <time>2024-07-13T15:57:40+02:00</time>
      </trkpt>
      <trkpt lat="43.69851" lon="1.47803">
        <ele>206.7998</ele>
        <time>2024-07-13T15:57:41+02:00</time>
      </trkpt>
      <trkpt lat="43.6988" lon="1.47792">
        <ele>205.60059</ele>
        <time>2024-07-13T15:57:45+02:00</time>
      </trkpt>
      <trkpt lat="43.69887" lon="1.47785">
        <ele>205.60059</ele>
        <time>2024-07-13T15:57:46+02:00</time>
      </trkpt>
      <trkpt lat="43.69911" lon="1.47751">
        <ele>205.7002</ele>
        <time>2024-07-13T15:57:50+02:00</time>
      </trkpt>
      <trkpt lat="43.69916" lon="1.47743">
        <ele>205.5</ele>
        <time>2024-07-13T15:57:51+02:00</time>
      </trkpt>
      <trkpt lat="43.6994" lon="1.47707">
        <ele>204.60059</ele>
        <time>2024-07-13T15:57:55+02:00</time>
      </trkpt>
      <trkpt lat="43.69947" lon="1.47699">
        <ele>203.7998</ele>
        <time>2024-07-13T15:57:56+02:00</time>
      </trkpt>
      <trkpt lat="43.69975" lon="1.47662">
        <ele>201.2002</ele>
        <time>2024-07-13T15:58:00+02:00</time>
      </trkpt>
      <trkpt lat="43.69982" lon="1.47653">
        <ele>200.7002</ele>
        <time>2024-07-13T15:58:01+02:00</time>
      </trkpt>
      <trkpt lat="43.70015" lon="1.47624">
        <ele>199</ele>
        <time>2024-07-13T15:58:05+02:00</time>
      </trkpt>
      <trkpt lat="43.70024" lon="1.47621">
        <ele>198.90039</ele>
        <time>2024-07-13T15:58:06+02:00</time>
      </trkpt>
      <trkpt lat="43.70062" lon="1.4762">
        <ele>198.5</ele>
        <time>2024-07-13T15:58:10+02:00</time>
      </trkpt>
      <trkpt lat="43.7007" lon="1.47621">
        <ele>197.90039</ele>
        <time>2024-07-13T15:58:11+02:00</time>
      </trkpt>
      <trkpt lat="43.70105" lon="1.4763">
        <ele>196.5</ele>
        <time>2024-07-13T15:58:15+02:00</time>
      </trkpt>
      <trkpt lat="43.70114" lon="1.47631">
        <ele>196.40039</ele>
        <time>2024-07-13T15:58:16+02:00</time>
      </trkpt>
      <trkpt lat="43.70147" lon="1.47625">
        <ele>196.90039</ele>
        <time>2024-07-13T15:58:20+02:00</time>
      </trkpt>
      <trkpt lat="43.70156" lon="1.4762">
        <ele>197</ele>
        <time>2024-07-13T15:58:21+02:00</time>
      </trkpt>
      <trkpt lat="43.70187" lon="1.47606">
        <ele>197.60059</ele>
        <time>2024-07-13T15:58:25+02:00</time>
      </trkpt>
      <trkpt lat="43.70195" lon="1.47605">
        <ele>197.2998</ele>
        <time>2024-07-13T15:58:26+02:00</time>
      </trkpt>
      <trkpt lat="43.7022" lon="1.47618">
        <ele>196.2002</ele>
        <time>2024-07-13T15:58:30+02:00</time>
      </trkpt>
      <trkpt lat="43.70225" lon="1.47623">
        <ele>195.90039</ele>
        <time>2024-07-13T15:58:31+02:00</time>
      </trkpt>
      <trkpt lat="43.70244" lon="1.47638">
        <ele>194.7002</ele>
        <time>2024-07-13T15:58:35+02:00</time>
      </trkpt>
      <trkpt lat="43.70248" lon="1.47641">
        <ele>194.60059</ele>
        <time>2024-07-13T15:58:36+02:00</time>
      </trkpt>
      <trkpt lat="43.70266" lon="1.47657">
        <ele>193.7998</ele>
        <time>2024-07-13T15:58:40+02:00</time>
      </trkpt>
      <trkpt lat="43.70271" lon="1.4766">
        <ele>193.7998</ele>
        <time>2024-07-13T15:58:41+02:00</time>
      </trkpt>
      <trkpt lat="43.70291" lon="1.47673">
        <ele>193.40039</ele>
        <time>2024-07-13T15:58:45+02:00</time>
      </trkpt>
      <trkpt lat="43.70296" lon="1.47676">
        <ele>193.5</ele>
        <time>2024-07-13T15:58:46+02:00</time>
      </trkpt>
      <trkpt lat="43.70318" lon="1.47688">
        <ele>193.2998</ele>
        <time>2024-07-13T15:58:50+02:00</time>
      </trkpt>
      <trkpt lat="43.70324" lon="1.4769">
        <ele>193.10059</ele>
        <time>2024-07-13T15:58:51+02:00</time>
      </trkpt>
      <trkpt lat="43.70352" lon="1.47703">
        <ele>191.7002</ele>
        <time>2024-07-13T15:58:55+02:00</time>
      </trkpt>
      <trkpt lat="43.70359" lon="1.47706">
        <ele>191.10059</ele>
        <time>2024-07-13T15:58:56+02:00</time>
      </trkpt>
      <trkpt lat="43.70387" lon="1.47723">
        <ele>188.7002</ele>
        <time>2024-07-13T15:59:00+02:00</time>
      </trkpt>
      <trkpt lat="43.70394" lon="1.47726">
        <ele>188.2002</ele>
        <time>2024-07-13T15:59:01+02:00</time>
      </trkpt>
      <trkpt lat="43.70422" lon="1.47738">
        <ele>187.2998</ele>
        <time>2024-07-13T15:59:05+02:00</time>
      </trkpt>
      <trkpt lat="43.70429" lon="1.47741">
        <ele>187.10059</ele>
        <time>2024-07-13T15:59:06+02:00</time>
      </trkpt>
      <trkpt lat="43.70455" lon="1.47755">
        <ele>186.60059</ele>
        <time>2024-07-13T15:59:10+02:00</time>
      </trkpt>
      <trkpt lat="43.70461" lon="1.47758">
        <ele>186.2998</ele>
        <time>2024-07-13T15:59:11+02:00</time>
      </trkpt>
      <trkpt lat="43.7048" lon="1.47769">
        <ele>186</ele>
        <time>2024-07-13T15:59:15+02:00</time>
      </trkpt>
      <trkpt lat="43.70482" lon="1.47771">
        <ele>185.90039</ele>
        <time>2024-07-13T15:59:16+02:00</time>
      </trkpt>
      <trkpt lat="43.70485" lon="1.47772">
        <ele>185.90039</ele>
        <time>2024-07-13T16:05:49+02:00</time>
      </trkpt>
      <trkpt lat="43.70486" lon="1.4777">
        <ele>185.90039</ele>
        <time>2024-07-13T16:05:50+02:00</time>
      </trkpt>
      <trkpt lat="43.70496" lon="1.47769">
        <ele>185.7998</ele>
        <time>2024-07-13T16:05:54+02:00</time>
      </trkpt>
      <trkpt lat="43.70499" lon="1.4777">
        <ele>185.7998</ele>
        <time>2024-07-13T16:05:55+02:00</time>
      </trkpt>
      <trkpt lat="43.70512" lon="1.47772">
        <ele>185.7002</ele>
        <time>2024-07-13T16:05:59+02:00</time>
      </trkpt>
      <trkpt lat="43.70516" lon="1.47773">
        <ele>185.7002</ele>
        <time>2024-07-13T16:06:00+02:00</time>
      </trkpt>
      <trkpt lat="43.70532" lon="1.47774">
        <ele>185.60059</ele>
        <time>2024-07-13T16:06:04+02:00</time>
      </trkpt>
      <trkpt lat="43.70536" lon="1.47775">
        <ele>185.60059</ele>
        <time>2024-07-13T16:06:05+02:00</time>
      </trkpt>
      <trkpt lat="43.70554" lon="1.47778">
        <ele>185.5</ele>
        <time>2024-07-13T16:06:09+02:00</time>
      </trkpt>
      <trkpt lat="43.70559" lon="1.47779">
        <ele>185.5</ele>
        <time>2024-07-13T16:06:10+02:00</time>
      </trkpt>
      <trkpt lat="43.70578" lon="1.47781">
        <ele>185.40039</ele>
        <time>2024-07-13T16:06:14+02:00</time>
      </trkpt>
      <trkpt lat="43.70584" lon="1.47781">
        <ele>185.40039</ele>
        <time>2024-07-13T16:06:15+02:00</time>
      </trkpt>
      <trkpt lat="43.70605" lon="1.47784">
        <ele>185.2002</ele>
        <time>2024-07-13T16:06:19+02:00</time>
      </trkpt>
      <trkpt lat="43.7061" lon="1.47786">
        <ele>185.2002</ele>
        <time>2024-07-13T16:06:20+02:00</time>
      </trkpt>
      <trkpt lat="43.70633" lon="1.47791">
        <ele>184.90039</ele>
        <time>2024-07-13T16:06:24+02:00</time>
      </trkpt>
      <trkpt lat="43.70639" lon="1.47792">
        <ele>184.90039</ele>
        <time>2024-07-13T16:06:25+02:00</time>
      </trkpt>
      <trkpt lat="43.70661" lon="1.47798">
        <ele>184.7002</ele>
        <time>2024-07-13T16:06:29+02:00</time>
      </trkpt>
      <trkpt lat="43.70667" lon="1.47799">
        <ele>184.60059</ele>
        <time>2024-07-13T16:06:30+02:00</time>
      </trkpt>
      <trkpt lat="43.70689" lon="1.47804">
        <ele>184.7002</ele>
        <time>2024-07-13T16:06:34+02:00</time>
      </trkpt>
      <trkpt lat="43.70694" lon="1.47805">
        <ele>184.60059</ele>
        <time>2024-07-13T16:06:35+02:00</time>
      </trkpt>
      <trkpt lat="43.70714" lon="1.4781">
        <ele>184.7002</ele>
        <time>2024-07-13T16:06:39+02:00</time>
      </trkpt>
      <trkpt lat="43.7072" lon="1.47812">
        <ele>184.7002</ele>
        <time>2024-07-13T16:06:40+02:00</time>
      </trkpt>
      <trkpt lat="43.7074" lon="1.47822">
        <ele>184.7002</ele>
        <time>2024-07-13T16:06:44+02:00</time>
      </trkpt>
      <trkpt lat="43.70745" lon="1.47824">
        <ele>184.60059</ele>
        <time>2024-07-13T16:06:45+02:00</time>
      </trkpt>
      <trkpt lat="43.70762" lon="1.47833">
        <ele>184.5</ele>
        <time>2024-07-13T16:06:49+02:00</time>
      </trkpt>
      <trkpt lat="43.70766" lon="1.47835">
        <ele>184.40039</ele>
        <time>2024-07-13T16:06:50+02:00</time>
      </trkpt>
      <trkpt lat="43.70782" lon="1.47843">
        <ele>184.2998</ele>
        <time>2024-07-13T16:06:54+02:00</time>
      </trkpt>
      <trkpt lat="43.70787" lon="1.47846">
        <ele>184.2998</ele>
        <time>2024-07-13T16:06:55+02:00</time>
      </trkpt>
      <trkpt lat="43.70807" lon="1.47854">
        <ele>183.90039</ele>
        <time>2024-07-13T16:06:59+02:00</time>
      </trkpt>
      <trkpt lat="43.70812" lon="1.47856">
        <ele>183.7002</ele>
        <time>2024-07-13T16:07:00+02:00</time>
      </trkpt>
      <trkpt lat="43.70832" lon="1.47859">
        <ele>183.2002</ele>
        <time>2024-07-13T16:07:04+02:00</time>
      </trkpt>
      <trkpt lat="43.70837" lon="1.47858">
        <ele>183</ele>
        <time>2024-07-13T16:07:05+02:00</time>
      </trkpt>
      <trkpt lat="43.70856" lon="1.47844">
        <ele>182.2998</ele>
        <time>2024-07-13T16:07:09+02:00</time>
      </trkpt>
      <trkpt lat="43.70861" lon="1.47839">
        <ele>181.90039</ele>
        <time>2024-07-13T16:07:10+02:00</time>
      </trkpt>
      <trkpt lat="43.70881" lon="1.47824">
        <ele>181.10059</ele>
        <time>2024-07-13T16:07:14+02:00</time>
      </trkpt>
      <trkpt lat="43.70884" lon="1.47822">
        <ele>180.90039</ele>
        <time>2024-07-13T16:07:15+02:00</time>
      </trkpt>
      <trkpt lat="43.70886" lon="1.4782">
        <ele>180.90039</ele>
        <time>2024-07-13T16:07:19+02:00</time>
      </trkpt>
      <trkpt lat="43.70886" lon="1.4782">
        <ele>180.90039</ele>
        <time>2024-07-13T16:07:20+02:00</time>
      </trkpt>
      <trkpt lat="43.70884" lon="1.47821">
        <ele>180.90039</ele>
        <time>2024-07-13T16:07:26+02:00</time>
      </trkpt>
      <trkpt lat="43.70884" lon="1.47821">
        <ele>180.90039</ele>
        <time>2024-07-13T16:07:27+02:00</time>
      </trkpt>
      <trkpt lat="43.70883" lon="1.47822">
        <ele>181.10059</ele>
        <time>2024-07-13T16:07:36+02:00</time>
      </trkpt>
      <trkpt lat="43.70883" lon="1.47822">
        <ele>181.10059</ele>
        <time>2024-07-13T16:07:37+02:00</time>
      </trkpt>
      <trkpt lat="43.70883" lon="1.47821">
        <ele>181.10059</ele>
        <time>2024-07-13T16:07:46+02:00</time>
      </trkpt>
      <trkpt lat="43.70883" lon="1.47821">
        <ele>181.10059</ele>
        <time>2024-07-13T16:07:47+02:00</time>
      </trkpt>
      <trkpt lat="43.70883" lon="1.47822">
        <ele>181.10059</ele>
        <time>2024-07-13T16:07:56+02:00</time>
      </trkpt>
      <trkpt lat="43.70883" lon="1.47822">
        <ele>181.10059</ele>
        <time>2024-07-13T16:07:57+02:00</time>
      </trkpt>
      <trkpt lat="43.70883" lon="1.47822">
        <ele>181.10059</ele>
        <time>2024-07-13T16:08:03+02:00</time>
      </trkpt>
      <trkpt lat="43.70882" lon="1.47822">
        <ele>181.10059</ele>
        <time>2024-07-13T16:08:06+02:00</time>
      </trkpt>
      <trkpt lat="43.70882" lon="1.47822">
        <ele>181.10059</ele>
        <time>2024-07-13T16:08:13+02:00</time>
      </trkpt>
      <trkpt lat="43.70882" lon="1.47822">
        <ele>181.10059</ele>
        <time>2024-07-13T16:08:16+02:00</time>
      </trkpt>
      <trkpt lat="43.70882" lon="1.47822">
        <ele>181.10059</ele>
        <time>2024-07-13T16:08:20+02:00</time>
      </trkpt>
      <trkpt lat="43.70883" lon="1.47822">
        <ele>181.10059</ele>
        <time>2024-07-13T16:08:21+02:00</time>
      </trkpt>
      <trkpt lat="43.70883" lon="1.47822">
        <ele>181.10059</ele>
        <time>2024-07-13T16:08:25+02:00</time>
      </trkpt>
      <trkpt lat="43.70883" lon="1.47822">
        <ele>181.10059</ele>
        <time>2024-07-13T16:08:26+02:00</time>
      </trkpt>
      <trkpt lat="43.70883" lon="1.47822">
        <ele>181.10059</ele>
        <time>2024-07-13T16:08:32+02:00</time>
      </trkpt>
      <trkpt lat="43.70883" lon="1.47822">
        <ele>181.10059</ele>
        <time>2024-07-13T16:08:33+02:00</time>
      </trkpt>
      <trkpt lat="43.70888" lon="1.47817">
        <ele>180.7998</ele>
        <time>2024-07-13T16:08:42+02:00</time>
      </trkpt>
      <trkpt lat="43.70889" lon="1.47816">
        <ele>180.7998</ele>
        <time>2024-07-13T16:08:43+02:00</time>
      </trkpt>
      <trkpt lat="43.70927" lon="1.47799">
        <ele>179.5</ele>
        <time>2024-07-13T16:08:52+02:00</time>
      </trkpt>
      <trkpt lat="43.70932" lon="1.47798">
        <ele>179.5</ele>
        <time>2024-07-13T16:08:53+02:00</time>
      </trkpt>
      <trkpt lat="43.70984" lon="1.47808">
        <ele>178.2998</ele>
        <time>2024-07-13T16:09:02+02:00</time>
      </trkpt>
      <trkpt lat="43.71008" lon="1.47827">
        <ele>178.90039</ele>
        <time>2024-07-13T16:09:07+02:00</time>
      </trkpt>
      <trkpt lat="43.71038" lon="1.47842">
        <ele>179.2002</ele>
        <time>2024-07-13T16:09:17+02:00</time>
      </trkpt>
      <trkpt lat="43.7105" lon="1.47854">
        <ele>179.90039</ele>
        <time>2024-07-13T16:09:22+02:00</time>
      </trkpt>
      <trkpt lat="43.71074" lon="1.47879">
        <ele>180.5</ele>
        <time>2024-07-13T16:09:29+02:00</time>
      </trkpt>
      <trkpt lat="43.7109" lon="1.47893">
        <ele>180.40039</ele>
        <time>2024-07-13T16:09:33+02:00</time>
      </trkpt>
      <trkpt lat="43.71095" lon="1.47896">
        <ele>180.40039</ele>
        <time>2024-07-13T16:09:34+02:00</time>
      </trkpt>
      <trkpt lat="43.71112" lon="1.47909">
        <ele>180.2002</ele>
        <time>2024-07-13T16:09:38+02:00</time>
      </trkpt>
      <trkpt lat="43.71116" lon="1.47912">
        <ele>180.10059</ele>
        <time>2024-07-13T16:09:39+02:00</time>
      </trkpt>
      <trkpt lat="43.71133" lon="1.47927">
        <ele>179.7002</ele>
        <time>2024-07-13T16:09:43+02:00</time>
      </trkpt>
      <trkpt lat="43.71137" lon="1.4793">
        <ele>179.7002</ele>
        <time>2024-07-13T16:09:44+02:00</time>
      </trkpt>
      <trkpt lat="43.71157" lon="1.4794">
        <ele>179.2002</ele>
        <time>2024-07-13T16:09:48+02:00</time>
      </trkpt>
      <trkpt lat="43.71163" lon="1.47941">
        <ele>179.2002</ele>
        <time>2024-07-13T16:09:49+02:00</time>
      </trkpt>
      <trkpt lat="43.71183" lon="1.47931">
        <ele>178.7002</ele>
        <time>2024-07-13T16:09:53+02:00</time>
      </trkpt>
      <trkpt lat="43.71188" lon="1.47926">
        <ele>178.5</ele>
        <time>2024-07-13T16:09:54+02:00</time>
      </trkpt>
      <trkpt lat="43.71204" lon="1.47902">
        <ele>178</ele>
        <time>2024-07-13T16:09:58+02:00</time>
      </trkpt>
      <trkpt lat="43.71209" lon="1.47897">
        <ele>177.7998</ele>
        <time>2024-07-13T16:09:59+02:00</time>
      </trkpt>
      <trkpt lat="43.7122" lon="1.47873">
        <ele>177.2002</ele>
        <time>2024-07-13T16:10:03+02:00</time>
      </trkpt>
      <trkpt lat="43.71222" lon="1.47865">
        <ele>177.10059</ele>
        <time>2024-07-13T16:10:04+02:00</time>
      </trkpt>
      <trkpt lat="43.71231" lon="1.47834">
        <ele>176.40039</ele>
        <time>2024-07-13T16:10:08+02:00</time>
      </trkpt>
      <trkpt lat="43.71233" lon="1.47826">
        <ele>176.2998</ele>
        <time>2024-07-13T16:10:09+02:00</time>
      </trkpt>
      <trkpt lat="43.71243" lon="1.47792">
        <ele>175.7002</ele>
        <time>2024-07-13T16:10:13+02:00</time>
      </trkpt>
      <trkpt lat="43.71246" lon="1.47783">
        <ele>175.5</ele>
        <time>2024-07-13T16:10:14+02:00</time>
      </trkpt>
      <trkpt lat="43.71262" lon="1.47752">
        <ele>175</ele>
        <time>2024-07-13T16:10:18+02:00</time>
      </trkpt>
      <trkpt lat="43.71265" lon="1.47744">
        <ele>174.7998</ele>
        <time>2024-07-13T16:10:19+02:00</time>
      </trkpt>
      <trkpt lat="43.71279" lon="1.47712">
        <ele>174.2998</ele>
        <time>2024-07-13T16:10:23+02:00</time>
      </trkpt>
      <trkpt lat="43.71281" lon="1.47704">
        <ele>174.10059</ele>
        <time>2024-07-13T16:10:24+02:00</time>
      </trkpt>
      <trkpt lat="43.71293" lon="1.47683">
        <ele>173.7002</ele>
        <time>2024-07-13T16:10:29+02:00</time>
      </trkpt>
      <trkpt lat="43.71294" lon="1.47682">
        <ele>173.7002</ele>
        <time>2024-07-13T16:10:30+02:00</time>
      </trkpt>
      <trkpt lat="43.713" lon="1.47687">
        <ele>173.60059</ele>
        <time>2024-07-13T16:10:34+02:00</time>
      </trkpt>
      <trkpt lat="43.71302" lon="1.47688">
        <ele>173.60059</ele>
        <time>2024-07-13T16:10:35+02:00</time>
      </trkpt>
      <trkpt lat="43.7131" lon="1.47691">
        <ele>173.7002</ele>
        <time>2024-07-13T16:10:39+02:00</time>
      </trkpt>
      <trkpt lat="43.71314" lon="1.47691">
        <ele>173.60059</ele>
        <time>2024-07-13T16:10:40+02:00</time>
      </trkpt>
      <trkpt lat="43.71326" lon="1.47698">
        <ele>173.60059</ele>
        <time>2024-07-13T16:10:44+02:00</time>
      </trkpt>
      <trkpt lat="43.71328" lon="1.47701">
        <ele>173.60059</ele>
        <time>2024-07-13T16:10:45+02:00</time>
      </trkpt>
      <trkpt lat="43.71341" lon="1.47713">
        <ele>173.60059</ele>
        <time>2024-07-13T16:10:49+02:00</time>
      </trkpt>
      <trkpt lat="43.71345" lon="1.47717">
        <ele>173.60059</ele>
        <time>2024-07-13T16:10:50+02:00</time>
      </trkpt>
      <trkpt lat="43.71359" lon="1.47731">
        <ele>173.60059</ele>
        <time>2024-07-13T16:10:54+02:00</time>
      </trkpt>
      <trkpt lat="43.71362" lon="1.47734">
        <ele>173.60059</ele>
        <time>2024-07-13T16:10:55+02:00</time>
      </trkpt>
      <trkpt lat="43.71377" lon="1.47749">
        <ele>173.7998</ele>
        <time>2024-07-13T16:10:59+02:00</time>
      </trkpt>
      <trkpt lat="43.71381" lon="1.47753">
        <ele>173.7002</ele>
        <time>2024-07-13T16:11:00+02:00</time>
      </trkpt>
      <trkpt lat="43.71397" lon="1.47769">
        <ele>174</ele>
        <time>2024-07-13T16:11:04+02:00</time>
      </trkpt>
      <trkpt lat="43.71401" lon="1.47773">
        <ele>174</ele>
        <time>2024-07-13T16:11:05+02:00</time>
      </trkpt>
      <trkpt lat="43.71416" lon="1.47787">
        <ele>174.5</ele>
        <time>2024-07-13T16:11:09+02:00</time>
      </trkpt>
      <trkpt lat="43.7142" lon="1.4779">
        <ele>174.5</ele>
        <time>2024-07-13T16:11:10+02:00</time>
      </trkpt>
      <trkpt lat="43.71435" lon="1.47805">
        <ele>174.90039</ele>
        <time>2024-07-13T16:11:14+02:00</time>
      </trkpt>
      <trkpt lat="43.71439" lon="1.47808">
        <ele>174.90039</ele>
        <time>2024-07-13T16:11:15+02:00</time>
      </trkpt>
      <trkpt lat="43.71454" lon="1.47822">
        <ele>175.2002</ele>
        <time>2024-07-13T16:11:19+02:00</time>
      </trkpt>
      <trkpt lat="43.71457" lon="1.47825">
        <ele>175.2002</ele>
        <time>2024-07-13T16:11:20+02:00</time>
      </trkpt>
      <trkpt lat="43.71467" lon="1.47835">
        <ele>175.5</ele>
        <time>2024-07-13T16:11:24+02:00</time>
      </trkpt>
      <trkpt lat="43.7147" lon="1.47837">
        <ele>175.5</ele>
        <time>2024-07-13T16:11:25+02:00</time>
      </trkpt>
      <trkpt lat="43.71483" lon="1.47851">
        <ele>175.7998</ele>
        <time>2024-07-13T16:11:29+02:00</time>
      </trkpt>
      <trkpt lat="43.71487" lon="1.47854">
        <ele>176</ele>
        <time>2024-07-13T16:11:30+02:00</time>
      </trkpt>
      <trkpt lat="43.71502" lon="1.47868">
        <ele>176.2998</ele>
        <time>2024-07-13T16:11:34+02:00</time>
      </trkpt>
      <trkpt lat="43.71506" lon="1.47871">
        <ele>176.60059</ele>
        <time>2024-07-13T16:11:35+02:00</time>
      </trkpt>
      <trkpt lat="43.71522" lon="1.47886">
        <ele>176.90039</ele>
        <time>2024-07-13T16:11:39+02:00</time>
      </trkpt>
      <trkpt lat="43.71525" lon="1.4789">
        <ele>177.2002</ele>
        <time>2024-07-13T16:11:40+02:00</time>
      </trkpt>
      <trkpt lat="43.71538" lon="1.47904">
        <ele>177.90039</ele>
        <time>2024-07-13T16:11:44+02:00</time>
      </trkpt>
      <trkpt lat="43.71542" lon="1.47906">
        <ele>178</ele>
        <time>2024-07-13T16:11:45+02:00</time>
      </trkpt>
      <trkpt lat="43.71555" lon="1.479">
        <ele>177.7998</ele>
        <time>2024-07-13T16:11:49+02:00</time>
      </trkpt>
      <trkpt lat="43.71558" lon="1.47895">
        <ele>177.7998</ele>
        <time>2024-07-13T16:11:50+02:00</time>
      </trkpt>
      <trkpt lat="43.71571" lon="1.47875">
        <ele>177</ele>
        <time>2024-07-13T16:11:54+02:00</time>
      </trkpt>
      <trkpt lat="43.71575" lon="1.4787">
        <ele>177.10059</ele>
        <time>2024-07-13T16:11:55+02:00</time>
      </trkpt>
      <trkpt lat="43.7159" lon="1.47847">
        <ele>176</ele>
        <time>2024-07-13T16:11:59+02:00</time>
      </trkpt>
      <trkpt lat="43.71593" lon="1.47842">
        <ele>175.7002</ele>
        <time>2024-07-13T16:12:00+02:00</time>
      </trkpt>
      <trkpt lat="43.71611" lon="1.47817">
        <ele>174.90039</ele>
        <time>2024-07-13T16:12:04+02:00</time>
      </trkpt>
      <trkpt lat="43.71615" lon="1.4781">
        <ele>174.90039</ele>
        <time>2024-07-13T16:12:05+02:00</time>
      </trkpt>
      <trkpt lat="43.71633" lon="1.47782">
        <ele>174.10059</ele>
        <time>2024-07-13T16:12:09+02:00</time>
      </trkpt>
      <trkpt lat="43.71638" lon="1.47775">
        <ele>173.90039</ele>
        <time>2024-07-13T16:12:10+02:00</time>
      </trkpt>
      <trkpt lat="43.71656" lon="1.47745">
        <ele>173.60059</ele>
        <time>2024-07-13T16:12:14+02:00</time>
      </trkpt>
      <trkpt lat="43.71661" lon="1.47737">
        <ele>173.5</ele>
        <time>2024-07-13T16:12:15+02:00</time>
      </trkpt>
      <trkpt lat="43.7168" lon="1.47708">
        <ele>173.5</ele>
        <time>2024-07-13T16:12:19+02:00</time>
      </trkpt>
      <trkpt lat="43.71684" lon="1.477">
        <ele>173.60059</ele>
        <time>2024-07-13T16:12:20+02:00</time>
      </trkpt>
      <trkpt lat="43.71702" lon="1.4767">
        <ele>173.2998</ele>
        <time>2024-07-13T16:12:24+02:00</time>
      </trkpt>
      <trkpt lat="43.71707" lon="1.47662">
        <ele>173</ele>
        <time>2024-07-13T16:12:25+02:00</time>
      </trkpt>
      <trkpt lat="43.71725" lon="1.47632">
        <ele>173.2998</ele>
        <time>2024-07-13T16:12:29+02:00</time>
      </trkpt>
      <trkpt lat="43.7173" lon="1.47625">
        <ele>173.2998</ele>
        <time>2024-07-13T16:12:30+02:00</time>
      </trkpt>
      <trkpt lat="43.71749" lon="1.47597">
        <ele>173.7998</ele>
        <time>2024-07-13T16:12:34+02:00</time>
      </trkpt>
      <trkpt lat="43.71754" lon="1.4759">
        <ele>174</ele>
        <time>2024-07-13T16:12:35+02:00</time>
      </trkpt>
      <trkpt lat="43.71772" lon="1.47562">
        <ele>174.60059</ele>
        <time>2024-07-13T16:12:39+02:00</time>
      </trkpt>
      <trkpt lat="43.71777" lon="1.47555">
        <ele>174.2998</ele>
        <time>2024-07-13T16:12:40+02:00</time>
      </trkpt>
      <trkpt lat="43.71794" lon="1.47527">
        <ele>174.7002</ele>
        <time>2024-07-13T16:12:44+02:00</time>
      </trkpt>
      <trkpt lat="43.71799" lon="1.47519">
        <ele>174.7002</ele>
        <time>2024-07-13T16:12:45+02:00</time>
      </trkpt>
      <trkpt lat="43.71817" lon="1.47491">
        <ele>173.60059</ele>
        <time>2024-07-13T16:12:49+02:00</time>
      </trkpt>
      <trkpt lat="43.71822" lon="1.47484">
        <ele>173.7998</ele>
        <time>2024-07-13T16:12:50+02:00</time>
      </trkpt>
      <trkpt lat="43.71839" lon="1.47455">
        <ele>171.90039</ele>
        <time>2024-07-13T16:12:54+02:00</time>
      </trkpt>
      <trkpt lat="43.71844" lon="1.47447">
        <ele>171.2002</ele>
        <time>2024-07-13T16:12:55+02:00</time>
      </trkpt>
      <trkpt lat="43.71865" lon="1.47415">
        <ele>169.90039</ele>
        <time>2024-07-13T16:12:59+02:00</time>
      </trkpt>
      <trkpt lat="43.71871" lon="1.47407">
        <ele>169.2002</ele>
        <time>2024-07-13T16:13:00+02:00</time>
      </trkpt>
      <trkpt lat="43.71893" lon="1.47373">
        <ele>166.2998</ele>
        <time>2024-07-13T16:13:04+02:00</time>
      </trkpt>
      <trkpt lat="43.71898" lon="1.47364">
        <ele>165.7002</ele>
        <time>2024-07-13T16:13:05+02:00</time>
      </trkpt>
      <trkpt lat="43.71921" lon="1.4733">
        <ele>164.5</ele>
        <time>2024-07-13T16:13:09+02:00</time>
      </trkpt>
      <trkpt lat="43.71926" lon="1.47322">
        <ele>164.5</ele>
        <time>2024-07-13T16:13:10+02:00</time>
      </trkpt>
      <trkpt lat="43.71946" lon="1.47288">
        <ele>164.2002</ele>
        <time>2024-07-13T16:13:14+02:00</time>
      </trkpt>
      <trkpt lat="43.71951" lon="1.4728">
        <ele>164.5</ele>
        <time>2024-07-13T16:13:15+02:00</time>
      </trkpt>
      <trkpt lat="43.71969" lon="1.47249">
        <ele>164.60059</ele>
        <time>2024-07-13T16:13:19+02:00</time>
      </trkpt>
      <trkpt lat="43.71974" lon="1.47242">
        <ele>164</ele>
        <time>2024-07-13T16:13:20+02:00</time>
      </trkpt>
      <trkpt lat="43.71991" lon="1.47214">
        <ele>165.2998</ele>
        <time>2024-07-13T16:13:24+02:00</time>
      </trkpt>
      <trkpt lat="43.71996" lon="1.47208">
        <ele>165.7002</ele>
        <time>2024-07-13T16:13:25+02:00</time>
      </trkpt>
      <trkpt lat="43.72015" lon="1.47183">
        <ele>167.2998</ele>
        <time>2024-07-13T16:13:29+02:00</time>
      </trkpt>
      <trkpt lat="43.7202" lon="1.47178">
        <ele>167.60059</ele>
        <time>2024-07-13T16:13:30+02:00</time>
      </trkpt>
      <trkpt lat="43.72039" lon="1.47155">
        <ele>168.5</ele>
        <time>2024-07-13T16:13:34+02:00</time>
      </trkpt>
      <trkpt lat="43.72043" lon="1.47149">
        <ele>168.5</ele>
        <time>2024-07-13T16:13:35+02:00</time>
      </trkpt>
      <trkpt lat="43.72061" lon="1.47126">
        <ele>168.40039</ele>
        <time>2024-07-13T16:13:39+02:00</time>
      </trkpt>
      <trkpt lat="43.72064" lon="1.4712">
        <ele>168.2998</ele>
        <time>2024-07-13T16:13:40+02:00</time>
      </trkpt>
      <trkpt lat="43.72074" lon="1.47102">
        <ele>167.5</ele>
        <time>2024-07-13T16:13:44+02:00</time>
      </trkpt>
      <trkpt lat="43.72075" lon="1.471">
        <ele>167.90039</ele>
        <time>2024-07-13T16:13:45+02:00</time>
      </trkpt>
      <trkpt lat="43.72075" lon="1.47099">
        <ele>167.90039</ele>
        <time>2024-07-13T16:13:49+02:00</time>
      </trkpt>
      <trkpt lat="43.72075" lon="1.471">
        <ele>167.90039</ele>
        <time>2024-07-13T16:13:50+02:00</time>
      </trkpt>
      <trkpt lat="43.72076" lon="1.47099">
        <ele>167.90039</ele>
        <time>2024-07-13T16:13:54+02:00</time>
      </trkpt>
      <trkpt lat="43.72077" lon="1.47099">
        <ele>167.90039</ele>
        <time>2024-07-13T16:13:55+02:00</time>
      </trkpt>
      <trkpt lat="43.72078" lon="1.47099">
        <ele>167.90039</ele>
        <time>2024-07-13T16:13:59+02:00</time>
      </trkpt>
      <trkpt lat="43.72079" lon="1.47099">
        <ele>167.90039</ele>
        <time>2024-07-13T16:14:00+02:00</time>
      </trkpt>
      <trkpt lat="43.72083" lon="1.47099">
        <ele>168.5</ele>
        <time>2024-07-13T16:14:04+02:00</time>
      </trkpt>
      <trkpt lat="43.72084" lon="1.47099">
        <ele>168.5</ele>
        <time>2024-07-13T16:14:05+02:00</time>
      </trkpt>
      <trkpt lat="43.7209" lon="1.47094">
        <ele>168.40039</ele>
        <time>2024-07-13T16:14:09+02:00</time>
      </trkpt>
      <trkpt lat="43.72092" lon="1.47093">
        <ele>168.40039</ele>
        <time>2024-07-13T16:14:10+02:00</time>
      </trkpt>
      <trkpt lat="43.72103" lon="1.4708">
        <ele>169</ele>
        <time>2024-07-13T16:14:14+02:00</time>
      </trkpt>
      <trkpt lat="43.72107" lon="1.47076">
        <ele>168.60059</ele>
        <time>2024-07-13T16:14:15+02:00</time>
      </trkpt>
      <trkpt lat="43.72121" lon="1.47062">
        <ele>167.5</ele>
        <time>2024-07-13T16:14:19+02:00</time>
      </trkpt>
      <trkpt lat="43.72125" lon="1.47058">
        <ele>167.90039</ele>
        <time>2024-07-13T16:14:20+02:00</time>
      </trkpt>
      <trkpt lat="43.72143" lon="1.47044">
        <ele>166.40039</ele>
        <time>2024-07-13T16:14:24+02:00</time>
      </trkpt>
      <trkpt lat="43.72147" lon="1.4704">
        <ele>166.7998</ele>
        <time>2024-07-13T16:14:25+02:00</time>
      </trkpt>
      <trkpt lat="43.72165" lon="1.47025">
        <ele>166.2998</ele>
        <time>2024-07-13T16:14:29+02:00</time>
      </trkpt>
      <trkpt lat="43.72169" lon="1.47021">
        <ele>166.90039</ele>
        <time>2024-07-13T16:14:30+02:00</time>
      </trkpt>
      <trkpt lat="43.72188" lon="1.47004">
        <ele>166.10059</ele>
        <time>2024-07-13T16:14:34+02:00</time>
      </trkpt>
      <trkpt lat="43.72193" lon="1.47">
        <ele>165.7002</ele>
        <time>2024-07-13T16:14:35+02:00</time>
      </trkpt>
      <trkpt lat="43.72211" lon="1.46986">
        <ele>165.90039</ele>
        <time>2024-07-13T16:14:39+02:00</time>
      </trkpt>
      <trkpt lat="43.72215" lon="1.46983">
        <ele>165.2002</ele>
        <time>2024-07-13T16:14:40+02:00</time>
      </trkpt>
      <trkpt lat="43.72233" lon="1.46971">
        <ele>165.10059</ele>
        <time>2024-07-13T16:14:44+02:00</time>
      </trkpt>
      <trkpt lat="43.72237" lon="1.46968">
        <ele>165.40039</ele>
        <time>2024-07-13T16:14:45+02:00</time>
      </trkpt>
      <trkpt lat="43.72255" lon="1.46956">
        <ele>163.7002</ele>
        <time>2024-07-13T16:14:49+02:00</time>
      </trkpt>
      <trkpt lat="43.72259" lon="1.46952">
        <ele>163.7002</ele>
        <time>2024-07-13T16:14:50+02:00</time>
      </trkpt>
      <trkpt lat="43.72278" lon="1.46939">
        <ele>162.2002</ele>
        <time>2024-07-13T16:14:54+02:00</time>
      </trkpt>
      <trkpt lat="43.72282" lon="1.46936">
        <ele>162.7998</ele>
        <time>2024-07-13T16:14:55+02:00</time>
      </trkpt>
      <trkpt lat="43.723" lon="1.46925">
        <ele>163.2002</ele>
        <time>2024-07-13T16:14:59+02:00</time>
      </trkpt>
      <trkpt lat="43.72304" lon="1.46923">
        <ele>162.60059</ele>
        <time>2024-07-13T16:15:00+02:00</time>
      </trkpt>
      <trkpt lat="43.72322" lon="1.46911">
        <ele>162.7998</ele>
        <time>2024-07-13T16:15:04+02:00</time>
      </trkpt>
      <trkpt lat="43.72326" lon="1.46908">
        <ele>163.60059</ele>
        <time>2024-07-13T16:15:05+02:00</time>
      </trkpt>
      <trkpt lat="43.72344" lon="1.46897">
        <ele>164</ele>
        <time>2024-07-13T16:15:09+02:00</time>
      </trkpt>
      <trkpt lat="43.72349" lon="1.46894">
        <ele>165</ele>
        <time>2024-07-13T16:15:10+02:00</time>
      </trkpt>
      <trkpt lat="43.72367" lon="1.46882">
        <ele>166.2998</ele>
        <time>2024-07-13T16:15:14+02:00</time>
      </trkpt>
      <trkpt lat="43.72372" lon="1.46879">
        <ele>165.10059</ele>
        <time>2024-07-13T16:15:15+02:00</time>
      </trkpt>
      <trkpt lat="43.72392" lon="1.46865">
        <ele>165.10059</ele>
        <time>2024-07-13T16:15:19+02:00</time>
      </trkpt>
      <trkpt lat="43.72397" lon="1.46862">
        <ele>165.10059</ele>
        <time>2024-07-13T16:15:20+02:00</time>
      </trkpt>
      <trkpt lat="43.72418" lon="1.4685">
        <ele>164.7002</ele>
        <time>2024-07-13T16:15:24+02:00</time>
      </trkpt>
      <trkpt lat="43.72423" lon="1.46847">
        <ele>163.60059</ele>
        <time>2024-07-13T16:15:25+02:00</time>
      </trkpt>
      <trkpt lat="43.72447" lon="1.46838">
        <ele>162.40039</ele>
        <time>2024-07-13T16:15:29+02:00</time>
      </trkpt>
      <trkpt lat="43.72453" lon="1.46837">
        <ele>162.2002</ele>
        <time>2024-07-13T16:15:30+02:00</time>
      </trkpt>
      <trkpt lat="43.7248" lon="1.46834">
        <ele>161.2002</ele>
        <time>2024-07-13T16:15:34+02:00</time>
      </trkpt>
      <trkpt lat="43.72488" lon="1.46835">
        <ele>161</ele>
        <time>2024-07-13T16:15:35+02:00</time>
      </trkpt>
      <trkpt lat="43.72517" lon="1.4684">
        <ele>160</ele>
        <time>2024-07-13T16:15:39+02:00</time>
      </trkpt>
      <trkpt lat="43.72524" lon="1.46841">
        <ele>159.60059</ele>
        <time>2024-07-13T16:15:40+02:00</time>
      </trkpt>
      <trkpt lat="43.72551" lon="1.46854">
        <ele>158.40039</ele>
        <time>2024-07-13T16:15:44+02:00</time>
      </trkpt>
      <trkpt lat="43.72557" lon="1.46858">
        <ele>158.7002</ele>
        <time>2024-07-13T16:15:45+02:00</time>
      </trkpt>
      <trkpt lat="43.7258" lon="1.46876">
        <ele>158.60059</ele>
        <time>2024-07-13T16:15:49+02:00</time>
      </trkpt>
      <trkpt lat="43.72585" lon="1.46882">
        <ele>158.2998</ele>
        <time>2024-07-13T16:15:50+02:00</time>
      </trkpt>
      <trkpt lat="43.72606" lon="1.46902">
        <ele>159.7002</ele>
        <time>2024-07-13T16:15:54+02:00</time>
      </trkpt>
      <trkpt lat="43.72612" lon="1.46907">
        <ele>159.40039</ele>
        <time>2024-07-13T16:15:55+02:00</time>
      </trkpt>
      <trkpt lat="43.72635" lon="1.46932">
        <ele>161.2002</ele>
        <time>2024-07-13T16:15:59+02:00</time>
      </trkpt>
      <trkpt lat="43.7264" lon="1.46938">
        <ele>162</ele>
        <time>2024-07-13T16:16:00+02:00</time>
      </trkpt>
      <trkpt lat="43.72662" lon="1.4696">
        <ele>163.2998</ele>
        <time>2024-07-13T16:16:04+02:00</time>
      </trkpt>
      <trkpt lat="43.72667" lon="1.46965">
        <ele>163.10059</ele>
        <time>2024-07-13T16:16:05+02:00</time>
      </trkpt>
      <trkpt lat="43.72689" lon="1.46988">
        <ele>162.5</ele>
        <time>2024-07-13T16:16:09+02:00</time>
      </trkpt>
      <trkpt lat="43.72694" lon="1.46993">
        <ele>162.5</ele>
        <time>2024-07-13T16:16:10+02:00</time>
      </trkpt>
      <trkpt lat="43.72702" lon="1.47002">
        <ele>161.40039</ele>
        <time>2024-07-13T16:16:14+02:00</time>
      </trkpt>
      <trkpt lat="43.72702" lon="1.47004">
        <ele>161.7002</ele>
        <time>2024-07-13T16:16:15+02:00</time>
      </trkpt>
      <trkpt lat="43.727" lon="1.47014">
        <ele>162.5</ele>
        <time>2024-07-13T16:16:19+02:00</time>
      </trkpt>
      <trkpt lat="43.72698" lon="1.47016">
        <ele>162.5</ele>
        <time>2024-07-13T16:16:20+02:00</time>
      </trkpt>
      <trkpt lat="43.72688" lon="1.47027">
        <ele>163.40039</ele>
        <time>2024-07-13T16:16:24+02:00</time>
      </trkpt>
      <trkpt lat="43.72686" lon="1.4703">
        <ele>163.40039</ele>
        <time>2024-07-13T16:16:25+02:00</time>
      </trkpt>
      <trkpt lat="43.72676" lon="1.47042">
        <ele>163.60059</ele>
        <time>2024-07-13T16:16:29+02:00</time>
      </trkpt>
      <trkpt lat="43.72674" lon="1.47047">
        <ele>163.7002</ele>
        <time>2024-07-13T16:16:30+02:00</time>
      </trkpt>
      <trkpt lat="43.72663" lon="1.47062">
        <ele>164.2998</ele>
        <time>2024-07-13T16:16:34+02:00</time>
      </trkpt>
      <trkpt lat="43.7266" lon="1.47065">
        <ele>164.2998</ele>
        <time>2024-07-13T16:16:35+02:00</time>
      </trkpt>
      <trkpt lat="43.72653" lon="1.47079">
        <ele>164.7998</ele>
        <time>2024-07-13T16:16:39+02:00</time>
      </trkpt>
      <trkpt lat="43.72651" lon="1.47082">
        <ele>165.2998</ele>
        <time>2024-07-13T16:16:40+02:00</time>
      </trkpt>
      <trkpt lat="43.72643" lon="1.47085">
        <ele>165.7998</ele>
        <time>2024-07-13T16:16:44+02:00</time>
      </trkpt>
      <trkpt lat="43.72641" lon="1.47087">
        <ele>165.7998</ele>
        <time>2024-07-13T16:16:45+02:00</time>
      </trkpt>
      <trkpt lat="43.72634" lon="1.47097">
        <ele>166.2002</ele>
        <time>2024-07-13T16:16:49+02:00</time>
      </trkpt>
      <trkpt lat="43.72633" lon="1.47099">
        <ele>166.7998</ele>
        <time>2024-07-13T16:16:50+02:00</time>
      </trkpt>
      <trkpt lat="43.72623" lon="1.47108">
        <ele>167.2002</ele>
        <time>2024-07-13T16:16:54+02:00</time>
      </trkpt>
      <trkpt lat="43.7262" lon="1.4711">
        <ele>167.60059</ele>
        <time>2024-07-13T16:16:55+02:00</time>
      </trkpt>
      <trkpt lat="43.72613" lon="1.47124">
        <ele>168.10059</ele>
        <time>2024-07-13T16:16:59+02:00</time>
      </trkpt>
      <trkpt lat="43.7261" lon="1.47126">
        <ele>168.10059</ele>
        <time>2024-07-13T16:17:00+02:00</time>
      </trkpt>
      <trkpt lat="43.72607" lon="1.47134">
        <ele>168.7002</ele>
        <time>2024-07-13T16:17:04+02:00</time>
      </trkpt>
      <trkpt lat="43.72607" lon="1.47136">
        <ele>168.7002</ele>
        <time>2024-07-13T16:17:05+02:00</time>
      </trkpt>
      <trkpt lat="43.72604" lon="1.4714">
        <ele>168.7002</ele>
        <time>2024-07-13T16:17:09+02:00</time>
      </trkpt>
      <trkpt lat="43.72603" lon="1.47141">
        <ele>168.7002</ele>
        <time>2024-07-13T16:17:10+02:00</time>
      </trkpt>
      <trkpt lat="43.72596" lon="1.47144">
        <ele>169.2002</ele>
        <time>2024-07-13T16:17:14+02:00</time>
      </trkpt>
      <trkpt lat="43.72594" lon="1.47146">
        <ele>169.7998</ele>
        <time>2024-07-13T16:17:15+02:00</time>
      </trkpt>
      <trkpt lat="43.72583" lon="1.47153">
        <ele>170.40039</ele>
        <time>2024-07-13T16:17:19+02:00</time>
      </trkpt>
      <trkpt lat="43.72581" lon="1.47154">
        <ele>170.7998</ele>
        <time>2024-07-13T16:17:20+02:00</time>
      </trkpt>
      <trkpt lat="43.72571" lon="1.47168">
        <ele>171.10059</ele>
        <time>2024-07-13T16:17:24+02:00</time>
      </trkpt>
      <trkpt lat="43.72569" lon="1.4717">
        <ele>171.40039</ele>
        <time>2024-07-13T16:17:25+02:00</time>
      </trkpt>
      <trkpt lat="43.72563" lon="1.47184">
        <ele>171.5</ele>
        <time>2024-07-13T16:17:29+02:00</time>
      </trkpt>
      <trkpt lat="43.72561" lon="1.47188">
        <ele>171.5</ele>
        <time>2024-07-13T16:17:30+02:00</time>
      </trkpt>
      <trkpt lat="43.72555" lon="1.47196">
        <ele>171.5</ele>
        <time>2024-07-13T16:17:34+02:00</time>
      </trkpt>
      <trkpt lat="43.72554" lon="1.47197">
        <ele>171.5</ele>
        <time>2024-07-13T16:17:35+02:00</time>
      </trkpt>
      <trkpt lat="43.72552" lon="1.47205">
        <ele>171.5</ele>
        <time>2024-07-13T16:17:39+02:00</time>
      </trkpt>
      <trkpt lat="43.72551" lon="1.47207">
        <ele>171.5</ele>
        <time>2024-07-13T16:17:40+02:00</time>
      </trkpt>
      <trkpt lat="43.72551" lon="1.47223">
        <ele>171.10059</ele>
        <time>2024-07-13T16:17:44+02:00</time>
      </trkpt>
      <trkpt lat="43.72552" lon="1.47227">
        <ele>170.90039</ele>
        <time>2024-07-13T16:17:45+02:00</time>
      </trkpt>
      <trkpt lat="43.72554" lon="1.47242">
        <ele>170.5</ele>
        <time>2024-07-13T16:17:49+02:00</time>
      </trkpt>
      <trkpt lat="43.72555" lon="1.47246">
        <ele>170.2002</ele>
        <time>2024-07-13T16:17:50+02:00</time>
      </trkpt>
      <trkpt lat="43.72561" lon="1.47266">
        <ele>169.60059</ele>
        <time>2024-07-13T16:17:54+02:00</time>
      </trkpt>
      <trkpt lat="43.72561" lon="1.4727">
        <ele>169.2998</ele>
        <time>2024-07-13T16:17:55+02:00</time>
      </trkpt>
      <trkpt lat="43.72562" lon="1.47291">
        <ele>168.90039</ele>
        <time>2024-07-13T16:17:59+02:00</time>
      </trkpt>
      <trkpt lat="43.72562" lon="1.47297">
        <ele>168.7002</ele>
        <time>2024-07-13T16:18:00+02:00</time>
      </trkpt>
      <trkpt lat="43.72557" lon="1.47315">
        <ele>168.5</ele>
        <time>2024-07-13T16:18:04+02:00</time>
      </trkpt>
      <trkpt lat="43.72554" lon="1.47317">
        <ele>168.5</ele>
        <time>2024-07-13T16:18:05+02:00</time>
      </trkpt>
      <trkpt lat="43.72537" lon="1.47311">
        <ele>169.5</ele>
        <time>2024-07-13T16:18:09+02:00</time>
      </trkpt>
      <trkpt lat="43.72533" lon="1.4731">
        <ele>170</ele>
        <time>2024-07-13T16:18:10+02:00</time>
      </trkpt>
      <trkpt lat="43.72519" lon="1.47307">
        <ele>170.60059</ele>
        <time>2024-07-13T16:18:14+02:00</time>
      </trkpt>
      <trkpt lat="43.72515" lon="1.47306">
        <ele>170.60059</ele>
        <time>2024-07-13T16:18:15+02:00</time>
      </trkpt>
      <trkpt lat="43.72503" lon="1.4729">
        <ele>171.5</ele>
        <time>2024-07-13T16:18:19+02:00</time>
      </trkpt>
      <trkpt lat="43.72501" lon="1.47286">
        <ele>171.7998</ele>
        <time>2024-07-13T16:18:20+02:00</time>
      </trkpt>
      <trkpt lat="43.7249" lon="1.47269">
        <ele>172.5</ele>
        <time>2024-07-13T16:18:24+02:00</time>
      </trkpt>
      <trkpt lat="43.72487" lon="1.47265">
        <ele>172.60059</ele>
        <time>2024-07-13T16:18:25+02:00</time>
      </trkpt>
      <trkpt lat="43.72476" lon="1.47252">
        <ele>173</ele>
        <time>2024-07-13T16:18:29+02:00</time>
      </trkpt>
      <trkpt lat="43.72473" lon="1.47248">
        <ele>173.10059</ele>
        <time>2024-07-13T16:18:30+02:00</time>
      </trkpt>
      <trkpt lat="43.72463" lon="1.47235">
        <ele>173.5</ele>
        <time>2024-07-13T16:18:34+02:00</time>
      </trkpt>
      <trkpt lat="43.7246" lon="1.47232">
        <ele>173.5</ele>
        <time>2024-07-13T16:18:35+02:00</time>
      </trkpt>
      <trkpt lat="43.72449" lon="1.47218">
        <ele>173.90039</ele>
        <time>2024-07-13T16:18:39+02:00</time>
      </trkpt>
      <trkpt lat="43.72447" lon="1.47214">
        <ele>174.2002</ele>
        <time>2024-07-13T16:18:40+02:00</time>
      </trkpt>
      <trkpt lat="43.72437" lon="1.47202">
        <ele>174.5</ele>
        <time>2024-07-13T16:18:44+02:00</time>
      </trkpt>
      <trkpt lat="43.72435" lon="1.47199">
        <ele>174.7002</ele>
        <time>2024-07-13T16:18:45+02:00</time>
      </trkpt>
      <trkpt lat="43.72433" lon="1.47192">
        <ele>174.90039</ele>
        <time>2024-07-13T16:18:49+02:00</time>
      </trkpt>
      <trkpt lat="43.72432" lon="1.4719">
        <ele>175.10059</ele>
        <time>2024-07-13T16:18:50+02:00</time>
      </trkpt>
      <trkpt lat="43.72433" lon="1.47181">
        <ele>175.2998</ele>
        <time>2024-07-13T16:18:54+02:00</time>
      </trkpt>
      <trkpt lat="43.72434" lon="1.47179">
        <ele>175.2998</ele>
        <time>2024-07-13T16:18:55+02:00</time>
      </trkpt>
      <trkpt lat="43.7244" lon="1.47169">
        <ele>175.2002</ele>
        <time>2024-07-13T16:18:59+02:00</time>
      </trkpt>
      <trkpt lat="43.72441" lon="1.47167">
        <ele>174.90039</ele>
        <time>2024-07-13T16:19:00+02:00</time>
      </trkpt>
      <trkpt lat="43.7245" lon="1.47159">
        <ele>174.7998</ele>
        <time>2024-07-13T16:19:04+02:00</time>
      </trkpt>
      <trkpt lat="43.72452" lon="1.47156">
        <ele>174.7998</ele>
        <time>2024-07-13T16:19:05+02:00</time>
      </trkpt>
      <trkpt lat="43.72459" lon="1.47146">
        <ele>174.60059</ele>
        <time>2024-07-13T16:19:09+02:00</time>
      </trkpt>
      <trkpt lat="43.7246" lon="1.47143">
        <ele>174.2998</ele>
        <time>2024-07-13T16:19:10+02:00</time>
      </trkpt>
      <trkpt lat="43.72462" lon="1.47128">
        <ele>174.2998</ele>
        <time>2024-07-13T16:19:14+02:00</time>
      </trkpt>
      <trkpt lat="43.72459" lon="1.47125">
        <ele>174.2998</ele>
        <time>2024-07-13T16:19:15+02:00</time>
      </trkpt>
      <trkpt lat="43.7245" lon="1.47112">
        <ele>174.7998</ele>
        <time>2024-07-13T16:19:19+02:00</time>
      </trkpt>
      <trkpt lat="43.72448" lon="1.47109">
        <ele>174.7998</ele>
        <time>2024-07-13T16:19:20+02:00</time>
      </trkpt>
      <trkpt lat="43.72441" lon="1.47094">
        <ele>175.2002</ele>
        <time>2024-07-13T16:19:24+02:00</time>
      </trkpt>
      <trkpt lat="43.7244" lon="1.47088">
        <ele>175.7002</ele>
        <time>2024-07-13T16:19:25+02:00</time>
      </trkpt>
      <trkpt lat="43.72433" lon="1.47068">
        <ele>176.2002</ele>
        <time>2024-07-13T16:19:29+02:00</time>
      </trkpt>
      <trkpt lat="43.7243" lon="1.47066">
        <ele>176.2002</ele>
        <time>2024-07-13T16:19:30+02:00</time>
      </trkpt>
      <trkpt lat="43.72415" lon="1.47062">
        <ele>177.40039</ele>
        <time>2024-07-13T16:19:34+02:00</time>
      </trkpt>
      <trkpt lat="43.72413" lon="1.47059">
        <ele>177.40039</ele>
        <time>2024-07-13T16:19:35+02:00</time>
      </trkpt>
      <trkpt lat="43.72406" lon="1.47044">
        <ele>177.60059</ele>
        <time>2024-07-13T16:19:39+02:00</time>
      </trkpt>
      <trkpt lat="43.72405" lon="1.47039">
        <ele>177.60059</ele>
        <time>2024-07-13T16:19:40+02:00</time>
      </trkpt>
      <trkpt lat="43.72398" lon="1.47016">
        <ele>177.5</ele>
        <time>2024-07-13T16:19:44+02:00</time>
      </trkpt>
      <trkpt lat="43.72396" lon="1.47012">
        <ele>177.60059</ele>
        <time>2024-07-13T16:19:45+02:00</time>
      </trkpt>
      <trkpt lat="43.72386" lon="1.47013">
        <ele>177.7002</ele>
        <time>2024-07-13T16:19:49+02:00</time>
      </trkpt>
      <trkpt lat="43.72383" lon="1.47014">
        <ele>177.7998</ele>
        <time>2024-07-13T16:19:50+02:00</time>
      </trkpt>
      <trkpt lat="43.72373" lon="1.47006">
        <ele>177.7002</ele>
        <time>2024-07-13T16:19:54+02:00</time>
      </trkpt>
      <trkpt lat="43.72372" lon="1.47001">
        <ele>177.2998</ele>
        <time>2024-07-13T16:19:55+02:00</time>
      </trkpt>
      <trkpt lat="43.72366" lon="1.46985">
        <ele>176.7998</ele>
        <time>2024-07-13T16:19:59+02:00</time>
      </trkpt>
      <trkpt lat="43.72362" lon="1.46982">
        <ele>176.2002</ele>
        <time>2024-07-13T16:20:00+02:00</time>
      </trkpt>
      <trkpt lat="43.72353" lon="1.4697">
        <ele>174.7998</ele>
        <time>2024-07-13T16:20:04+02:00</time>
      </trkpt>
      <trkpt lat="43.72353" lon="1.46969">
        <ele>174.7998</ele>
        <time>2024-07-13T16:20:05+02:00</time>
      </trkpt>
      <trkpt lat="43.72352" lon="1.4697">
        <ele>174.7998</ele>
        <time>2024-07-13T16:20:09+02:00</time>
      </trkpt>
      <trkpt lat="43.72352" lon="1.4697">
        <ele>174.7998</ele>
        <time>2024-07-13T16:20:10+02:00</time>
      </trkpt>
      <trkpt lat="43.72352" lon="1.4697">
        <ele>174.7998</ele>
        <time>2024-07-13T16:20:14+02:00</time>
      </trkpt>
      <trkpt lat="43.72351" lon="1.46969">
        <ele>174.7998</ele>
        <time>2024-07-13T16:20:15+02:00</time>
      </trkpt>
      <trkpt lat="43.72338" lon="1.46968">
        <ele>172.7002</ele>
        <time>2024-07-13T16:20:19+02:00</time>
      </trkpt>
      <trkpt lat="43.72335" lon="1.46969">
        <ele>173.2998</ele>
        <time>2024-07-13T16:20:20+02:00</time>
      </trkpt>
      <trkpt lat="43.72319" lon="1.4698">
        <ele>173.5</ele>
        <time>2024-07-13T16:20:24+02:00</time>
      </trkpt>
      <trkpt lat="43.72316" lon="1.46978">
        <ele>172.90039</ele>
        <time>2024-07-13T16:20:25+02:00</time>
      </trkpt>
      <trkpt lat="43.7231" lon="1.46957">
        <ele>168.90039</ele>
        <time>2024-07-13T16:20:29+02:00</time>
      </trkpt>
      <trkpt lat="43.72308" lon="1.46952">
        <ele>168.2002</ele>
        <time>2024-07-13T16:20:30+02:00</time>
      </trkpt>
      <trkpt lat="43.723" lon="1.46934">
        <ele>164.7002</ele>
        <time>2024-07-13T16:20:34+02:00</time>
      </trkpt>
      <trkpt lat="43.72299" lon="1.46931">
        <ele>163.2002</ele>
        <time>2024-07-13T16:20:35+02:00</time>
      </trkpt>
      <trkpt lat="43.72296" lon="1.46924">
        <ele>161.40039</ele>
        <time>2024-07-13T16:20:39+02:00</time>
      </trkpt>
      <trkpt lat="43.72297" lon="1.46924">
        <ele>161.40039</ele>
        <time>2024-07-13T16:20:40+02:00</time>
      </trkpt>
      <trkpt lat="43.72296" lon="1.46923">
        <ele>161.40039</ele>
        <time>2024-07-13T16:20:44+02:00</time>
      </trkpt>
      <trkpt lat="43.72296" lon="1.4692">
        <ele>161.40039</ele>
        <time>2024-07-13T16:20:45+02:00</time>
      </trkpt>
      <trkpt lat="43.72297" lon="1.469">
        <ele>159.2998</ele>
        <time>2024-07-13T16:20:49+02:00</time>
      </trkpt>
      <trkpt lat="43.72297" lon="1.46894">
        <ele>158.7002</ele>
        <time>2024-07-13T16:20:50+02:00</time>
      </trkpt>
      <trkpt lat="43.72288" lon="1.46884">
        <ele>158.2002</ele>
        <time>2024-07-13T16:20:54+02:00</time>
      </trkpt>
      <trkpt lat="43.72284" lon="1.46884">
        <ele>158.2002</ele>
        <time>2024-07-13T16:20:55+02:00</time>
      </trkpt>
      <trkpt lat="43.72274" lon="1.4688">
        <ele>158.5</ele>
        <time>2024-07-13T16:20:59+02:00</time>
      </trkpt>
      <trkpt lat="43.72272" lon="1.4688">
        <ele>158.60059</ele>
        <time>2024-07-13T16:21:00+02:00</time>
      </trkpt>
      <trkpt lat="43.72267" lon="1.46884">
        <ele>158.5</ele>
        <time>2024-07-13T16:21:04+02:00</time>
      </trkpt>
      <trkpt lat="43.72265" lon="1.46883">
        <ele>158.5</ele>
        <time>2024-07-13T16:21:05+02:00</time>
      </trkpt>
      <trkpt lat="43.7226" lon="1.46881">
        <ele>159.10059</ele>
        <time>2024-07-13T16:21:09+02:00</time>
      </trkpt>
      <trkpt lat="43.72258" lon="1.46883">
        <ele>158.7998</ele>
        <time>2024-07-13T16:21:10+02:00</time>
      </trkpt>
      <trkpt lat="43.7225" lon="1.46891">
        <ele>159</ele>
        <time>2024-07-13T16:21:14+02:00</time>
      </trkpt>
      <trkpt lat="43.72247" lon="1.46894">
        <ele>159.2002</ele>
        <time>2024-07-13T16:21:15+02:00</time>
      </trkpt>
      <trkpt lat="43.72234" lon="1.46901">
        <ele>159.5</ele>
        <time>2024-07-13T16:21:19+02:00</time>
      </trkpt>
      <trkpt lat="43.72231" lon="1.46903">
        <ele>159.5</ele>
        <time>2024-07-13T16:21:20+02:00</time>
      </trkpt>
      <trkpt lat="43.72217" lon="1.46915">
        <ele>159.60059</ele>
        <time>2024-07-13T16:21:24+02:00</time>
      </trkpt>
      <trkpt lat="43.72214" lon="1.46918">
        <ele>159.7998</ele>
        <time>2024-07-13T16:21:25+02:00</time>
      </trkpt>
      <trkpt lat="43.722" lon="1.4693">
        <ele>159.90039</ele>
        <time>2024-07-13T16:21:29+02:00</time>
      </trkpt>
      <trkpt lat="43.72196" lon="1.46933">
        <ele>159.90039</ele>
        <time>2024-07-13T16:21:30+02:00</time>
      </trkpt>
      <trkpt lat="43.7218" lon="1.46946">
        <ele>160.2002</ele>
        <time>2024-07-13T16:21:34+02:00</time>
      </trkpt>
      <trkpt lat="43.72177" lon="1.4695">
        <ele>160.2002</ele>
        <time>2024-07-13T16:21:35+02:00</time>
      </trkpt>
      <trkpt lat="43.72164" lon="1.46962">
        <ele>160.60059</ele>
        <time>2024-07-13T16:21:39+02:00</time>
      </trkpt>
      <trkpt lat="43.7216" lon="1.46966">
        <ele>160.7002</ele>
        <time>2024-07-13T16:21:40+02:00</time>
      </trkpt>
      <trkpt lat="43.72146" lon="1.46979">
        <ele>161.5</ele>
        <time>2024-07-13T16:21:44+02:00</time>
      </trkpt>
      <trkpt lat="43.72143" lon="1.46979">
        <ele>161.5</ele>
        <time>2024-07-13T16:22:29+02:00</time>
      </trkpt>
      <trkpt lat="43.72142" lon="1.46978">
        <ele>161.60059</ele>
        <time>2024-07-13T16:22:30+02:00</time>
      </trkpt>
      <trkpt lat="43.72141" lon="1.46975">
        <ele>161.2998</ele>
        <time>2024-07-13T16:22:34+02:00</time>
      </trkpt>
      <trkpt lat="43.72141" lon="1.46975">
        <ele>161.2998</ele>
        <time>2024-07-13T16:22:35+02:00</time>
      </trkpt>
      <trkpt lat="43.72141" lon="1.46975">
        <ele>161.2998</ele>
        <time>2024-07-13T16:22:39+02:00</time>
      </trkpt>
      <trkpt lat="43.72141" lon="1.46975">
        <ele>161.2998</ele>
        <time>2024-07-13T16:22:40+02:00</time>
      </trkpt>
      <trkpt lat="43.72141" lon="1.46975">
        <ele>161.2998</ele>
        <time>2024-07-13T16:22:44+02:00</time>
      </trkpt>
      <trkpt lat="43.72141" lon="1.46975">
        <ele>161.2998</ele>
        <time>2024-07-13T16:22:45+02:00</time>
      </trkpt>
      <trkpt lat="43.72141" lon="1.46975">
        <ele>161.2998</ele>
        <time>2024-07-13T16:22:49+02:00</time>
      </trkpt>
      <trkpt lat="43.72141" lon="1.46975">
        <ele>161.2998</ele>
        <time>2024-07-13T16:22:50+02:00</time>
      </trkpt>
      <trkpt lat="43.7214" lon="1.46973">
        <ele>161.2998</ele>
        <time>2024-07-13T16:22:54+02:00</time>
      </trkpt>
      <trkpt lat="43.72139" lon="1.46971">
        <ele>161.2998</ele>
        <time>2024-07-13T16:22:55+02:00</time>
      </trkpt>
      <trkpt lat="43.72128" lon="1.46972">
        <ele>161.7002</ele>
        <time>2024-07-13T16:22:59+02:00</time>
      </trkpt>
      <trkpt lat="43.72125" lon="1.46974">
        <ele>161.7002</ele>
        <time>2024-07-13T16:23:00+02:00</time>
      </trkpt>
      <trkpt lat="43.7211" lon="1.46983">
        <ele>162.5</ele>
        <time>2024-07-13T16:23:04+02:00</time>
      </trkpt>
      <trkpt lat="43.72106" lon="1.46985">
        <ele>162.7002</ele>
        <time>2024-07-13T16:23:05+02:00</time>
      </trkpt>
      <trkpt lat="43.72093" lon="1.46994">
        <ele>163.2998</ele>
        <time>2024-07-13T16:23:09+02:00</time>
      </trkpt>
      <trkpt lat="43.72089" lon="1.46996">
        <ele>163.2998</ele>
        <time>2024-07-13T16:23:10+02:00</time>
      </trkpt>
      <trkpt lat="43.72076" lon="1.47005">
        <ele>163.60059</ele>
        <time>2024-07-13T16:23:14+02:00</time>
      </trkpt>
      <trkpt lat="43.72073" lon="1.47006">
        <ele>163.7002</ele>
        <time>2024-07-13T16:23:15+02:00</time>
      </trkpt>
      <trkpt lat="43.72059" lon="1.47011">
        <ele>164</ele>
        <time>2024-07-13T16:23:19+02:00</time>
      </trkpt>
      <trkpt lat="43.72056" lon="1.47011">
        <ele>164.10059</ele>
        <time>2024-07-13T16:23:20+02:00</time>
      </trkpt>
      <trkpt lat="43.72045" lon="1.47015">
        <ele>164.5</ele>
        <time>2024-07-13T16:23:24+02:00</time>
      </trkpt>
      <trkpt lat="43.72042" lon="1.47016">
        <ele>164.7002</ele>
        <time>2024-07-13T16:23:25+02:00</time>
      </trkpt>
      <trkpt lat="43.7203" lon="1.47021">
        <ele>165</ele>
        <time>2024-07-13T16:23:29+02:00</time>
      </trkpt>
      <trkpt lat="43.72027" lon="1.47023">
        <ele>165</ele>
        <time>2024-07-13T16:23:30+02:00</time>
      </trkpt>
      <trkpt lat="43.72015" lon="1.47026">
        <ele>165.2998</ele>
        <time>2024-07-13T16:23:34+02:00</time>
      </trkpt>
      <trkpt lat="43.72014" lon="1.47025">
        <ele>165.2998</ele>
        <time>2024-07-13T16:23:35+02:00</time>
      </trkpt>
      <trkpt lat="43.72006" lon="1.47021">
        <ele>165.60059</ele>
        <time>2024-07-13T16:23:39+02:00</time>
      </trkpt>
      <trkpt lat="43.72005" lon="1.47018">
        <ele>165.90039</ele>
        <time>2024-07-13T16:23:40+02:00</time>
      </trkpt>
      <trkpt lat="43.72005" lon="1.47005">
        <ele>166.2002</ele>
        <time>2024-07-13T16:23:44+02:00</time>
      </trkpt>
      <trkpt lat="43.72005" lon="1.47002">
        <ele>166.5</ele>
        <time>2024-07-13T16:23:45+02:00</time>
      </trkpt>
      <trkpt lat="43.72009" lon="1.46992">
        <ele>166.40039</ele>
        <time>2024-07-13T16:23:49+02:00</time>
      </trkpt>
      <trkpt lat="43.7201" lon="1.46989">
        <ele>166.40039</ele>
        <time>2024-07-13T16:23:50+02:00</time>
      </trkpt>
      <trkpt lat="43.72016" lon="1.46975">
        <ele>166.2998</ele>
        <time>2024-07-13T16:23:54+02:00</time>
      </trkpt>
      <trkpt lat="43.72017" lon="1.46972">
        <ele>166.2998</ele>
        <time>2024-07-13T16:23:55+02:00</time>
      </trkpt>
      <trkpt lat="43.7202" lon="1.46963">
        <ele>166.10059</ele>
        <time>2024-07-13T16:23:59+02:00</time>
      </trkpt>
      <trkpt lat="43.72021" lon="1.46962">
        <ele>166.10059</ele>
        <time>2024-07-13T16:24:00+02:00</time>
      </trkpt>
      <trkpt lat="43.72031" lon="1.46954">
        <ele>165.7998</ele>
        <time>2024-07-13T16:24:04+02:00</time>
      </trkpt>
      <trkpt lat="43.72034" lon="1.46952">
        <ele>165.40039</ele>
        <time>2024-07-13T16:24:05+02:00</time>
      </trkpt>
      <trkpt lat="43.72045" lon="1.46944">
        <ele>164.7998</ele>
        <time>2024-07-13T16:24:09+02:00</time>
      </trkpt>
      <trkpt lat="43.72048" lon="1.46943">
        <ele>164.7998</ele>
        <time>2024-07-13T16:24:10+02:00</time>
      </trkpt>
      <trkpt lat="43.72056" lon="1.46936">
        <ele>164.5</ele>
        <time>2024-07-13T16:24:14+02:00</time>
      </trkpt>
      <trkpt lat="43.72058" lon="1.46935">
        <ele>164.5</ele>
        <time>2024-07-13T16:24:15+02:00</time>
      </trkpt>
      <trkpt lat="43.72068" lon="1.46931">
        <ele>164.2998</ele>
        <time>2024-07-13T16:24:19+02:00</time>
      </trkpt>
      <trkpt lat="43.7207" lon="1.46931">
        <ele>164</ele>
        <time>2024-07-13T16:24:20+02:00</time>
      </trkpt>
      <trkpt lat="43.72079" lon="1.4693">
        <ele>163.60059</ele>
        <time>2024-07-13T16:24:24+02:00</time>
      </trkpt>
      <trkpt lat="43.72081" lon="1.4693">
        <ele>163.2998</ele>
        <time>2024-07-13T16:24:25+02:00</time>
      </trkpt>
      <trkpt lat="43.72093" lon="1.46933">
        <ele>162.5</ele>
        <time>2024-07-13T16:24:29+02:00</time>
      </trkpt>
      <trkpt lat="43.72096" lon="1.46934">
        <ele>162.5</ele>
        <time>2024-07-13T16:24:30+02:00</time>
      </trkpt>
      <trkpt lat="43.72107" lon="1.46932">
        <ele>161.7998</ele>
        <time>2024-07-13T16:24:34+02:00</time>
      </trkpt>
      <trkpt lat="43.72109" lon="1.46932">
        <ele>161.7998</ele>
        <time>2024-07-13T16:24:35+02:00</time>
      </trkpt>
      <trkpt lat="43.72119" lon="1.46929">
        <ele>161.2002</ele>
        <time>2024-07-13T16:24:39+02:00</time>
      </trkpt>
      <trkpt lat="43.72121" lon="1.46927">
        <ele>161.2002</ele>
        <time>2024-07-13T16:24:40+02:00</time>
      </trkpt>
      <trkpt lat="43.72125" lon="1.46916">
        <ele>160.7998</ele>
        <time>2024-07-13T16:24:44+02:00</time>
      </trkpt>
      <trkpt lat="43.72125" lon="1.46915">
        <ele>160.7998</ele>
        <time>2024-07-13T16:24:45+02:00</time>
      </trkpt>
      <trkpt lat="43.72127" lon="1.46911">
        <ele>160.7998</ele>
        <time>2024-07-13T16:24:49+02:00</time>
      </trkpt>
      <trkpt lat="43.72127" lon="1.46911">
        <ele>160.7998</ele>
        <time>2024-07-13T16:24:50+02:00</time>
      </trkpt>
      <trkpt lat="43.72128" lon="1.46909">
        <ele>160.7998</ele>
        <time>2024-07-13T16:24:54+02:00</time>
      </trkpt>
      <trkpt lat="43.72129" lon="1.46908">
        <ele>160.90039</ele>
        <time>2024-07-13T16:24:55+02:00</time>
      </trkpt>
      <trkpt lat="43.72137" lon="1.46898">
        <ele>160.7002</ele>
        <time>2024-07-13T16:24:59+02:00</time>
      </trkpt>
      <trkpt lat="43.72139" lon="1.46895">
        <ele>160.2998</ele>
        <time>2024-07-13T16:25:00+02:00</time>
      </trkpt>
      <trkpt lat="43.72148" lon="1.46884">
        <ele>160.10059</ele>
        <time>2024-07-13T16:25:04+02:00</time>
      </trkpt>
      <trkpt lat="43.7215" lon="1.46881">
        <ele>160</ele>
        <time>2024-07-13T16:25:05+02:00</time>
      </trkpt>
      <trkpt lat="43.72156" lon="1.46869">
        <ele>160</ele>
        <time>2024-07-13T16:25:09+02:00</time>
      </trkpt>
      <trkpt lat="43.72158" lon="1.46867">
        <ele>160</ele>
        <time>2024-07-13T16:25:10+02:00</time>
      </trkpt>
      <trkpt lat="43.72168" lon="1.46859">
        <ele>159.90039</ele>
        <time>2024-07-13T16:25:14+02:00</time>
      </trkpt>
      <trkpt lat="43.7217" lon="1.46858">
        <ele>159.90039</ele>
        <time>2024-07-13T16:25:15+02:00</time>
      </trkpt>
      <trkpt lat="43.72174" lon="1.46852">
        <ele>159.90039</ele>
        <time>2024-07-13T16:25:19+02:00</time>
      </trkpt>
      <trkpt lat="43.72176" lon="1.4685">
        <ele>159.90039</ele>
        <time>2024-07-13T16:25:20+02:00</time>
      </trkpt>
      <trkpt lat="43.72183" lon="1.4684">
        <ele>159.90039</ele>
        <time>2024-07-13T16:25:24+02:00</time>
      </trkpt>
      <trkpt lat="43.72185" lon="1.46838">
        <ele>160.10059</ele>
        <time>2024-07-13T16:25:25+02:00</time>
      </trkpt>
      <trkpt lat="43.72195" lon="1.4683">
        <ele>159.90039</ele>
        <time>2024-07-13T16:25:29+02:00</time>
      </trkpt>
      <trkpt lat="43.72197" lon="1.46828">
        <ele>159.90039</ele>
        <time>2024-07-13T16:25:30+02:00</time>
      </trkpt>
      <trkpt lat="43.72203" lon="1.46815">
        <ele>160</ele>
        <time>2024-07-13T16:25:34+02:00</time>
      </trkpt>
      <trkpt lat="43.72204" lon="1.46813">
        <ele>160.2998</ele>
        <time>2024-07-13T16:25:35+02:00</time>
      </trkpt>
      <trkpt lat="43.72213" lon="1.46808">
        <ele>159.60059</ele>
        <time>2024-07-13T16:25:39+02:00</time>
      </trkpt>
      <trkpt lat="43.72216" lon="1.46806">
        <ele>159.60059</ele>
        <time>2024-07-13T16:25:40+02:00</time>
      </trkpt>
      <trkpt lat="43.72228" lon="1.468">
        <ele>159</ele>
        <time>2024-07-13T16:25:44+02:00</time>
      </trkpt>
      <trkpt lat="43.72231" lon="1.46798">
        <ele>158.60059</ele>
        <time>2024-07-13T16:25:45+02:00</time>
      </trkpt>
      <trkpt lat="43.72243" lon="1.46793">
        <ele>158</ele>
        <time>2024-07-13T16:25:49+02:00</time>
      </trkpt>
      <trkpt lat="43.72245" lon="1.46792">
        <ele>158</ele>
        <time>2024-07-13T16:25:50+02:00</time>
      </trkpt>
      <trkpt lat="43.72249" lon="1.46786">
        <ele>158</ele>
        <time>2024-07-13T16:25:54+02:00</time>
      </trkpt>
      <trkpt lat="43.7225" lon="1.46784">
        <ele>158</ele>
        <time>2024-07-13T16:25:55+02:00</time>
      </trkpt>
      <trkpt lat="43.72256" lon="1.46781">
        <ele>157.7998</ele>
        <time>2024-07-13T16:25:59+02:00</time>
      </trkpt>
      <trkpt lat="43.72259" lon="1.46781">
        <ele>157.7998</ele>
        <time>2024-07-13T16:26:00+02:00</time>
      </trkpt>
      <trkpt lat="43.72267" lon="1.4678">
        <ele>157.40039</ele>
        <time>2024-07-13T16:26:04+02:00</time>
      </trkpt>
      <trkpt lat="43.7227" lon="1.46777">
        <ele>157.40039</ele>
        <time>2024-07-13T16:26:05+02:00</time>
      </trkpt>
      <trkpt lat="43.72275" lon="1.46769">
        <ele>157.2002</ele>
        <time>2024-07-13T16:26:09+02:00</time>
      </trkpt>
      <trkpt lat="43.72277" lon="1.46768">
        <ele>157.2002</ele>
        <time>2024-07-13T16:26:10+02:00</time>
      </trkpt>
      <trkpt lat="43.72284" lon="1.46759">
        <ele>157</ele>
        <time>2024-07-13T16:26:14+02:00</time>
      </trkpt>
      <trkpt lat="43.72285" lon="1.46756">
        <ele>157</ele>
        <time>2024-07-13T16:26:15+02:00</time>
      </trkpt>
      <trkpt lat="43.72288" lon="1.46748">
        <ele>157</ele>
        <time>2024-07-13T16:26:19+02:00</time>
      </trkpt>
      <trkpt lat="43.72289" lon="1.46746">
        <ele>157</ele>
        <time>2024-07-13T16:26:20+02:00</time>
      </trkpt>
      <trkpt lat="43.72296" lon="1.46736">
        <ele>157.5</ele>
        <time>2024-07-13T16:26:24+02:00</time>
      </trkpt>
      <trkpt lat="43.72296" lon="1.46734">
        <ele>157.5</ele>
        <time>2024-07-13T16:26:25+02:00</time>
      </trkpt>
      <trkpt lat="43.72297" lon="1.4673">
        <ele>157.5</ele>
        <time>2024-07-13T16:26:29+02:00</time>
      </trkpt>
      <trkpt lat="43.72297" lon="1.4673">
        <ele>157.5</ele>
        <time>2024-07-13T16:26:30+02:00</time>
      </trkpt>
      <trkpt lat="43.72299" lon="1.46729">
        <ele>157.2002</ele>
        <time>2024-07-13T16:26:34+02:00</time>
      </trkpt>
      <trkpt lat="43.723" lon="1.46729">
        <ele>157.2002</ele>
        <time>2024-07-13T16:26:35+02:00</time>
      </trkpt>
      <trkpt lat="43.72303" lon="1.46722">
        <ele>157.7002</ele>
        <time>2024-07-13T16:26:39+02:00</time>
      </trkpt>
      <trkpt lat="43.72304" lon="1.46719">
        <ele>157.40039</ele>
        <time>2024-07-13T16:26:40+02:00</time>
      </trkpt>
      <trkpt lat="43.72308" lon="1.46709">
        <ele>158.5</ele>
        <time>2024-07-13T16:26:44+02:00</time>
      </trkpt>
      <trkpt lat="43.7231" lon="1.46707">
        <ele>158.5</ele>
        <time>2024-07-13T16:26:45+02:00</time>
      </trkpt>
      <trkpt lat="43.72314" lon="1.46698">
        <ele>158.90039</ele>
        <time>2024-07-13T16:26:49+02:00</time>
      </trkpt>
      <trkpt lat="43.72314" lon="1.46696">
        <ele>158.90039</ele>
        <time>2024-07-13T16:26:50+02:00</time>
      </trkpt>
      <trkpt lat="43.72319" lon="1.46681">
        <ele>159.90039</ele>
        <time>2024-07-13T16:26:54+02:00</time>
      </trkpt>
      <trkpt lat="43.7232" lon="1.4668">
        <ele>159.90039</ele>
        <time>2024-07-13T16:26:55+02:00</time>
      </trkpt>
      <trkpt lat="43.72317" lon="1.46675">
        <ele>160.5</ele>
        <time>2024-07-13T16:26:59+02:00</time>
      </trkpt>
      <trkpt lat="43.72315" lon="1.46673">
        <ele>160.7002</ele>
        <time>2024-07-13T16:27:00+02:00</time>
      </trkpt>
      <trkpt lat="43.72306" lon="1.46663">
        <ele>161.60059</ele>
        <time>2024-07-13T16:27:04+02:00</time>
      </trkpt>
      <trkpt lat="43.72304" lon="1.46661">
        <ele>161.60059</ele>
        <time>2024-07-13T16:27:05+02:00</time>
      </trkpt>
      <trkpt lat="43.72295" lon="1.46652">
        <ele>162.60059</ele>
        <time>2024-07-13T16:27:09+02:00</time>
      </trkpt>
      <trkpt lat="43.72292" lon="1.46651">
        <ele>162.60059</ele>
        <time>2024-07-13T16:27:10+02:00</time>
      </trkpt>
      <trkpt lat="43.72282" lon="1.46642">
        <ele>163.7998</ele>
        <time>2024-07-13T16:27:14+02:00</time>
      </trkpt>
      <trkpt lat="43.72279" lon="1.4664">
        <ele>164.7002</ele>
        <time>2024-07-13T16:27:15+02:00</time>
      </trkpt>
      <trkpt lat="43.72269" lon="1.46634">
        <ele>165</ele>
        <time>2024-07-13T16:27:19+02:00</time>
      </trkpt>
      <trkpt lat="43.72267" lon="1.46632">
        <ele>165.90039</ele>
        <time>2024-07-13T16:27:20+02:00</time>
      </trkpt>
      <trkpt lat="43.72256" lon="1.46625">
        <ele>166.2002</ele>
        <time>2024-07-13T16:27:24+02:00</time>
      </trkpt>
      <trkpt lat="43.72252" lon="1.46624">
        <ele>167</ele>
        <time>2024-07-13T16:27:25+02:00</time>
      </trkpt>
      <trkpt lat="43.72241" lon="1.46619">
        <ele>167.40039</ele>
        <time>2024-07-13T16:27:29+02:00</time>
      </trkpt>
      <trkpt lat="43.72238" lon="1.46618">
        <ele>167.40039</ele>
        <time>2024-07-13T16:27:30+02:00</time>
      </trkpt>
      <trkpt lat="43.72228" lon="1.46614">
        <ele>168.10059</ele>
        <time>2024-07-13T16:27:34+02:00</time>
      </trkpt>
      <trkpt lat="43.72224" lon="1.46614">
        <ele>168.10059</ele>
        <time>2024-07-13T16:27:35+02:00</time>
      </trkpt>
      <trkpt lat="43.72211" lon="1.46611">
        <ele>168.2998</ele>
        <time>2024-07-13T16:27:39+02:00</time>
      </trkpt>
      <trkpt lat="43.72208" lon="1.46611">
        <ele>168.40039</ele>
        <time>2024-07-13T16:27:40+02:00</time>
      </trkpt>
      <trkpt lat="43.72197" lon="1.46607">
        <ele>168.7002</ele>
        <time>2024-07-13T16:27:44+02:00</time>
      </trkpt>
      <trkpt lat="43.72194" lon="1.46607">
        <ele>168.90039</ele>
        <time>2024-07-13T16:27:45+02:00</time>
      </trkpt>
      <trkpt lat="43.72182" lon="1.46603">
        <ele>169.10059</ele>
        <time>2024-07-13T16:27:49+02:00</time>
      </trkpt>
      <trkpt lat="43.72179" lon="1.46602">
        <ele>169.2002</ele>
        <time>2024-07-13T16:27:50+02:00</time>
      </trkpt>
      <trkpt lat="43.72171" lon="1.46589">
        <ele>169.60059</ele>
        <time>2024-07-13T16:27:54+02:00</time>
      </trkpt>
      <trkpt lat="43.72171" lon="1.46585">
        <ele>169.60059</ele>
        <time>2024-07-13T16:27:55+02:00</time>
      </trkpt>
      <trkpt lat="43.72175" lon="1.46565">
        <ele>169.5</ele>
        <time>2024-07-13T16:27:59+02:00</time>
      </trkpt>
      <trkpt lat="43.72177" lon="1.4656">
        <ele>169.5</ele>
        <time>2024-07-13T16:28:00+02:00</time>
      </trkpt>
      <trkpt lat="43.72187" lon="1.46538">
        <ele>169.2002</ele>
        <time>2024-07-13T16:28:04+02:00</time>
      </trkpt>
      <trkpt lat="43.7219" lon="1.46532">
        <ele>169.2002</ele>
        <time>2024-07-13T16:28:05+02:00</time>
      </trkpt>
      <trkpt lat="43.72202" lon="1.46509">
        <ele>168.90039</ele>
        <time>2024-07-13T16:28:09+02:00</time>
      </trkpt>
      <trkpt lat="43.72204" lon="1.46503">
        <ele>168.7998</ele>
        <time>2024-07-13T16:28:10+02:00</time>
      </trkpt>
      <trkpt lat="43.72216" lon="1.46481">
        <ele>168.2998</ele>
        <time>2024-07-13T16:28:14+02:00</time>
      </trkpt>
      <trkpt lat="43.72219" lon="1.46479">
        <ele>168.10059</ele>
        <time>2024-07-13T16:28:15+02:00</time>
      </trkpt>
      <trkpt lat="43.72239" lon="1.46487">
        <ele>168.2998</ele>
        <time>2024-07-13T16:28:19+02:00</time>
      </trkpt>
      <trkpt lat="43.72245" lon="1.46492">
        <ele>168.2002</ele>
        <time>2024-07-13T16:28:20+02:00</time>
      </trkpt>
      <trkpt lat="43.72267" lon="1.46508">
        <ele>168.10059</ele>
        <time>2024-07-13T16:28:24+02:00</time>
      </trkpt>
      <trkpt lat="43.72271" lon="1.46512">
        <ele>167.90039</ele>
        <time>2024-07-13T16:28:25+02:00</time>
      </trkpt>
      <trkpt lat="43.72291" lon="1.46534">
        <ele>166.7998</ele>
        <time>2024-07-13T16:28:29+02:00</time>
      </trkpt>
      <trkpt lat="43.72297" lon="1.46538">
        <ele>166.2998</ele>
        <time>2024-07-13T16:28:30+02:00</time>
      </trkpt>
      <trkpt lat="43.7232" lon="1.46557">
        <ele>164.2998</ele>
        <time>2024-07-13T16:28:34+02:00</time>
      </trkpt>
      <trkpt lat="43.72325" lon="1.46562">
        <ele>163.90039</ele>
        <time>2024-07-13T16:28:35+02:00</time>
      </trkpt>
      <trkpt lat="43.72336" lon="1.46569">
        <ele>163.2002</ele>
        <time>2024-07-13T16:28:39+02:00</time>
      </trkpt>
      <trkpt lat="43.7234" lon="1.4657">
        <ele>163.2002</ele>
        <time>2024-07-13T16:28:40+02:00</time>
      </trkpt>
      <trkpt lat="43.72353" lon="1.46563">
        <ele>162.7998</ele>
        <time>2024-07-13T16:28:44+02:00</time>
      </trkpt>
      <trkpt lat="43.72355" lon="1.46558">
        <ele>162.7002</ele>
        <time>2024-07-13T16:28:45+02:00</time>
      </trkpt>
      <trkpt lat="43.72364" lon="1.46534">
        <ele>162.7998</ele>
        <time>2024-07-13T16:28:49+02:00</time>
      </trkpt>
      <trkpt lat="43.72366" lon="1.46529">
        <ele>162.7998</ele>
        <time>2024-07-13T16:28:50+02:00</time>
      </trkpt>
      <trkpt lat="43.72369" lon="1.4651">
        <ele>163.2998</ele>
        <time>2024-07-13T16:28:54+02:00</time>
      </trkpt>
      <trkpt lat="43.72369" lon="1.46506">
        <ele>163.2998</ele>
        <time>2024-07-13T16:28:55+02:00</time>
      </trkpt>
      <trkpt lat="43.72369" lon="1.4649">
        <ele>163.5</ele>
        <time>2024-07-13T16:28:59+02:00</time>
      </trkpt>
      <trkpt lat="43.72369" lon="1.46485">
        <ele>163.7002</ele>
        <time>2024-07-13T16:29:00+02:00</time>
      </trkpt>
      <trkpt lat="43.72365" lon="1.46468">
        <ele>163.7998</ele>
        <time>2024-07-13T16:29:04+02:00</time>
      </trkpt>
      <trkpt lat="43.72365" lon="1.46464">
        <ele>163.7998</ele>
        <time>2024-07-13T16:29:05+02:00</time>
      </trkpt>
      <trkpt lat="43.72365" lon="1.46443">
        <ele>164.5</ele>
        <time>2024-07-13T16:29:09+02:00</time>
      </trkpt>
      <trkpt lat="43.72364" lon="1.46438">
        <ele>164.5</ele>
        <time>2024-07-13T16:29:10+02:00</time>
      </trkpt>
      <trkpt lat="43.72359" lon="1.46417">
        <ele>165.2002</ele>
        <time>2024-07-13T16:29:14+02:00</time>
      </trkpt>
      <trkpt lat="43.72358" lon="1.46412">
        <ele>165.2002</ele>
        <time>2024-07-13T16:29:15+02:00</time>
      </trkpt>
      <trkpt lat="43.72352" lon="1.46392">
        <ele>165.7002</ele>
        <time>2024-07-13T16:29:19+02:00</time>
      </trkpt>
      <trkpt lat="43.72349" lon="1.46386">
        <ele>165.7002</ele>
        <time>2024-07-13T16:29:20+02:00</time>
      </trkpt>
      <trkpt lat="43.7234" lon="1.46367">
        <ele>166.10059</ele>
        <time>2024-07-13T16:29:24+02:00</time>
      </trkpt>
      <trkpt lat="43.72338" lon="1.46362">
        <ele>166.10059</ele>
        <time>2024-07-13T16:29:25+02:00</time>
      </trkpt>
      <trkpt lat="43.72335" lon="1.46343">
        <ele>166.2998</ele>
        <time>2024-07-13T16:29:29+02:00</time>
      </trkpt>
      <trkpt lat="43.72336" lon="1.46338">
        <ele>166.40039</ele>
        <time>2024-07-13T16:29:30+02:00</time>
      </trkpt>
      <trkpt lat="43.72334" lon="1.4632">
        <ele>166.5</ele>
        <time>2024-07-13T16:29:34+02:00</time>
      </trkpt>
      <trkpt lat="43.72334" lon="1.46316">
        <ele>166.5</ele>
        <time>2024-07-13T16:29:35+02:00</time>
      </trkpt>
      <trkpt lat="43.72331" lon="1.46302">
        <ele>166.2998</ele>
        <time>2024-07-13T16:29:39+02:00</time>
      </trkpt>
      <trkpt lat="43.7233" lon="1.46298">
        <ele>166.2002</ele>
        <time>2024-07-13T16:29:40+02:00</time>
      </trkpt>
      <trkpt lat="43.72328" lon="1.46281">
        <ele>166</ele>
        <time>2024-07-13T16:29:44+02:00</time>
      </trkpt>
      <trkpt lat="43.72327" lon="1.46276">
        <ele>166</ele>
        <time>2024-07-13T16:29:45+02:00</time>
      </trkpt>
      <trkpt lat="43.72321" lon="1.46263">
        <ele>165.90039</ele>
        <time>2024-07-13T16:29:49+02:00</time>
      </trkpt>
      <trkpt lat="43.7232" lon="1.46259">
        <ele>165.90039</ele>
        <time>2024-07-13T16:29:50+02:00</time>
      </trkpt>
      <trkpt lat="43.72312" lon="1.46243">
        <ele>166.10059</ele>
        <time>2024-07-13T16:29:54+02:00</time>
      </trkpt>
      <trkpt lat="43.7231" lon="1.46238">
        <ele>166.2002</ele>
        <time>2024-07-13T16:29:55+02:00</time>
      </trkpt>
      <trkpt lat="43.72311" lon="1.46215">
        <ele>166.7002</ele>
        <time>2024-07-13T16:29:59+02:00</time>
      </trkpt>
      <trkpt lat="43.72313" lon="1.4621">
        <ele>167</ele>
        <time>2024-07-13T16:30:00+02:00</time>
      </trkpt>
      <trkpt lat="43.72318" lon="1.4619">
        <ele>167.7002</ele>
        <time>2024-07-13T16:30:04+02:00</time>
      </trkpt>
      <trkpt lat="43.72318" lon="1.46186">
        <ele>168.10059</ele>
        <time>2024-07-13T16:30:05+02:00</time>
      </trkpt>
      <trkpt lat="43.72315" lon="1.46171">
        <ele>168.2998</ele>
        <time>2024-07-13T16:30:09+02:00</time>
      </trkpt>
      <trkpt lat="43.72314" lon="1.46167">
        <ele>168.60059</ele>
        <time>2024-07-13T16:30:10+02:00</time>
      </trkpt>
      <trkpt lat="43.72312" lon="1.46149">
        <ele>169</ele>
        <time>2024-07-13T16:30:14+02:00</time>
      </trkpt>
      <trkpt lat="43.72312" lon="1.46144">
        <ele>169.2002</ele>
        <time>2024-07-13T16:30:15+02:00</time>
      </trkpt>
      <trkpt lat="43.72313" lon="1.4612">
        <ele>169.5</ele>
        <time>2024-07-13T16:30:19+02:00</time>
      </trkpt>
      <trkpt lat="43.72313" lon="1.46113">
        <ele>169.60059</ele>
        <time>2024-07-13T16:30:20+02:00</time>
      </trkpt>
      <trkpt lat="43.72312" lon="1.46086">
        <ele>169.90039</ele>
        <time>2024-07-13T16:30:24+02:00</time>
      </trkpt>
      <trkpt lat="43.72312" lon="1.46081">
        <ele>170</ele>
        <time>2024-07-13T16:30:25+02:00</time>
      </trkpt>
      <trkpt lat="43.72313" lon="1.46069">
        <ele>170.10059</ele>
        <time>2024-07-13T16:30:29+02:00</time>
      </trkpt>
      <trkpt lat="43.72314" lon="1.46069">
        <ele>170.10059</ele>
        <time>2024-07-13T16:30:30+02:00</time>
      </trkpt>
      <trkpt lat="43.72315" lon="1.46067">
        <ele>170.10059</ele>
        <time>2024-07-13T16:30:34+02:00</time>
      </trkpt>
      <trkpt lat="43.72315" lon="1.46067">
        <ele>170.10059</ele>
        <time>2024-07-13T16:30:35+02:00</time>
      </trkpt>
      <trkpt lat="43.72317" lon="1.46068">
        <ele>170.7998</ele>
        <time>2024-07-13T16:30:39+02:00</time>
      </trkpt>
      <trkpt lat="43.72319" lon="1.46067">
        <ele>170.7998</ele>
        <time>2024-07-13T16:30:40+02:00</time>
      </trkpt>
      <trkpt lat="43.72325" lon="1.46071">
        <ele>171.5</ele>
        <time>2024-07-13T16:30:44+02:00</time>
      </trkpt>
      <trkpt lat="43.72326" lon="1.46074">
        <ele>171.5</ele>
        <time>2024-07-13T16:30:45+02:00</time>
      </trkpt>
      <trkpt lat="43.72326" lon="1.46088">
        <ele>171.2002</ele>
        <time>2024-07-13T16:30:49+02:00</time>
      </trkpt>
      <trkpt lat="43.72326" lon="1.46093">
        <ele>171</ele>
        <time>2024-07-13T16:30:50+02:00</time>
      </trkpt>
      <trkpt lat="43.72329" lon="1.46114">
        <ele>170.7002</ele>
        <time>2024-07-13T16:30:54+02:00</time>
      </trkpt>
      <trkpt lat="43.72329" lon="1.46119">
        <ele>171.2998</ele>
        <time>2024-07-13T16:30:55+02:00</time>
      </trkpt>
      <trkpt lat="43.72335" lon="1.46136">
        <ele>170.90039</ele>
        <time>2024-07-13T16:30:59+02:00</time>
      </trkpt>
      <trkpt lat="43.72336" lon="1.4614">
        <ele>171.7002</ele>
        <time>2024-07-13T16:31:00+02:00</time>
      </trkpt>
      <trkpt lat="43.72341" lon="1.46162">
        <ele>170.7998</ele>
        <time>2024-07-13T16:31:04+02:00</time>
      </trkpt>
      <trkpt lat="43.72342" lon="1.46167">
        <ele>171.60059</ele>
        <time>2024-07-13T16:31:05+02:00</time>
      </trkpt>
      <trkpt lat="43.72352" lon="1.46185">
        <ele>171.5</ele>
        <time>2024-07-13T16:31:09+02:00</time>
      </trkpt>
      <trkpt lat="43.72354" lon="1.4619">
        <ele>171.90039</ele>
        <time>2024-07-13T16:31:10+02:00</time>
      </trkpt>
      <trkpt lat="43.72351" lon="1.46214">
        <ele>168.7998</ele>
        <time>2024-07-13T16:31:14+02:00</time>
      </trkpt>
      <trkpt lat="43.7235" lon="1.46222">
        <ele>168.2002</ele>
        <time>2024-07-13T16:31:15+02:00</time>
      </trkpt>
      <trkpt lat="43.72355" lon="1.46247">
        <ele>168.2002</ele>
        <time>2024-07-13T16:31:19+02:00</time>
      </trkpt>
      <trkpt lat="43.72359" lon="1.46251">
        <ele>167.7998</ele>
        <time>2024-07-13T16:31:20+02:00</time>
      </trkpt>
      <trkpt lat="43.72372" lon="1.4626">
        <ele>169.7002</ele>
        <time>2024-07-13T16:31:24+02:00</time>
      </trkpt>
      <trkpt lat="43.72374" lon="1.46262">
        <ele>170.90039</ele>
        <time>2024-07-13T16:31:25+02:00</time>
      </trkpt>
      <trkpt lat="43.72379" lon="1.46273">
        <ele>171.7998</ele>
        <time>2024-07-13T16:31:29+02:00</time>
      </trkpt>
      <trkpt lat="43.72379" lon="1.46276">
        <ele>171.40039</ele>
        <time>2024-07-13T16:31:30+02:00</time>
      </trkpt>
      <trkpt lat="43.72382" lon="1.463">
        <ele>170</ele>
        <time>2024-07-13T16:31:34+02:00</time>
      </trkpt>
      <trkpt lat="43.72382" lon="1.46308">
        <ele>169.5</ele>
        <time>2024-07-13T16:31:35+02:00</time>
      </trkpt>
      <trkpt lat="43.72384" lon="1.46342">
        <ele>168.40039</ele>
        <time>2024-07-13T16:31:39+02:00</time>
      </trkpt>
      <trkpt lat="43.72386" lon="1.46351">
        <ele>169.2002</ele>
        <time>2024-07-13T16:31:40+02:00</time>
      </trkpt>
      <trkpt lat="43.72392" lon="1.46391">
        <ele>168.90039</ele>
        <time>2024-07-13T16:31:44+02:00</time>
      </trkpt>
      <trkpt lat="43.72393" lon="1.46401">
        <ele>168.5</ele>
        <time>2024-07-13T16:31:45+02:00</time>
      </trkpt>
      <trkpt lat="43.72399" lon="1.46433">
        <ele>168.7002</ele>
        <time>2024-07-13T16:31:49+02:00</time>
      </trkpt>
      <trkpt lat="43.724" lon="1.4644">
        <ele>168.5</ele>
        <time>2024-07-13T16:31:50+02:00</time>
      </trkpt>
      <trkpt lat="43.724" lon="1.46469">
        <ele>167.90039</ele>
        <time>2024-07-13T16:31:54+02:00</time>
      </trkpt>
      <trkpt lat="43.72401" lon="1.46476">
        <ele>167.7002</ele>
        <time>2024-07-13T16:31:55+02:00</time>
      </trkpt>
      <trkpt lat="43.72405" lon="1.46501">
        <ele>168.40039</ele>
        <time>2024-07-13T16:31:59+02:00</time>
      </trkpt>
      <trkpt lat="43.72405" lon="1.46507">
        <ele>168.2002</ele>
        <time>2024-07-13T16:32:00+02:00</time>
      </trkpt>
      <trkpt lat="43.72407" lon="1.46532">
        <ele>167.60059</ele>
        <time>2024-07-13T16:32:04+02:00</time>
      </trkpt>
      <trkpt lat="43.72409" lon="1.46537">
        <ele>167.60059</ele>
        <time>2024-07-13T16:32:05+02:00</time>
      </trkpt>
      <trkpt lat="43.72413" lon="1.46553">
        <ele>168</ele>
        <time>2024-07-13T16:32:09+02:00</time>
      </trkpt>
      <trkpt lat="43.72415" lon="1.46556">
        <ele>168</ele>
        <time>2024-07-13T16:32:10+02:00</time>
      </trkpt>
      <trkpt lat="43.7242" lon="1.46572">
        <ele>168</ele>
        <time>2024-07-13T16:32:14+02:00</time>
      </trkpt>
      <trkpt lat="43.72422" lon="1.46576">
        <ele>167.2002</ele>
        <time>2024-07-13T16:32:15+02:00</time>
      </trkpt>
      <trkpt lat="43.72429" lon="1.46587">
        <ele>167.7002</ele>
        <time>2024-07-13T16:32:19+02:00</time>
      </trkpt>
      <trkpt lat="43.72431" lon="1.46588">
        <ele>167.7002</ele>
        <time>2024-07-13T16:32:20+02:00</time>
      </trkpt>
      <trkpt lat="43.72438" lon="1.46597">
        <ele>167.2998</ele>
        <time>2024-07-13T16:32:24+02:00</time>
      </trkpt>
      <trkpt lat="43.72439" lon="1.46602">
        <ele>166.10059</ele>
        <time>2024-07-13T16:32:25+02:00</time>
      </trkpt>
      <trkpt lat="43.72449" lon="1.46614">
        <ele>166</ele>
        <time>2024-07-13T16:32:29+02:00</time>
      </trkpt>
      <trkpt lat="43.72451" lon="1.46617">
        <ele>164.7002</ele>
        <time>2024-07-13T16:32:30+02:00</time>
      </trkpt>
      <trkpt lat="43.72457" lon="1.46636">
        <ele>162.5</ele>
        <time>2024-07-13T16:32:34+02:00</time>
      </trkpt>
      <trkpt lat="43.72456" lon="1.46642">
        <ele>161.2002</ele>
        <time>2024-07-13T16:32:35+02:00</time>
      </trkpt>
      <trkpt lat="43.72458" lon="1.46668">
        <ele>158</ele>
        <time>2024-07-13T16:32:39+02:00</time>
      </trkpt>
      <trkpt lat="43.72459" lon="1.46676">
        <ele>158.10059</ele>
        <time>2024-07-13T16:32:40+02:00</time>
      </trkpt>
      <trkpt lat="43.72464" lon="1.46686">
        <ele>156.40039</ele>
        <time>2024-07-13T16:32:44+02:00</time>
      </trkpt>
      <trkpt lat="43.72466" lon="1.46687">
        <ele>156.2998</ele>
        <time>2024-07-13T16:32:45+02:00</time>
      </trkpt>
      <trkpt lat="43.72477" lon="1.46691">
        <ele>156.2002</ele>
        <time>2024-07-13T16:32:49+02:00</time>
      </trkpt>
      <trkpt lat="43.7248" lon="1.46691">
        <ele>156.10059</ele>
        <time>2024-07-13T16:32:50+02:00</time>
      </trkpt>
      <trkpt lat="43.72486" lon="1.46688">
        <ele>156</ele>
        <time>2024-07-13T16:32:54+02:00</time>
      </trkpt>
      <trkpt lat="43.72488" lon="1.46687">
        <ele>156</ele>
        <time>2024-07-13T16:32:55+02:00</time>
      </trkpt>
      <trkpt lat="43.72497" lon="1.46685">
        <ele>156</ele>
        <time>2024-07-13T16:32:59+02:00</time>
      </trkpt>
      <trkpt lat="43.725" lon="1.46685">
        <ele>156</ele>
        <time>2024-07-13T16:33:00+02:00</time>
      </trkpt>
      <trkpt lat="43.72515" lon="1.46682">
        <ele>157.2998</ele>
        <time>2024-07-13T16:33:04+02:00</time>
      </trkpt>
      <trkpt lat="43.72518" lon="1.46679">
        <ele>157.2998</ele>
        <time>2024-07-13T16:33:05+02:00</time>
      </trkpt>
      <trkpt lat="43.72524" lon="1.46667">
        <ele>159.7002</ele>
        <time>2024-07-13T16:33:09+02:00</time>
      </trkpt>
      <trkpt lat="43.72525" lon="1.46664">
        <ele>159.7002</ele>
        <time>2024-07-13T16:33:10+02:00</time>
      </trkpt>
      <trkpt lat="43.72536" lon="1.46658">
        <ele>161.2002</ele>
        <time>2024-07-13T16:33:14+02:00</time>
      </trkpt>
      <trkpt lat="43.72538" lon="1.46656">
        <ele>161.2002</ele>
        <time>2024-07-13T16:33:15+02:00</time>
      </trkpt>
      <trkpt lat="43.72549" lon="1.46642">
        <ele>164.2998</ele>
        <time>2024-07-13T16:33:19+02:00</time>
      </trkpt>
      <trkpt lat="43.72551" lon="1.46638">
        <ele>164.2998</ele>
        <time>2024-07-13T16:33:20+02:00</time>
      </trkpt>
      <trkpt lat="43.7255" lon="1.46628">
        <ele>165.90039</ele>
        <time>2024-07-13T16:33:24+02:00</time>
      </trkpt>
      <trkpt lat="43.72551" lon="1.46625">
        <ele>165.90039</ele>
        <time>2024-07-13T16:33:25+02:00</time>
      </trkpt>
      <trkpt lat="43.72556" lon="1.46614">
        <ele>169.2002</ele>
        <time>2024-07-13T16:33:29+02:00</time>
      </trkpt>
      <trkpt lat="43.72557" lon="1.46612">
        <ele>169.2002</ele>
        <time>2024-07-13T16:33:30+02:00</time>
      </trkpt>
      <trkpt lat="43.72555" lon="1.46602">
        <ele>170.90039</ele>
        <time>2024-07-13T16:33:34+02:00</time>
      </trkpt>
      <trkpt lat="43.72553" lon="1.46599">
        <ele>170.90039</ele>
        <time>2024-07-13T16:33:35+02:00</time>
      </trkpt>
      <trkpt lat="43.72547" lon="1.46589">
        <ele>174.40039</ele>
        <time>2024-07-13T16:33:39+02:00</time>
      </trkpt>
      <trkpt lat="43.72546" lon="1.46587">
        <ele>174.5</ele>
        <time>2024-07-13T16:33:40+02:00</time>
      </trkpt>
      <trkpt lat="43.72537" lon="1.46582">
        <ele>176.2998</ele>
        <time>2024-07-13T16:33:44+02:00</time>
      </trkpt>
      <trkpt lat="43.72534" lon="1.4658">
        <ele>176.2998</ele>
        <time>2024-07-13T16:33:45+02:00</time>
      </trkpt>
      <trkpt lat="43.72524" lon="1.46574">
        <ele>176.5</ele>
        <time>2024-07-13T16:33:49+02:00</time>
      </trkpt>
      <trkpt lat="43.72523" lon="1.46572">
        <ele>177.90039</ele>
        <time>2024-07-13T16:33:50+02:00</time>
      </trkpt>
      <trkpt lat="43.72514" lon="1.46572">
        <ele>177.7998</ele>
        <time>2024-07-13T16:33:54+02:00</time>
      </trkpt>
      <trkpt lat="43.7251" lon="1.46572">
        <ele>177.7998</ele>
        <time>2024-07-13T16:33:55+02:00</time>
      </trkpt>
      <trkpt lat="43.72499" lon="1.46562">
        <ele>178.60059</ele>
        <time>2024-07-13T16:33:59+02:00</time>
      </trkpt>
      <trkpt lat="43.72497" lon="1.46558">
        <ele>178.60059</ele>
        <time>2024-07-13T16:34:00+02:00</time>
      </trkpt>
      <trkpt lat="43.72487" lon="1.46547">
        <ele>180.2998</ele>
        <time>2024-07-13T16:34:04+02:00</time>
      </trkpt>
      <trkpt lat="43.72483" lon="1.46543">
        <ele>179.5</ele>
        <time>2024-07-13T16:34:05+02:00</time>
      </trkpt>
      <trkpt lat="43.72472" lon="1.46515">
        <ele>181.10059</ele>
        <time>2024-07-13T16:34:09+02:00</time>
      </trkpt>
      <trkpt lat="43.7247" lon="1.46505">
        <ele>180.2998</ele>
        <time>2024-07-13T16:34:10+02:00</time>
      </trkpt>
      <trkpt lat="43.72466" lon="1.46469">
        <ele>181.7998</ele>
        <time>2024-07-13T16:34:14+02:00</time>
      </trkpt>
      <trkpt lat="43.72463" lon="1.46463">
        <ele>180.7002</ele>
        <time>2024-07-13T16:34:15+02:00</time>
      </trkpt>
      <trkpt lat="43.72461" lon="1.4644">
        <ele>181.10059</ele>
        <time>2024-07-13T16:34:19+02:00</time>
      </trkpt>
      <trkpt lat="43.72463" lon="1.46435">
        <ele>181.2998</ele>
        <time>2024-07-13T16:34:20+02:00</time>
      </trkpt>
      <trkpt lat="43.72463" lon="1.46416">
        <ele>181.5</ele>
        <time>2024-07-13T16:34:24+02:00</time>
      </trkpt>
      <trkpt lat="43.72463" lon="1.46411">
        <ele>181.5</ele>
        <time>2024-07-13T16:34:25+02:00</time>
      </trkpt>
      <trkpt lat="43.7246" lon="1.46394">
        <ele>181.7998</ele>
        <time>2024-07-13T16:34:29+02:00</time>
      </trkpt>
      <trkpt lat="43.72458" lon="1.46389">
        <ele>181.2002</ele>
        <time>2024-07-13T16:34:30+02:00</time>
      </trkpt>
      <trkpt lat="43.72454" lon="1.46363">
        <ele>182.40039</ele>
        <time>2024-07-13T16:34:34+02:00</time>
      </trkpt>
      <trkpt lat="43.72455" lon="1.46357">
        <ele>182.7998</ele>
        <time>2024-07-13T16:34:35+02:00</time>
      </trkpt>
      <trkpt lat="43.72455" lon="1.46335">
        <ele>183.7998</ele>
        <time>2024-07-13T16:34:39+02:00</time>
      </trkpt>
      <trkpt lat="43.72455" lon="1.4633">
        <ele>184.2002</ele>
        <time>2024-07-13T16:34:40+02:00</time>
      </trkpt>
      <trkpt lat="43.72451" lon="1.46313">
        <ele>184</ele>
        <time>2024-07-13T16:34:44+02:00</time>
      </trkpt>
      <trkpt lat="43.7245" lon="1.46308">
        <ele>184</ele>
        <time>2024-07-13T16:34:45+02:00</time>
      </trkpt>
      <trkpt lat="43.72441" lon="1.46293">
        <ele>183.5</ele>
        <time>2024-07-13T16:34:49+02:00</time>
      </trkpt>
      <trkpt lat="43.72438" lon="1.46289">
        <ele>182.7998</ele>
        <time>2024-07-13T16:34:50+02:00</time>
      </trkpt>
      <trkpt lat="43.72428" lon="1.46265">
        <ele>181.10059</ele>
        <time>2024-07-13T16:34:54+02:00</time>
      </trkpt>
      <trkpt lat="43.72427" lon="1.46257">
        <ele>181.40039</ele>
        <time>2024-07-13T16:34:55+02:00</time>
      </trkpt>
      <trkpt lat="43.72423" lon="1.46227">
        <ele>182.7998</ele>
        <time>2024-07-13T16:34:59+02:00</time>
      </trkpt>
      <trkpt lat="43.72422" lon="1.4622">
        <ele>182</ele>
        <time>2024-07-13T16:35:00+02:00</time>
      </trkpt>
      <trkpt lat="43.72421" lon="1.46202">
        <ele>182.5</ele>
        <time>2024-07-13T16:35:04+02:00</time>
      </trkpt>
      <trkpt lat="43.72421" lon="1.462">
        <ele>182.5</ele>
        <time>2024-07-13T16:35:05+02:00</time>
      </trkpt>
      <trkpt lat="43.72426" lon="1.46204">
        <ele>183.40039</ele>
        <time>2024-07-13T16:35:09+02:00</time>
      </trkpt>
      <trkpt lat="43.72427" lon="1.46207">
        <ele>183.40039</ele>
        <time>2024-07-13T16:35:10+02:00</time>
      </trkpt>
      <trkpt lat="43.72435" lon="1.46223">
        <ele>184.5</ele>
        <time>2024-07-13T16:35:14+02:00</time>
      </trkpt>
      <trkpt lat="43.72436" lon="1.46227">
        <ele>184.5</ele>
        <time>2024-07-13T16:35:15+02:00</time>
      </trkpt>
      <trkpt lat="43.72445" lon="1.46242">
        <ele>184.60059</ele>
        <time>2024-07-13T16:35:19+02:00</time>
      </trkpt>
      <trkpt lat="43.72447" lon="1.46245">
        <ele>184.90039</ele>
        <time>2024-07-13T16:35:20+02:00</time>
      </trkpt>
      <trkpt lat="43.72454" lon="1.46261">
        <ele>185</ele>
        <time>2024-07-13T16:35:24+02:00</time>
      </trkpt>
      <trkpt lat="43.72455" lon="1.46264">
        <ele>184.90039</ele>
        <time>2024-07-13T16:35:25+02:00</time>
      </trkpt>
      <trkpt lat="43.72459" lon="1.46277">
        <ele>184.90039</ele>
        <time>2024-07-13T16:35:29+02:00</time>
      </trkpt>
      <trkpt lat="43.72459" lon="1.46279">
        <ele>184.90039</ele>
        <time>2024-07-13T16:35:30+02:00</time>
      </trkpt>
      <trkpt lat="43.72461" lon="1.46286">
        <ele>185.2998</ele>
        <time>2024-07-13T16:35:34+02:00</time>
      </trkpt>
      <trkpt lat="43.72463" lon="1.46289">
        <ele>185.2998</ele>
        <time>2024-07-13T16:35:35+02:00</time>
      </trkpt>
      <trkpt lat="43.72469" lon="1.46304">
        <ele>185.60059</ele>
        <time>2024-07-13T16:35:39+02:00</time>
      </trkpt>
      <trkpt lat="43.7247" lon="1.46308">
        <ele>185.5</ele>
        <time>2024-07-13T16:35:40+02:00</time>
      </trkpt>
      <trkpt lat="43.72478" lon="1.46324">
        <ele>184.2002</ele>
        <time>2024-07-13T16:35:44+02:00</time>
      </trkpt>
      <trkpt lat="43.7248" lon="1.46329">
        <ele>184.2002</ele>
        <time>2024-07-13T16:35:45+02:00</time>
      </trkpt>
      <trkpt lat="43.72489" lon="1.46342">
        <ele>183.5</ele>
        <time>2024-07-13T16:35:49+02:00</time>
      </trkpt>
      <trkpt lat="43.72491" lon="1.46344">
        <ele>183.10059</ele>
        <time>2024-07-13T16:35:50+02:00</time>
      </trkpt>
      <trkpt lat="43.72493" lon="1.4636">
        <ele>183.2002</ele>
        <time>2024-07-13T16:35:54+02:00</time>
      </trkpt>
      <trkpt lat="43.72494" lon="1.46365">
        <ele>183.2002</ele>
        <time>2024-07-13T16:35:55+02:00</time>
      </trkpt>
      <trkpt lat="43.72495" lon="1.46382">
        <ele>183.10059</ele>
        <time>2024-07-13T16:35:59+02:00</time>
      </trkpt>
      <trkpt lat="43.72495" lon="1.46386">
        <ele>183.2002</ele>
        <time>2024-07-13T16:36:00+02:00</time>
      </trkpt>
      <trkpt lat="43.72499" lon="1.46405">
        <ele>183</ele>
        <time>2024-07-13T16:36:04+02:00</time>
      </trkpt>
      <trkpt lat="43.725" lon="1.46409">
        <ele>183</ele>
        <time>2024-07-13T16:36:05+02:00</time>
      </trkpt>
      <trkpt lat="43.72503" lon="1.46429">
        <ele>183</ele>
        <time>2024-07-13T16:36:09+02:00</time>
      </trkpt>
      <trkpt lat="43.72503" lon="1.46435">
        <ele>183</ele>
        <time>2024-07-13T16:36:10+02:00</time>
      </trkpt>
      <trkpt lat="43.72505" lon="1.46453">
        <ele>183.40039</ele>
        <time>2024-07-13T16:36:14+02:00</time>
      </trkpt>
      <trkpt lat="43.72504" lon="1.46457">
        <ele>183.60059</ele>
        <time>2024-07-13T16:36:15+02:00</time>
      </trkpt>
      <trkpt lat="43.72502" lon="1.46479">
        <ele>184.2002</ele>
        <time>2024-07-13T16:36:19+02:00</time>
      </trkpt>
      <trkpt lat="43.72501" lon="1.46485">
        <ele>184.2002</ele>
        <time>2024-07-13T16:36:20+02:00</time>
      </trkpt>
      <trkpt lat="43.72499" lon="1.46507">
        <ele>184</ele>
        <time>2024-07-13T16:36:24+02:00</time>
      </trkpt>
      <trkpt lat="43.72499" lon="1.46513">
        <ele>184</ele>
        <time>2024-07-13T16:36:25+02:00</time>
      </trkpt>
      <trkpt lat="43.72502" lon="1.46534">
        <ele>182.10059</ele>
        <time>2024-07-13T16:36:29+02:00</time>
      </trkpt>
      <trkpt lat="43.72505" lon="1.46538">
        <ele>182</ele>
        <time>2024-07-13T16:36:30+02:00</time>
      </trkpt>
      <trkpt lat="43.7252" lon="1.46547">
        <ele>180</ele>
        <time>2024-07-13T16:36:34+02:00</time>
      </trkpt>
      <trkpt lat="43.72523" lon="1.46549">
        <ele>179.90039</ele>
        <time>2024-07-13T16:36:35+02:00</time>
      </trkpt>
      <trkpt lat="43.72537" lon="1.46552">
        <ele>179.60059</ele>
        <time>2024-07-13T16:36:39+02:00</time>
      </trkpt>
      <trkpt lat="43.7254" lon="1.46551">
        <ele>179.40039</ele>
        <time>2024-07-13T16:36:40+02:00</time>
      </trkpt>
      <trkpt lat="43.72554" lon="1.46556">
        <ele>178.90039</ele>
        <time>2024-07-13T16:36:44+02:00</time>
      </trkpt>
      <trkpt lat="43.72557" lon="1.46556">
        <ele>178.10059</ele>
        <time>2024-07-13T16:36:45+02:00</time>
      </trkpt>
      <trkpt lat="43.72574" lon="1.46559">
        <ele>177.40039</ele>
        <time>2024-07-13T16:36:49+02:00</time>
      </trkpt>
      <trkpt lat="43.72577" lon="1.46559">
        <ele>177.10059</ele>
        <time>2024-07-13T16:36:50+02:00</time>
      </trkpt>
      <trkpt lat="43.72589" lon="1.46562">
        <ele>176.7998</ele>
        <time>2024-07-13T16:36:54+02:00</time>
      </trkpt>
      <trkpt lat="43.72592" lon="1.46563">
        <ele>176.40039</ele>
        <time>2024-07-13T16:36:55+02:00</time>
      </trkpt>
      <trkpt lat="43.72598" lon="1.46564">
        <ele>176</ele>
        <time>2024-07-13T16:36:59+02:00</time>
      </trkpt>
      <trkpt lat="43.72598" lon="1.46565">
        <ele>174.7998</ele>
        <time>2024-07-13T16:37:00+02:00</time>
      </trkpt>
      <trkpt lat="43.72602" lon="1.46567">
        <ele>174.7998</ele>
        <time>2024-07-13T16:37:04+02:00</time>
      </trkpt>
      <trkpt lat="43.72603" lon="1.46568">
        <ele>174.5</ele>
        <time>2024-07-13T16:37:05+02:00</time>
      </trkpt>
      <trkpt lat="43.7261" lon="1.46567">
        <ele>174.2002</ele>
        <time>2024-07-13T16:37:09+02:00</time>
      </trkpt>
      <trkpt lat="43.72612" lon="1.46566">
        <ele>174.2002</ele>
        <time>2024-07-13T16:37:10+02:00</time>
      </trkpt>
      <trkpt lat="43.72613" lon="1.46569">
        <ele>174.2002</ele>
        <time>2024-07-13T16:41:55+02:00</time>
      </trkpt>
      <trkpt lat="43.72624" lon="1.46574">
        <ele>173</ele>
        <time>2024-07-13T16:41:59+02:00</time>
      </trkpt>
      <trkpt lat="43.72628" lon="1.46574">
        <ele>173.10059</ele>
        <time>2024-07-13T16:42:00+02:00</time>
      </trkpt>
      <trkpt lat="43.72644" lon="1.46579">
        <ele>173.2998</ele>
        <time>2024-07-13T16:42:04+02:00</time>
      </trkpt>
      <trkpt lat="43.72647" lon="1.4658">
        <ele>173.5</ele>
        <time>2024-07-13T16:42:05+02:00</time>
      </trkpt>
      <trkpt lat="43.72656" lon="1.46581">
        <ele>173.7998</ele>
        <time>2024-07-13T16:42:09+02:00</time>
      </trkpt>
      <trkpt lat="43.72658" lon="1.46583">
        <ele>173</ele>
        <time>2024-07-13T16:42:10+02:00</time>
      </trkpt>
      <trkpt lat="43.72668" lon="1.46587">
        <ele>173.2998</ele>
        <time>2024-07-13T16:42:14+02:00</time>
      </trkpt>
      <trkpt lat="43.72671" lon="1.46589">
        <ele>173.60059</ele>
        <time>2024-07-13T16:42:15+02:00</time>
      </trkpt>
      <trkpt lat="43.72683" lon="1.46597">
        <ele>172.90039</ele>
        <time>2024-07-13T16:42:19+02:00</time>
      </trkpt>
      <trkpt lat="43.72686" lon="1.46599">
        <ele>171.40039</ele>
        <time>2024-07-13T16:42:20+02:00</time>
      </trkpt>
      <trkpt lat="43.72698" lon="1.46604">
        <ele>172.10059</ele>
        <time>2024-07-13T16:42:24+02:00</time>
      </trkpt>
      <trkpt lat="43.72701" lon="1.46607">
        <ele>172.10059</ele>
        <time>2024-07-13T16:42:25+02:00</time>
      </trkpt>
      <trkpt lat="43.72714" lon="1.46618">
        <ele>171.10059</ele>
        <time>2024-07-13T16:42:29+02:00</time>
      </trkpt>
      <trkpt lat="43.72718" lon="1.46621">
        <ele>171.10059</ele>
        <time>2024-07-13T16:42:30+02:00</time>
      </trkpt>
      <trkpt lat="43.72729" lon="1.46635">
        <ele>170.40039</ele>
        <time>2024-07-13T16:42:34+02:00</time>
      </trkpt>
      <trkpt lat="43.72732" lon="1.46639">
        <ele>170.40039</ele>
        <time>2024-07-13T16:42:35+02:00</time>
      </trkpt>
      <trkpt lat="43.72744" lon="1.46655">
        <ele>170.7998</ele>
        <time>2024-07-13T16:42:39+02:00</time>
      </trkpt>
      <trkpt lat="43.72747" lon="1.46658">
        <ele>171.90039</ele>
        <time>2024-07-13T16:42:40+02:00</time>
      </trkpt>
      <trkpt lat="43.72754" lon="1.46667">
        <ele>172.2998</ele>
        <time>2024-07-13T16:42:44+02:00</time>
      </trkpt>
      <trkpt lat="43.72755" lon="1.4667">
        <ele>171.60059</ele>
        <time>2024-07-13T16:42:45+02:00</time>
      </trkpt>
      <trkpt lat="43.72759" lon="1.46679">
        <ele>172.60059</ele>
        <time>2024-07-13T16:42:49+02:00</time>
      </trkpt>
      <trkpt lat="43.7276" lon="1.46682">
        <ele>172.60059</ele>
        <time>2024-07-13T16:42:50+02:00</time>
      </trkpt>
      <trkpt lat="43.72766" lon="1.46693">
        <ele>173.10059</ele>
        <time>2024-07-13T16:42:54+02:00</time>
      </trkpt>
      <trkpt lat="43.72767" lon="1.46696">
        <ele>173.10059</ele>
        <time>2024-07-13T16:42:55+02:00</time>
      </trkpt>
      <trkpt lat="43.72773" lon="1.46706">
        <ele>173.7998</ele>
        <time>2024-07-13T16:42:59+02:00</time>
      </trkpt>
      <trkpt lat="43.72774" lon="1.46709">
        <ele>173.7998</ele>
        <time>2024-07-13T16:43:00+02:00</time>
      </trkpt>
      <trkpt lat="43.7278" lon="1.46724">
        <ele>173.90039</ele>
        <time>2024-07-13T16:43:04+02:00</time>
      </trkpt>
      <trkpt lat="43.72782" lon="1.46729">
        <ele>174</ele>
        <time>2024-07-13T16:43:05+02:00</time>
      </trkpt>
      <trkpt lat="43.72788" lon="1.46744">
        <ele>173.60059</ele>
        <time>2024-07-13T16:43:09+02:00</time>
      </trkpt>
      <trkpt lat="43.72789" lon="1.46748">
        <ele>173.7002</ele>
        <time>2024-07-13T16:43:10+02:00</time>
      </trkpt>
      <trkpt lat="43.72794" lon="1.46758">
        <ele>173.7002</ele>
        <time>2024-07-13T16:43:14+02:00</time>
      </trkpt>
      <trkpt lat="43.72796" lon="1.46761">
        <ele>173.7002</ele>
        <time>2024-07-13T16:43:15+02:00</time>
      </trkpt>
      <trkpt lat="43.72801" lon="1.46773">
        <ele>173</ele>
        <time>2024-07-13T16:43:19+02:00</time>
      </trkpt>
      <trkpt lat="43.72802" lon="1.46776">
        <ele>173</ele>
        <time>2024-07-13T16:43:20+02:00</time>
      </trkpt>
      <trkpt lat="43.7281" lon="1.46791">
        <ele>172</ele>
        <time>2024-07-13T16:43:24+02:00</time>
      </trkpt>
      <trkpt lat="43.72812" lon="1.46795">
        <ele>172</ele>
        <time>2024-07-13T16:43:25+02:00</time>
      </trkpt>
      <trkpt lat="43.72817" lon="1.46803">
        <ele>171.60059</ele>
        <time>2024-07-13T16:43:29+02:00</time>
      </trkpt>
      <trkpt lat="43.72818" lon="1.46804">
        <ele>171.60059</ele>
        <time>2024-07-13T16:43:30+02:00</time>
      </trkpt>
      <trkpt lat="43.72828" lon="1.46793">
        <ele>169.5</ele>
      </trkpt>
      <trkpt lat="43.72843" lon="1.46787">
        <ele>170.8</ele>
      </trkpt>
      <trkpt lat="43.72868" lon="1.46768">
        <ele>171.8</ele>
      </trkpt>
      <trkpt lat="43.72882" lon="1.46762">
        <ele>171.7</ele>
      </trkpt>
      <trkpt lat="43.72897" lon="1.46759">
        <ele>171.7</ele>
      </trkpt>
      <trkpt lat="43.7292" lon="1.46792">
        <ele>170.3</ele>
      </trkpt>
      <trkpt lat="43.72972" lon="1.46813">
        <ele>166.7</ele>
      </trkpt>
      <trkpt lat="43.72982" lon="1.46839">
        <ele>164.9</ele>
      </trkpt>
      <trkpt lat="43.72975" lon="1.4686">
        <ele>163.9</ele>
      </trkpt>
      <trkpt lat="43.7298" lon="1.46871">
        <ele>162.6</ele>
      </trkpt>
      <trkpt lat="43.72994" lon="1.46868">
        <ele>161.8</ele>
      </trkpt>
      <trkpt lat="43.73019" lon="1.46853">
        <ele>160.6</ele>
      </trkpt>
      <trkpt lat="43.73033" lon="1.46856">
        <ele>158.7</ele>
      </trkpt>
      <trkpt lat="43.73055" lon="1.46874">
        <ele>154.7</ele>
      </trkpt>
      <trkpt lat="43.7308" lon="1.46872">
        <ele>151.1</ele>
      </trkpt>
      <trkpt lat="43.7308" lon="1.46852">
        <ele>152.3</ele>
      </trkpt>
      <trkpt lat="43.73073" lon="1.46838">
        <ele>154.3</ele>
      </trkpt>
      <trkpt lat="43.73" lon="1.46761">
        <ele>166</ele>
      </trkpt>
      <trkpt lat="43.72951" lon="1.46736">
        <ele>170</ele>
      </trkpt>
      <trkpt lat="43.72921" lon="1.46699">
        <ele>171.8</ele>
      </trkpt>
      <trkpt lat="43.72916" lon="1.46684">
        <ele>172</ele>
      </trkpt>
      <trkpt lat="43.72909" lon="1.46675">
        <ele>172.3</ele>
      </trkpt>
      <trkpt lat="43.72931" lon="1.46643">
        <ele>171.5</ele>
      </trkpt>
      <trkpt lat="43.7294" lon="1.46632">
        <ele>171.1</ele>
      </trkpt>
      <trkpt lat="43.72946" lon="1.46613">
        <ele>170.9</ele>
      </trkpt>
      <trkpt lat="43.72953" lon="1.46601">
        <ele>170.5</ele>
      </trkpt>
      <trkpt lat="43.7298" lon="1.46575">
        <ele>169.5</ele>
      </trkpt>
      <trkpt lat="43.72999" lon="1.46551">
        <ele>168.8</ele>
      </trkpt>
      <trkpt lat="43.73013" lon="1.46517">
        <ele>167</ele>
      </trkpt>
      <trkpt lat="43.73027" lon="1.46496">
        <ele>165.8</ele>
      </trkpt>
      <trkpt lat="43.73046" lon="1.46481">
        <ele>164.7</ele>
      </trkpt>
      <trkpt lat="43.7306" lon="1.46461">
        <ele>163.2</ele>
      </trkpt>
      <trkpt lat="43.73074" lon="1.46455">
        <ele>161.8</ele>
      </trkpt>
      <trkpt lat="43.73092" lon="1.46457">
        <ele>160</ele>
      </trkpt>
      <trkpt lat="43.73109" lon="1.46468">
        <ele>158.2</ele>
      </trkpt>
      <trkpt lat="43.73121" lon="1.46471">
        <ele>156.9</ele>
      </trkpt>
      <trkpt lat="43.73146" lon="1.46469">
        <ele>154.7</ele>
      </trkpt>
      <trkpt lat="43.73154" lon="1.46467">
        <ele>154.5</ele>
      </trkpt>
      <trkpt lat="43.73162" lon="1.46472">
        <ele>154.2</ele>
      </trkpt>
      <trkpt lat="43.73168" lon="1.46484">
        <ele>153.9</ele>
      </trkpt>
      <trkpt lat="43.73182" lon="1.465">
        <ele>153.5</ele>
      </trkpt>
      <trkpt lat="43.73201" lon="1.46493">
        <ele>152.8</ele>
      </trkpt>
      <trkpt lat="43.73216" lon="1.4648">
        <ele>152.2</ele>
      </trkpt>
      <trkpt lat="43.73224" lon="1.46471">
        <ele>151.9</ele>
      </trkpt>
      <trkpt lat="43.73246" lon="1.4643">
        <ele>150.7</ele>
      </trkpt>
      <trkpt lat="43.73255" lon="1.46424">
        <ele>149.7</ele>
      </trkpt>
      <trkpt lat="43.7327" lon="1.4642">
        <ele>147.9</ele>
      </trkpt>
      <trkpt lat="43.73288" lon="1.46435">
        <ele>147.2</ele>
      </trkpt>
      <trkpt lat="43.73283" lon="1.46463">
        <ele>147</ele>
      </trkpt>
      <trkpt lat="43.73294" lon="1.4646">
        <ele>146.3</ele>
      </trkpt>
      <trkpt lat="43.73308" lon="1.46468">
        <ele>145.2</ele>
      </trkpt>
      <trkpt lat="43.73315" lon="1.46469">
        <ele>144.90039</ele>
        <time>2024-07-13T16:52:49+02:00</time>
      </trkpt>
      <trkpt lat="43.73316" lon="1.46467">
        <ele>144.90039</ele>
        <time>2024-07-13T16:52:50+02:00</time>
      </trkpt>
      <trkpt lat="43.73317" lon="1.46456">
        <ele>145.40039</ele>
        <time>2024-07-13T16:52:54+02:00</time>
      </trkpt>
      <trkpt lat="43.73316" lon="1.46453">
        <ele>146</ele>
        <time>2024-07-13T16:52:55+02:00</time>
      </trkpt>
      <trkpt lat="43.73308" lon="1.46441">
        <ele>147.2998</ele>
        <time>2024-07-13T16:52:59+02:00</time>
      </trkpt>
      <trkpt lat="43.73307" lon="1.46437">
        <ele>147.2998</ele>
        <time>2024-07-13T16:53:00+02:00</time>
      </trkpt>
      <trkpt lat="43.7331" lon="1.46419">
        <ele>148</ele>
        <time>2024-07-13T16:53:04+02:00</time>
      </trkpt>
      <trkpt lat="43.73313" lon="1.46415">
        <ele>148.40039</ele>
        <time>2024-07-13T16:53:05+02:00</time>
      </trkpt>
      <trkpt lat="43.73324" lon="1.46396">
        <ele>148.2002</ele>
        <time>2024-07-13T16:53:09+02:00</time>
      </trkpt>
      <trkpt lat="43.73326" lon="1.4639">
        <ele>148.2998</ele>
        <time>2024-07-13T16:53:10+02:00</time>
      </trkpt>
      <trkpt lat="43.73336" lon="1.4637">
        <ele>147.90039</ele>
        <time>2024-07-13T16:53:14+02:00</time>
      </trkpt>
      <trkpt lat="43.73338" lon="1.46366">
        <ele>148</ele>
        <time>2024-07-13T16:53:15+02:00</time>
      </trkpt>
      <trkpt lat="43.73348" lon="1.46344">
        <ele>147.7002</ele>
        <time>2024-07-13T16:53:19+02:00</time>
      </trkpt>
      <trkpt lat="43.73351" lon="1.46338">
        <ele>147.7998</ele>
        <time>2024-07-13T16:53:20+02:00</time>
      </trkpt>
      <trkpt lat="43.73362" lon="1.4631">
        <ele>147.7998</ele>
        <time>2024-07-13T16:53:24+02:00</time>
      </trkpt>
      <trkpt lat="43.73365" lon="1.46302">
        <ele>147.7998</ele>
        <time>2024-07-13T16:53:25+02:00</time>
      </trkpt>
      <trkpt lat="43.73363" lon="1.46278">
        <ele>148</ele>
        <time>2024-07-13T16:53:29+02:00</time>
      </trkpt>
      <trkpt lat="43.73358" lon="1.46274">
        <ele>148</ele>
        <time>2024-07-13T16:53:30+02:00</time>
      </trkpt>
      <trkpt lat="43.73336" lon="1.4627">
        <ele>148.7002</ele>
        <time>2024-07-13T16:53:34+02:00</time>
      </trkpt>
      <trkpt lat="43.73331" lon="1.46269">
        <ele>148.7998</ele>
        <time>2024-07-13T16:53:35+02:00</time>
      </trkpt>
      <trkpt lat="43.73311" lon="1.46265">
        <ele>149.10059</ele>
        <time>2024-07-13T16:53:39+02:00</time>
      </trkpt>
      <trkpt lat="43.73306" lon="1.46263">
        <ele>149.2002</ele>
        <time>2024-07-13T16:53:40+02:00</time>
      </trkpt>
      <trkpt lat="43.73292" lon="1.46252">
        <ele>149.40039</ele>
        <time>2024-07-13T16:53:44+02:00</time>
      </trkpt>
      <trkpt lat="43.73289" lon="1.46248">
        <ele>149.5</ele>
        <time>2024-07-13T16:53:45+02:00</time>
      </trkpt>
      <trkpt lat="43.73279" lon="1.46228">
        <ele>149.60059</ele>
        <time>2024-07-13T16:53:49+02:00</time>
      </trkpt>
      <trkpt lat="43.73278" lon="1.46223">
        <ele>149.7002</ele>
        <time>2024-07-13T16:53:50+02:00</time>
      </trkpt>
      <trkpt lat="43.73272" lon="1.46203">
        <ele>149.60059</ele>
        <time>2024-07-13T16:53:54+02:00</time>
      </trkpt>
      <trkpt lat="43.7327" lon="1.46198">
        <ele>149.7002</ele>
        <time>2024-07-13T16:53:55+02:00</time>
      </trkpt>
      <trkpt lat="43.73265" lon="1.4619">
        <ele>149.60059</ele>
        <time>2024-07-13T16:53:59+02:00</time>
      </trkpt>
      <trkpt lat="43.73264" lon="1.46187">
        <ele>149.60059</ele>
        <time>2024-07-13T16:54:00+02:00</time>
      </trkpt>
      <trkpt lat="43.73254" lon="1.46183">
        <ele>149.5</ele>
        <time>2024-07-13T16:54:04+02:00</time>
      </trkpt>
      <trkpt lat="43.73251" lon="1.46181">
        <ele>149.60059</ele>
        <time>2024-07-13T16:54:05+02:00</time>
      </trkpt>
      <trkpt lat="43.73243" lon="1.46187">
        <ele>149.7998</ele>
        <time>2024-07-13T16:54:09+02:00</time>
      </trkpt>
      <trkpt lat="43.73242" lon="1.4619">
        <ele>149.7998</ele>
        <time>2024-07-13T16:54:10+02:00</time>
      </trkpt>
      <trkpt lat="43.73238" lon="1.462">
        <ele>150.2002</ele>
        <time>2024-07-13T16:54:14+02:00</time>
      </trkpt>
      <trkpt lat="43.73236" lon="1.46203">
        <ele>150.2002</ele>
        <time>2024-07-13T16:54:15+02:00</time>
      </trkpt>
      <trkpt lat="43.73232" lon="1.46215">
        <ele>151.10059</ele>
        <time>2024-07-13T16:54:19+02:00</time>
      </trkpt>
      <trkpt lat="43.73231" lon="1.46219">
        <ele>151.10059</ele>
        <time>2024-07-13T16:54:20+02:00</time>
      </trkpt>
      <trkpt lat="43.73226" lon="1.46231">
        <ele>152.2998</ele>
        <time>2024-07-13T16:54:24+02:00</time>
      </trkpt>
      <trkpt lat="43.73225" lon="1.46234">
        <ele>152.2998</ele>
        <time>2024-07-13T16:54:25+02:00</time>
      </trkpt>
      <trkpt lat="43.73218" lon="1.46242">
        <ele>153.2998</ele>
        <time>2024-07-13T16:54:29+02:00</time>
      </trkpt>
      <trkpt lat="43.73217" lon="1.46242">
        <ele>153.2998</ele>
        <time>2024-07-13T16:54:30+02:00</time>
      </trkpt>
      <trkpt lat="43.7321" lon="1.46243">
        <ele>153.7998</ele>
        <time>2024-07-13T16:54:34+02:00</time>
      </trkpt>
      <trkpt lat="43.73208" lon="1.46243">
        <ele>154.40039</ele>
        <time>2024-07-13T16:54:35+02:00</time>
      </trkpt>
      <trkpt lat="43.73203" lon="1.46239">
        <ele>154.40039</ele>
        <time>2024-07-13T16:54:39+02:00</time>
      </trkpt>
      <trkpt lat="43.73202" lon="1.46237">
        <ele>154.5</ele>
        <time>2024-07-13T16:54:40+02:00</time>
      </trkpt>
      <trkpt lat="43.73196" lon="1.4623">
        <ele>155.10059</ele>
        <time>2024-07-13T16:54:44+02:00</time>
      </trkpt>
      <trkpt lat="43.73195" lon="1.46227">
        <ele>154.60059</ele>
        <time>2024-07-13T16:54:45+02:00</time>
      </trkpt>
      <trkpt lat="43.73189" lon="1.46215">
        <ele>154.60059</ele>
        <time>2024-07-13T16:54:49+02:00</time>
      </trkpt>
      <trkpt lat="43.73187" lon="1.46213">
        <ele>154.60059</ele>
        <time>2024-07-13T16:54:50+02:00</time>
      </trkpt>
      <trkpt lat="43.73178" lon="1.46201">
        <ele>154.5</ele>
        <time>2024-07-13T16:54:54+02:00</time>
      </trkpt>
      <trkpt lat="43.73176" lon="1.46198">
        <ele>154.5</ele>
        <time>2024-07-13T16:54:55+02:00</time>
      </trkpt>
      <trkpt lat="43.73168" lon="1.46186">
        <ele>153.90039</ele>
        <time>2024-07-13T16:54:59+02:00</time>
      </trkpt>
      <trkpt lat="43.73165" lon="1.46184">
        <ele>154.40039</ele>
        <time>2024-07-13T16:55:00+02:00</time>
      </trkpt>
      <trkpt lat="43.73156" lon="1.46175">
        <ele>154.2998</ele>
        <time>2024-07-13T16:55:04+02:00</time>
      </trkpt>
      <trkpt lat="43.73154" lon="1.46173">
        <ele>154.2998</ele>
        <time>2024-07-13T16:55:05+02:00</time>
      </trkpt>
      <trkpt lat="43.73149" lon="1.46159">
        <ele>154</ele>
        <time>2024-07-13T16:55:09+02:00</time>
      </trkpt>
      <trkpt lat="43.73147" lon="1.46155">
        <ele>154.60059</ele>
        <time>2024-07-13T16:55:10+02:00</time>
      </trkpt>
      <trkpt lat="43.73141" lon="1.46145">
        <ele>154.90039</ele>
        <time>2024-07-13T16:55:14+02:00</time>
      </trkpt>
      <trkpt lat="43.73139" lon="1.46143">
        <ele>154.60059</ele>
        <time>2024-07-13T16:55:15+02:00</time>
      </trkpt>
      <trkpt lat="43.73129" lon="1.46134">
        <ele>155.40039</ele>
        <time>2024-07-13T16:55:19+02:00</time>
      </trkpt>
      <trkpt lat="43.73127" lon="1.46131">
        <ele>155.40039</ele>
        <time>2024-07-13T16:55:20+02:00</time>
      </trkpt>
      <trkpt lat="43.73118" lon="1.4612">
        <ele>155.7002</ele>
        <time>2024-07-13T16:55:24+02:00</time>
      </trkpt>
      <trkpt lat="43.73116" lon="1.46117">
        <ele>156.10059</ele>
        <time>2024-07-13T16:55:25+02:00</time>
      </trkpt>
      <trkpt lat="43.73108" lon="1.46105">
        <ele>156.5</ele>
        <time>2024-07-13T16:55:29+02:00</time>
      </trkpt>
      <trkpt lat="43.73106" lon="1.46102">
        <ele>156.5</ele>
        <time>2024-07-13T16:55:30+02:00</time>
      </trkpt>
      <trkpt lat="43.73098" lon="1.4609">
        <ele>156.90039</ele>
        <time>2024-07-13T16:55:34+02:00</time>
      </trkpt>
      <trkpt lat="43.73096" lon="1.46087">
        <ele>157.2998</ele>
        <time>2024-07-13T16:55:35+02:00</time>
      </trkpt>
      <trkpt lat="43.73094" lon="1.4607">
        <ele>157.40039</ele>
        <time>2024-07-13T16:55:39+02:00</time>
      </trkpt>
      <trkpt lat="43.73094" lon="1.46065">
        <ele>157.2998</ele>
        <time>2024-07-13T16:55:40+02:00</time>
      </trkpt>
      <trkpt lat="43.73088" lon="1.4605">
        <ele>157.90039</ele>
        <time>2024-07-13T16:55:44+02:00</time>
      </trkpt>
      <trkpt lat="43.73086" lon="1.46048">
        <ele>157.90039</ele>
        <time>2024-07-13T16:55:45+02:00</time>
      </trkpt>
      <trkpt lat="43.73075" lon="1.46041">
        <ele>159.40039</ele>
        <time>2024-07-13T16:55:49+02:00</time>
      </trkpt>
      <trkpt lat="43.73074" lon="1.4604">
        <ele>159.60059</ele>
        <time>2024-07-13T16:55:50+02:00</time>
      </trkpt>
      <trkpt lat="43.73066" lon="1.4604">
        <ele>161.5</ele>
        <time>2024-07-13T16:55:54+02:00</time>
      </trkpt>
      <trkpt lat="43.73064" lon="1.46041">
        <ele>161.5</ele>
        <time>2024-07-13T16:55:55+02:00</time>
      </trkpt>
      <trkpt lat="43.7306" lon="1.46036">
        <ele>162.5</ele>
        <time>2024-07-13T16:55:59+02:00</time>
      </trkpt>
      <trkpt lat="43.7306" lon="1.46034">
        <ele>162.5</ele>
        <time>2024-07-13T16:56:00+02:00</time>
      </trkpt>
      <trkpt lat="43.73059" lon="1.46026">
        <ele>162.7998</ele>
        <time>2024-07-13T16:56:04+02:00</time>
      </trkpt>
      <trkpt lat="43.7306" lon="1.46023">
        <ele>162.90039</ele>
        <time>2024-07-13T16:56:05+02:00</time>
      </trkpt>
      <trkpt lat="43.73066" lon="1.46013">
        <ele>161.90039</ele>
        <time>2024-07-13T16:56:09+02:00</time>
      </trkpt>
      <trkpt lat="43.73067" lon="1.4601">
        <ele>160.90039</ele>
        <time>2024-07-13T16:56:10+02:00</time>
      </trkpt>
      <trkpt lat="43.73072" lon="1.45999">
        <ele>160.90039</ele>
        <time>2024-07-13T16:56:14+02:00</time>
      </trkpt>
      <trkpt lat="43.73073" lon="1.45997">
        <ele>160.10059</ele>
        <time>2024-07-13T16:56:15+02:00</time>
      </trkpt>
      <trkpt lat="43.73076" lon="1.45988">
        <ele>160.2002</ele>
        <time>2024-07-13T16:56:19+02:00</time>
      </trkpt>
      <trkpt lat="43.73076" lon="1.45985">
        <ele>160.2002</ele>
        <time>2024-07-13T16:56:20+02:00</time>
      </trkpt>
      <trkpt lat="43.73082" lon="1.45976">
        <ele>159.40039</ele>
        <time>2024-07-13T16:56:24+02:00</time>
      </trkpt>
      <trkpt lat="43.73083" lon="1.45973">
        <ele>159.40039</ele>
        <time>2024-07-13T16:56:25+02:00</time>
      </trkpt>
      <trkpt lat="43.73089" lon="1.45964">
        <ele>158.60059</ele>
        <time>2024-07-13T16:56:29+02:00</time>
      </trkpt>
      <trkpt lat="43.73091" lon="1.45962">
        <ele>158.7998</ele>
        <time>2024-07-13T16:56:30+02:00</time>
      </trkpt>
      <trkpt lat="43.73095" lon="1.45955">
        <ele>158</ele>
        <time>2024-07-13T16:56:34+02:00</time>
      </trkpt>
      <trkpt lat="43.73097" lon="1.45953">
        <ele>158.2002</ele>
        <time>2024-07-13T16:56:35+02:00</time>
      </trkpt>
      <trkpt lat="43.73103" lon="1.45942">
        <ele>158</ele>
        <time>2024-07-13T16:56:39+02:00</time>
      </trkpt>
      <trkpt lat="43.73104" lon="1.45939">
        <ele>158</ele>
        <time>2024-07-13T16:56:40+02:00</time>
      </trkpt>
      <trkpt lat="43.73109" lon="1.45925">
        <ele>158.2002</ele>
        <time>2024-07-13T16:56:44+02:00</time>
      </trkpt>
      <trkpt lat="43.7311" lon="1.45921">
        <ele>158.2002</ele>
        <time>2024-07-13T16:56:45+02:00</time>
      </trkpt>
      <trkpt lat="43.73117" lon="1.45909">
        <ele>157.90039</ele>
        <time>2024-07-13T16:56:49+02:00</time>
      </trkpt>
      <trkpt lat="43.73119" lon="1.45906">
        <ele>157.90039</ele>
        <time>2024-07-13T16:56:50+02:00</time>
      </trkpt>
      <trkpt lat="43.73129" lon="1.45892">
        <ele>158.2002</ele>
        <time>2024-07-13T16:56:54+02:00</time>
      </trkpt>
      <trkpt lat="43.73131" lon="1.45888">
        <ele>157.40039</ele>
        <time>2024-07-13T16:56:55+02:00</time>
      </trkpt>
      <trkpt lat="43.7314" lon="1.45868">
        <ele>158.60059</ele>
        <time>2024-07-13T16:56:59+02:00</time>
      </trkpt>
      <trkpt lat="43.73141" lon="1.45864">
        <ele>158.60059</ele>
        <time>2024-07-13T16:57:00+02:00</time>
      </trkpt>
      <trkpt lat="43.73137" lon="1.45853">
        <ele>159.40039</ele>
        <time>2024-07-13T16:57:04+02:00</time>
      </trkpt>
      <trkpt lat="43.73134" lon="1.4585">
        <ele>160.90039</ele>
        <time>2024-07-13T16:57:05+02:00</time>
      </trkpt>
      <trkpt lat="43.7313" lon="1.45836">
        <ele>161.7002</ele>
        <time>2024-07-13T16:57:09+02:00</time>
      </trkpt>
      <trkpt lat="43.73129" lon="1.45833">
        <ele>162.5</ele>
        <time>2024-07-13T16:57:10+02:00</time>
      </trkpt>
      <trkpt lat="43.73123" lon="1.45823">
        <ele>164.7998</ele>
        <time>2024-07-13T16:57:14+02:00</time>
      </trkpt>
      <trkpt lat="43.73121" lon="1.45822">
        <ele>164.7998</ele>
        <time>2024-07-13T16:57:15+02:00</time>
      </trkpt>
      <trkpt lat="43.73116" lon="1.45818">
        <ele>165.60059</ele>
        <time>2024-07-13T16:57:19+02:00</time>
      </trkpt>
      <trkpt lat="43.73116" lon="1.45815">
        <ele>166.40039</ele>
        <time>2024-07-13T16:57:20+02:00</time>
      </trkpt>
      <trkpt lat="43.7312" lon="1.45799">
        <ele>167.2002</ele>
        <time>2024-07-13T16:57:24+02:00</time>
      </trkpt>
      <trkpt lat="43.7312" lon="1.45796">
        <ele>167.2002</ele>
        <time>2024-07-13T16:57:25+02:00</time>
      </trkpt>
      <trkpt lat="43.73121" lon="1.45782">
        <ele>168.5</ele>
        <time>2024-07-13T16:57:29+02:00</time>
      </trkpt>
      <trkpt lat="43.7312" lon="1.45779">
        <ele>168.5</ele>
        <time>2024-07-13T16:57:30+02:00</time>
      </trkpt>
      <trkpt lat="43.73118" lon="1.45767">
        <ele>168.90039</ele>
        <time>2024-07-13T16:57:34+02:00</time>
      </trkpt>
      <trkpt lat="43.73117" lon="1.45764">
        <ele>169.40039</ele>
        <time>2024-07-13T16:57:35+02:00</time>
      </trkpt>
      <trkpt lat="43.73109" lon="1.45759">
        <ele>171</ele>
        <time>2024-07-13T16:57:39+02:00</time>
      </trkpt>
      <trkpt lat="43.73106" lon="1.45758">
        <ele>171</ele>
        <time>2024-07-13T16:57:40+02:00</time>
      </trkpt>
      <trkpt lat="43.73098" lon="1.45751">
        <ele>171.7998</ele>
        <time>2024-07-13T16:57:44+02:00</time>
      </trkpt>
      <trkpt lat="43.73097" lon="1.45749">
        <ele>172.40039</ele>
        <time>2024-07-13T16:57:45+02:00</time>
      </trkpt>
      <trkpt lat="43.731" lon="1.45741">
        <ele>172</ele>
        <time>2024-07-13T16:57:49+02:00</time>
      </trkpt>
      <trkpt lat="43.73101" lon="1.45738">
        <ele>172.10059</ele>
        <time>2024-07-13T16:57:50+02:00</time>
      </trkpt>
      <trkpt lat="43.73106" lon="1.45725">
        <ele>171.60059</ele>
        <time>2024-07-13T16:57:54+02:00</time>
      </trkpt>
      <trkpt lat="43.73108" lon="1.45723">
        <ele>171.7002</ele>
        <time>2024-07-13T16:57:55+02:00</time>
      </trkpt>
      <trkpt lat="43.73121" lon="1.45705">
        <ele>170.7998</ele>
        <time>2024-07-13T16:57:59+02:00</time>
      </trkpt>
      <trkpt lat="43.73124" lon="1.45701">
        <ele>170.2998</ele>
        <time>2024-07-13T16:58:00+02:00</time>
      </trkpt>
      <trkpt lat="43.73126" lon="1.45682">
        <ele>170.2998</ele>
        <time>2024-07-13T16:58:04+02:00</time>
      </trkpt>
      <trkpt lat="43.73126" lon="1.45679">
        <ele>170.2002</ele>
        <time>2024-07-13T16:58:05+02:00</time>
      </trkpt>
      <trkpt lat="43.73125" lon="1.45665">
        <ele>170.2002</ele>
        <time>2024-07-13T16:58:09+02:00</time>
      </trkpt>
      <trkpt lat="43.73126" lon="1.45661">
        <ele>170.2002</ele>
        <time>2024-07-13T16:58:10+02:00</time>
      </trkpt>
      <trkpt lat="43.7313" lon="1.45644">
        <ele>169.7998</ele>
        <time>2024-07-13T16:58:14+02:00</time>
      </trkpt>
      <trkpt lat="43.73132" lon="1.4564">
        <ele>169.7998</ele>
        <time>2024-07-13T16:58:15+02:00</time>
      </trkpt>
      <trkpt lat="43.73139" lon="1.45622">
        <ele>169.7002</ele>
        <time>2024-07-13T16:58:19+02:00</time>
      </trkpt>
      <trkpt lat="43.7314" lon="1.45618">
        <ele>170</ele>
        <time>2024-07-13T16:58:20+02:00</time>
      </trkpt>
      <trkpt lat="43.73154" lon="1.4561">
        <ele>168.7998</ele>
        <time>2024-07-13T16:58:24+02:00</time>
      </trkpt>
      <trkpt lat="43.73159" lon="1.45612">
        <ele>168.7998</ele>
        <time>2024-07-13T16:58:25+02:00</time>
      </trkpt>
      <trkpt lat="43.73176" lon="1.45612">
        <ele>166</ele>
        <time>2024-07-13T16:58:29+02:00</time>
      </trkpt>
      <trkpt lat="43.73179" lon="1.45608">
        <ele>165.2998</ele>
        <time>2024-07-13T16:58:30+02:00</time>
      </trkpt>
      <trkpt lat="43.73192" lon="1.45582">
        <ele>164</ele>
        <time>2024-07-13T16:58:34+02:00</time>
      </trkpt>
      <trkpt lat="43.73195" lon="1.45578">
        <ele>164</ele>
        <time>2024-07-13T16:58:35+02:00</time>
      </trkpt>
      <trkpt lat="43.732" lon="1.45574">
        <ele>163.2998</ele>
        <time>2024-07-13T16:58:39+02:00</time>
      </trkpt>
      <trkpt lat="43.732" lon="1.45574">
        <ele>163.2998</ele>
        <time>2024-07-13T16:58:40+02:00</time>
      </trkpt>
      <trkpt lat="43.732" lon="1.45574">
        <ele>163.2998</ele>
        <time>2024-07-13T16:58:44+02:00</time>
      </trkpt>
      <trkpt lat="43.732" lon="1.45574">
        <ele>163.2998</ele>
        <time>2024-07-13T16:58:45+02:00</time>
      </trkpt>
      <trkpt lat="43.732" lon="1.45574">
        <ele>163.2998</ele>
        <time>2024-07-13T16:58:49+02:00</time>
      </trkpt>
      <trkpt lat="43.732" lon="1.45574">
        <ele>163.2998</ele>
        <time>2024-07-13T16:58:50+02:00</time>
      </trkpt>
      <trkpt lat="43.732" lon="1.45574">
        <ele>163.2998</ele>
        <time>2024-07-13T16:58:54+02:00</time>
      </trkpt>
      <trkpt lat="43.732" lon="1.45575">
        <ele>163.2998</ele>
        <time>2024-07-13T16:58:55+02:00</time>
      </trkpt>
      <trkpt lat="43.732" lon="1.45575">
        <ele>163.2998</ele>
        <time>2024-07-13T16:58:59+02:00</time>
      </trkpt>
      <trkpt lat="43.732" lon="1.45575">
        <ele>163.2998</ele>
        <time>2024-07-13T16:59:00+02:00</time>
      </trkpt>
      <trkpt lat="43.732" lon="1.45575">
        <ele>163.2998</ele>
        <time>2024-07-13T16:59:04+02:00</time>
      </trkpt>
      <trkpt lat="43.732" lon="1.45575">
        <ele>163.2998</ele>
        <time>2024-07-13T16:59:05+02:00</time>
      </trkpt>
      <trkpt lat="43.732" lon="1.45575">
        <ele>163.2998</ele>
        <time>2024-07-13T16:59:09+02:00</time>
      </trkpt>
      <trkpt lat="43.732" lon="1.45576">
        <ele>163.2998</ele>
        <time>2024-07-13T16:59:10+02:00</time>
      </trkpt>
      <trkpt lat="43.732" lon="1.45576">
        <ele>163.2998</ele>
        <time>2024-07-13T16:59:14+02:00</time>
      </trkpt>
      <trkpt lat="43.732" lon="1.45576">
        <ele>163.2998</ele>
        <time>2024-07-13T16:59:15+02:00</time>
      </trkpt>
      <trkpt lat="43.732" lon="1.45575">
        <ele>163.2998</ele>
        <time>2024-07-13T16:59:19+02:00</time>
      </trkpt>
      <trkpt lat="43.732" lon="1.45574">
        <ele>163.2998</ele>
        <time>2024-07-13T16:59:20+02:00</time>
      </trkpt>
      <trkpt lat="43.732" lon="1.45574">
        <ele>163.2998</ele>
        <time>2024-07-13T16:59:24+02:00</time>
      </trkpt>
      <trkpt lat="43.732" lon="1.45574">
        <ele>163.2998</ele>
        <time>2024-07-13T16:59:25+02:00</time>
      </trkpt>
      <trkpt lat="43.732" lon="1.45574">
        <ele>163.2998</ele>
        <time>2024-07-13T16:59:29+02:00</time>
      </trkpt>
      <trkpt lat="43.732" lon="1.45573">
        <ele>163.2998</ele>
        <time>2024-07-13T16:59:30+02:00</time>
      </trkpt>
      <trkpt lat="43.73196" lon="1.45564">
        <ele>164.60059</ele>
        <time>2024-07-13T16:59:34+02:00</time>
      </trkpt>
      <trkpt lat="43.73195" lon="1.45562">
        <ele>164.60059</ele>
        <time>2024-07-13T16:59:35+02:00</time>
      </trkpt>
      <trkpt lat="43.73189" lon="1.45555">
        <ele>165.7998</ele>
        <time>2024-07-13T16:59:39+02:00</time>
      </trkpt>
      <trkpt lat="43.73186" lon="1.45553">
        <ele>165.7998</ele>
        <time>2024-07-13T16:59:40+02:00</time>
      </trkpt>
      <trkpt lat="43.73178" lon="1.45543">
        <ele>168.40039</ele>
        <time>2024-07-13T16:59:44+02:00</time>
      </trkpt>
      <trkpt lat="43.73176" lon="1.45541">
        <ele>168.40039</ele>
        <time>2024-07-13T16:59:45+02:00</time>
      </trkpt>
      <trkpt lat="43.73167" lon="1.45531">
        <ele>169.7002</ele>
        <time>2024-07-13T16:59:49+02:00</time>
      </trkpt>
      <trkpt lat="43.73165" lon="1.45529">
        <ele>170.60059</ele>
        <time>2024-07-13T16:59:50+02:00</time>
      </trkpt>
      <trkpt lat="43.73161" lon="1.45517">
        <ele>171.5</ele>
        <time>2024-07-13T16:59:54+02:00</time>
      </trkpt>
      <trkpt lat="43.7316" lon="1.45513">
        <ele>171.5</ele>
        <time>2024-07-13T16:59:55+02:00</time>
      </trkpt>
      <trkpt lat="43.73162" lon="1.45494">
        <ele>172.2002</ele>
        <time>2024-07-13T16:59:59+02:00</time>
      </trkpt>
      <trkpt lat="43.73162" lon="1.45489">
        <ele>172.5</ele>
        <time>2024-07-13T17:00:00+02:00</time>
      </trkpt>
      <trkpt lat="43.73158" lon="1.45473">
        <ele>174</ele>
        <time>2024-07-13T17:00:04+02:00</time>
      </trkpt>
      <trkpt lat="43.73158" lon="1.45469">
        <ele>174</ele>
        <time>2024-07-13T17:00:05+02:00</time>
      </trkpt>
      <trkpt lat="43.73157" lon="1.45452">
        <ele>174.5</ele>
        <time>2024-07-13T17:00:09+02:00</time>
      </trkpt>
      <trkpt lat="43.73156" lon="1.45448">
        <ele>174.7998</ele>
        <time>2024-07-13T17:00:10+02:00</time>
      </trkpt>
      <trkpt lat="43.73149" lon="1.45433">
        <ele>176.10059</ele>
        <time>2024-07-13T17:00:14+02:00</time>
      </trkpt>
      <trkpt lat="43.73146" lon="1.4543">
        <ele>177.2002</ele>
        <time>2024-07-13T17:00:15+02:00</time>
      </trkpt>
      <trkpt lat="43.73137" lon="1.4542">
        <ele>178.10059</ele>
        <time>2024-07-13T17:00:19+02:00</time>
      </trkpt>
      <trkpt lat="43.73135" lon="1.45418">
        <ele>178.10059</ele>
        <time>2024-07-13T17:00:20+02:00</time>
      </trkpt>
      <trkpt lat="43.73125" lon="1.4541">
        <ele>179.2998</ele>
        <time>2024-07-13T17:00:24+02:00</time>
      </trkpt>
      <trkpt lat="43.73123" lon="1.45407">
        <ele>179.2998</ele>
        <time>2024-07-13T17:00:25+02:00</time>
      </trkpt>
      <trkpt lat="43.73114" lon="1.45397">
        <ele>180.2998</ele>
        <time>2024-07-13T17:00:29+02:00</time>
      </trkpt>
      <trkpt lat="43.73112" lon="1.45394">
        <ele>180.2998</ele>
        <time>2024-07-13T17:00:30+02:00</time>
      </trkpt>
      <trkpt lat="43.73103" lon="1.45382">
        <ele>181</ele>
        <time>2024-07-13T17:00:34+02:00</time>
      </trkpt>
      <trkpt lat="43.73101" lon="1.45379">
        <ele>181</ele>
        <time>2024-07-13T17:00:35+02:00</time>
      </trkpt>
      <trkpt lat="43.73092" lon="1.45369">
        <ele>181.2002</ele>
        <time>2024-07-13T17:00:39+02:00</time>
      </trkpt>
      <trkpt lat="43.7309" lon="1.45368">
        <ele>181.2998</ele>
        <time>2024-07-13T17:00:40+02:00</time>
      </trkpt>
      <trkpt lat="43.73086" lon="1.45359">
        <ele>181.2998</ele>
        <time>2024-07-13T17:00:44+02:00</time>
      </trkpt>
      <trkpt lat="43.73086" lon="1.45356">
        <ele>181.2998</ele>
        <time>2024-07-13T17:00:45+02:00</time>
      </trkpt>
      <trkpt lat="43.7309" lon="1.45343">
        <ele>181</ele>
        <time>2024-07-13T17:00:49+02:00</time>
      </trkpt>
      <trkpt lat="43.73091" lon="1.45339">
        <ele>181</ele>
        <time>2024-07-13T17:00:50+02:00</time>
      </trkpt>
      <trkpt lat="43.731" lon="1.45321">
        <ele>180.10059</ele>
        <time>2024-07-13T17:00:54+02:00</time>
      </trkpt>
      <trkpt lat="43.73104" lon="1.45315">
        <ele>179.7002</ele>
        <time>2024-07-13T17:00:55+02:00</time>
      </trkpt>
      <trkpt lat="43.73123" lon="1.45294">
        <ele>178</ele>
        <time>2024-07-13T17:00:59+02:00</time>
      </trkpt>
      <trkpt lat="43.73128" lon="1.45288">
        <ele>177.7998</ele>
        <time>2024-07-13T17:01:00+02:00</time>
      </trkpt>
      <trkpt lat="43.73141" lon="1.45282">
        <ele>176.7998</ele>
        <time>2024-07-13T17:01:04+02:00</time>
      </trkpt>
      <trkpt lat="43.73143" lon="1.45282">
        <ele>176.5</ele>
        <time>2024-07-13T17:01:05+02:00</time>
      </trkpt>
      <trkpt lat="43.73148" lon="1.45279">
        <ele>176.10059</ele>
        <time>2024-07-13T17:01:09+02:00</time>
      </trkpt>
      <trkpt lat="43.7315" lon="1.45278">
        <ele>176.10059</ele>
        <time>2024-07-13T17:01:10+02:00</time>
      </trkpt>
      <trkpt lat="43.73154" lon="1.45277">
        <ele>175.2998</ele>
        <time>2024-07-13T17:01:14+02:00</time>
      </trkpt>
      <trkpt lat="43.73155" lon="1.45276">
        <ele>175.2998</ele>
        <time>2024-07-13T17:01:15+02:00</time>
      </trkpt>
      <trkpt lat="43.73161" lon="1.45275">
        <ele>174.7998</ele>
        <time>2024-07-13T17:01:19+02:00</time>
      </trkpt>
      <trkpt lat="43.73162" lon="1.45275">
        <ele>174.7998</ele>
        <time>2024-07-13T17:01:20+02:00</time>
      </trkpt>
      <trkpt lat="43.7317" lon="1.45274">
        <ele>174.2998</ele>
        <time>2024-07-13T17:01:24+02:00</time>
      </trkpt>
      <trkpt lat="43.73172" lon="1.45274">
        <ele>174.2998</ele>
        <time>2024-07-13T17:01:25+02:00</time>
      </trkpt>
      <trkpt lat="43.73179" lon="1.45273">
        <ele>173</ele>
        <time>2024-07-13T17:01:29+02:00</time>
      </trkpt>
      <trkpt lat="43.73181" lon="1.45272">
        <ele>173</ele>
        <time>2024-07-13T17:01:30+02:00</time>
      </trkpt>
      <trkpt lat="43.7319" lon="1.4527">
        <ele>172.2002</ele>
        <time>2024-07-13T17:01:34+02:00</time>
      </trkpt>
      <trkpt lat="43.73192" lon="1.45269">
        <ele>171.2998</ele>
        <time>2024-07-13T17:01:35+02:00</time>
      </trkpt>
      <trkpt lat="43.73203" lon="1.45265">
        <ele>170.40039</ele>
        <time>2024-07-13T17:01:39+02:00</time>
      </trkpt>
      <trkpt lat="43.73205" lon="1.45264">
        <ele>169.40039</ele>
        <time>2024-07-13T17:01:40+02:00</time>
      </trkpt>
      <trkpt lat="43.73218" lon="1.45258">
        <ele>167.40039</ele>
        <time>2024-07-13T17:01:44+02:00</time>
      </trkpt>
      <trkpt lat="43.73221" lon="1.45258">
        <ele>167.40039</ele>
        <time>2024-07-13T17:01:45+02:00</time>
      </trkpt>
      <trkpt lat="43.7323" lon="1.45255">
        <ele>165.5</ele>
        <time>2024-07-13T17:01:49+02:00</time>
      </trkpt>
      <trkpt lat="43.7323" lon="1.45256">
        <ele>165.5</ele>
        <time>2024-07-13T17:01:50+02:00</time>
      </trkpt>
      <trkpt lat="43.73231" lon="1.45257">
        <ele>165.5</ele>
        <time>2024-07-13T17:01:54+02:00</time>
      </trkpt>
      <trkpt lat="43.73231" lon="1.45257">
        <ele>165.5</ele>
        <time>2024-07-13T17:01:55+02:00</time>
      </trkpt>
      <trkpt lat="43.73233" lon="1.45254">
        <ele>165.5</ele>
        <time>2024-07-13T17:01:59+02:00</time>
      </trkpt>
      <trkpt lat="43.73234" lon="1.45253">
        <ele>165.5</ele>
        <time>2024-07-13T17:02:00+02:00</time>
      </trkpt>
      <trkpt lat="43.7324" lon="1.45249">
        <ele>164.5</ele>
        <time>2024-07-13T17:02:04+02:00</time>
      </trkpt>
      <trkpt lat="43.73243" lon="1.45248">
        <ele>163.60059</ele>
        <time>2024-07-13T17:02:05+02:00</time>
      </trkpt>
      <trkpt lat="43.73249" lon="1.45244">
        <ele>162.7002</ele>
        <time>2024-07-13T17:02:09+02:00</time>
      </trkpt>
      <trkpt lat="43.7325" lon="1.45244">
        <ele>162.7002</ele>
        <time>2024-07-13T17:02:10+02:00</time>
      </trkpt>
      <trkpt lat="43.73252" lon="1.45244">
        <ele>162.7002</ele>
        <time>2024-07-13T17:02:14+02:00</time>
      </trkpt>
      <trkpt lat="43.73254" lon="1.45244">
        <ele>161.90039</ele>
        <time>2024-07-13T17:02:15+02:00</time>
      </trkpt>
      <trkpt lat="43.73263" lon="1.45243">
        <ele>161.10059</ele>
        <time>2024-07-13T17:02:19+02:00</time>
      </trkpt>
      <trkpt lat="43.73266" lon="1.45244">
        <ele>160.2002</ele>
        <time>2024-07-13T17:02:20+02:00</time>
      </trkpt>
      <trkpt lat="43.73277" lon="1.45247">
        <ele>159.40039</ele>
        <time>2024-07-13T17:02:24+02:00</time>
      </trkpt>
      <trkpt lat="43.73281" lon="1.45248">
        <ele>158.60059</ele>
        <time>2024-07-13T17:02:25+02:00</time>
      </trkpt>
      <trkpt lat="43.73295" lon="1.45248">
        <ele>157.2002</ele>
        <time>2024-07-13T17:02:29+02:00</time>
      </trkpt>
      <trkpt lat="43.73298" lon="1.45248">
        <ele>156.5</ele>
        <time>2024-07-13T17:02:30+02:00</time>
      </trkpt>
      <trkpt lat="43.73311" lon="1.45249">
        <ele>155.2998</ele>
        <time>2024-07-13T17:02:34+02:00</time>
      </trkpt>
      <trkpt lat="43.73315" lon="1.45249">
        <ele>155.2998</ele>
        <time>2024-07-13T17:02:35+02:00</time>
      </trkpt>
      <trkpt lat="43.7333" lon="1.45249">
        <ele>153.90039</ele>
        <time>2024-07-13T17:02:39+02:00</time>
      </trkpt>
      <trkpt lat="43.73334" lon="1.45248">
        <ele>153.60059</ele>
        <time>2024-07-13T17:02:40+02:00</time>
      </trkpt>
      <trkpt lat="43.73352" lon="1.45248">
        <ele>153.10059</ele>
        <time>2024-07-13T17:02:44+02:00</time>
      </trkpt>
      <trkpt lat="43.73356" lon="1.45246">
        <ele>152.90039</ele>
        <time>2024-07-13T17:02:45+02:00</time>
      </trkpt>
      <trkpt lat="43.73374" lon="1.45247">
        <ele>152.5</ele>
        <time>2024-07-13T17:02:49+02:00</time>
      </trkpt>
      <trkpt lat="43.73378" lon="1.45247">
        <ele>152.40039</ele>
        <time>2024-07-13T17:02:50+02:00</time>
      </trkpt>
      <trkpt lat="43.73396" lon="1.45245">
        <ele>152</ele>
        <time>2024-07-13T17:02:54+02:00</time>
      </trkpt>
      <trkpt lat="43.734" lon="1.45245">
        <ele>152</ele>
        <time>2024-07-13T17:02:55+02:00</time>
      </trkpt>
      <trkpt lat="43.7342" lon="1.45244">
        <ele>151.60059</ele>
        <time>2024-07-13T17:02:59+02:00</time>
      </trkpt>
      <trkpt lat="43.73425" lon="1.45244">
        <ele>151.5</ele>
        <time>2024-07-13T17:03:00+02:00</time>
      </trkpt>
      <trkpt lat="43.73445" lon="1.45243">
        <ele>151.10059</ele>
        <time>2024-07-13T17:03:04+02:00</time>
      </trkpt>
      <trkpt lat="43.73449" lon="1.45243">
        <ele>151</ele>
        <time>2024-07-13T17:03:05+02:00</time>
      </trkpt>
      <trkpt lat="43.73466" lon="1.45241">
        <ele>150.60059</ele>
        <time>2024-07-13T17:03:09+02:00</time>
      </trkpt>
      <trkpt lat="43.73471" lon="1.4524">
        <ele>150.40039</ele>
        <time>2024-07-13T17:03:10+02:00</time>
      </trkpt>
      <trkpt lat="43.73492" lon="1.45237">
        <ele>149.90039</ele>
        <time>2024-07-13T17:03:14+02:00</time>
      </trkpt>
      <trkpt lat="43.73497" lon="1.45236">
        <ele>149.7002</ele>
        <time>2024-07-13T17:03:15+02:00</time>
      </trkpt>
      <trkpt lat="43.73516" lon="1.45233">
        <ele>149.2002</ele>
        <time>2024-07-13T17:03:19+02:00</time>
      </trkpt>
      <trkpt lat="43.73521" lon="1.45232">
        <ele>149</ele>
        <time>2024-07-13T17:03:20+02:00</time>
      </trkpt>
      <trkpt lat="43.7354" lon="1.45231">
        <ele>148.2998</ele>
        <time>2024-07-13T17:03:24+02:00</time>
      </trkpt>
      <trkpt lat="43.73545" lon="1.45231">
        <ele>148.10059</ele>
        <time>2024-07-13T17:03:25+02:00</time>
      </trkpt>
      <trkpt lat="43.73565" lon="1.45229">
        <ele>147.40039</ele>
        <time>2024-07-13T17:03:29+02:00</time>
      </trkpt>
      <trkpt lat="43.7357" lon="1.45229">
        <ele>147.2998</ele>
        <time>2024-07-13T17:03:30+02:00</time>
      </trkpt>
      <trkpt lat="43.7359" lon="1.45227">
        <ele>146.7002</ele>
        <time>2024-07-13T17:03:34+02:00</time>
      </trkpt>
      <trkpt lat="43.73595" lon="1.45226">
        <ele>146.60059</ele>
        <time>2024-07-13T17:03:35+02:00</time>
      </trkpt>
      <trkpt lat="43.73617" lon="1.45223">
        <ele>146.10059</ele>
        <time>2024-07-13T17:03:39+02:00</time>
      </trkpt>
      <trkpt lat="43.73622" lon="1.45224">
        <ele>146</ele>
        <time>2024-07-13T17:03:40+02:00</time>
      </trkpt>
      <trkpt lat="43.73641" lon="1.45222">
        <ele>145.60059</ele>
        <time>2024-07-13T17:03:44+02:00</time>
      </trkpt>
      <trkpt lat="43.73646" lon="1.45223">
        <ele>145.5</ele>
        <time>2024-07-13T17:03:45+02:00</time>
      </trkpt>
      <trkpt lat="43.73651" lon="1.45224">
        <ele>145.2998</ele>
        <time>2024-07-13T17:03:49+02:00</time>
      </trkpt>
      <trkpt lat="43.73652" lon="1.45223">
        <ele>145.2998</ele>
        <time>2024-07-13T17:03:50+02:00</time>
      </trkpt>
      <trkpt lat="43.7366" lon="1.45224">
        <ele>145.2002</ele>
        <time>2024-07-13T17:03:54+02:00</time>
      </trkpt>
      <trkpt lat="43.73662" lon="1.45224">
        <ele>145</ele>
        <time>2024-07-13T17:03:55+02:00</time>
      </trkpt>
      <trkpt lat="43.73674" lon="1.45232">
        <ele>144.90039</ele>
        <time>2024-07-13T17:03:59+02:00</time>
      </trkpt>
      <trkpt lat="43.73677" lon="1.45235">
        <ele>144.7998</ele>
        <time>2024-07-13T17:04:00+02:00</time>
      </trkpt>
      <trkpt lat="43.73683" lon="1.45257">
        <ele>144.60059</ele>
        <time>2024-07-13T17:04:04+02:00</time>
      </trkpt>
      <trkpt lat="43.73684" lon="1.45263">
        <ele>144.60059</ele>
        <time>2024-07-13T17:04:05+02:00</time>
      </trkpt>
      <trkpt lat="43.73687" lon="1.45284">
        <ele>144.60059</ele>
        <time>2024-07-13T17:04:09+02:00</time>
      </trkpt>
      <trkpt lat="43.73688" lon="1.45289">
        <ele>144.5</ele>
        <time>2024-07-13T17:04:10+02:00</time>
      </trkpt>
      <trkpt lat="43.73701" lon="1.45302">
        <ele>144.2002</ele>
        <time>2024-07-13T17:04:14+02:00</time>
      </trkpt>
      <trkpt lat="43.73705" lon="1.45303">
        <ele>144.10059</ele>
        <time>2024-07-13T17:04:15+02:00</time>
      </trkpt>
      <trkpt lat="43.73721" lon="1.45308">
        <ele>143.7002</ele>
        <time>2024-07-13T17:04:19+02:00</time>
      </trkpt>
      <trkpt lat="43.73725" lon="1.4531">
        <ele>143.5</ele>
        <time>2024-07-13T17:04:20+02:00</time>
      </trkpt>
      <trkpt lat="43.73739" lon="1.45318">
        <ele>143.2002</ele>
        <time>2024-07-13T17:04:24+02:00</time>
      </trkpt>
      <trkpt lat="43.73743" lon="1.4532">
        <ele>143.2002</ele>
        <time>2024-07-13T17:04:25+02:00</time>
      </trkpt>
      <trkpt lat="43.73758" lon="1.45322">
        <ele>142.7002</ele>
        <time>2024-07-13T17:04:29+02:00</time>
      </trkpt>
      <trkpt lat="43.73762" lon="1.45324">
        <ele>142.5</ele>
        <time>2024-07-13T17:04:30+02:00</time>
      </trkpt>
      <trkpt lat="43.73776" lon="1.45329">
        <ele>142.2002</ele>
        <time>2024-07-13T17:04:34+02:00</time>
      </trkpt>
      <trkpt lat="43.7378" lon="1.4533">
        <ele>142.2002</ele>
        <time>2024-07-13T17:04:35+02:00</time>
      </trkpt>
      <trkpt lat="43.73793" lon="1.45336">
        <ele>141.7998</ele>
        <time>2024-07-13T17:04:39+02:00</time>
      </trkpt>
      <trkpt lat="43.73797" lon="1.45337">
        <ele>141.7998</ele>
        <time>2024-07-13T17:04:40+02:00</time>
      </trkpt>
      <trkpt lat="43.73811" lon="1.4534">
        <ele>141.2998</ele>
        <time>2024-07-13T17:04:44+02:00</time>
      </trkpt>
      <trkpt lat="43.73815" lon="1.4534">
        <ele>141.2998</ele>
        <time>2024-07-13T17:04:45+02:00</time>
      </trkpt>
      <trkpt lat="43.73829" lon="1.4534">
        <ele>141</ele>
        <time>2024-07-13T17:04:49+02:00</time>
      </trkpt>
      <trkpt lat="43.73832" lon="1.4534">
        <ele>140.90039</ele>
        <time>2024-07-13T17:04:50+02:00</time>
      </trkpt>
      <trkpt lat="43.73847" lon="1.45338">
        <ele>140.60059</ele>
        <time>2024-07-13T17:04:54+02:00</time>
      </trkpt>
      <trkpt lat="43.7385" lon="1.45338">
        <ele>140.5</ele>
        <time>2024-07-13T17:04:55+02:00</time>
      </trkpt>
      <trkpt lat="43.73865" lon="1.45334">
        <ele>140.10059</ele>
        <time>2024-07-13T17:04:59+02:00</time>
      </trkpt>
      <trkpt lat="43.73868" lon="1.45334">
        <ele>140</ele>
        <time>2024-07-13T17:05:00+02:00</time>
      </trkpt>
      <trkpt lat="43.73882" lon="1.4533">
        <ele>139.90039</ele>
        <time>2024-07-13T17:05:04+02:00</time>
      </trkpt>
      <trkpt lat="43.73885" lon="1.45329">
        <ele>139.90039</ele>
        <time>2024-07-13T17:05:05+02:00</time>
      </trkpt>
      <trkpt lat="43.739" lon="1.45325">
        <ele>139.60059</ele>
        <time>2024-07-13T17:05:09+02:00</time>
      </trkpt>
      <trkpt lat="43.73904" lon="1.45323">
        <ele>139.5</ele>
        <time>2024-07-13T17:05:10+02:00</time>
      </trkpt>
      <trkpt lat="43.73919" lon="1.4532">
        <ele>139.2998</ele>
        <time>2024-07-13T17:05:14+02:00</time>
      </trkpt>
      <trkpt lat="43.73923" lon="1.4532">
        <ele>139.2002</ele>
        <time>2024-07-13T17:05:15+02:00</time>
      </trkpt>
      <trkpt lat="43.7394" lon="1.45323">
        <ele>139.10059</ele>
        <time>2024-07-13T17:05:19+02:00</time>
      </trkpt>
      <trkpt lat="43.73944" lon="1.45325">
        <ele>139</ele>
        <time>2024-07-13T17:05:20+02:00</time>
      </trkpt>
      <trkpt lat="43.73958" lon="1.45335">
        <ele>138.7998</ele>
        <time>2024-07-13T17:05:24+02:00</time>
      </trkpt>
      <trkpt lat="43.73962" lon="1.45338">
        <ele>138.7998</ele>
        <time>2024-07-13T17:05:25+02:00</time>
      </trkpt>
      <trkpt lat="43.73977" lon="1.45347">
        <ele>138.60059</ele>
        <time>2024-07-13T17:05:29+02:00</time>
      </trkpt>
      <trkpt lat="43.7398" lon="1.45349">
        <ele>138.5</ele>
        <time>2024-07-13T17:05:30+02:00</time>
      </trkpt>
      <trkpt lat="43.73995" lon="1.45359">
        <ele>138.2998</ele>
        <time>2024-07-13T17:05:34+02:00</time>
      </trkpt>
      <trkpt lat="43.73998" lon="1.45361">
        <ele>138.2002</ele>
        <time>2024-07-13T17:05:35+02:00</time>
      </trkpt>
      <trkpt lat="43.74012" lon="1.45371">
        <ele>138</ele>
        <time>2024-07-13T17:05:39+02:00</time>
      </trkpt>
      <trkpt lat="43.74015" lon="1.45373">
        <ele>138</ele>
        <time>2024-07-13T17:05:40+02:00</time>
      </trkpt>
      <trkpt lat="43.74028" lon="1.45382">
        <ele>137.7998</ele>
        <time>2024-07-13T17:05:44+02:00</time>
      </trkpt>
      <trkpt lat="43.74031" lon="1.45384">
        <ele>137.7002</ele>
        <time>2024-07-13T17:05:45+02:00</time>
      </trkpt>
      <trkpt lat="43.74044" lon="1.45394">
        <ele>137.60059</ele>
        <time>2024-07-13T17:05:49+02:00</time>
      </trkpt>
      <trkpt lat="43.74047" lon="1.45396">
        <ele>137.5</ele>
        <time>2024-07-13T17:05:50+02:00</time>
      </trkpt>
      <trkpt lat="43.74061" lon="1.45405">
        <ele>137.40039</ele>
        <time>2024-07-13T17:05:54+02:00</time>
      </trkpt>
      <trkpt lat="43.74064" lon="1.45408">
        <ele>137.40039</ele>
        <time>2024-07-13T17:05:55+02:00</time>
      </trkpt>
      <trkpt lat="43.74078" lon="1.45418">
        <ele>137.2002</ele>
        <time>2024-07-13T17:05:59+02:00</time>
      </trkpt>
      <trkpt lat="43.74082" lon="1.45421">
        <ele>137.2002</ele>
        <time>2024-07-13T17:06:00+02:00</time>
      </trkpt>
      <trkpt lat="43.74096" lon="1.45432">
        <ele>137.2002</ele>
        <time>2024-07-13T17:06:04+02:00</time>
      </trkpt>
      <trkpt lat="43.74099" lon="1.45435">
        <ele>137.2998</ele>
        <time>2024-07-13T17:06:05+02:00</time>
      </trkpt>
      <trkpt lat="43.74113" lon="1.45448">
        <ele>137.2998</ele>
        <time>2024-07-13T17:06:09+02:00</time>
      </trkpt>
      <trkpt lat="43.74116" lon="1.45451">
        <ele>137.40039</ele>
        <time>2024-07-13T17:06:10+02:00</time>
      </trkpt>
      <trkpt lat="43.74129" lon="1.45461">
        <ele>137.5</ele>
        <time>2024-07-13T17:06:14+02:00</time>
      </trkpt>
      <trkpt lat="43.74132" lon="1.45464">
        <ele>137.5</ele>
        <time>2024-07-13T17:06:15+02:00</time>
      </trkpt>
      <trkpt lat="43.74144" lon="1.45474">
        <ele>137.7002</ele>
        <time>2024-07-13T17:06:19+02:00</time>
      </trkpt>
      <trkpt lat="43.74148" lon="1.45477">
        <ele>137.90039</ele>
        <time>2024-07-13T17:06:20+02:00</time>
      </trkpt>
      <trkpt lat="43.74163" lon="1.45489">
        <ele>138.2998</ele>
        <time>2024-07-13T17:06:24+02:00</time>
      </trkpt>
      <trkpt lat="43.74167" lon="1.45491">
        <ele>138.2998</ele>
        <time>2024-07-13T17:06:25+02:00</time>
      </trkpt>
      <trkpt lat="43.74185" lon="1.45506">
        <ele>139.10059</ele>
        <time>2024-07-13T17:06:29+02:00</time>
      </trkpt>
      <trkpt lat="43.7419" lon="1.4551">
        <ele>139.5</ele>
        <time>2024-07-13T17:06:30+02:00</time>
      </trkpt>
      <trkpt lat="43.7421" lon="1.45525">
        <ele>139.7998</ele>
        <time>2024-07-13T17:06:34+02:00</time>
      </trkpt>
      <trkpt lat="43.74215" lon="1.45528">
        <ele>140.10059</ele>
        <time>2024-07-13T17:06:35+02:00</time>
      </trkpt>
      <trkpt lat="43.74234" lon="1.45546">
        <ele>140.5</ele>
        <time>2024-07-13T17:06:39+02:00</time>
      </trkpt>
      <trkpt lat="43.74239" lon="1.4555">
        <ele>140.5</ele>
        <time>2024-07-13T17:06:40+02:00</time>
      </trkpt>
      <trkpt lat="43.74257" lon="1.45566">
        <ele>140.5</ele>
        <time>2024-07-13T17:06:44+02:00</time>
      </trkpt>
      <trkpt lat="43.74261" lon="1.45569">
        <ele>140.60059</ele>
        <time>2024-07-13T17:06:45+02:00</time>
      </trkpt>
      <trkpt lat="43.74279" lon="1.45582">
        <ele>139.60059</ele>
        <time>2024-07-13T17:06:49+02:00</time>
      </trkpt>
      <trkpt lat="43.74283" lon="1.45585">
        <ele>139</ele>
        <time>2024-07-13T17:06:50+02:00</time>
      </trkpt>
      <trkpt lat="43.74295" lon="1.45598">
        <ele>138.10059</ele>
        <time>2024-07-13T17:06:54+02:00</time>
      </trkpt>
      <trkpt lat="43.74298" lon="1.456">
        <ele>137.2002</ele>
        <time>2024-07-13T17:06:55+02:00</time>
      </trkpt>
      <trkpt lat="43.7431" lon="1.45609">
        <ele>134.90039</ele>
        <time>2024-07-13T17:06:59+02:00</time>
      </trkpt>
      <trkpt lat="43.74313" lon="1.45612">
        <ele>134.90039</ele>
        <time>2024-07-13T17:07:00+02:00</time>
      </trkpt>
      <trkpt lat="43.74326" lon="1.45623">
        <ele>131.7002</ele>
        <time>2024-07-13T17:07:04+02:00</time>
      </trkpt>
      <trkpt lat="43.74329" lon="1.45626">
        <ele>131.7002</ele>
        <time>2024-07-13T17:07:05+02:00</time>
      </trkpt>
      <trkpt lat="43.74342" lon="1.45636">
        <ele>130.60059</ele>
        <time>2024-07-13T17:07:09+02:00</time>
      </trkpt>
      <trkpt lat="43.74345" lon="1.45638">
        <ele>130.40039</ele>
        <time>2024-07-13T17:07:10+02:00</time>
      </trkpt>
      <trkpt lat="43.74359" lon="1.45646">
        <ele>130.2998</ele>
        <time>2024-07-13T17:07:14+02:00</time>
      </trkpt>
      <trkpt lat="43.74363" lon="1.45648">
        <ele>130.40039</ele>
        <time>2024-07-13T17:07:15+02:00</time>
      </trkpt>
      <trkpt lat="43.74379" lon="1.45656">
        <ele>130.60059</ele>
        <time>2024-07-13T17:07:19+02:00</time>
      </trkpt>
      <trkpt lat="43.74383" lon="1.45658">
        <ele>130.60059</ele>
        <time>2024-07-13T17:07:20+02:00</time>
      </trkpt>
      <trkpt lat="43.74398" lon="1.45663">
        <ele>130.7002</ele>
        <time>2024-07-13T17:07:24+02:00</time>
      </trkpt>
      <trkpt lat="43.74402" lon="1.45664">
        <ele>130.7002</ele>
        <time>2024-07-13T17:07:25+02:00</time>
      </trkpt>
      <trkpt lat="43.74418" lon="1.45668">
        <ele>130.7002</ele>
        <time>2024-07-13T17:07:29+02:00</time>
      </trkpt>
      <trkpt lat="43.74422" lon="1.45669">
        <ele>130.7002</ele>
        <time>2024-07-13T17:07:30+02:00</time>
      </trkpt>
      <trkpt lat="43.74436" lon="1.45674">
        <ele>130.7002</ele>
        <time>2024-07-13T17:07:34+02:00</time>
      </trkpt>
      <trkpt lat="43.7444" lon="1.45675">
        <ele>130.7002</ele>
        <time>2024-07-13T17:07:35+02:00</time>
      </trkpt>
      <trkpt lat="43.74455" lon="1.45681">
        <ele>130.60059</ele>
        <time>2024-07-13T17:07:39+02:00</time>
      </trkpt>
      <trkpt lat="43.74459" lon="1.45684">
        <ele>130.5</ele>
        <time>2024-07-13T17:07:40+02:00</time>
      </trkpt>
      <trkpt lat="43.74482" lon="1.45693">
        <ele>130</ele>
        <time>2024-07-13T17:07:44+02:00</time>
      </trkpt>
      <trkpt lat="43.74488" lon="1.45695">
        <ele>129.7998</ele>
        <time>2024-07-13T17:07:45+02:00</time>
      </trkpt>
      <trkpt lat="43.74508" lon="1.457">
        <ele>129.2002</ele>
        <time>2024-07-13T17:07:49+02:00</time>
      </trkpt>
      <trkpt lat="43.74513" lon="1.45699">
        <ele>129</ele>
        <time>2024-07-13T17:07:50+02:00</time>
      </trkpt>
      <trkpt lat="43.74527" lon="1.457">
        <ele>128.60059</ele>
        <time>2024-07-13T17:07:54+02:00</time>
      </trkpt>
      <trkpt lat="43.74529" lon="1.45699">
        <ele>128.60059</ele>
        <time>2024-07-13T17:07:55+02:00</time>
      </trkpt>
      <trkpt lat="43.74531" lon="1.45695">
        <ele>128.2998</ele>
        <time>2024-07-13T17:07:59+02:00</time>
      </trkpt>
      <trkpt lat="43.74531" lon="1.45693">
        <ele>128.2998</ele>
        <time>2024-07-13T17:08:00+02:00</time>
      </trkpt>
      <trkpt lat="43.74534" lon="1.45685">
        <ele>128.10059</ele>
        <time>2024-07-13T17:08:04+02:00</time>
      </trkpt>
      <trkpt lat="43.74536" lon="1.45681">
        <ele>128.10059</ele>
        <time>2024-07-13T17:08:05+02:00</time>
      </trkpt>
      <trkpt lat="43.74541" lon="1.45661">
        <ele>127.5</ele>
        <time>2024-07-13T17:08:09+02:00</time>
      </trkpt>
      <trkpt lat="43.74542" lon="1.45656">
        <ele>127.5</ele>
        <time>2024-07-13T17:08:10+02:00</time>
      </trkpt>
      <trkpt lat="43.74546" lon="1.45634">
        <ele>127</ele>
        <time>2024-07-13T17:08:14+02:00</time>
      </trkpt>
      <trkpt lat="43.74548" lon="1.45628">
        <ele>126.90039</ele>
        <time>2024-07-13T17:08:15+02:00</time>
      </trkpt>
      <trkpt lat="43.74553" lon="1.45605">
        <ele>126.700195</ele>
        <time>2024-07-13T17:08:19+02:00</time>
      </trkpt>
      <trkpt lat="43.74554" lon="1.45599">
        <ele>126.700195</ele>
        <time>2024-07-13T17:08:20+02:00</time>
      </trkpt>
      <trkpt lat="43.74558" lon="1.45573">
        <ele>126.700195</ele>
        <time>2024-07-13T17:08:24+02:00</time>
      </trkpt>
      <trkpt lat="43.74559" lon="1.45566">
        <ele>126.700195</ele>
        <time>2024-07-13T17:08:25+02:00</time>
      </trkpt>
      <trkpt lat="43.74564" lon="1.45533">
        <ele>126.700195</ele>
        <time>2024-07-13T17:08:29+02:00</time>
      </trkpt>
      <trkpt lat="43.74565" lon="1.45524">
        <ele>126.799805</ele>
        <time>2024-07-13T17:08:30+02:00</time>
      </trkpt>
      <trkpt lat="43.7457" lon="1.4549">
        <ele>127.100586</ele>
        <time>2024-07-13T17:08:34+02:00</time>
      </trkpt>
      <trkpt lat="43.74571" lon="1.45482">
        <ele>127.200195</ele>
        <time>2024-07-13T17:08:35+02:00</time>
      </trkpt>
      <trkpt lat="43.74574" lon="1.45452">
        <ele>127.5</ele>
        <time>2024-07-13T17:08:39+02:00</time>
      </trkpt>
      <trkpt lat="43.74575" lon="1.45445">
        <ele>127.600586</ele>
        <time>2024-07-13T17:08:40+02:00</time>
      </trkpt>
      <trkpt lat="43.74577" lon="1.45419">
        <ele>127.90039</ele>
        <time>2024-07-13T17:08:44+02:00</time>
      </trkpt>
      <trkpt lat="43.74577" lon="1.45412">
        <ele>128</ele>
        <time>2024-07-13T17:08:45+02:00</time>
      </trkpt>
      <trkpt lat="43.7458" lon="1.45388">
        <ele>128.2998</ele>
        <time>2024-07-13T17:08:49+02:00</time>
      </trkpt>
      <trkpt lat="43.74583" lon="1.45382">
        <ele>128.2998</ele>
        <time>2024-07-13T17:08:50+02:00</time>
      </trkpt>
      <trkpt lat="43.74595" lon="1.45361">
        <ele>128.40039</ele>
        <time>2024-07-13T17:08:54+02:00</time>
      </trkpt>
      <trkpt lat="43.74597" lon="1.45355">
        <ele>128.40039</ele>
        <time>2024-07-13T17:08:55+02:00</time>
      </trkpt>
      <trkpt lat="43.74607" lon="1.45332">
        <ele>128.2998</ele>
        <time>2024-07-13T17:08:59+02:00</time>
      </trkpt>
      <trkpt lat="43.7461" lon="1.45327">
        <ele>128.2002</ele>
        <time>2024-07-13T17:09:00+02:00</time>
      </trkpt>
      <trkpt lat="43.74621" lon="1.45305">
        <ele>127.90039</ele>
        <time>2024-07-13T17:09:04+02:00</time>
      </trkpt>
      <trkpt lat="43.74624" lon="1.45299">
        <ele>127.700195</ele>
        <time>2024-07-13T17:09:05+02:00</time>
      </trkpt>
      <trkpt lat="43.74635" lon="1.45274">
        <ele>127.40039</ele>
        <time>2024-07-13T17:09:09+02:00</time>
      </trkpt>
      <trkpt lat="43.74637" lon="1.45268">
        <ele>127.299805</ele>
        <time>2024-07-13T17:09:10+02:00</time>
      </trkpt>
      <trkpt lat="43.74647" lon="1.45242">
        <ele>127.100586</ele>
        <time>2024-07-13T17:09:14+02:00</time>
      </trkpt>
      <trkpt lat="43.74648" lon="1.45234">
        <ele>127.100586</ele>
        <time>2024-07-13T17:09:15+02:00</time>
      </trkpt>
      <trkpt lat="43.74653" lon="1.45204">
        <ele>127</ele>
        <time>2024-07-13T17:09:19+02:00</time>
      </trkpt>
      <trkpt lat="43.74653" lon="1.45197">
        <ele>127</ele>
        <time>2024-07-13T17:09:20+02:00</time>
      </trkpt>
      <trkpt lat="43.74656" lon="1.45168">
        <ele>126.90039</ele>
        <time>2024-07-13T17:09:24+02:00</time>
      </trkpt>
      <trkpt lat="43.74657" lon="1.4516">
        <ele>126.799805</ele>
        <time>2024-07-13T17:09:25+02:00</time>
      </trkpt>
      <trkpt lat="43.7466" lon="1.4513">
        <ele>126.200195</ele>
        <time>2024-07-13T17:09:29+02:00</time>
      </trkpt>
      <trkpt lat="43.74661" lon="1.45123">
        <ele>126.200195</ele>
        <time>2024-07-13T17:09:30+02:00</time>
      </trkpt>
      <trkpt lat="43.74658" lon="1.45094">
        <ele>125.5</ele>
        <time>2024-07-13T17:09:34+02:00</time>
      </trkpt>
      <trkpt lat="43.74656" lon="1.45087">
        <ele>125.299805</ele>
        <time>2024-07-13T17:09:35+02:00</time>
      </trkpt>
      <trkpt lat="43.74645" lon="1.45059">
        <ele>124.90039</ele>
        <time>2024-07-13T17:09:39+02:00</time>
      </trkpt>
      <trkpt lat="43.74643" lon="1.45053">
        <ele>124.799805</ele>
        <time>2024-07-13T17:09:40+02:00</time>
      </trkpt>
      <trkpt lat="43.74637" lon="1.45024">
        <ele>124.5</ele>
        <time>2024-07-13T17:09:44+02:00</time>
      </trkpt>
      <trkpt lat="43.74637" lon="1.45016">
        <ele>124.40039</ele>
        <time>2024-07-13T17:09:45+02:00</time>
      </trkpt>
      <trkpt lat="43.74639" lon="1.44986">
        <ele>124.200195</ele>
        <time>2024-07-13T17:09:49+02:00</time>
      </trkpt>
      <trkpt lat="43.7464" lon="1.44978">
        <ele>124.200195</ele>
        <time>2024-07-13T17:09:50+02:00</time>
      </trkpt>
      <trkpt lat="43.74642" lon="1.44949">
        <ele>124.200195</ele>
        <time>2024-07-13T17:09:54+02:00</time>
      </trkpt>
      <trkpt lat="43.74642" lon="1.44941">
        <ele>124.200195</ele>
        <time>2024-07-13T17:09:55+02:00</time>
      </trkpt>
      <trkpt lat="43.74644" lon="1.44912">
        <ele>124.200195</ele>
        <time>2024-07-13T17:09:59+02:00</time>
      </trkpt>
      <trkpt lat="43.74644" lon="1.44905">
        <ele>124.200195</ele>
        <time>2024-07-13T17:10:00+02:00</time>
      </trkpt>
      <trkpt lat="43.74645" lon="1.44876">
        <ele>124.299805</ele>
        <time>2024-07-13T17:10:04+02:00</time>
      </trkpt>
      <trkpt lat="43.74646" lon="1.44868">
        <ele>124.299805</ele>
        <time>2024-07-13T17:10:05+02:00</time>
      </trkpt>
      <trkpt lat="43.74647" lon="1.44838">
        <ele>124.5</ele>
        <time>2024-07-13T17:10:09+02:00</time>
      </trkpt>
      <trkpt lat="43.74648" lon="1.4483">
        <ele>124.5</ele>
        <time>2024-07-13T17:10:10+02:00</time>
      </trkpt>
      <trkpt lat="43.74648" lon="1.44803">
        <ele>124.799805</ele>
        <time>2024-07-13T17:10:14+02:00</time>
      </trkpt>
      <trkpt lat="43.74648" lon="1.44797">
        <ele>124.799805</ele>
        <time>2024-07-13T17:10:15+02:00</time>
      </trkpt>
      <trkpt lat="43.74645" lon="1.44769">
        <ele>125.100586</ele>
        <time>2024-07-13T17:10:19+02:00</time>
      </trkpt>
      <trkpt lat="43.74645" lon="1.44762">
        <ele>125.100586</ele>
        <time>2024-07-13T17:10:20+02:00</time>
      </trkpt>
      <trkpt lat="43.74645" lon="1.44736">
        <ele>125.200195</ele>
        <time>2024-07-13T17:10:24+02:00</time>
      </trkpt>
      <trkpt lat="43.74645" lon="1.44729">
        <ele>125.200195</ele>
        <time>2024-07-13T17:10:25+02:00</time>
      </trkpt>
      <trkpt lat="43.74645" lon="1.44702">
        <ele>125</ele>
        <time>2024-07-13T17:10:29+02:00</time>
      </trkpt>
      <trkpt lat="43.74645" lon="1.44695">
        <ele>124.90039</ele>
        <time>2024-07-13T17:10:30+02:00</time>
      </trkpt>
      <trkpt lat="43.74647" lon="1.44667">
        <ele>124.799805</ele>
        <time>2024-07-13T17:10:34+02:00</time>
      </trkpt>
      <trkpt lat="43.74648" lon="1.4466">
        <ele>124.799805</ele>
        <time>2024-07-13T17:10:35+02:00</time>
      </trkpt>
      <trkpt lat="43.74651" lon="1.44631">
        <ele>125.100586</ele>
        <time>2024-07-13T17:10:39+02:00</time>
      </trkpt>
      <trkpt lat="43.74652" lon="1.44624">
        <ele>125.299805</ele>
        <time>2024-07-13T17:10:40+02:00</time>
      </trkpt>
      <trkpt lat="43.74656" lon="1.44597">
        <ele>125.700195</ele>
        <time>2024-07-13T17:10:44+02:00</time>
      </trkpt>
      <trkpt lat="43.74657" lon="1.44591">
        <ele>125.700195</ele>
        <time>2024-07-13T17:10:45+02:00</time>
      </trkpt>
      <trkpt lat="43.7466" lon="1.44562">
        <ele>126.100586</ele>
        <time>2024-07-13T17:10:49+02:00</time>
      </trkpt>
      <trkpt lat="43.7466" lon="1.44555">
        <ele>126.100586</ele>
        <time>2024-07-13T17:10:50+02:00</time>
      </trkpt>
      <trkpt lat="43.74664" lon="1.44529">
        <ele>126.200195</ele>
        <time>2024-07-13T17:10:54+02:00</time>
      </trkpt>
      <trkpt lat="43.74664" lon="1.44522">
        <ele>126.200195</ele>
        <time>2024-07-13T17:10:55+02:00</time>
      </trkpt>
      <trkpt lat="43.74667" lon="1.44495">
        <ele>126.40039</ele>
        <time>2024-07-13T17:10:59+02:00</time>
      </trkpt>
      <trkpt lat="43.74668" lon="1.44488">
        <ele>126.40039</ele>
        <time>2024-07-13T17:11:00+02:00</time>
      </trkpt>
      <trkpt lat="43.74669" lon="1.44461">
        <ele>126.600586</ele>
        <time>2024-07-13T17:11:04+02:00</time>
      </trkpt>
      <trkpt lat="43.7467" lon="1.44454">
        <ele>126.600586</ele>
        <time>2024-07-13T17:11:05+02:00</time>
      </trkpt>
      <trkpt lat="43.74669" lon="1.44426">
        <ele>126.90039</ele>
        <time>2024-07-13T17:11:09+02:00</time>
      </trkpt>
      <trkpt lat="43.74669" lon="1.4442">
        <ele>126.90039</ele>
        <time>2024-07-13T17:11:10+02:00</time>
      </trkpt>
      <trkpt lat="43.7467" lon="1.44394">
        <ele>126.90039</ele>
        <time>2024-07-13T17:11:14+02:00</time>
      </trkpt>
      <trkpt lat="43.7467" lon="1.44387">
        <ele>126.90039</ele>
        <time>2024-07-13T17:11:15+02:00</time>
      </trkpt>
      <trkpt lat="43.74671" lon="1.44361">
        <ele>126.90039</ele>
        <time>2024-07-13T17:11:19+02:00</time>
      </trkpt>
      <trkpt lat="43.74672" lon="1.44354">
        <ele>126.90039</ele>
        <time>2024-07-13T17:11:20+02:00</time>
      </trkpt>
      <trkpt lat="43.74676" lon="1.4433">
        <ele>126.799805</ele>
        <time>2024-07-13T17:11:24+02:00</time>
      </trkpt>
      <trkpt lat="43.74679" lon="1.44325">
        <ele>126.799805</ele>
        <time>2024-07-13T17:11:25+02:00</time>
      </trkpt>
      <trkpt lat="43.74689" lon="1.44302">
        <ele>126.5</ele>
        <time>2024-07-13T17:11:29+02:00</time>
      </trkpt>
      <trkpt lat="43.74692" lon="1.44296">
        <ele>126.40039</ele>
        <time>2024-07-13T17:11:30+02:00</time>
      </trkpt>
      <trkpt lat="43.74702" lon="1.44273">
        <ele>126.200195</ele>
        <time>2024-07-13T17:11:34+02:00</time>
      </trkpt>
      <trkpt lat="43.74705" lon="1.44267">
        <ele>126.100586</ele>
        <time>2024-07-13T17:11:35+02:00</time>
      </trkpt>
      <trkpt lat="43.74715" lon="1.44244">
        <ele>126</ele>
        <time>2024-07-13T17:11:39+02:00</time>
      </trkpt>
      <trkpt lat="43.74718" lon="1.44238">
        <ele>125.90039</ele>
        <time>2024-07-13T17:11:40+02:00</time>
      </trkpt>
      <trkpt lat="43.74728" lon="1.44213">
        <ele>125.799805</ele>
        <time>2024-07-13T17:11:44+02:00</time>
      </trkpt>
      <trkpt lat="43.74731" lon="1.44207">
        <ele>125.799805</ele>
        <time>2024-07-13T17:11:45+02:00</time>
      </trkpt>
      <trkpt lat="43.74742" lon="1.44183">
        <ele>125.90039</ele>
        <time>2024-07-13T17:11:49+02:00</time>
      </trkpt>
      <trkpt lat="43.74744" lon="1.44177">
        <ele>125.90039</ele>
        <time>2024-07-13T17:11:50+02:00</time>
      </trkpt>
      <trkpt lat="43.74754" lon="1.44154">
        <ele>125.799805</ele>
        <time>2024-07-13T17:11:54+02:00</time>
      </trkpt>
      <trkpt lat="43.74757" lon="1.44148">
        <ele>125.799805</ele>
        <time>2024-07-13T17:11:55+02:00</time>
      </trkpt>
      <trkpt lat="43.74769" lon="1.44124">
        <ele>125.40039</ele>
        <time>2024-07-13T17:11:59+02:00</time>
      </trkpt>
      <trkpt lat="43.74771" lon="1.44118">
        <ele>125.299805</ele>
        <time>2024-07-13T17:12:00+02:00</time>
      </trkpt>
      <trkpt lat="43.74783" lon="1.44092">
        <ele>124.90039</ele>
        <time>2024-07-13T17:12:04+02:00</time>
      </trkpt>
      <trkpt lat="43.74786" lon="1.44085">
        <ele>124.799805</ele>
        <time>2024-07-13T17:12:05+02:00</time>
      </trkpt>
      <trkpt lat="43.74797" lon="1.44059">
        <ele>124.600586</ele>
        <time>2024-07-13T17:12:09+02:00</time>
      </trkpt>
      <trkpt lat="43.748" lon="1.44053">
        <ele>124.40039</ele>
        <time>2024-07-13T17:12:10+02:00</time>
      </trkpt>
      <trkpt lat="43.74812" lon="1.44027">
        <ele>123.90039</ele>
        <time>2024-07-13T17:12:14+02:00</time>
      </trkpt>
      <trkpt lat="43.74815" lon="1.44021">
        <ele>123.90039</ele>
        <time>2024-07-13T17:12:15+02:00</time>
      </trkpt>
      <trkpt lat="43.74826" lon="1.43995">
        <ele>123.5</ele>
        <time>2024-07-13T17:12:19+02:00</time>
      </trkpt>
      <trkpt lat="43.74829" lon="1.43989">
        <ele>123.40039</ele>
        <time>2024-07-13T17:12:20+02:00</time>
      </trkpt>
      <trkpt lat="43.74841" lon="1.43964">
        <ele>123.200195</ele>
        <time>2024-07-13T17:12:24+02:00</time>
      </trkpt>
      <trkpt lat="43.74844" lon="1.43958">
        <ele>123.100586</ele>
        <time>2024-07-13T17:12:25+02:00</time>
      </trkpt>
      <trkpt lat="43.74857" lon="1.43933">
        <ele>122.90039</ele>
        <time>2024-07-13T17:12:29+02:00</time>
      </trkpt>
      <trkpt lat="43.7486" lon="1.43926">
        <ele>122.90039</ele>
        <time>2024-07-13T17:12:30+02:00</time>
      </trkpt>
      <trkpt lat="43.74873" lon="1.43902">
        <ele>122.90039</ele>
        <time>2024-07-13T17:12:34+02:00</time>
      </trkpt>
      <trkpt lat="43.74876" lon="1.43895">
        <ele>122.90039</ele>
        <time>2024-07-13T17:12:35+02:00</time>
      </trkpt>
      <trkpt lat="43.7489" lon="1.43869">
        <ele>123.200195</ele>
        <time>2024-07-13T17:12:39+02:00</time>
      </trkpt>
      <trkpt lat="43.74893" lon="1.43863">
        <ele>123.100586</ele>
        <time>2024-07-13T17:12:40+02:00</time>
      </trkpt>
      <trkpt lat="43.74906" lon="1.43838">
        <ele>123.100586</ele>
        <time>2024-07-13T17:12:44+02:00</time>
      </trkpt>
      <trkpt lat="43.74909" lon="1.43832">
        <ele>123.100586</ele>
        <time>2024-07-13T17:12:45+02:00</time>
      </trkpt>
      <trkpt lat="43.74922" lon="1.43808">
        <ele>122.600586</ele>
        <time>2024-07-13T17:12:49+02:00</time>
      </trkpt>
      <trkpt lat="43.74925" lon="1.43801">
        <ele>122.600586</ele>
        <time>2024-07-13T17:12:50+02:00</time>
      </trkpt>
      <trkpt lat="43.74936" lon="1.43778">
        <ele>122.100586</ele>
        <time>2024-07-13T17:12:54+02:00</time>
      </trkpt>
      <trkpt lat="43.74939" lon="1.43772">
        <ele>122.100586</ele>
        <time>2024-07-13T17:12:55+02:00</time>
      </trkpt>
      <trkpt lat="43.74951" lon="1.43749">
        <ele>121.90039</ele>
        <time>2024-07-13T17:12:59+02:00</time>
      </trkpt>
      <trkpt lat="43.74954" lon="1.43742">
        <ele>121.799805</ele>
        <time>2024-07-13T17:13:00+02:00</time>
      </trkpt>
      <trkpt lat="43.74968" lon="1.43718">
        <ele>121.90039</ele>
        <time>2024-07-13T17:13:04+02:00</time>
      </trkpt>
      <trkpt lat="43.74971" lon="1.43712">
        <ele>122</ele>
        <time>2024-07-13T17:13:05+02:00</time>
      </trkpt>
      <trkpt lat="43.74985" lon="1.43688">
        <ele>122.200195</ele>
        <time>2024-07-13T17:13:09+02:00</time>
      </trkpt>
      <trkpt lat="43.74988" lon="1.43682">
        <ele>122.200195</ele>
        <time>2024-07-13T17:13:10+02:00</time>
      </trkpt>
      <trkpt lat="43.75" lon="1.43656">
        <ele>122.5</ele>
        <time>2024-07-13T17:13:14+02:00</time>
      </trkpt>
      <trkpt lat="43.75003" lon="1.4365">
        <ele>122.600586</ele>
        <time>2024-07-13T17:13:15+02:00</time>
      </trkpt>
      <trkpt lat="43.75015" lon="1.43625">
        <ele>122.90039</ele>
        <time>2024-07-13T17:13:19+02:00</time>
      </trkpt>
      <trkpt lat="43.75018" lon="1.43619">
        <ele>123.100586</ele>
        <time>2024-07-13T17:13:20+02:00</time>
      </trkpt>
      <trkpt lat="43.75028" lon="1.43594">
        <ele>123.40039</ele>
        <time>2024-07-13T17:13:24+02:00</time>
      </trkpt>
      <trkpt lat="43.75031" lon="1.43588">
        <ele>123.40039</ele>
        <time>2024-07-13T17:13:25+02:00</time>
      </trkpt>
      <trkpt lat="43.75041" lon="1.43564">
        <ele>123.700195</ele>
        <time>2024-07-13T17:13:29+02:00</time>
      </trkpt>
      <trkpt lat="43.75044" lon="1.43557">
        <ele>124</ele>
        <time>2024-07-13T17:13:30+02:00</time>
      </trkpt>
      <trkpt lat="43.75053" lon="1.43531">
        <ele>124.600586</ele>
        <time>2024-07-13T17:13:34+02:00</time>
      </trkpt>
      <trkpt lat="43.75055" lon="1.43524">
        <ele>125</ele>
        <time>2024-07-13T17:13:35+02:00</time>
      </trkpt>
      <trkpt lat="43.75064" lon="1.43497">
        <ele>126.200195</ele>
        <time>2024-07-13T17:13:39+02:00</time>
      </trkpt>
      <trkpt lat="43.75067" lon="1.43491">
        <ele>126.700195</ele>
        <time>2024-07-13T17:13:40+02:00</time>
      </trkpt>
      <trkpt lat="43.75077" lon="1.43466">
        <ele>127.299805</ele>
        <time>2024-07-13T17:13:44+02:00</time>
      </trkpt>
      <trkpt lat="43.7508" lon="1.4346">
        <ele>127.600586</ele>
        <time>2024-07-13T17:13:45+02:00</time>
      </trkpt>
      <trkpt lat="43.75088" lon="1.43435">
        <ele>127.90039</ele>
        <time>2024-07-13T17:13:49+02:00</time>
      </trkpt>
      <trkpt lat="43.7509" lon="1.43429">
        <ele>127.799805</ele>
        <time>2024-07-13T17:13:50+02:00</time>
      </trkpt>
      <trkpt lat="43.75099" lon="1.43406">
        <ele>127.600586</ele>
        <time>2024-07-13T17:13:54+02:00</time>
      </trkpt>
      <trkpt lat="43.75101" lon="1.434">
        <ele>127.600586</ele>
        <time>2024-07-13T17:13:55+02:00</time>
      </trkpt>
      <trkpt lat="43.7511" lon="1.43376">
        <ele>127.40039</ele>
        <time>2024-07-13T17:13:59+02:00</time>
      </trkpt>
      <trkpt lat="43.75113" lon="1.43371">
        <ele>127.299805</ele>
        <time>2024-07-13T17:14:00+02:00</time>
      </trkpt>
      <trkpt lat="43.75122" lon="1.43348">
        <ele>126.90039</ele>
        <time>2024-07-13T17:14:04+02:00</time>
      </trkpt>
      <trkpt lat="43.75124" lon="1.43342">
        <ele>126.799805</ele>
        <time>2024-07-13T17:14:05+02:00</time>
      </trkpt>
      <trkpt lat="43.75132" lon="1.43319">
        <ele>126.5</ele>
        <time>2024-07-13T17:14:09+02:00</time>
      </trkpt>
      <trkpt lat="43.75134" lon="1.43315">
        <ele>126.5</ele>
        <time>2024-07-13T17:14:10+02:00</time>
      </trkpt>
      <trkpt lat="43.7514" lon="1.43309">
        <ele>126.40039</ele>
        <time>2024-07-13T17:14:14+02:00</time>
      </trkpt>
      <trkpt lat="43.75141" lon="1.43308">
        <ele>126.40039</ele>
        <time>2024-07-13T17:14:15+02:00</time>
      </trkpt>
      <trkpt lat="43.7514" lon="1.43297">
        <ele>126.40039</ele>
        <time>2024-07-13T17:14:19+02:00</time>
      </trkpt>
      <trkpt lat="43.75141" lon="1.43293">
        <ele>126.40039</ele>
        <time>2024-07-13T17:14:20+02:00</time>
      </trkpt>
      <trkpt lat="43.75149" lon="1.43278">
        <ele>126.299805</ele>
        <time>2024-07-13T17:14:24+02:00</time>
      </trkpt>
      <trkpt lat="43.75151" lon="1.43272">
        <ele>126.299805</ele>
        <time>2024-07-13T17:14:25+02:00</time>
      </trkpt>
      <trkpt lat="43.75161" lon="1.43252">
        <ele>126.299805</ele>
        <time>2024-07-13T17:14:29+02:00</time>
      </trkpt>
      <trkpt lat="43.75164" lon="1.43247">
        <ele>126.299805</ele>
        <time>2024-07-13T17:14:30+02:00</time>
      </trkpt>
      <trkpt lat="43.75174" lon="1.43231">
        <ele>126.40039</ele>
        <time>2024-07-13T17:14:34+02:00</time>
      </trkpt>
      <trkpt lat="43.75176" lon="1.43227">
        <ele>126.299805</ele>
        <time>2024-07-13T17:14:35+02:00</time>
      </trkpt>
      <trkpt lat="43.75182" lon="1.43208">
        <ele>126.40039</ele>
        <time>2024-07-13T17:14:39+02:00</time>
      </trkpt>
      <trkpt lat="43.75183" lon="1.43203">
        <ele>126.40039</ele>
        <time>2024-07-13T17:14:40+02:00</time>
      </trkpt>
      <trkpt lat="43.7519" lon="1.43184">
        <ele>126.40039</ele>
        <time>2024-07-13T17:14:44+02:00</time>
      </trkpt>
      <trkpt lat="43.75192" lon="1.43179">
        <ele>126.40039</ele>
        <time>2024-07-13T17:14:45+02:00</time>
      </trkpt>
      <trkpt lat="43.75199" lon="1.43164">
        <ele>126.299805</ele>
        <time>2024-07-13T17:14:49+02:00</time>
      </trkpt>
      <trkpt lat="43.752" lon="1.4316">
        <ele>126.200195</ele>
        <time>2024-07-13T17:14:50+02:00</time>
      </trkpt>
      <trkpt lat="43.75198" lon="1.43149">
        <ele>126.299805</ele>
        <time>2024-07-13T17:15:45+02:00</time>
      </trkpt>
      <trkpt lat="43.75194" lon="1.43147">
        <ele>126.299805</ele>
        <time>2024-07-13T17:15:46+02:00</time>
      </trkpt>
      <trkpt lat="43.75179" lon="1.4314">
        <ele>126.5</ele>
        <time>2024-07-13T17:15:50+02:00</time>
      </trkpt>
      <trkpt lat="43.75175" lon="1.43138">
        <ele>126.600586</ele>
        <time>2024-07-13T17:15:51+02:00</time>
      </trkpt>
      <trkpt lat="43.75161" lon="1.43133">
        <ele>126.700195</ele>
        <time>2024-07-13T17:15:55+02:00</time>
      </trkpt>
      <trkpt lat="43.75158" lon="1.43132">
        <ele>126.700195</ele>
        <time>2024-07-13T17:15:56+02:00</time>
      </trkpt>
      <trkpt lat="43.75145" lon="1.43124">
        <ele>126.799805</ele>
        <time>2024-07-13T17:16:00+02:00</time>
      </trkpt>
      <trkpt lat="43.75142" lon="1.43122">
        <ele>126.700195</ele>
        <time>2024-07-13T17:16:01+02:00</time>
      </trkpt>
      <trkpt lat="43.75126" lon="1.43114">
        <ele>127</ele>
        <time>2024-07-13T17:16:05+02:00</time>
      </trkpt>
      <trkpt lat="43.75122" lon="1.43113">
        <ele>126.799805</ele>
        <time>2024-07-13T17:16:06+02:00</time>
      </trkpt>
      <trkpt lat="43.75108" lon="1.43107">
        <ele>127</ele>
        <time>2024-07-13T17:16:10+02:00</time>
      </trkpt>
      <trkpt lat="43.75105" lon="1.43105">
        <ele>126.90039</ele>
        <time>2024-07-13T17:16:11+02:00</time>
      </trkpt>
      <trkpt lat="43.75094" lon="1.43094">
        <ele>126.90039</ele>
        <time>2024-07-13T17:16:15+02:00</time>
      </trkpt>
      <trkpt lat="43.75092" lon="1.4309">
        <ele>126.90039</ele>
        <time>2024-07-13T17:16:16+02:00</time>
      </trkpt>
      <trkpt lat="43.75077" lon="1.43072">
        <ele>126.799805</ele>
        <time>2024-07-13T17:16:21+02:00</time>
      </trkpt>
      <trkpt lat="43.75074" lon="1.43067">
        <ele>126.700195</ele>
        <time>2024-07-13T17:16:22+02:00</time>
      </trkpt>
      <trkpt lat="43.75061" lon="1.43048">
        <ele>126.700195</ele>
        <time>2024-07-13T17:16:26+02:00</time>
      </trkpt>
      <trkpt lat="43.75057" lon="1.43043">
        <ele>126.700195</ele>
        <time>2024-07-13T17:16:27+02:00</time>
      </trkpt>
      <trkpt lat="43.75042" lon="1.43024">
        <ele>126.90039</ele>
        <time>2024-07-13T17:16:31+02:00</time>
      </trkpt>
      <trkpt lat="43.75038" lon="1.4302">
        <ele>127.200195</ele>
        <time>2024-07-13T17:16:32+02:00</time>
      </trkpt>
      <trkpt lat="43.75025" lon="1.43012">
        <ele>127.700195</ele>
        <time>2024-07-13T17:16:36+02:00</time>
      </trkpt>
      <trkpt lat="43.75021" lon="1.4301">
        <ele>127.700195</ele>
        <time>2024-07-13T17:16:37+02:00</time>
      </trkpt>
      <trkpt lat="43.75005" lon="1.43001">
        <ele>128.40039</ele>
        <time>2024-07-13T17:16:41+02:00</time>
      </trkpt>
      <trkpt lat="43.75001" lon="1.43">
        <ele>128.60059</ele>
        <time>2024-07-13T17:16:42+02:00</time>
      </trkpt>
      <trkpt lat="43.74985" lon="1.42992">
        <ele>128.7998</ele>
        <time>2024-07-13T17:16:46+02:00</time>
      </trkpt>
      <trkpt lat="43.74981" lon="1.4299">
        <ele>128.7998</ele>
        <time>2024-07-13T17:16:47+02:00</time>
      </trkpt>
      <trkpt lat="43.74968" lon="1.42979">
        <ele>128.7998</ele>
        <time>2024-07-13T17:16:51+02:00</time>
      </trkpt>
      <trkpt lat="43.74963" lon="1.42977">
        <ele>128.7998</ele>
        <time>2024-07-13T17:16:52+02:00</time>
      </trkpt>
      <trkpt lat="43.74953" lon="1.42956">
        <ele>128.7002</ele>
        <time>2024-07-13T17:16:56+02:00</time>
      </trkpt>
      <trkpt lat="43.74952" lon="1.4295">
        <ele>128.7002</ele>
        <time>2024-07-13T17:16:57+02:00</time>
      </trkpt>
      <trkpt lat="43.74949" lon="1.42925">
        <ele>128.7002</ele>
        <time>2024-07-13T17:17:01+02:00</time>
      </trkpt>
      <trkpt lat="43.74948" lon="1.42919">
        <ele>128.7002</ele>
        <time>2024-07-13T17:17:02+02:00</time>
      </trkpt>
      <trkpt lat="43.74947" lon="1.42897">
        <ele>128.7002</ele>
        <time>2024-07-13T17:17:06+02:00</time>
      </trkpt>
      <trkpt lat="43.74947" lon="1.42892">
        <ele>128.7002</ele>
        <time>2024-07-13T17:17:07+02:00</time>
      </trkpt>
      <trkpt lat="43.74947" lon="1.42873">
        <ele>128.7002</ele>
        <time>2024-07-13T17:17:11+02:00</time>
      </trkpt>
      <trkpt lat="43.74946" lon="1.42869">
        <ele>128.7002</ele>
        <time>2024-07-13T17:17:12+02:00</time>
      </trkpt>
      <trkpt lat="43.74935" lon="1.42861">
        <ele>128.90039</ele>
        <time>2024-07-13T17:17:16+02:00</time>
      </trkpt>
      <trkpt lat="43.74931" lon="1.42861">
        <ele>129</ele>
        <time>2024-07-13T17:17:17+02:00</time>
      </trkpt>
      <trkpt lat="43.74914" lon="1.42863">
        <ele>129.2002</ele>
        <time>2024-07-13T17:17:21+02:00</time>
      </trkpt>
      <trkpt lat="43.7491" lon="1.42864">
        <ele>129.2002</ele>
        <time>2024-07-13T17:17:22+02:00</time>
      </trkpt>
      <trkpt lat="43.74892" lon="1.42867">
        <ele>129.5</ele>
        <time>2024-07-13T17:17:26+02:00</time>
      </trkpt>
      <trkpt lat="43.74887" lon="1.42868">
        <ele>129.60059</ele>
        <time>2024-07-13T17:17:27+02:00</time>
      </trkpt>
      <trkpt lat="43.74867" lon="1.42871">
        <ele>129.90039</ele>
        <time>2024-07-13T17:17:31+02:00</time>
      </trkpt>
      <trkpt lat="43.74862" lon="1.42872">
        <ele>130</ele>
        <time>2024-07-13T17:17:32+02:00</time>
      </trkpt>
      <trkpt lat="43.74843" lon="1.42875">
        <ele>130.40039</ele>
        <time>2024-07-13T17:17:36+02:00</time>
      </trkpt>
      <trkpt lat="43.74838" lon="1.42875">
        <ele>130.5</ele>
        <time>2024-07-13T17:17:37+02:00</time>
      </trkpt>
      <trkpt lat="43.7482" lon="1.42873">
        <ele>130.7002</ele>
        <time>2024-07-13T17:17:41+02:00</time>
      </trkpt>
      <trkpt lat="43.74815" lon="1.42872">
        <ele>130.7998</ele>
        <time>2024-07-13T17:17:42+02:00</time>
      </trkpt>
      <trkpt lat="43.74795" lon="1.42868">
        <ele>131</ele>
        <time>2024-07-13T17:17:46+02:00</time>
      </trkpt>
      <trkpt lat="43.7479" lon="1.42866">
        <ele>131.10059</ele>
        <time>2024-07-13T17:17:47+02:00</time>
      </trkpt>
      <trkpt lat="43.7477" lon="1.42857">
        <ele>131.2998</ele>
        <time>2024-07-13T17:17:51+02:00</time>
      </trkpt>
      <trkpt lat="43.74766" lon="1.42855">
        <ele>131.2998</ele>
        <time>2024-07-13T17:17:52+02:00</time>
      </trkpt>
      <trkpt lat="43.74747" lon="1.42843">
        <ele>131.5</ele>
        <time>2024-07-13T17:17:56+02:00</time>
      </trkpt>
      <trkpt lat="43.74742" lon="1.4284">
        <ele>131.5</ele>
        <time>2024-07-13T17:17:57+02:00</time>
      </trkpt>
      <trkpt lat="43.74724" lon="1.42829">
        <ele>131.7998</ele>
        <time>2024-07-13T17:18:01+02:00</time>
      </trkpt>
      <trkpt lat="43.74719" lon="1.42826">
        <ele>132</ele>
        <time>2024-07-13T17:18:02+02:00</time>
      </trkpt>
      <trkpt lat="43.74701" lon="1.42814">
        <ele>132.5</ele>
        <time>2024-07-13T17:18:06+02:00</time>
      </trkpt>
      <trkpt lat="43.74697" lon="1.42811">
        <ele>132.7998</ele>
        <time>2024-07-13T17:18:07+02:00</time>
      </trkpt>
      <trkpt lat="43.74678" lon="1.42799">
        <ele>133.2998</ele>
        <time>2024-07-13T17:18:11+02:00</time>
      </trkpt>
      <trkpt lat="43.74674" lon="1.42796">
        <ele>133.40039</ele>
        <time>2024-07-13T17:18:12+02:00</time>
      </trkpt>
      <trkpt lat="43.74654" lon="1.42783">
        <ele>134.10059</ele>
        <time>2024-07-13T17:18:16+02:00</time>
      </trkpt>
      <trkpt lat="43.74649" lon="1.4278">
        <ele>134.10059</ele>
        <time>2024-07-13T17:18:17+02:00</time>
      </trkpt>
      <trkpt lat="43.7463" lon="1.42769">
        <ele>134.7002</ele>
        <time>2024-07-13T17:18:21+02:00</time>
      </trkpt>
      <trkpt lat="43.74625" lon="1.42766">
        <ele>134.90039</ele>
        <time>2024-07-13T17:18:22+02:00</time>
      </trkpt>
      <trkpt lat="43.74607" lon="1.42755">
        <ele>135.2998</ele>
        <time>2024-07-13T17:18:26+02:00</time>
      </trkpt>
      <trkpt lat="43.74603" lon="1.42752">
        <ele>135.5</ele>
        <time>2024-07-13T17:18:27+02:00</time>
      </trkpt>
      <trkpt lat="43.74585" lon="1.42743">
        <ele>135.90039</ele>
        <time>2024-07-13T17:18:31+02:00</time>
      </trkpt>
      <trkpt lat="43.74581" lon="1.42741">
        <ele>135.90039</ele>
        <time>2024-07-13T17:18:32+02:00</time>
      </trkpt>
      <trkpt lat="43.74565" lon="1.42728">
        <ele>136.10059</ele>
        <time>2024-07-13T17:18:36+02:00</time>
      </trkpt>
      <trkpt lat="43.74564" lon="1.42722">
        <ele>136.2002</ele>
        <time>2024-07-13T17:18:37+02:00</time>
      </trkpt>
      <trkpt lat="43.74568" lon="1.42697">
        <ele>136.2002</ele>
        <time>2024-07-13T17:18:41+02:00</time>
      </trkpt>
      <trkpt lat="43.74569" lon="1.42692">
        <ele>136.2002</ele>
        <time>2024-07-13T17:18:42+02:00</time>
      </trkpt>
      <trkpt lat="43.7457" lon="1.42668">
        <ele>136.2002</ele>
        <time>2024-07-13T17:18:46+02:00</time>
      </trkpt>
      <trkpt lat="43.7457" lon="1.42662">
        <ele>136.10059</ele>
        <time>2024-07-13T17:18:47+02:00</time>
      </trkpt>
      <trkpt lat="43.74572" lon="1.42637">
        <ele>136</ele>
        <time>2024-07-13T17:18:51+02:00</time>
      </trkpt>
      <trkpt lat="43.74572" lon="1.42631">
        <ele>135.90039</ele>
        <time>2024-07-13T17:18:52+02:00</time>
      </trkpt>
      <trkpt lat="43.74574" lon="1.42604">
        <ele>135.7002</ele>
        <time>2024-07-13T17:18:56+02:00</time>
      </trkpt>
      <trkpt lat="43.74574" lon="1.42598">
        <ele>135.60059</ele>
        <time>2024-07-13T17:18:57+02:00</time>
      </trkpt>
      <trkpt lat="43.74576" lon="1.42571">
        <ele>135.5</ele>
        <time>2024-07-13T17:19:01+02:00</time>
      </trkpt>
      <trkpt lat="43.74576" lon="1.42565">
        <ele>135.60059</ele>
        <time>2024-07-13T17:19:02+02:00</time>
      </trkpt>
      <trkpt lat="43.74578" lon="1.4254">
        <ele>135.7998</ele>
        <time>2024-07-13T17:19:06+02:00</time>
      </trkpt>
      <trkpt lat="43.74579" lon="1.42533">
        <ele>135.90039</ele>
        <time>2024-07-13T17:19:07+02:00</time>
      </trkpt>
      <trkpt lat="43.74582" lon="1.42511">
        <ele>136.40039</ele>
        <time>2024-07-13T17:19:11+02:00</time>
      </trkpt>
      <trkpt lat="43.74582" lon="1.42505">
        <ele>136.40039</ele>
        <time>2024-07-13T17:19:12+02:00</time>
      </trkpt>
      <trkpt lat="43.74586" lon="1.42482">
        <ele>137.10059</ele>
        <time>2024-07-13T17:19:16+02:00</time>
      </trkpt>
      <trkpt lat="43.74587" lon="1.42477">
        <ele>137.40039</ele>
        <time>2024-07-13T17:19:17+02:00</time>
      </trkpt>
      <trkpt lat="43.7459" lon="1.42454">
        <ele>138</ele>
        <time>2024-07-13T17:19:21+02:00</time>
      </trkpt>
      <trkpt lat="43.74591" lon="1.42448">
        <ele>138.2002</ele>
        <time>2024-07-13T17:19:22+02:00</time>
      </trkpt>
      <trkpt lat="43.74593" lon="1.42427">
        <ele>138.7998</ele>
        <time>2024-07-13T17:19:26+02:00</time>
      </trkpt>
      <trkpt lat="43.74593" lon="1.42422">
        <ele>138.7998</ele>
        <time>2024-07-13T17:19:27+02:00</time>
      </trkpt>
      <trkpt lat="43.74587" lon="1.42403">
        <ele>139.10059</ele>
        <time>2024-07-13T17:19:31+02:00</time>
      </trkpt>
      <trkpt lat="43.74584" lon="1.42399">
        <ele>139.10059</ele>
        <time>2024-07-13T17:19:32+02:00</time>
      </trkpt>
      <trkpt lat="43.74572" lon="1.42383">
        <ele>139.2998</ele>
        <time>2024-07-13T17:19:36+02:00</time>
      </trkpt>
      <trkpt lat="43.7457" lon="1.42378">
        <ele>139.2998</ele>
        <time>2024-07-13T17:19:37+02:00</time>
      </trkpt>
      <trkpt lat="43.7457" lon="1.42354">
        <ele>139.2998</ele>
        <time>2024-07-13T17:19:41+02:00</time>
      </trkpt>
      <trkpt lat="43.74572" lon="1.42348">
        <ele>139.2998</ele>
        <time>2024-07-13T17:19:42+02:00</time>
      </trkpt>
      <trkpt lat="43.74577" lon="1.42324">
        <ele>139.10059</ele>
        <time>2024-07-13T17:19:46+02:00</time>
      </trkpt>
      <trkpt lat="43.74576" lon="1.42318">
        <ele>139.10059</ele>
        <time>2024-07-13T17:19:47+02:00</time>
      </trkpt>
      <trkpt lat="43.74566" lon="1.42297">
        <ele>139</ele>
        <time>2024-07-13T17:19:51+02:00</time>
      </trkpt>
      <trkpt lat="43.74564" lon="1.42291">
        <ele>139</ele>
        <time>2024-07-13T17:19:52+02:00</time>
      </trkpt>
      <trkpt lat="43.74564" lon="1.42267">
        <ele>138.7002</ele>
        <time>2024-07-13T17:19:56+02:00</time>
      </trkpt>
      <trkpt lat="43.74567" lon="1.42261">
        <ele>138.60059</ele>
        <time>2024-07-13T17:19:57+02:00</time>
      </trkpt>
      <trkpt lat="43.74575" lon="1.42237">
        <ele>138.2998</ele>
        <time>2024-07-13T17:20:01+02:00</time>
      </trkpt>
      <trkpt lat="43.74578" lon="1.42231">
        <ele>138.2998</ele>
        <time>2024-07-13T17:20:02+02:00</time>
      </trkpt>
      <trkpt lat="43.74587" lon="1.42208">
        <ele>138</ele>
        <time>2024-07-13T17:20:06+02:00</time>
      </trkpt>
      <trkpt lat="43.7459" lon="1.42202">
        <ele>138.10059</ele>
        <time>2024-07-13T17:20:07+02:00</time>
      </trkpt>
      <trkpt lat="43.74591" lon="1.4218">
        <ele>138.2002</ele>
        <time>2024-07-13T17:20:11+02:00</time>
      </trkpt>
      <trkpt lat="43.7459" lon="1.42174">
        <ele>138.2002</ele>
        <time>2024-07-13T17:20:12+02:00</time>
      </trkpt>
      <trkpt lat="43.74583" lon="1.42149">
        <ele>138.5</ele>
        <time>2024-07-13T17:20:16+02:00</time>
      </trkpt>
      <trkpt lat="43.74582" lon="1.42143">
        <ele>138.5</ele>
        <time>2024-07-13T17:20:17+02:00</time>
      </trkpt>
      <trkpt lat="43.74577" lon="1.42121">
        <ele>138.7002</ele>
        <time>2024-07-13T17:20:21+02:00</time>
      </trkpt>
      <trkpt lat="43.74575" lon="1.42115">
        <ele>138.7002</ele>
        <time>2024-07-13T17:20:22+02:00</time>
      </trkpt>
      <trkpt lat="43.7457" lon="1.42095">
        <ele>138.7998</ele>
        <time>2024-07-13T17:20:26+02:00</time>
      </trkpt>
      <trkpt lat="43.74566" lon="1.42093">
        <ele>139.10059</ele>
        <time>2024-07-13T17:20:27+02:00</time>
      </trkpt>
      <trkpt lat="43.7455" lon="1.42088">
        <ele>139.90039</ele>
        <time>2024-07-13T17:20:31+02:00</time>
      </trkpt>
      <trkpt lat="43.74547" lon="1.42087">
        <ele>140.5</ele>
        <time>2024-07-13T17:20:32+02:00</time>
      </trkpt>
      <trkpt lat="43.74546" lon="1.4208">
        <ele>140.40039</ele>
        <time>2024-07-13T17:22:01+02:00</time>
      </trkpt>
      <trkpt lat="43.74548" lon="1.42081">
        <ele>140.40039</ele>
        <time>2024-07-13T17:22:06+02:00</time>
      </trkpt>
      <trkpt lat="43.74548" lon="1.42081">
        <ele>140.40039</ele>
        <time>2024-07-13T17:22:07+02:00</time>
      </trkpt>
      <trkpt lat="43.74548" lon="1.4208">
        <ele>140.40039</ele>
        <time>2024-07-13T17:22:11+02:00</time>
      </trkpt>
      <trkpt lat="43.74504" lon="1.42048">
        <ele>140.7</ele>
      </trkpt>
      <trkpt lat="43.74477" lon="1.42024">
        <ele>141</ele>
      </trkpt>
      <trkpt lat="43.74441" lon="1.42009">
        <ele>142.1</ele>
      </trkpt>
      <trkpt lat="43.74416" lon="1.42003">
        <ele>143</ele>
      </trkpt>
      <trkpt lat="43.74387" lon="1.42002">
        <ele>143.2</ele>
      </trkpt>
      <trkpt lat="43.7435" lon="1.42021">
        <ele>145.7</ele>
      </trkpt>
      <trkpt lat="43.7433" lon="1.42019">
        <ele>146.9</ele>
      </trkpt>
      <trkpt lat="43.74286" lon="1.41992">
        <ele>149.3</ele>
      </trkpt>
      <trkpt lat="43.74246" lon="1.41998">
        <ele>153.4</ele>
      </trkpt>
      <trkpt lat="43.74231" lon="1.41989">
        <ele>154.8</ele>
      </trkpt>
      <trkpt lat="43.74196" lon="1.41979">
        <ele>157.8</ele>
      </trkpt>
      <trkpt lat="43.74172" lon="1.42008">
        <ele>160.7</ele>
      </trkpt>
      <trkpt lat="43.74101" lon="1.42027">
        <ele>166.7</ele>
      </trkpt>
      <trkpt lat="43.74076" lon="1.42052">
        <ele>168.2</ele>
      </trkpt>
      <trkpt lat="43.7404" lon="1.42064">
        <ele>169</ele>
      </trkpt>
      <trkpt lat="43.73991" lon="1.42079">
        <ele>169.9</ele>
      </trkpt>
      <trkpt lat="43.73965" lon="1.42092">
        <ele>170.3</ele>
      </trkpt>
      <trkpt lat="43.73945" lon="1.42109">
        <ele>171</ele>
      </trkpt>
      <trkpt lat="43.73957" lon="1.42128">
        <ele>170.5</ele>
      </trkpt>
      <trkpt lat="43.73962" lon="1.42148">
        <ele>170.2</ele>
      </trkpt>
      <trkpt lat="43.73959" lon="1.42157">
        <ele>170.2</ele>
      </trkpt>
      <trkpt lat="43.7395" lon="1.42169">
        <ele>170</ele>
      </trkpt>
      <trkpt lat="43.73949" lon="1.4218">
        <ele>169.9</ele>
      </trkpt>
      <trkpt lat="43.73942" lon="1.42192">
        <ele>170</ele>
      </trkpt>
      <trkpt lat="43.73942" lon="1.42212">
        <ele>169.4</ele>
      </trkpt>
      <trkpt lat="43.73939" lon="1.4222">
        <ele>169.3</ele>
      </trkpt>
      <trkpt lat="43.73916" lon="1.4225">
        <ele>170</ele>
      </trkpt>
      <trkpt lat="43.73907" lon="1.42256">
        <ele>170.2</ele>
      </trkpt>
      <trkpt lat="43.73896" lon="1.42253">
        <ele>170.7</ele>
      </trkpt>
      <trkpt lat="43.7387" lon="1.4229">
        <ele>170.9</ele>
      </trkpt>
      <trkpt lat="43.73861" lon="1.4229">
        <ele>171</ele>
      </trkpt>
      <trkpt lat="43.73857" lon="1.42294">
        <ele>171.3</ele>
      </trkpt>
      <trkpt lat="43.73857" lon="1.42304">
        <ele>171.3</ele>
      </trkpt>
      <trkpt lat="43.73851" lon="1.42325">
        <ele>171.5</ele>
      </trkpt>
      <trkpt lat="43.7383" lon="1.42359">
        <ele>172.1</ele>
      </trkpt>
      <trkpt lat="43.73828" lon="1.4237">
        <ele>171.6</ele>
      </trkpt>
      <trkpt lat="43.73824" lon="1.42373">
        <ele>171.7</ele>
      </trkpt>
      <trkpt lat="43.73815" lon="1.42365">
        <ele>172.5</ele>
      </trkpt>
      <trkpt lat="43.73805" lon="1.42366">
        <ele>172.8</ele>
      </trkpt>
      <trkpt lat="43.73791" lon="1.42382">
        <ele>172.7</ele>
      </trkpt>
      <trkpt lat="43.7379" lon="1.4239">
        <ele>172.5</ele>
      </trkpt>
      <trkpt lat="43.73799" lon="1.42405">
        <ele>171.1</ele>
      </trkpt>
      <trkpt lat="43.73814" lon="1.4242">
        <ele>169.2</ele>
      </trkpt>
      <trkpt lat="43.73812" lon="1.42437">
        <ele>168.7</ele>
      </trkpt>
      <trkpt lat="43.73812" lon="1.42443">
        <ele>168.4</ele>
      </trkpt>
      <trkpt lat="43.73809" lon="1.42445">
        <ele>168.6</ele>
      </trkpt>
      <trkpt lat="43.73803" lon="1.42445">
        <ele>169.1</ele>
      </trkpt>
      <trkpt lat="43.73787" lon="1.42431">
        <ele>170.2</ele>
      </trkpt>
      <trkpt lat="43.73775" lon="1.42422">
        <ele>170.9</ele>
      </trkpt>
      <trkpt lat="43.73766" lon="1.42412">
        <ele>171.7</ele>
      </trkpt>
      <trkpt lat="43.73753" lon="1.42388">
        <ele>173</ele>
      </trkpt>
      <trkpt lat="43.73736" lon="1.42392">
        <ele>173.4</ele>
      </trkpt>
      <trkpt lat="43.73705" lon="1.424">
        <ele>173.9</ele>
      </trkpt>
      <trkpt lat="43.73686" lon="1.42412">
        <ele>174</ele>
      </trkpt>
      <trkpt lat="43.7367" lon="1.42427">
        <ele>174</ele>
      </trkpt>
      <trkpt lat="43.73661" lon="1.42447">
        <ele>173.9</ele>
      </trkpt>
      <trkpt lat="43.7364" lon="1.4246">
        <ele>174</ele>
      </trkpt>
      <trkpt lat="43.73637" lon="1.42447">
        <ele>173.9</ele>
      </trkpt>
      <trkpt lat="43.73611" lon="1.42409">
        <ele>173</ele>
      </trkpt>
      <trkpt lat="43.73606" lon="1.42382">
        <ele>172.4</ele>
      </trkpt>
      <trkpt lat="43.73626" lon="1.42344">
        <ele>174.1</ele>
      </trkpt>
      <trkpt lat="43.73652" lon="1.42307">
        <ele>176</ele>
      </trkpt>
      <trkpt lat="43.73653" lon="1.42297">
        <ele>175.9</ele>
      </trkpt>
      <trkpt lat="43.73639" lon="1.42265">
        <ele>174.5</ele>
      </trkpt>
      <trkpt lat="43.73642" lon="1.42249">
        <ele>174.2</ele>
      </trkpt>
      <trkpt lat="43.73719" lon="1.42156">
        <ele>173.7</ele>
      </trkpt>
      <trkpt lat="43.73733" lon="1.42153">
        <ele>173.3</ele>
      </trkpt>
      <trkpt lat="43.73747" lon="1.42157">
        <ele>173.3</ele>
      </trkpt>
      <trkpt lat="43.73772" lon="1.42179">
        <ele>173.6</ele>
      </trkpt>
      <trkpt lat="43.7379" lon="1.42177">
        <ele>173.6</ele>
      </trkpt>
      <trkpt lat="43.73826" lon="1.42167">
        <ele>173.3</ele>
      </trkpt>
      <trkpt lat="43.73869" lon="1.42144">
        <ele>171.1</ele>
      </trkpt>
      <trkpt lat="43.73899" lon="1.42123">
        <ele>171</ele>
      </trkpt>
      <trkpt lat="43.73922" lon="1.42111">
        <ele>171</ele>
      </trkpt>
      <trkpt lat="43.73942" lon="1.42109">
        <ele>171</ele>
      </trkpt>
      <trkpt lat="43.73965" lon="1.42091">
        <ele>170.3</ele>
      </trkpt>
      <trkpt lat="43.73991" lon="1.42078">
        <ele>169.9</ele>
      </trkpt>
      <trkpt lat="43.74016" lon="1.4207">
        <ele>169.2</ele>
      </trkpt>
      <trkpt lat="43.74076" lon="1.42051">
        <ele>168.2</ele>
      </trkpt>
      <trkpt lat="43.74087" lon="1.42039">
        <ele>167.8</ele>
      </trkpt>
      <trkpt lat="43.741" lon="1.42026">
        <ele>166.7</ele>
      </trkpt>
      <trkpt lat="43.7417" lon="1.42006">
        <ele>160.8</ele>
      </trkpt>
      <trkpt lat="43.74196" lon="1.41976">
        <ele>157.8</ele>
      </trkpt>
      <trkpt lat="43.74231" lon="1.41984">
        <ele>154.6</ele>
      </trkpt>
      <trkpt lat="43.74246" lon="1.41995">
        <ele>153.4</ele>
      </trkpt>
      <trkpt lat="43.74286" lon="1.41989">
        <ele>149.3</ele>
      </trkpt>
      <trkpt lat="43.7433" lon="1.42017">
        <ele>146.9</ele>
      </trkpt>
      <trkpt lat="43.7435" lon="1.42019">
        <ele>145.7</ele>
      </trkpt>
      <trkpt lat="43.74386" lon="1.41998">
        <ele>143.2</ele>
      </trkpt>
      <trkpt lat="43.74417" lon="1.42001">
        <ele>143</ele>
      </trkpt>
      <trkpt lat="43.74445" lon="1.42008">
        <ele>142</ele>
      </trkpt>
      <trkpt lat="43.74478" lon="1.42021">
        <ele>140.9</ele>
      </trkpt>
      <trkpt lat="43.74505" lon="1.42046">
        <ele>140.6</ele>
      </trkpt>
      <trkpt lat="43.74546" lon="1.42076">
        <ele>139.1</ele>
      </trkpt>
      <trkpt lat="43.74552" lon="1.42059">
        <ele>138.3</ele>
      </trkpt>
      <trkpt lat="43.74563" lon="1.42033">
        <ele>136.4</ele>
      </trkpt>
      <trkpt lat="43.74566" lon="1.4202">
        <ele>135.6</ele>
      </trkpt>
      <trkpt lat="43.74565" lon="1.42004">
        <ele>134.8</ele>
      </trkpt>
      <trkpt lat="43.74556" lon="1.41989">
        <ele>134.6</ele>
      </trkpt>
      <trkpt lat="43.74557" lon="1.41969">
        <ele>134.1</ele>
      </trkpt>
      <trkpt lat="43.74554" lon="1.41953">
        <ele>134.7</ele>
      </trkpt>
      <trkpt lat="43.74219" lon="1.41759">
        <ele>153.2998</ele>
        <time>2024-07-13T17:26:08+02:00</time>
      </trkpt>
      <trkpt lat="43.74217" lon="1.41745">
        <ele>153.60059</ele>
        <time>2024-07-13T17:26:12+02:00</time>
      </trkpt>
      <trkpt lat="43.74217" lon="1.41742">
        <ele>153.60059</ele>
        <time>2024-07-13T17:26:13+02:00</time>
      </trkpt>
      <trkpt lat="43.74219" lon="1.41729">
        <ele>153.7998</ele>
        <time>2024-07-13T17:26:17+02:00</time>
      </trkpt>
      <trkpt lat="43.74219" lon="1.41725">
        <ele>153.7998</ele>
        <time>2024-07-13T17:26:18+02:00</time>
      </trkpt>
      <trkpt lat="43.7422" lon="1.41712">
        <ele>154</ele>
        <time>2024-07-13T17:26:22+02:00</time>
      </trkpt>
      <trkpt lat="43.74201" lon="1.4171">
        <ele>145.9</ele>
        <time>2024-07-13T17:26:23+02:00</time>
      </trkpt>
      <trkpt lat="43.74185" lon="1.41703">
        <ele>146.9</ele>
        <time>2024-07-13T17:26:27+02:00</time>
      </trkpt>
      <trkpt lat="43.74119" lon="1.4171">
        <ele>150.2</ele>
      </trkpt>
      <trkpt lat="43.7405" lon="1.41709">
        <ele>152.7</ele>
      </trkpt>
      <trkpt lat="43.74025" lon="1.41704">
        <ele>153.7</ele>
      </trkpt>
      <trkpt lat="43.73881" lon="1.41725">
        <ele>159.4</ele>
      </trkpt>
      <trkpt lat="43.7378" lon="1.41786">
        <ele>158</ele>
      </trkpt>
      <trkpt lat="43.73751" lon="1.41789">
        <ele>158.2</ele>
      </trkpt>
      <trkpt lat="43.73746" lon="1.41772">
        <ele>159.5</ele>
      </trkpt>
      <trkpt lat="43.73738" lon="1.41763">
        <ele>160</ele>
      </trkpt>
      <trkpt lat="43.73685" lon="1.41746">
        <ele>158.5</ele>
      </trkpt>
      <trkpt lat="43.73684" lon="1.41701">
        <ele>160.3</ele>
      </trkpt>
      <trkpt lat="43.73699" lon="1.41656">
        <ele>163</ele>
      </trkpt>
      <trkpt lat="43.73715" lon="1.41645">
        <ele>164.4</ele>
      </trkpt>
      <trkpt lat="43.73717" lon="1.41621">
        <ele>165.4</ele>
      </trkpt>
      <trkpt lat="43.73726" lon="1.41603">
        <ele>167</ele>
      </trkpt>
      <trkpt lat="43.73741" lon="1.41599">
        <ele>168.6</ele>
      </trkpt>
      <trkpt lat="43.73752" lon="1.41593">
        <ele>169.9</ele>
      </trkpt>
      <trkpt lat="43.73765" lon="1.41586">
        <ele>171.5</ele>
      </trkpt>
      <trkpt lat="43.73776" lon="1.41572">
        <ele>173.2</ele>
      </trkpt>
      <trkpt lat="43.73811" lon="1.41561">
        <ele>174.8</ele>
      </trkpt>
      <trkpt lat="43.7385" lon="1.41544">
        <ele>175.4</ele>
      </trkpt>
      <trkpt lat="43.73856" lon="1.41554">
        <ele>175.1</ele>
      </trkpt>
      <trkpt lat="43.73866" lon="1.41592">
        <ele>173.2</ele>
      </trkpt>
      <trkpt lat="43.73875" lon="1.41599">
        <ele>172.4</ele>
      </trkpt>
      <trkpt lat="43.73891" lon="1.41598">
        <ele>171.9</ele>
      </trkpt>
      <trkpt lat="43.73903" lon="1.4159">
        <ele>172</ele>
      </trkpt>
      <trkpt lat="43.73925" lon="1.4157">
        <ele>171.9</ele>
      </trkpt>
      <trkpt lat="43.73931" lon="1.41565">
        <ele>171.6</ele>
      </trkpt>
      <trkpt lat="43.7395" lon="1.41565">
        <ele>170.2</ele>
      </trkpt>
      <trkpt lat="43.74016" lon="1.41536">
        <ele>166.4</ele>
      </trkpt>
      <trkpt lat="43.74028" lon="1.41515">
        <ele>166.9</ele>
      </trkpt>
      <trkpt lat="43.74032" lon="1.4152">
        <ele>166.3</ele>
      </trkpt>
      <trkpt lat="43.74045" lon="1.4156">
        <ele>163.3</ele>
      </trkpt>
      <trkpt lat="43.74047" lon="1.41584">
        <ele>160.9</ele>
      </trkpt>
      <trkpt lat="43.7405" lon="1.416">
        <ele>159.8</ele>
      </trkpt>
      <trkpt lat="43.74053" lon="1.4162">
        <ele>158.6</ele>
      </trkpt>
      <trkpt lat="43.74063" lon="1.4163">
        <ele>157.1</ele>
      </trkpt>
      <trkpt lat="43.74081" lon="1.41646">
        <ele>154.7</ele>
      </trkpt>
      <trkpt lat="43.74084" lon="1.41646">
        <ele>154.4</ele>
      </trkpt>
      <trkpt lat="43.74093" lon="1.41639">
        <ele>154.3</ele>
      </trkpt>
      <trkpt lat="43.741" lon="1.41629">
        <ele>154.5</ele>
      </trkpt>
      <trkpt lat="43.74127" lon="1.41599">
        <ele>153.7</ele>
      </trkpt>
      <trkpt lat="43.74142" lon="1.41535">
        <ele>153.5</ele>
      </trkpt>
      <trkpt lat="43.7414" lon="1.4149">
        <ele>153.9</ele>
      </trkpt>
      <trkpt lat="43.74279" lon="1.41549">
        <ele>147</ele>
      </trkpt>
      <trkpt lat="43.74289" lon="1.41541">
        <ele>146.6</ele>
      </trkpt>
      <trkpt lat="43.74293" lon="1.41521">
        <ele>146.6</ele>
      </trkpt>
      <trkpt lat="43.74301" lon="1.41508">
        <ele>150.60059</ele>
        <time>2024-07-13T17:27:28+02:00</time>
      </trkpt>
      <trkpt lat="43.74315" lon="1.41517">
        <ele>149</ele>
        <time>2024-07-13T17:27:32+02:00</time>
      </trkpt>
      <trkpt lat="43.74319" lon="1.4152">
        <ele>148.7998</ele>
        <time>2024-07-13T17:27:33+02:00</time>
      </trkpt>
      <trkpt lat="43.74335" lon="1.4153">
        <ele>147.10059</ele>
        <time>2024-07-13T17:27:37+02:00</time>
      </trkpt>
      <trkpt lat="43.74339" lon="1.41532">
        <ele>146.7002</ele>
        <time>2024-07-13T17:27:38+02:00</time>
      </trkpt>
      <trkpt lat="43.74355" lon="1.41542">
        <ele>145.60059</ele>
        <time>2024-07-13T17:27:42+02:00</time>
      </trkpt>
      <trkpt lat="43.74359" lon="1.41545">
        <ele>145.10059</ele>
        <time>2024-07-13T17:27:43+02:00</time>
      </trkpt>
      <trkpt lat="43.74377" lon="1.41556">
        <ele>144.2002</ele>
        <time>2024-07-13T17:27:47+02:00</time>
      </trkpt>
      <trkpt lat="43.74381" lon="1.41559">
        <ele>144.2002</ele>
        <time>2024-07-13T17:27:48+02:00</time>
      </trkpt>
      <trkpt lat="43.744" lon="1.4157">
        <ele>143.60059</ele>
        <time>2024-07-13T17:27:52+02:00</time>
      </trkpt>
      <trkpt lat="43.74404" lon="1.41573">
        <ele>143.5</ele>
        <time>2024-07-13T17:27:53+02:00</time>
      </trkpt>
      <trkpt lat="43.74421" lon="1.41584">
        <ele>143.2998</ele>
        <time>2024-07-13T17:27:57+02:00</time>
      </trkpt>
      <trkpt lat="43.74425" lon="1.41587">
        <ele>143.2002</ele>
        <time>2024-07-13T17:27:58+02:00</time>
      </trkpt>
      <trkpt lat="43.74442" lon="1.41598">
        <ele>143.2002</ele>
        <time>2024-07-13T17:28:02+02:00</time>
      </trkpt>
      <trkpt lat="43.74446" lon="1.41599">
        <ele>143.2998</ele>
        <time>2024-07-13T17:28:03+02:00</time>
      </trkpt>
      <trkpt lat="43.74459" lon="1.41584">
        <ele>143.60059</ele>
        <time>2024-07-13T17:28:07+02:00</time>
      </trkpt>
      <trkpt lat="43.7446" lon="1.41579">
        <ele>143.60059</ele>
        <time>2024-07-13T17:28:08+02:00</time>
      </trkpt>
      <trkpt lat="43.74466" lon="1.41558">
        <ele>144</ele>
        <time>2024-07-13T17:28:12+02:00</time>
      </trkpt>
      <trkpt lat="43.74469" lon="1.41554">
        <ele>144.10059</ele>
        <time>2024-07-13T17:28:13+02:00</time>
      </trkpt>
      <trkpt lat="43.74486" lon="1.41552">
        <ele>144.2002</ele>
        <time>2024-07-13T17:28:17+02:00</time>
      </trkpt>
      <trkpt lat="43.74491" lon="1.41555">
        <ele>144.2002</ele>
        <time>2024-07-13T17:28:18+02:00</time>
      </trkpt>
      <trkpt lat="43.7451" lon="1.41564">
        <ele>143.5</ele>
        <time>2024-07-13T17:28:22+02:00</time>
      </trkpt>
      <trkpt lat="43.74515" lon="1.41566">
        <ele>143.2002</ele>
        <time>2024-07-13T17:28:23+02:00</time>
      </trkpt>
      <trkpt lat="43.74535" lon="1.41575">
        <ele>142.2002</ele>
        <time>2024-07-13T17:28:27+02:00</time>
      </trkpt>
      <trkpt lat="43.7454" lon="1.41577">
        <ele>141.90039</ele>
        <time>2024-07-13T17:28:28+02:00</time>
      </trkpt>
      <trkpt lat="43.74559" lon="1.41585">
        <ele>141.10059</ele>
        <time>2024-07-13T17:28:32+02:00</time>
      </trkpt>
      <trkpt lat="43.74562" lon="1.41582">
        <ele>140.90039</ele>
        <time>2024-07-13T17:28:33+02:00</time>
      </trkpt>
      <trkpt lat="43.74573" lon="1.41569">
        <ele>141.10059</ele>
        <time>2024-07-13T17:28:37+02:00</time>
      </trkpt>
      <trkpt lat="43.74576" lon="1.4157">
        <ele>140.7002</ele>
        <time>2024-07-13T17:28:38+02:00</time>
      </trkpt>
      <trkpt lat="43.74586" lon="1.41573">
        <ele>140.5</ele>
        <time>2024-07-13T17:28:42+02:00</time>
      </trkpt>
      <trkpt lat="43.74588" lon="1.4157">
        <ele>140.2998</ele>
        <time>2024-07-13T17:28:43+02:00</time>
      </trkpt>
      <trkpt lat="43.74596" lon="1.41554">
        <ele>140.60059</ele>
        <time>2024-07-13T17:28:47+02:00</time>
      </trkpt>
      <trkpt lat="43.74599" lon="1.4155">
        <ele>140.5</ele>
        <time>2024-07-13T17:28:48+02:00</time>
      </trkpt>
      <trkpt lat="43.74611" lon="1.4153">
        <ele>140.2998</ele>
        <time>2024-07-13T17:28:52+02:00</time>
      </trkpt>
      <trkpt lat="43.74613" lon="1.41525">
        <ele>140</ele>
        <time>2024-07-13T17:28:53+02:00</time>
      </trkpt>
      <trkpt lat="43.74623" lon="1.41506">
        <ele>139.5</ele>
        <time>2024-07-13T17:28:57+02:00</time>
      </trkpt>
      <trkpt lat="43.74625" lon="1.41501">
        <ele>139.2002</ele>
        <time>2024-07-13T17:28:58+02:00</time>
      </trkpt>
      <trkpt lat="43.74634" lon="1.41483">
        <ele>138.7002</ele>
        <time>2024-07-13T17:29:02+02:00</time>
      </trkpt>
      <trkpt lat="43.74637" lon="1.4148">
        <ele>138.40039</ele>
        <time>2024-07-13T17:29:03+02:00</time>
      </trkpt>
      <trkpt lat="43.74648" lon="1.41464">
        <ele>138</ele>
        <time>2024-07-13T17:29:07+02:00</time>
      </trkpt>
      <trkpt lat="43.74651" lon="1.41459">
        <ele>138</ele>
        <time>2024-07-13T17:29:08+02:00</time>
      </trkpt>
      <trkpt lat="43.74664" lon="1.41441">
        <ele>137.7998</ele>
        <time>2024-07-13T17:29:12+02:00</time>
      </trkpt>
      <trkpt lat="43.74667" lon="1.41436">
        <ele>137.7002</ele>
        <time>2024-07-13T17:29:13+02:00</time>
      </trkpt>
      <trkpt lat="43.74681" lon="1.41415">
        <ele>137.7002</ele>
        <time>2024-07-13T17:29:17+02:00</time>
      </trkpt>
      <trkpt lat="43.74684" lon="1.41409">
        <ele>137.7998</ele>
        <time>2024-07-13T17:29:18+02:00</time>
      </trkpt>
      <trkpt lat="43.74698" lon="1.4139">
        <ele>137.60059</ele>
        <time>2024-07-13T17:29:22+02:00</time>
      </trkpt>
      <trkpt lat="43.74702" lon="1.41385">
        <ele>137.7998</ele>
        <time>2024-07-13T17:29:23+02:00</time>
      </trkpt>
      <trkpt lat="43.74718" lon="1.41365">
        <ele>137.7998</ele>
        <time>2024-07-13T17:29:27+02:00</time>
      </trkpt>
      <trkpt lat="43.74722" lon="1.41361">
        <ele>137.90039</ele>
        <time>2024-07-13T17:29:28+02:00</time>
      </trkpt>
      <trkpt lat="43.74738" lon="1.41343">
        <ele>137.90039</ele>
        <time>2024-07-13T17:29:32+02:00</time>
      </trkpt>
      <trkpt lat="43.74741" lon="1.41338">
        <ele>137.7998</ele>
        <time>2024-07-13T17:29:33+02:00</time>
      </trkpt>
      <trkpt lat="43.74756" lon="1.41316">
        <ele>137.60059</ele>
        <time>2024-07-13T17:29:37+02:00</time>
      </trkpt>
      <trkpt lat="43.7476" lon="1.41311">
        <ele>137.40039</ele>
        <time>2024-07-13T17:29:38+02:00</time>
      </trkpt>
      <trkpt lat="43.74774" lon="1.41288">
        <ele>137</ele>
        <time>2024-07-13T17:29:42+02:00</time>
      </trkpt>
      <trkpt lat="43.74777" lon="1.41283">
        <ele>136.7998</ele>
        <time>2024-07-13T17:29:43+02:00</time>
      </trkpt>
      <trkpt lat="43.74793" lon="1.41262">
        <ele>136.5</ele>
        <time>2024-07-13T17:29:47+02:00</time>
      </trkpt>
      <trkpt lat="43.74797" lon="1.41257">
        <ele>136.40039</ele>
        <time>2024-07-13T17:29:48+02:00</time>
      </trkpt>
      <trkpt lat="43.74813" lon="1.41235">
        <ele>136.2998</ele>
        <time>2024-07-13T17:29:52+02:00</time>
      </trkpt>
      <trkpt lat="43.74817" lon="1.41228">
        <ele>136.2998</ele>
        <time>2024-07-13T17:29:53+02:00</time>
      </trkpt>
      <trkpt lat="43.74832" lon="1.41205">
        <ele>136.2998</ele>
        <time>2024-07-13T17:29:57+02:00</time>
      </trkpt>
      <trkpt lat="43.74836" lon="1.412">
        <ele>136.40039</ele>
        <time>2024-07-13T17:29:58+02:00</time>
      </trkpt>
      <trkpt lat="43.74852" lon="1.41177">
        <ele>136.5</ele>
        <time>2024-07-13T17:30:02+02:00</time>
      </trkpt>
      <trkpt lat="43.74856" lon="1.41171">
        <ele>136.5</ele>
        <time>2024-07-13T17:30:03+02:00</time>
      </trkpt>
      <trkpt lat="43.74871" lon="1.41147">
        <ele>136.5</ele>
        <time>2024-07-13T17:30:07+02:00</time>
      </trkpt>
      <trkpt lat="43.74874" lon="1.41142">
        <ele>136.60059</ele>
        <time>2024-07-13T17:30:08+02:00</time>
      </trkpt>
      <trkpt lat="43.74885" lon="1.41116">
        <ele>136.5</ele>
        <time>2024-07-13T17:30:12+02:00</time>
      </trkpt>
      <trkpt lat="43.74885" lon="1.41109">
        <ele>136.40039</ele>
        <time>2024-07-13T17:30:13+02:00</time>
      </trkpt>
      <trkpt lat="43.74879" lon="1.41079">
        <ele>136.10059</ele>
        <time>2024-07-13T17:30:17+02:00</time>
      </trkpt>
      <trkpt lat="43.74878" lon="1.41072">
        <ele>136.10059</ele>
        <time>2024-07-13T17:30:18+02:00</time>
      </trkpt>
      <trkpt lat="43.74874" lon="1.41044">
        <ele>135.7998</ele>
        <time>2024-07-13T17:30:22+02:00</time>
      </trkpt>
      <trkpt lat="43.74873" lon="1.41038">
        <ele>135.7998</ele>
        <time>2024-07-13T17:30:23+02:00</time>
      </trkpt>
      <trkpt lat="43.74869" lon="1.41013">
        <ele>135.7002</ele>
        <time>2024-07-13T17:30:27+02:00</time>
      </trkpt>
      <trkpt lat="43.74868" lon="1.41007">
        <ele>135.60059</ele>
        <time>2024-07-13T17:30:28+02:00</time>
      </trkpt>
      <trkpt lat="43.74864" lon="1.40982">
        <ele>135.90039</ele>
        <time>2024-07-13T17:30:32+02:00</time>
      </trkpt>
      <trkpt lat="43.74862" lon="1.40976">
        <ele>136</ele>
        <time>2024-07-13T17:30:33+02:00</time>
      </trkpt>
      <trkpt lat="43.74857" lon="1.4095">
        <ele>136.40039</ele>
        <time>2024-07-13T17:30:37+02:00</time>
      </trkpt>
      <trkpt lat="43.74856" lon="1.40944">
        <ele>136.40039</ele>
        <time>2024-07-13T17:30:38+02:00</time>
      </trkpt>
      <trkpt lat="43.7485" lon="1.40918">
        <ele>136.7998</ele>
        <time>2024-07-13T17:30:42+02:00</time>
      </trkpt>
      <trkpt lat="43.74849" lon="1.40912">
        <ele>136.90039</ele>
        <time>2024-07-13T17:30:43+02:00</time>
      </trkpt>
      <trkpt lat="43.74843" lon="1.40887">
        <ele>137.10059</ele>
        <time>2024-07-13T17:30:47+02:00</time>
      </trkpt>
      <trkpt lat="43.74842" lon="1.40884">
        <ele>137.10059</ele>
        <time>2024-07-13T17:30:48+02:00</time>
      </trkpt>
      <trkpt lat="43.74839" lon="1.40863">
        <ele>137.2002</ele>
        <time>2024-07-13T17:30:52+02:00</time>
      </trkpt>
      <trkpt lat="43.7484" lon="1.40858">
        <ele>137.2002</ele>
        <time>2024-07-13T17:30:53+02:00</time>
      </trkpt>
      <trkpt lat="43.74848" lon="1.40853">
        <ele>137.10059</ele>
        <time>2024-07-13T17:30:57+02:00</time>
      </trkpt>
      <trkpt lat="43.74852" lon="1.40851">
        <ele>137.10059</ele>
        <time>2024-07-13T17:30:58+02:00</time>
      </trkpt>
      <trkpt lat="43.74867" lon="1.40847">
        <ele>137.10059</ele>
        <time>2024-07-13T17:31:02+02:00</time>
      </trkpt>
      <trkpt lat="43.74872" lon="1.40846">
        <ele>137.10059</ele>
        <time>2024-07-13T17:31:03+02:00</time>
      </trkpt>
      <trkpt lat="43.74889" lon="1.40839">
        <ele>137</ele>
        <time>2024-07-13T17:31:07+02:00</time>
      </trkpt>
      <trkpt lat="43.74893" lon="1.40836">
        <ele>136.90039</ele>
        <time>2024-07-13T17:31:08+02:00</time>
      </trkpt>
      <trkpt lat="43.74897" lon="1.40813">
        <ele>136.7002</ele>
        <time>2024-07-13T17:31:12+02:00</time>
      </trkpt>
      <trkpt lat="43.74895" lon="1.40807">
        <ele>137</ele>
        <time>2024-07-13T17:31:13+02:00</time>
      </trkpt>
      <trkpt lat="43.7489" lon="1.40784">
        <ele>137.2002</ele>
        <time>2024-07-13T17:31:17+02:00</time>
      </trkpt>
      <trkpt lat="43.74889" lon="1.40779">
        <ele>137.10059</ele>
        <time>2024-07-13T17:31:18+02:00</time>
      </trkpt>
      <trkpt lat="43.74885" lon="1.40755">
        <ele>137</ele>
        <time>2024-07-13T17:31:22+02:00</time>
      </trkpt>
      <trkpt lat="43.74884" lon="1.4075">
        <ele>137.10059</ele>
        <time>2024-07-13T17:31:23+02:00</time>
      </trkpt>
      <trkpt lat="43.74885" lon="1.40729">
        <ele>136.60059</ele>
        <time>2024-07-13T17:31:27+02:00</time>
      </trkpt>
      <trkpt lat="43.74886" lon="1.40728">
        <ele>136.5</ele>
        <time>2024-07-13T17:31:28+02:00</time>
      </trkpt>
      <trkpt lat="43.74888" lon="1.40726">
        <ele>136.5</ele>
        <time>2024-07-13T17:31:32+02:00</time>
      </trkpt>
      <trkpt lat="43.7489" lon="1.40724">
        <ele>136.5</ele>
        <time>2024-07-13T17:31:33+02:00</time>
      </trkpt>
      <trkpt lat="43.74892" lon="1.40713">
        <ele>136</ele>
        <time>2024-07-13T17:31:37+02:00</time>
      </trkpt>
      <trkpt lat="43.74894" lon="1.40713">
        <ele>136</ele>
        <time>2024-07-13T17:31:38+02:00</time>
      </trkpt>
      <trkpt lat="43.74904" lon="1.40714">
        <ele>135.40039</ele>
        <time>2024-07-13T17:31:42+02:00</time>
      </trkpt>
      <trkpt lat="43.74907" lon="1.40713">
        <ele>135.40039</ele>
        <time>2024-07-13T17:31:43+02:00</time>
      </trkpt>
      <trkpt lat="43.74922" lon="1.40712">
        <ele>134.40039</ele>
        <time>2024-07-13T17:31:47+02:00</time>
      </trkpt>
      <trkpt lat="43.74926" lon="1.40711">
        <ele>134.40039</ele>
        <time>2024-07-13T17:31:48+02:00</time>
      </trkpt>
      <trkpt lat="43.74947" lon="1.40711">
        <ele>132.90039</ele>
        <time>2024-07-13T17:31:52+02:00</time>
      </trkpt>
      <trkpt lat="43.74953" lon="1.4071">
        <ele>132.40039</ele>
        <time>2024-07-13T17:31:53+02:00</time>
      </trkpt>
      <trkpt lat="43.74975" lon="1.40708">
        <ele>131.2998</ele>
        <time>2024-07-13T17:31:57+02:00</time>
      </trkpt>
      <trkpt lat="43.74981" lon="1.40708">
        <ele>130.7998</ele>
        <time>2024-07-13T17:31:58+02:00</time>
      </trkpt>
      <trkpt lat="43.75008" lon="1.40706">
        <ele>129</ele>
        <time>2024-07-13T17:32:02+02:00</time>
      </trkpt>
      <trkpt lat="43.75015" lon="1.40705">
        <ele>128.10059</ele>
        <time>2024-07-13T17:32:03+02:00</time>
      </trkpt>
      <trkpt lat="43.75044" lon="1.40702">
        <ele>126.700195</ele>
        <time>2024-07-13T17:32:07+02:00</time>
      </trkpt>
      <trkpt lat="43.75051" lon="1.40701">
        <ele>126.100586</ele>
        <time>2024-07-13T17:32:08+02:00</time>
      </trkpt>
      <trkpt lat="43.75067" lon="1.40698">
        <ele>125.40039</ele>
        <time>2024-07-13T17:32:12+02:00</time>
      </trkpt>
      <trkpt lat="43.75068" lon="1.40696">
        <ele>125.40039</ele>
        <time>2024-07-13T17:32:13+02:00</time>
      </trkpt>
      <trkpt lat="43.75063" lon="1.40678">
        <ele>125.40039</ele>
        <time>2024-07-13T17:32:17+02:00</time>
      </trkpt>
      <trkpt lat="43.75061" lon="1.40673">
        <ele>125.200195</ele>
        <time>2024-07-13T17:32:18+02:00</time>
      </trkpt>
      <trkpt lat="43.75047" lon="1.4065">
        <ele>125.700195</ele>
        <time>2024-07-13T17:32:22+02:00</time>
      </trkpt>
      <trkpt lat="43.75043" lon="1.40645">
        <ele>126.299805</ele>
        <time>2024-07-13T17:32:23+02:00</time>
      </trkpt>
      <trkpt lat="43.75026" lon="1.40623">
        <ele>127.799805</ele>
        <time>2024-07-13T17:32:27+02:00</time>
      </trkpt>
      <trkpt lat="43.75022" lon="1.40617">
        <ele>127.799805</ele>
        <time>2024-07-13T17:32:28+02:00</time>
      </trkpt>
      <trkpt lat="43.75007" lon="1.40594">
        <ele>129.2998</ele>
        <time>2024-07-13T17:32:32+02:00</time>
      </trkpt>
      <trkpt lat="43.75003" lon="1.40588">
        <ele>129.2002</ele>
        <time>2024-07-13T17:32:33+02:00</time>
      </trkpt>
      <trkpt lat="43.7499" lon="1.40566">
        <ele>130</ele>
        <time>2024-07-13T17:32:37+02:00</time>
      </trkpt>
      <trkpt lat="43.74986" lon="1.40561">
        <ele>130.2002</ele>
        <time>2024-07-13T17:32:38+02:00</time>
      </trkpt>
      <trkpt lat="43.74969" lon="1.40541">
        <ele>131.10059</ele>
        <time>2024-07-13T17:32:42+02:00</time>
      </trkpt>
      <trkpt lat="43.74965" lon="1.40536">
        <ele>131.2998</ele>
        <time>2024-07-13T17:32:43+02:00</time>
      </trkpt>
      <trkpt lat="43.74949" lon="1.40517">
        <ele>132.60059</ele>
        <time>2024-07-13T17:32:47+02:00</time>
      </trkpt>
      <trkpt lat="43.74945" lon="1.40513">
        <ele>133.2002</ele>
        <time>2024-07-13T17:32:48+02:00</time>
      </trkpt>
      <trkpt lat="43.74926" lon="1.40506">
        <ele>133.5</ele>
        <time>2024-07-13T17:32:52+02:00</time>
      </trkpt>
      <trkpt lat="43.74921" lon="1.40509">
        <ele>133.5</ele>
        <time>2024-07-13T17:32:53+02:00</time>
      </trkpt>
      <trkpt lat="43.74902" lon="1.40517">
        <ele>133.5</ele>
        <time>2024-07-13T17:32:57+02:00</time>
      </trkpt>
      <trkpt lat="43.74897" lon="1.40518">
        <ele>133.5</ele>
        <time>2024-07-13T17:32:58+02:00</time>
      </trkpt>
      <trkpt lat="43.74877" lon="1.40526">
        <ele>133.7002</ele>
        <time>2024-07-13T17:33:02+02:00</time>
      </trkpt>
      <trkpt lat="43.74872" lon="1.40528">
        <ele>133.7002</ele>
        <time>2024-07-13T17:33:03+02:00</time>
      </trkpt>
      <trkpt lat="43.74852" lon="1.40533">
        <ele>134.2002</ele>
        <time>2024-07-13T17:33:07+02:00</time>
      </trkpt>
      <trkpt lat="43.74847" lon="1.40535">
        <ele>134.2002</ele>
        <time>2024-07-13T17:33:08+02:00</time>
      </trkpt>
      <trkpt lat="43.74831" lon="1.40541">
        <ele>134.60059</ele>
        <time>2024-07-13T17:33:12+02:00</time>
      </trkpt>
      <trkpt lat="43.74826" lon="1.40543">
        <ele>134.7002</ele>
        <time>2024-07-13T17:33:13+02:00</time>
      </trkpt>
      <trkpt lat="43.74806" lon="1.40551">
        <ele>135.10059</ele>
        <time>2024-07-13T17:33:17+02:00</time>
      </trkpt>
      <trkpt lat="43.74802" lon="1.40552">
        <ele>135.10059</ele>
        <time>2024-07-13T17:33:18+02:00</time>
      </trkpt>
      <trkpt lat="43.74785" lon="1.40541">
        <ele>135.2998</ele>
        <time>2024-07-13T17:33:22+02:00</time>
      </trkpt>
      <trkpt lat="43.7478" lon="1.40535">
        <ele>135.40039</ele>
        <time>2024-07-13T17:33:23+02:00</time>
      </trkpt>
      <trkpt lat="43.74764" lon="1.40522">
        <ele>135.7998</ele>
        <time>2024-07-13T17:33:27+02:00</time>
      </trkpt>
      <trkpt lat="43.7476" lon="1.40519">
        <ele>136</ele>
        <time>2024-07-13T17:33:28+02:00</time>
      </trkpt>
      <trkpt lat="43.74744" lon="1.40506">
        <ele>136.2002</ele>
        <time>2024-07-13T17:33:32+02:00</time>
      </trkpt>
      <trkpt lat="43.74741" lon="1.40504">
        <ele>136.40039</ele>
        <time>2024-07-13T17:33:33+02:00</time>
      </trkpt>
      <trkpt lat="43.74726" lon="1.40498">
        <ele>136.7002</ele>
        <time>2024-07-13T17:33:37+02:00</time>
      </trkpt>
      <trkpt lat="43.74722" lon="1.405">
        <ele>136.90039</ele>
        <time>2024-07-13T17:33:38+02:00</time>
      </trkpt>
      <trkpt lat="43.74705" lon="1.40501">
        <ele>137.2002</ele>
        <time>2024-07-13T17:33:42+02:00</time>
      </trkpt>
      <trkpt lat="43.74701" lon="1.40498">
        <ele>137.40039</ele>
        <time>2024-07-13T17:33:43+02:00</time>
      </trkpt>
      <trkpt lat="43.74689" lon="1.40493">
        <ele>138</ele>
        <time>2024-07-13T17:33:47+02:00</time>
      </trkpt>
      <trkpt lat="43.74686" lon="1.40494">
        <ele>138</ele>
        <time>2024-07-13T17:33:48+02:00</time>
      </trkpt>
      <trkpt lat="43.74672" lon="1.40491">
        <ele>139.10059</ele>
        <time>2024-07-13T17:33:52+02:00</time>
      </trkpt>
      <trkpt lat="43.74669" lon="1.4049">
        <ele>139.10059</ele>
        <time>2024-07-13T17:33:53+02:00</time>
      </trkpt>
      <trkpt lat="43.74656" lon="1.4048">
        <ele>140.2998</ele>
        <time>2024-07-13T17:33:57+02:00</time>
      </trkpt>
      <trkpt lat="43.74653" lon="1.40477">
        <ele>141</ele>
        <time>2024-07-13T17:33:58+02:00</time>
      </trkpt>
      <trkpt lat="43.74642" lon="1.40467">
        <ele>142.2002</ele>
        <time>2024-07-13T17:34:02+02:00</time>
      </trkpt>
      <trkpt lat="43.74639" lon="1.40465">
        <ele>142.2002</ele>
        <time>2024-07-13T17:34:03+02:00</time>
      </trkpt>
      <trkpt lat="43.74629" lon="1.4046">
        <ele>143.7998</ele>
        <time>2024-07-13T17:34:07+02:00</time>
      </trkpt>
      <trkpt lat="43.74627" lon="1.40458">
        <ele>143.7998</ele>
        <time>2024-07-13T17:34:08+02:00</time>
      </trkpt>
      <trkpt lat="43.7462" lon="1.40454">
        <ele>144.60059</ele>
        <time>2024-07-13T17:34:12+02:00</time>
      </trkpt>
      <trkpt lat="43.74617" lon="1.40453">
        <ele>145.5</ele>
        <time>2024-07-13T17:34:13+02:00</time>
      </trkpt>
      <trkpt lat="43.74609" lon="1.40446">
        <ele>146.2002</ele>
        <time>2024-07-13T17:34:17+02:00</time>
      </trkpt>
      <trkpt lat="43.74608" lon="1.40444">
        <ele>146.2002</ele>
        <time>2024-07-13T17:34:18+02:00</time>
      </trkpt>
      <trkpt lat="43.74601" lon="1.40438">
        <ele>146.7998</ele>
        <time>2024-07-13T17:34:22+02:00</time>
      </trkpt>
      <trkpt lat="43.74599" lon="1.40437">
        <ele>146.7998</ele>
        <time>2024-07-13T17:34:23+02:00</time>
      </trkpt>
      <trkpt lat="43.74591" lon="1.4043">
        <ele>147.90039</ele>
        <time>2024-07-13T17:34:27+02:00</time>
      </trkpt>
      <trkpt lat="43.74589" lon="1.40429">
        <ele>147.90039</ele>
        <time>2024-07-13T17:34:28+02:00</time>
      </trkpt>
      <trkpt lat="43.7458" lon="1.40436">
        <ele>148.40039</ele>
        <time>2024-07-13T17:34:32+02:00</time>
      </trkpt>
      <trkpt lat="43.74579" lon="1.40439">
        <ele>148.90039</ele>
        <time>2024-07-13T17:34:33+02:00</time>
      </trkpt>
      <trkpt lat="43.74571" lon="1.40438">
        <ele>149.2998</ele>
        <time>2024-07-13T17:34:37+02:00</time>
      </trkpt>
      <trkpt lat="43.74569" lon="1.40436">
        <ele>149.2998</ele>
        <time>2024-07-13T17:34:38+02:00</time>
      </trkpt>
      <trkpt lat="43.74564" lon="1.40446">
        <ele>149.7998</ele>
        <time>2024-07-13T17:34:42+02:00</time>
      </trkpt>
      <trkpt lat="43.74563" lon="1.40449">
        <ele>149.7998</ele>
        <time>2024-07-13T17:34:43+02:00</time>
      </trkpt>
      <trkpt lat="43.74554" lon="1.40456">
        <ele>150.40039</ele>
        <time>2024-07-13T17:34:47+02:00</time>
      </trkpt>
      <trkpt lat="43.74553" lon="1.40459">
        <ele>150.40039</ele>
        <time>2024-07-13T17:34:48+02:00</time>
      </trkpt>
      <trkpt lat="43.74554" lon="1.40474">
        <ele>150.7998</ele>
        <time>2024-07-13T17:34:52+02:00</time>
      </trkpt>
      <trkpt lat="43.74553" lon="1.40477">
        <ele>150.7998</ele>
        <time>2024-07-13T17:34:53+02:00</time>
      </trkpt>
      <trkpt lat="43.74551" lon="1.40492">
        <ele>151.2998</ele>
        <time>2024-07-13T17:34:57+02:00</time>
      </trkpt>
      <trkpt lat="43.7455" lon="1.40496">
        <ele>151.2998</ele>
        <time>2024-07-13T17:34:58+02:00</time>
      </trkpt>
      <trkpt lat="43.74543" lon="1.4051">
        <ele>152</ele>
        <time>2024-07-13T17:35:02+02:00</time>
      </trkpt>
      <trkpt lat="43.74541" lon="1.40512">
        <ele>152.2002</ele>
        <time>2024-07-13T17:35:03+02:00</time>
      </trkpt>
      <trkpt lat="43.74535" lon="1.40521">
        <ele>152.7998</ele>
        <time>2024-07-13T17:35:07+02:00</time>
      </trkpt>
      <trkpt lat="43.74534" lon="1.40524">
        <ele>153.2002</ele>
        <time>2024-07-13T17:35:08+02:00</time>
      </trkpt>
      <trkpt lat="43.74531" lon="1.40537">
        <ele>153.60059</ele>
        <time>2024-07-13T17:35:12+02:00</time>
      </trkpt>
      <trkpt lat="43.74529" lon="1.40542">
        <ele>154.10059</ele>
        <time>2024-07-13T17:35:13+02:00</time>
      </trkpt>
      <trkpt lat="43.74527" lon="1.40553">
        <ele>154.2998</ele>
        <time>2024-07-13T17:35:17+02:00</time>
      </trkpt>
      <trkpt lat="43.74527" lon="1.40555">
        <ele>154.2998</ele>
        <time>2024-07-13T17:35:18+02:00</time>
      </trkpt>
      <trkpt lat="43.74525" lon="1.40564">
        <ele>154.60059</ele>
        <time>2024-07-13T17:35:22+02:00</time>
      </trkpt>
      <trkpt lat="43.74524" lon="1.40566">
        <ele>154.90039</ele>
        <time>2024-07-13T17:35:23+02:00</time>
      </trkpt>
      <trkpt lat="43.74513" lon="1.40571">
        <ele>155</ele>
        <time>2024-07-13T17:35:27+02:00</time>
      </trkpt>
      <trkpt lat="43.7451" lon="1.40573">
        <ele>155.10059</ele>
        <time>2024-07-13T17:35:28+02:00</time>
      </trkpt>
      <trkpt lat="43.74498" lon="1.40575">
        <ele>155.5</ele>
        <time>2024-07-13T17:35:32+02:00</time>
      </trkpt>
      <trkpt lat="43.74495" lon="1.40575">
        <ele>155.5</ele>
        <time>2024-07-13T17:35:33+02:00</time>
      </trkpt>
      <trkpt lat="43.74484" lon="1.40576">
        <ele>155.7002</ele>
        <time>2024-07-13T17:35:37+02:00</time>
      </trkpt>
      <trkpt lat="43.74482" lon="1.40576">
        <ele>155.7002</ele>
        <time>2024-07-13T17:35:38+02:00</time>
      </trkpt>
      <trkpt lat="43.74478" lon="1.40576">
        <ele>151.2</ele>
      </trkpt>
      <trkpt lat="43.74471" lon="1.40572">
        <ele>151.9</ele>
      </trkpt>
      <trkpt lat="43.74471" lon="1.40587">
        <ele>155.90039</ele>
        <time>2024-07-13T17:41:32+02:00</time>
      </trkpt>
      <trkpt lat="43.74471" lon="1.40593">
        <ele>156</ele>
        <time>2024-07-13T17:41:33+02:00</time>
      </trkpt>
      <trkpt lat="43.74468" lon="1.4061">
        <ele>156.10059</ele>
        <time>2024-07-13T17:41:37+02:00</time>
      </trkpt>
      <trkpt lat="43.74466" lon="1.40615">
        <ele>156.10059</ele>
        <time>2024-07-13T17:41:38+02:00</time>
      </trkpt>
      <trkpt lat="43.7446" lon="1.40632">
        <ele>156.2002</ele>
        <time>2024-07-13T17:41:42+02:00</time>
      </trkpt>
      <trkpt lat="43.74458" lon="1.40637">
        <ele>156.10059</ele>
        <time>2024-07-13T17:41:43+02:00</time>
      </trkpt>
      <trkpt lat="43.74444" lon="1.40652">
        <ele>156.40039</ele>
        <time>2024-07-13T17:41:47+02:00</time>
      </trkpt>
      <trkpt lat="43.7444" lon="1.40653">
        <ele>156.60059</ele>
        <time>2024-07-13T17:41:48+02:00</time>
      </trkpt>
      <trkpt lat="43.74428" lon="1.40657">
        <ele>157</ele>
        <time>2024-07-13T17:41:52+02:00</time>
      </trkpt>
      <trkpt lat="43.74424" lon="1.40657">
        <ele>157.2998</ele>
        <time>2024-07-13T17:41:53+02:00</time>
      </trkpt>
      <trkpt lat="43.74413" lon="1.4066">
        <ele>157.2998</ele>
        <time>2024-07-13T17:41:57+02:00</time>
      </trkpt>
      <trkpt lat="43.74411" lon="1.40661">
        <ele>157.5</ele>
        <time>2024-07-13T17:41:58+02:00</time>
      </trkpt>
      <trkpt lat="43.744" lon="1.40665">
        <ele>157.7002</ele>
        <time>2024-07-13T17:42:02+02:00</time>
      </trkpt>
      <trkpt lat="43.74398" lon="1.40666">
        <ele>158</ele>
        <time>2024-07-13T17:42:03+02:00</time>
      </trkpt>
      <trkpt lat="43.74386" lon="1.40672">
        <ele>158.2002</ele>
        <time>2024-07-13T17:42:07+02:00</time>
      </trkpt>
      <trkpt lat="43.74384" lon="1.40675">
        <ele>158.2002</ele>
        <time>2024-07-13T17:42:08+02:00</time>
      </trkpt>
      <trkpt lat="43.74374" lon="1.40685">
        <ele>158.60059</ele>
        <time>2024-07-13T17:42:12+02:00</time>
      </trkpt>
      <trkpt lat="43.74371" lon="1.40687">
        <ele>158.2998</ele>
        <time>2024-07-13T17:42:13+02:00</time>
      </trkpt>
      <trkpt lat="43.74359" lon="1.40699">
        <ele>158.7998</ele>
        <time>2024-07-13T17:42:17+02:00</time>
      </trkpt>
      <trkpt lat="43.74355" lon="1.40704">
        <ele>159.10059</ele>
        <time>2024-07-13T17:42:18+02:00</time>
      </trkpt>
      <trkpt lat="43.74338" lon="1.40729">
        <ele>160.2002</ele>
        <time>2024-07-13T17:42:22+02:00</time>
      </trkpt>
      <trkpt lat="43.74334" lon="1.40735">
        <ele>160.2002</ele>
        <time>2024-07-13T17:42:23+02:00</time>
      </trkpt>
      <trkpt lat="43.74321" lon="1.40746">
        <ele>160.60059</ele>
        <time>2024-07-13T17:42:27+02:00</time>
      </trkpt>
      <trkpt lat="43.7432" lon="1.40743">
        <ele>161.10059</ele>
        <time>2024-07-13T17:42:28+02:00</time>
      </trkpt>
      <trkpt lat="43.74315" lon="1.40731">
        <ele>161.2998</ele>
        <time>2024-07-13T17:42:32+02:00</time>
      </trkpt>
      <trkpt lat="43.74314" lon="1.40728">
        <ele>161.2998</ele>
        <time>2024-07-13T17:42:33+02:00</time>
      </trkpt>
      <trkpt lat="43.74311" lon="1.40715">
        <ele>162.10059</ele>
        <time>2024-07-13T17:42:37+02:00</time>
      </trkpt>
      <trkpt lat="43.74309" lon="1.40713">
        <ele>162.10059</ele>
        <time>2024-07-13T17:42:38+02:00</time>
      </trkpt>
      <trkpt lat="43.74303" lon="1.40706">
        <ele>162.7998</ele>
        <time>2024-07-13T17:42:42+02:00</time>
      </trkpt>
      <trkpt lat="43.74301" lon="1.40704">
        <ele>162.7998</ele>
        <time>2024-07-13T17:42:43+02:00</time>
      </trkpt>
      <trkpt lat="43.74292" lon="1.40698">
        <ele>163.7998</ele>
        <time>2024-07-13T17:42:47+02:00</time>
      </trkpt>
      <trkpt lat="43.7429" lon="1.40697">
        <ele>163.7998</ele>
        <time>2024-07-13T17:42:48+02:00</time>
      </trkpt>
      <trkpt lat="43.7428" lon="1.40694">
        <ele>164.7998</ele>
        <time>2024-07-13T17:42:52+02:00</time>
      </trkpt>
      <trkpt lat="43.74277" lon="1.40693">
        <ele>164.7998</ele>
        <time>2024-07-13T17:42:53+02:00</time>
      </trkpt>
      <trkpt lat="43.74266" lon="1.40691">
        <ele>165.5</ele>
        <time>2024-07-13T17:42:57+02:00</time>
      </trkpt>
      <trkpt lat="43.74263" lon="1.40691">
        <ele>165.90039</ele>
        <time>2024-07-13T17:42:58+02:00</time>
      </trkpt>
      <trkpt lat="43.74254" lon="1.4069">
        <ele>166.40039</ele>
        <time>2024-07-13T17:43:02+02:00</time>
      </trkpt>
      <trkpt lat="43.74253" lon="1.40691">
        <ele>166.40039</ele>
        <time>2024-07-13T17:43:03+02:00</time>
      </trkpt>
      <trkpt lat="43.74246" lon="1.40695">
        <ele>166.60059</ele>
        <time>2024-07-13T17:43:07+02:00</time>
      </trkpt>
      <trkpt lat="43.74244" lon="1.40694">
        <ele>167.10059</ele>
        <time>2024-07-13T17:43:08+02:00</time>
      </trkpt>
      <trkpt lat="43.74238" lon="1.40691">
        <ele>167.7998</ele>
        <time>2024-07-13T17:43:12+02:00</time>
      </trkpt>
      <trkpt lat="43.74237" lon="1.40692">
        <ele>167.7998</ele>
        <time>2024-07-13T17:43:13+02:00</time>
      </trkpt>
      <trkpt lat="43.74232" lon="1.40695">
        <ele>168</ele>
        <time>2024-07-13T17:43:17+02:00</time>
      </trkpt>
      <trkpt lat="43.7423" lon="1.40695">
        <ele>168</ele>
        <time>2024-07-13T17:43:18+02:00</time>
      </trkpt>
      <trkpt lat="43.74224" lon="1.40697">
        <ele>168.40039</ele>
        <time>2024-07-13T17:43:22+02:00</time>
      </trkpt>
      <trkpt lat="43.74222" lon="1.40697">
        <ele>168.40039</ele>
        <time>2024-07-13T17:43:23+02:00</time>
      </trkpt>
      <trkpt lat="43.74217" lon="1.40701">
        <ele>168.90039</ele>
        <time>2024-07-13T17:43:27+02:00</time>
      </trkpt>
      <trkpt lat="43.74215" lon="1.40702">
        <ele>168.5</ele>
        <time>2024-07-13T17:43:28+02:00</time>
      </trkpt>
      <trkpt lat="43.74205" lon="1.40701">
        <ele>169.7002</ele>
        <time>2024-07-13T17:43:32+02:00</time>
      </trkpt>
      <trkpt lat="43.74202" lon="1.407">
        <ele>169.7002</ele>
        <time>2024-07-13T17:43:33+02:00</time>
      </trkpt>
      <trkpt lat="43.74197" lon="1.40691">
        <ele>170.40039</ele>
        <time>2024-07-13T17:43:37+02:00</time>
      </trkpt>
      <trkpt lat="43.74197" lon="1.40689">
        <ele>170.40039</ele>
        <time>2024-07-13T17:43:38+02:00</time>
      </trkpt>
      <trkpt lat="43.74189" lon="1.40679">
        <ele>171.10059</ele>
        <time>2024-07-13T17:43:42+02:00</time>
      </trkpt>
      <trkpt lat="43.74187" lon="1.40678">
        <ele>171.10059</ele>
        <time>2024-07-13T17:43:43+02:00</time>
      </trkpt>
      <trkpt lat="43.74178" lon="1.40677">
        <ele>171.40039</ele>
        <time>2024-07-13T17:43:47+02:00</time>
      </trkpt>
      <trkpt lat="43.74177" lon="1.40678">
        <ele>171.5</ele>
        <time>2024-07-13T17:43:48+02:00</time>
      </trkpt>
      <trkpt lat="43.74171" lon="1.40684">
        <ele>171.5</ele>
        <time>2024-07-13T17:43:52+02:00</time>
      </trkpt>
      <trkpt lat="43.74169" lon="1.40685">
        <ele>171.7002</ele>
        <time>2024-07-13T17:43:53+02:00</time>
      </trkpt>
      <trkpt lat="43.7416" lon="1.40689">
        <ele>171.5</ele>
        <time>2024-07-13T17:43:57+02:00</time>
      </trkpt>
      <trkpt lat="43.74157" lon="1.4069">
        <ele>171.7002</ele>
        <time>2024-07-13T17:43:58+02:00</time>
      </trkpt>
      <trkpt lat="43.74146" lon="1.40691">
        <ele>172.10059</ele>
        <time>2024-07-13T17:44:02+02:00</time>
      </trkpt>
      <trkpt lat="43.74143" lon="1.40691">
        <ele>172.10059</ele>
        <time>2024-07-13T17:44:03+02:00</time>
      </trkpt>
      <trkpt lat="43.74133" lon="1.40692">
        <ele>172.60059</ele>
        <time>2024-07-13T17:44:07+02:00</time>
      </trkpt>
      <trkpt lat="43.74131" lon="1.40692">
        <ele>172.60059</ele>
        <time>2024-07-13T17:44:08+02:00</time>
      </trkpt>
      <trkpt lat="43.74121" lon="1.40691">
        <ele>172.7998</ele>
        <time>2024-07-13T17:44:12+02:00</time>
      </trkpt>
      <trkpt lat="43.74119" lon="1.40689">
        <ele>173</ele>
        <time>2024-07-13T17:44:13+02:00</time>
      </trkpt>
      <trkpt lat="43.74111" lon="1.40681">
        <ele>173.5</ele>
        <time>2024-07-13T17:44:17+02:00</time>
      </trkpt>
      <trkpt lat="43.74109" lon="1.40679">
        <ele>173.5</ele>
        <time>2024-07-13T17:44:18+02:00</time>
      </trkpt>
      <trkpt lat="43.74102" lon="1.40675">
        <ele>174.2002</ele>
        <time>2024-07-13T17:44:22+02:00</time>
      </trkpt>
      <trkpt lat="43.74099" lon="1.40674">
        <ele>174.2002</ele>
        <time>2024-07-13T17:44:23+02:00</time>
      </trkpt>
      <trkpt lat="43.74089" lon="1.40674">
        <ele>174.60059</ele>
        <time>2024-07-13T17:44:27+02:00</time>
      </trkpt>
      <trkpt lat="43.74087" lon="1.40674">
        <ele>174.60059</ele>
        <time>2024-07-13T17:44:28+02:00</time>
      </trkpt>
      <trkpt lat="43.74078" lon="1.40677">
        <ele>174.7998</ele>
        <time>2024-07-13T17:44:32+02:00</time>
      </trkpt>
      <trkpt lat="43.74075" lon="1.40676">
        <ele>175</ele>
        <time>2024-07-13T17:44:33+02:00</time>
      </trkpt>
      <trkpt lat="43.74067" lon="1.40666">
        <ele>175.2998</ele>
        <time>2024-07-13T17:44:37+02:00</time>
      </trkpt>
      <trkpt lat="43.74065" lon="1.40664">
        <ele>175.40039</ele>
        <time>2024-07-13T17:44:38+02:00</time>
      </trkpt>
      <trkpt lat="43.74057" lon="1.40656">
        <ele>175.60059</ele>
        <time>2024-07-13T17:44:42+02:00</time>
      </trkpt>
      <trkpt lat="43.74055" lon="1.40654">
        <ele>175.60059</ele>
        <time>2024-07-13T17:44:43+02:00</time>
      </trkpt>
      <trkpt lat="43.74048" lon="1.40648">
        <ele>175.7002</ele>
        <time>2024-07-13T17:44:47+02:00</time>
      </trkpt>
      <trkpt lat="43.74046" lon="1.40647">
        <ele>175.7998</ele>
        <time>2024-07-13T17:44:48+02:00</time>
      </trkpt>
      <trkpt lat="43.74038" lon="1.40645">
        <ele>175.90039</ele>
        <time>2024-07-13T17:44:52+02:00</time>
      </trkpt>
      <trkpt lat="43.74037" lon="1.40646">
        <ele>175.90039</ele>
        <time>2024-07-13T17:44:53+02:00</time>
      </trkpt>
      <trkpt lat="43.7403" lon="1.40646">
        <ele>176</ele>
        <time>2024-07-13T17:44:57+02:00</time>
      </trkpt>
      <trkpt lat="43.74029" lon="1.40646">
        <ele>176</ele>
        <time>2024-07-13T17:44:58+02:00</time>
      </trkpt>
      <trkpt lat="43.74028" lon="1.40646">
        <ele>176.10059</ele>
        <time>2024-07-13T17:45:02+02:00</time>
      </trkpt>
      <trkpt lat="43.74026" lon="1.40647">
        <ele>176.10059</ele>
        <time>2024-07-13T17:45:03+02:00</time>
      </trkpt>
      <trkpt lat="43.74013" lon="1.40654">
        <ele>176.40039</ele>
        <time>2024-07-13T17:45:07+02:00</time>
      </trkpt>
      <trkpt lat="43.7401" lon="1.40656">
        <ele>176.40039</ele>
        <time>2024-07-13T17:45:08+02:00</time>
      </trkpt>
      <trkpt lat="43.74004" lon="1.40661">
        <ele>176.60059</ele>
        <time>2024-07-13T17:45:12+02:00</time>
      </trkpt>
      <trkpt lat="43.74003" lon="1.4066">
        <ele>176.7002</ele>
        <time>2024-07-13T17:45:13+02:00</time>
      </trkpt>
      <trkpt lat="43.74002" lon="1.4066">
        <ele>176.7002</ele>
        <time>2024-07-13T17:45:17+02:00</time>
      </trkpt>
      <trkpt lat="43.74001" lon="1.4066">
        <ele>176.7002</ele>
        <time>2024-07-13T17:45:18+02:00</time>
      </trkpt>
      <trkpt lat="43.73991" lon="1.40659">
        <ele>176.7002</ele>
        <time>2024-07-13T17:45:22+02:00</time>
      </trkpt>
      <trkpt lat="43.73988" lon="1.40657">
        <ele>176.7998</ele>
        <time>2024-07-13T17:45:23+02:00</time>
      </trkpt>
      <trkpt lat="43.73982" lon="1.40648">
        <ele>176.7002</ele>
        <time>2024-07-13T17:45:27+02:00</time>
      </trkpt>
      <trkpt lat="43.73982" lon="1.40645">
        <ele>176.7002</ele>
        <time>2024-07-13T17:45:28+02:00</time>
      </trkpt>
      <trkpt lat="43.73977" lon="1.40637">
        <ele>176.5</ele>
        <time>2024-07-13T17:45:32+02:00</time>
      </trkpt>
      <trkpt lat="43.73974" lon="1.40636">
        <ele>176.5</ele>
        <time>2024-07-13T17:45:33+02:00</time>
      </trkpt>
      <trkpt lat="43.73965" lon="1.40643">
        <ele>176.7998</ele>
        <time>2024-07-13T17:45:37+02:00</time>
      </trkpt>
      <trkpt lat="43.73963" lon="1.40645">
        <ele>176.7998</ele>
        <time>2024-07-13T17:45:38+02:00</time>
      </trkpt>
      <trkpt lat="43.73954" lon="1.40647">
        <ele>176.7998</ele>
        <time>2024-07-13T17:45:42+02:00</time>
      </trkpt>
      <trkpt lat="43.73952" lon="1.40645">
        <ele>176.90039</ele>
        <time>2024-07-13T17:45:43+02:00</time>
      </trkpt>
      <trkpt lat="43.73942" lon="1.40641">
        <ele>176.60059</ele>
        <time>2024-07-13T17:45:47+02:00</time>
      </trkpt>
      <trkpt lat="43.73939" lon="1.40641">
        <ele>176.60059</ele>
        <time>2024-07-13T17:45:48+02:00</time>
      </trkpt>
      <trkpt lat="43.73931" lon="1.40647">
        <ele>176.90039</ele>
        <time>2024-07-13T17:45:52+02:00</time>
      </trkpt>
      <trkpt lat="43.7393" lon="1.4065">
        <ele>176.90039</ele>
        <time>2024-07-13T17:45:53+02:00</time>
      </trkpt>
      <trkpt lat="43.73923" lon="1.4066">
        <ele>177.5</ele>
        <time>2024-07-13T17:45:57+02:00</time>
      </trkpt>
      <trkpt lat="43.73922" lon="1.40663">
        <ele>177.60059</ele>
        <time>2024-07-13T17:45:58+02:00</time>
      </trkpt>
      <trkpt lat="43.73917" lon="1.40673">
        <ele>177.7998</ele>
        <time>2024-07-13T17:46:02+02:00</time>
      </trkpt>
      <trkpt lat="43.73915" lon="1.40676">
        <ele>177.7998</ele>
        <time>2024-07-13T17:46:03+02:00</time>
      </trkpt>
      <trkpt lat="43.73907" lon="1.40695">
        <ele>178.10059</ele>
        <time>2024-07-13T17:46:07+02:00</time>
      </trkpt>
      <trkpt lat="43.73906" lon="1.40702">
        <ele>178.10059</ele>
        <time>2024-07-13T17:46:08+02:00</time>
      </trkpt>
      <trkpt lat="43.73895" lon="1.40726">
        <ele>177.7998</ele>
        <time>2024-07-13T17:46:12+02:00</time>
      </trkpt>
      <trkpt lat="43.73891" lon="1.40728">
        <ele>177.7002</ele>
        <time>2024-07-13T17:46:13+02:00</time>
      </trkpt>
      <trkpt lat="43.73875" lon="1.40734">
        <ele>177.7002</ele>
        <time>2024-07-13T17:46:17+02:00</time>
      </trkpt>
      <trkpt lat="43.73872" lon="1.40736">
        <ele>177.7002</ele>
        <time>2024-07-13T17:46:18+02:00</time>
      </trkpt>
      <trkpt lat="43.73864" lon="1.4075">
        <ele>177.5</ele>
        <time>2024-07-13T17:46:22+02:00</time>
      </trkpt>
      <trkpt lat="43.73862" lon="1.40755">
        <ele>177.40039</ele>
        <time>2024-07-13T17:46:23+02:00</time>
      </trkpt>
      <trkpt lat="43.73855" lon="1.40773">
        <ele>176.7998</ele>
        <time>2024-07-13T17:46:27+02:00</time>
      </trkpt>
      <trkpt lat="43.73853" lon="1.40778">
        <ele>176.7002</ele>
        <time>2024-07-13T17:46:28+02:00</time>
      </trkpt>
      <trkpt lat="43.73842" lon="1.40798">
        <ele>175.5</ele>
        <time>2024-07-13T17:46:32+02:00</time>
      </trkpt>
      <trkpt lat="43.73838" lon="1.40801">
        <ele>175.5</ele>
        <time>2024-07-13T17:46:33+02:00</time>
      </trkpt>
      <trkpt lat="43.73828" lon="1.40795">
        <ele>175.60059</ele>
        <time>2024-07-13T17:46:37+02:00</time>
      </trkpt>
      <trkpt lat="43.73826" lon="1.40793">
        <ele>175.60059</ele>
        <time>2024-07-13T17:46:38+02:00</time>
      </trkpt>
      <trkpt lat="43.73816" lon="1.4079">
        <ele>175.2998</ele>
        <time>2024-07-13T17:46:42+02:00</time>
      </trkpt>
      <trkpt lat="43.7381" lon="1.40787">
        <ele>171.7</ele>
        <time>2024-07-13T17:46:43+02:00</time>
      </trkpt>
      <trkpt lat="43.73809" lon="1.4078">
        <ele>171.9</ele>
      </trkpt>
      <trkpt lat="43.73803" lon="1.40769">
        <ele>175.90039</ele>
        <time>2024-07-13T17:47:02+02:00</time>
      </trkpt>
      <trkpt lat="43.73802" lon="1.40765">
        <ele>175.90039</ele>
        <time>2024-07-13T17:47:03+02:00</time>
      </trkpt>
      <trkpt lat="43.73797" lon="1.40745">
        <ele>176.7002</ele>
        <time>2024-07-13T17:47:07+02:00</time>
      </trkpt>
      <trkpt lat="43.73793" lon="1.4074">
        <ele>176.7002</ele>
        <time>2024-07-13T17:47:08+02:00</time>
      </trkpt>
      <trkpt lat="43.73779" lon="1.40725">
        <ele>176.7002</ele>
        <time>2024-07-13T17:47:12+02:00</time>
      </trkpt>
      <trkpt lat="43.73775" lon="1.40721">
        <ele>176.7002</ele>
        <time>2024-07-13T17:47:13+02:00</time>
      </trkpt>
      <trkpt lat="43.73762" lon="1.40706">
        <ele>176.90039</ele>
        <time>2024-07-13T17:47:17+02:00</time>
      </trkpt>
      <trkpt lat="43.73758" lon="1.40702">
        <ele>177</ele>
        <time>2024-07-13T17:47:18+02:00</time>
      </trkpt>
      <trkpt lat="43.73744" lon="1.40689">
        <ele>176.7998</ele>
        <time>2024-07-13T17:47:22+02:00</time>
      </trkpt>
      <trkpt lat="43.73741" lon="1.40686">
        <ele>176.60059</ele>
        <time>2024-07-13T17:47:23+02:00</time>
      </trkpt>
      <trkpt lat="43.73726" lon="1.40679">
        <ele>176.10059</ele>
        <time>2024-07-13T17:47:27+02:00</time>
      </trkpt>
      <trkpt lat="43.73722" lon="1.40679">
        <ele>175.60059</ele>
        <time>2024-07-13T17:47:28+02:00</time>
      </trkpt>
      <trkpt lat="43.73708" lon="1.4068">
        <ele>174.2998</ele>
        <time>2024-07-13T17:47:32+02:00</time>
      </trkpt>
      <trkpt lat="43.73705" lon="1.40679">
        <ele>173.5</ele>
        <time>2024-07-13T17:47:33+02:00</time>
      </trkpt>
      <trkpt lat="43.73697" lon="1.40673">
        <ele>172.40039</ele>
        <time>2024-07-13T17:47:37+02:00</time>
      </trkpt>
      <trkpt lat="43.73696" lon="1.4067">
        <ele>172.40039</ele>
        <time>2024-07-13T17:47:38+02:00</time>
      </trkpt>
      <trkpt lat="43.737" lon="1.4066">
        <ele>173</ele>
        <time>2024-07-13T17:47:42+02:00</time>
      </trkpt>
      <trkpt lat="43.73702" lon="1.40657">
        <ele>172.7002</ele>
        <time>2024-07-13T17:47:43+02:00</time>
      </trkpt>
      <trkpt lat="43.73708" lon="1.40644">
        <ele>173.40039</ele>
        <time>2024-07-13T17:47:47+02:00</time>
      </trkpt>
      <trkpt lat="43.7371" lon="1.40641">
        <ele>173.10059</ele>
        <time>2024-07-13T17:47:48+02:00</time>
      </trkpt>
      <trkpt lat="43.7372" lon="1.40627">
        <ele>174.7002</ele>
        <time>2024-07-13T17:47:52+02:00</time>
      </trkpt>
      <trkpt lat="43.73723" lon="1.40624">
        <ele>174.40039</ele>
        <time>2024-07-13T17:47:53+02:00</time>
      </trkpt>
      <trkpt lat="43.73731" lon="1.4061">
        <ele>175.7998</ele>
        <time>2024-07-13T17:47:57+02:00</time>
      </trkpt>
      <trkpt lat="43.73733" lon="1.40606">
        <ele>175.5</ele>
        <time>2024-07-13T17:47:58+02:00</time>
      </trkpt>
      <trkpt lat="43.73741" lon="1.40591">
        <ele>175.2002</ele>
        <time>2024-07-13T17:48:02+02:00</time>
      </trkpt>
      <trkpt lat="43.73742" lon="1.40587">
        <ele>175.2002</ele>
        <time>2024-07-13T17:48:03+02:00</time>
      </trkpt>
      <trkpt lat="43.73751" lon="1.40572">
        <ele>174.7002</ele>
        <time>2024-07-13T17:48:07+02:00</time>
      </trkpt>
      <trkpt lat="43.73753" lon="1.40568">
        <ele>174.7002</ele>
        <time>2024-07-13T17:48:08+02:00</time>
      </trkpt>
      <trkpt lat="43.7376" lon="1.40555">
        <ele>173.40039</ele>
        <time>2024-07-13T17:48:12+02:00</time>
      </trkpt>
      <trkpt lat="43.73762" lon="1.40551">
        <ele>173.60059</ele>
        <time>2024-07-13T17:48:13+02:00</time>
      </trkpt>
      <trkpt lat="43.73769" lon="1.40537">
        <ele>172</ele>
        <time>2024-07-13T17:48:17+02:00</time>
      </trkpt>
      <trkpt lat="43.73771" lon="1.40533">
        <ele>172</ele>
        <time>2024-07-13T17:48:18+02:00</time>
      </trkpt>
      <trkpt lat="43.73779" lon="1.40518">
        <ele>170.60059</ele>
        <time>2024-07-13T17:48:22+02:00</time>
      </trkpt>
      <trkpt lat="43.73781" lon="1.40514">
        <ele>171.2002</ele>
        <time>2024-07-13T17:48:23+02:00</time>
      </trkpt>
      <trkpt lat="43.73788" lon="1.40498">
        <ele>170.2998</ele>
        <time>2024-07-13T17:48:27+02:00</time>
      </trkpt>
      <trkpt lat="43.73789" lon="1.40494">
        <ele>169.60059</ele>
        <time>2024-07-13T17:48:28+02:00</time>
      </trkpt>
      <trkpt lat="43.73795" lon="1.40484">
        <ele>169.7002</ele>
        <time>2024-07-13T17:48:32+02:00</time>
      </trkpt>
      <trkpt lat="43.73796" lon="1.40482">
        <ele>169.7002</ele>
        <time>2024-07-13T17:48:33+02:00</time>
      </trkpt>
      <trkpt lat="43.738" lon="1.40476">
        <ele>169.90039</ele>
        <time>2024-07-13T17:48:37+02:00</time>
      </trkpt>
      <trkpt lat="43.73801" lon="1.40474">
        <ele>169.90039</ele>
        <time>2024-07-13T17:48:38+02:00</time>
      </trkpt>
      <trkpt lat="43.73797" lon="1.40466">
        <ele>168.2002</ele>
        <time>2024-07-13T17:48:42+02:00</time>
      </trkpt>
      <trkpt lat="43.73795" lon="1.40464">
        <ele>168.2002</ele>
        <time>2024-07-13T17:48:43+02:00</time>
      </trkpt>
      <trkpt lat="43.73789" lon="1.40455">
        <ele>166.7998</ele>
        <time>2024-07-13T17:48:47+02:00</time>
      </trkpt>
      <trkpt lat="43.73786" lon="1.40452">
        <ele>166.2002</ele>
        <time>2024-07-13T17:48:48+02:00</time>
      </trkpt>
      <trkpt lat="43.73772" lon="1.40434">
        <ele>163.10059</ele>
        <time>2024-07-13T17:48:52+02:00</time>
      </trkpt>
      <trkpt lat="43.73768" lon="1.40428">
        <ele>163.10059</ele>
        <time>2024-07-13T17:48:53+02:00</time>
      </trkpt>
      <trkpt lat="43.73753" lon="1.40405">
        <ele>158.10059</ele>
        <time>2024-07-13T17:48:57+02:00</time>
      </trkpt>
      <trkpt lat="43.73749" lon="1.40399">
        <ele>156.40039</ele>
        <time>2024-07-13T17:48:58+02:00</time>
      </trkpt>
      <trkpt lat="43.73729" lon="1.40375">
        <ele>151.7002</ele>
        <time>2024-07-13T17:49:02+02:00</time>
      </trkpt>
      <trkpt lat="43.73725" lon="1.40371">
        <ele>151.7002</ele>
        <time>2024-07-13T17:49:03+02:00</time>
      </trkpt>
      <trkpt lat="43.73698" lon="1.40348">
        <ele>146.10059</ele>
        <time>2024-07-13T17:49:07+02:00</time>
      </trkpt>
      <trkpt lat="43.73691" lon="1.40339">
        <ele>144.7998</ele>
        <time>2024-07-13T17:49:08+02:00</time>
      </trkpt>
      <trkpt lat="43.73658" lon="1.40297">
        <ele>139.2998</ele>
        <time>2024-07-13T17:49:12+02:00</time>
      </trkpt>
      <trkpt lat="43.73651" lon="1.40287">
        <ele>138.2002</ele>
        <time>2024-07-13T17:49:13+02:00</time>
      </trkpt>
      <trkpt lat="43.73627" lon="1.40249">
        <ele>133</ele>
        <time>2024-07-13T17:49:17+02:00</time>
      </trkpt>
      <trkpt lat="43.73621" lon="1.40239">
        <ele>131.60059</ele>
        <time>2024-07-13T17:49:18+02:00</time>
      </trkpt>
      <trkpt lat="43.73596" lon="1.40199">
        <ele>127.90039</ele>
        <time>2024-07-13T17:49:22+02:00</time>
      </trkpt>
      <trkpt lat="43.73592" lon="1.40192">
        <ele>127.299805</ele>
        <time>2024-07-13T17:49:23+02:00</time>
      </trkpt>
      <trkpt lat="43.73584" lon="1.40182">
        <ele>126.799805</ele>
        <time>2024-07-13T17:49:27+02:00</time>
      </trkpt>
      <trkpt lat="43.73583" lon="1.4018">
        <ele>126.799805</ele>
        <time>2024-07-13T17:49:28+02:00</time>
      </trkpt>
      <trkpt lat="43.73574" lon="1.40178">
        <ele>126</ele>
        <time>2024-07-13T17:49:32+02:00</time>
      </trkpt>
      <trkpt lat="43.73572" lon="1.40179">
        <ele>126.40039</ele>
        <time>2024-07-13T17:49:33+02:00</time>
      </trkpt>
      <trkpt lat="43.73558" lon="1.40183">
        <ele>125.90039</ele>
        <time>2024-07-13T17:49:37+02:00</time>
      </trkpt>
      <trkpt lat="43.73555" lon="1.40184">
        <ele>125.600586</ele>
        <time>2024-07-13T17:49:38+02:00</time>
      </trkpt>
      <trkpt lat="43.73537" lon="1.40191">
        <ele>125.299805</ele>
        <time>2024-07-13T17:49:42+02:00</time>
      </trkpt>
      <trkpt lat="43.73532" lon="1.40193">
        <ele>125.299805</ele>
        <time>2024-07-13T17:49:43+02:00</time>
      </trkpt>
      <trkpt lat="43.73513" lon="1.40197">
        <ele>124.799805</ele>
        <time>2024-07-13T17:49:47+02:00</time>
      </trkpt>
      <trkpt lat="43.73508" lon="1.40196">
        <ele>124.799805</ele>
        <time>2024-07-13T17:49:48+02:00</time>
      </trkpt>
      <trkpt lat="43.73489" lon="1.40185">
        <ele>123.40039</ele>
        <time>2024-07-13T17:49:52+02:00</time>
      </trkpt>
      <trkpt lat="43.73484" lon="1.40181">
        <ele>123.200195</ele>
        <time>2024-07-13T17:49:53+02:00</time>
      </trkpt>
      <trkpt lat="43.73466" lon="1.4017">
        <ele>122.299805</ele>
        <time>2024-07-13T17:49:57+02:00</time>
      </trkpt>
      <trkpt lat="43.7346" lon="1.40171">
        <ele>122.200195</ele>
        <time>2024-07-13T17:49:58+02:00</time>
      </trkpt>
      <trkpt lat="43.73436" lon="1.40175">
        <ele>121.799805</ele>
        <time>2024-07-13T17:50:02+02:00</time>
      </trkpt>
      <trkpt lat="43.7343" lon="1.40177">
        <ele>121.700195</ele>
        <time>2024-07-13T17:50:03+02:00</time>
      </trkpt>
      <trkpt lat="43.73406" lon="1.40185">
        <ele>121.90039</ele>
        <time>2024-07-13T17:50:07+02:00</time>
      </trkpt>
      <trkpt lat="43.734" lon="1.40187">
        <ele>122.100586</ele>
        <time>2024-07-13T17:50:08+02:00</time>
      </trkpt>
      <trkpt lat="43.73376" lon="1.40197">
        <ele>121.90039</ele>
        <time>2024-07-13T17:50:12+02:00</time>
      </trkpt>
      <trkpt lat="43.7337" lon="1.40199">
        <ele>121.799805</ele>
        <time>2024-07-13T17:50:13+02:00</time>
      </trkpt>
      <trkpt lat="43.73349" lon="1.40211">
        <ele>121.600586</ele>
        <time>2024-07-13T17:50:17+02:00</time>
      </trkpt>
      <trkpt lat="43.73345" lon="1.40215">
        <ele>121.700195</ele>
        <time>2024-07-13T17:50:18+02:00</time>
      </trkpt>
      <trkpt lat="43.73326" lon="1.40225">
        <ele>121.700195</ele>
        <time>2024-07-13T17:50:22+02:00</time>
      </trkpt>
      <trkpt lat="43.7332" lon="1.40223">
        <ele>121.700195</ele>
        <time>2024-07-13T17:50:23+02:00</time>
      </trkpt>
      <trkpt lat="43.73299" lon="1.40201">
        <ele>121.100586</ele>
        <time>2024-07-13T17:50:27+02:00</time>
      </trkpt>
      <trkpt lat="43.73295" lon="1.40193">
        <ele>120.90039</ele>
        <time>2024-07-13T17:50:28+02:00</time>
      </trkpt>
      <trkpt lat="43.73275" lon="1.40166">
        <ele>120.40039</ele>
        <time>2024-07-13T17:50:32+02:00</time>
      </trkpt>
      <trkpt lat="43.7327" lon="1.4016">
        <ele>120.200195</ele>
        <time>2024-07-13T17:50:33+02:00</time>
      </trkpt>
      <trkpt lat="43.73246" lon="1.40141">
        <ele>120</ele>
        <time>2024-07-13T17:50:37+02:00</time>
      </trkpt>
      <trkpt lat="43.7324" lon="1.40139">
        <ele>120</ele>
        <time>2024-07-13T17:50:38+02:00</time>
      </trkpt>
      <trkpt lat="43.73214" lon="1.40138">
        <ele>119.700195</ele>
        <time>2024-07-13T17:50:42+02:00</time>
      </trkpt>
      <trkpt lat="43.73207" lon="1.4014">
        <ele>119.700195</ele>
        <time>2024-07-13T17:50:43+02:00</time>
      </trkpt>
      <trkpt lat="43.73182" lon="1.40142">
        <ele>119.40039</ele>
        <time>2024-07-13T17:50:47+02:00</time>
      </trkpt>
      <trkpt lat="43.73176" lon="1.40143">
        <ele>119.299805</ele>
        <time>2024-07-13T17:50:48+02:00</time>
      </trkpt>
      <trkpt lat="43.7315" lon="1.40149">
        <ele>119.200195</ele>
        <time>2024-07-13T17:50:52+02:00</time>
      </trkpt>
      <trkpt lat="43.73143" lon="1.4015">
        <ele>119.200195</ele>
        <time>2024-07-13T17:50:53+02:00</time>
      </trkpt>
      <trkpt lat="43.73119" lon="1.40159">
        <ele>119.200195</ele>
        <time>2024-07-13T17:50:57+02:00</time>
      </trkpt>
      <trkpt lat="43.73113" lon="1.40161">
        <ele>119.200195</ele>
        <time>2024-07-13T17:50:58+02:00</time>
      </trkpt>
      <trkpt lat="43.73089" lon="1.40171">
        <ele>119</ele>
        <time>2024-07-13T17:51:02+02:00</time>
      </trkpt>
      <trkpt lat="43.73083" lon="1.40174">
        <ele>119</ele>
        <time>2024-07-13T17:51:03+02:00</time>
      </trkpt>
      <trkpt lat="43.73059" lon="1.40182">
        <ele>118.5</ele>
        <time>2024-07-13T17:51:07+02:00</time>
      </trkpt>
      <trkpt lat="43.73053" lon="1.40185">
        <ele>118.299805</ele>
        <time>2024-07-13T17:51:08+02:00</time>
      </trkpt>
      <trkpt lat="43.73028" lon="1.40194">
        <ele>117.90039</ele>
        <time>2024-07-13T17:51:12+02:00</time>
      </trkpt>
      <trkpt lat="43.73022" lon="1.40197">
        <ele>118</ele>
        <time>2024-07-13T17:51:13+02:00</time>
      </trkpt>
      <trkpt lat="43.72998" lon="1.40206">
        <ele>117.90039</ele>
        <time>2024-07-13T17:51:17+02:00</time>
      </trkpt>
      <trkpt lat="43.72992" lon="1.40209">
        <ele>118.100586</ele>
        <time>2024-07-13T17:51:18+02:00</time>
      </trkpt>
      <trkpt lat="43.72967" lon="1.40219">
        <ele>118.799805</ele>
        <time>2024-07-13T17:51:22+02:00</time>
      </trkpt>
      <trkpt lat="43.72961" lon="1.40222">
        <ele>118.799805</ele>
        <time>2024-07-13T17:51:23+02:00</time>
      </trkpt>
      <trkpt lat="43.72938" lon="1.40233">
        <ele>119.40039</ele>
        <time>2024-07-13T17:51:27+02:00</time>
      </trkpt>
      <trkpt lat="43.72933" lon="1.40237">
        <ele>119.40039</ele>
        <time>2024-07-13T17:51:28+02:00</time>
      </trkpt>
      <trkpt lat="43.72911" lon="1.40254">
        <ele>119.700195</ele>
        <time>2024-07-13T17:51:32+02:00</time>
      </trkpt>
      <trkpt lat="43.72906" lon="1.40259">
        <ele>119.700195</ele>
        <time>2024-07-13T17:51:33+02:00</time>
      </trkpt>
      <trkpt lat="43.72887" lon="1.40281">
        <ele>119.600586</ele>
        <time>2024-07-13T17:51:37+02:00</time>
      </trkpt>
      <trkpt lat="43.72883" lon="1.40287">
        <ele>119.299805</ele>
        <time>2024-07-13T17:51:38+02:00</time>
      </trkpt>
      <trkpt lat="43.72868" lon="1.40312">
        <ele>119.100586</ele>
        <time>2024-07-13T17:51:42+02:00</time>
      </trkpt>
      <trkpt lat="43.72864" lon="1.40318">
        <ele>118.90039</ele>
        <time>2024-07-13T17:51:43+02:00</time>
      </trkpt>
      <trkpt lat="43.72849" lon="1.40344">
        <ele>118.90039</ele>
        <time>2024-07-13T17:51:47+02:00</time>
      </trkpt>
      <trkpt lat="43.72845" lon="1.40351">
        <ele>118.90039</ele>
        <time>2024-07-13T17:51:48+02:00</time>
      </trkpt>
      <trkpt lat="43.72829" lon="1.40376">
        <ele>119.100586</ele>
        <time>2024-07-13T17:51:52+02:00</time>
      </trkpt>
      <trkpt lat="43.72825" lon="1.40382">
        <ele>119.100586</ele>
        <time>2024-07-13T17:51:53+02:00</time>
      </trkpt>
      <trkpt lat="43.72808" lon="1.40404">
        <ele>119.299805</ele>
        <time>2024-07-13T17:51:57+02:00</time>
      </trkpt>
      <trkpt lat="43.72804" lon="1.40409">
        <ele>119.40039</ele>
        <time>2024-07-13T17:51:58+02:00</time>
      </trkpt>
      <trkpt lat="43.72783" lon="1.40427">
        <ele>119.600586</ele>
        <time>2024-07-13T17:52:02+02:00</time>
      </trkpt>
      <trkpt lat="43.72777" lon="1.40431">
        <ele>119.700195</ele>
        <time>2024-07-13T17:52:03+02:00</time>
      </trkpt>
      <trkpt lat="43.72752" lon="1.40442">
        <ele>119.700195</ele>
        <time>2024-07-13T17:52:07+02:00</time>
      </trkpt>
      <trkpt lat="43.72746" lon="1.40444">
        <ele>119.700195</ele>
        <time>2024-07-13T17:52:08+02:00</time>
      </trkpt>
      <trkpt lat="43.72721" lon="1.40453">
        <ele>119.40039</ele>
        <time>2024-07-13T17:52:12+02:00</time>
      </trkpt>
      <trkpt lat="43.72714" lon="1.40455">
        <ele>119.40039</ele>
        <time>2024-07-13T17:52:13+02:00</time>
      </trkpt>
      <trkpt lat="43.7269" lon="1.40463">
        <ele>119.200195</ele>
        <time>2024-07-13T17:52:17+02:00</time>
      </trkpt>
      <trkpt lat="43.72684" lon="1.40465">
        <ele>119.200195</ele>
        <time>2024-07-13T17:52:18+02:00</time>
      </trkpt>
      <trkpt lat="43.72659" lon="1.40477">
        <ele>119.100586</ele>
        <time>2024-07-13T17:52:22+02:00</time>
      </trkpt>
      <trkpt lat="43.72653" lon="1.40481">
        <ele>119</ele>
        <time>2024-07-13T17:52:23+02:00</time>
      </trkpt>
      <trkpt lat="43.72631" lon="1.405">
        <ele>118.799805</ele>
        <time>2024-07-13T17:52:27+02:00</time>
      </trkpt>
      <trkpt lat="43.72625" lon="1.40505">
        <ele>118.799805</ele>
        <time>2024-07-13T17:52:28+02:00</time>
      </trkpt>
      <trkpt lat="43.72603" lon="1.40524">
        <ele>119.40039</ele>
        <time>2024-07-13T17:52:32+02:00</time>
      </trkpt>
      <trkpt lat="43.72598" lon="1.4053">
        <ele>119.40039</ele>
        <time>2024-07-13T17:52:33+02:00</time>
      </trkpt>
      <trkpt lat="43.72577" lon="1.40549">
        <ele>119.90039</ele>
        <time>2024-07-13T17:52:37+02:00</time>
      </trkpt>
      <trkpt lat="43.72572" lon="1.40553">
        <ele>119.90039</ele>
        <time>2024-07-13T17:52:38+02:00</time>
      </trkpt>
      <trkpt lat="43.72547" lon="1.40565">
        <ele>120.40039</ele>
        <time>2024-07-13T17:52:42+02:00</time>
      </trkpt>
      <trkpt lat="43.7254" lon="1.40566">
        <ele>120.299805</ele>
        <time>2024-07-13T17:52:43+02:00</time>
      </trkpt>
      <trkpt lat="43.72515" lon="1.40572">
        <ele>120.200195</ele>
        <time>2024-07-13T17:52:47+02:00</time>
      </trkpt>
      <trkpt lat="43.72508" lon="1.40573">
        <ele>120.200195</ele>
        <time>2024-07-13T17:52:48+02:00</time>
      </trkpt>
      <trkpt lat="43.72483" lon="1.40574">
        <ele>120.299805</ele>
        <time>2024-07-13T17:52:52+02:00</time>
      </trkpt>
      <trkpt lat="43.72477" lon="1.40575">
        <ele>120.299805</ele>
        <time>2024-07-13T17:52:53+02:00</time>
      </trkpt>
      <trkpt lat="43.72452" lon="1.4058">
        <ele>120.200195</ele>
        <time>2024-07-13T17:52:57+02:00</time>
      </trkpt>
      <trkpt lat="43.72445" lon="1.40581">
        <ele>120.200195</ele>
        <time>2024-07-13T17:52:58+02:00</time>
      </trkpt>
      <trkpt lat="43.7242" lon="1.40586">
        <ele>120.200195</ele>
        <time>2024-07-13T17:53:02+02:00</time>
      </trkpt>
      <trkpt lat="43.72414" lon="1.40587">
        <ele>120.200195</ele>
        <time>2024-07-13T17:53:03+02:00</time>
      </trkpt>
      <trkpt lat="43.72389" lon="1.40593">
        <ele>120.5</ele>
        <time>2024-07-13T17:53:07+02:00</time>
      </trkpt>
      <trkpt lat="43.72382" lon="1.40593">
        <ele>120.600586</ele>
        <time>2024-07-13T17:53:08+02:00</time>
      </trkpt>
      <trkpt lat="43.72358" lon="1.406">
        <ele>120.799805</ele>
        <time>2024-07-13T17:53:12+02:00</time>
      </trkpt>
      <trkpt lat="43.72352" lon="1.40601">
        <ele>120.799805</ele>
        <time>2024-07-13T17:53:13+02:00</time>
      </trkpt>
      <trkpt lat="43.72329" lon="1.40611">
        <ele>121</ele>
        <time>2024-07-13T17:53:17+02:00</time>
      </trkpt>
      <trkpt lat="43.72323" lon="1.40615">
        <ele>121</ele>
        <time>2024-07-13T17:53:18+02:00</time>
      </trkpt>
      <trkpt lat="43.723" lon="1.40628">
        <ele>120.90039</ele>
        <time>2024-07-13T17:53:22+02:00</time>
      </trkpt>
      <trkpt lat="43.72295" lon="1.40631">
        <ele>120.799805</ele>
        <time>2024-07-13T17:53:23+02:00</time>
      </trkpt>
      <trkpt lat="43.72271" lon="1.40641">
        <ele>120.600586</ele>
        <time>2024-07-13T17:53:27+02:00</time>
      </trkpt>
      <trkpt lat="43.72265" lon="1.40641">
        <ele>120.600586</ele>
        <time>2024-07-13T17:53:28+02:00</time>
      </trkpt>
      <trkpt lat="43.72241" lon="1.40638">
        <ele>120.700195</ele>
        <time>2024-07-13T17:53:32+02:00</time>
      </trkpt>
      <trkpt lat="43.72235" lon="1.40636">
        <ele>121</ele>
        <time>2024-07-13T17:53:33+02:00</time>
      </trkpt>
      <trkpt lat="43.72211" lon="1.4063">
        <ele>121.200195</ele>
        <time>2024-07-13T17:53:37+02:00</time>
      </trkpt>
      <trkpt lat="43.72205" lon="1.4063">
        <ele>121.5</ele>
        <time>2024-07-13T17:53:38+02:00</time>
      </trkpt>
      <trkpt lat="43.72181" lon="1.40634">
        <ele>122</ele>
        <time>2024-07-13T17:53:42+02:00</time>
      </trkpt>
      <trkpt lat="43.72175" lon="1.40635">
        <ele>122</ele>
        <time>2024-07-13T17:53:43+02:00</time>
      </trkpt>
      <trkpt lat="43.72151" lon="1.40642">
        <ele>122.100586</ele>
        <time>2024-07-13T17:53:47+02:00</time>
      </trkpt>
      <trkpt lat="43.72145" lon="1.40643">
        <ele>122.5</ele>
        <time>2024-07-13T17:53:48+02:00</time>
      </trkpt>
      <trkpt lat="43.72124" lon="1.40651">
        <ele>122.299805</ele>
        <time>2024-07-13T17:53:52+02:00</time>
      </trkpt>
      <trkpt lat="43.72119" lon="1.40652">
        <ele>122.299805</ele>
        <time>2024-07-13T17:53:53+02:00</time>
      </trkpt>
      <trkpt lat="43.72103" lon="1.40662">
        <ele>122.40039</ele>
        <time>2024-07-13T17:53:57+02:00</time>
      </trkpt>
      <trkpt lat="43.72099" lon="1.40664">
        <ele>122.299805</ele>
        <time>2024-07-13T17:53:58+02:00</time>
      </trkpt>
      <trkpt lat="43.72085" lon="1.40672">
        <ele>122.200195</ele>
        <time>2024-07-13T17:54:02+02:00</time>
      </trkpt>
      <trkpt lat="43.72082" lon="1.40673">
        <ele>122.200195</ele>
        <time>2024-07-13T17:54:03+02:00</time>
      </trkpt>
      <trkpt lat="43.7207" lon="1.40683">
        <ele>122.200195</ele>
        <time>2024-07-13T17:54:07+02:00</time>
      </trkpt>
      <trkpt lat="43.72068" lon="1.40685">
        <ele>122.200195</ele>
        <time>2024-07-13T17:54:08+02:00</time>
      </trkpt>
      <trkpt lat="43.72061" lon="1.4069">
        <ele>122.100586</ele>
        <time>2024-07-13T17:54:12+02:00</time>
      </trkpt>
      <trkpt lat="43.72058" lon="1.40691">
        <ele>122.100586</ele>
        <time>2024-07-13T17:54:13+02:00</time>
      </trkpt>
      <trkpt lat="43.7205" lon="1.40706">
        <ele>122.100586</ele>
        <time>2024-07-13T17:54:17+02:00</time>
      </trkpt>
      <trkpt lat="43.72049" lon="1.40712">
        <ele>122.299805</ele>
        <time>2024-07-13T17:54:18+02:00</time>
      </trkpt>
      <trkpt lat="43.72047" lon="1.40717">
        <ele>122.299805</ele>
        <time>2024-07-13T17:54:20+02:00</time>
      </trkpt>
      <trkpt lat="43.72042" lon="1.40711">
        <ele>122.299805</ele>
        <time>2024-07-13T17:54:22+02:00</time>
      </trkpt>
      <trkpt lat="43.7204" lon="1.40706">
        <ele>122.100586</ele>
        <time>2024-07-13T17:54:23+02:00</time>
      </trkpt>
      <trkpt lat="43.72023" lon="1.40697">
        <ele>121.799805</ele>
        <time>2024-07-13T17:54:27+02:00</time>
      </trkpt>
      <trkpt lat="43.72018" lon="1.40695">
        <ele>121.799805</ele>
        <time>2024-07-13T17:54:28+02:00</time>
      </trkpt>
      <trkpt lat="43.71998" lon="1.40689">
        <ele>121.5</ele>
        <time>2024-07-13T17:54:32+02:00</time>
      </trkpt>
      <trkpt lat="43.71993" lon="1.40687">
        <ele>121.5</ele>
        <time>2024-07-13T17:54:33+02:00</time>
      </trkpt>
      <trkpt lat="43.7197" lon="1.4068">
        <ele>121.700195</ele>
        <time>2024-07-13T17:54:37+02:00</time>
      </trkpt>
      <trkpt lat="43.71964" lon="1.40678">
        <ele>121.700195</ele>
        <time>2024-07-13T17:54:38+02:00</time>
      </trkpt>
      <trkpt lat="43.7194" lon="1.40671">
        <ele>122</ele>
        <time>2024-07-13T17:54:42+02:00</time>
      </trkpt>
      <trkpt lat="43.71934" lon="1.40669">
        <ele>122.200195</ele>
        <time>2024-07-13T17:54:43+02:00</time>
      </trkpt>
      <trkpt lat="43.71911" lon="1.40663">
        <ele>122.5</ele>
        <time>2024-07-13T17:54:47+02:00</time>
      </trkpt>
      <trkpt lat="43.71905" lon="1.40662">
        <ele>122.5</ele>
        <time>2024-07-13T17:54:48+02:00</time>
      </trkpt>
      <trkpt lat="43.71883" lon="1.40657">
        <ele>122.200195</ele>
        <time>2024-07-13T17:54:52+02:00</time>
      </trkpt>
      <trkpt lat="43.71878" lon="1.40656">
        <ele>122.200195</ele>
        <time>2024-07-13T17:54:53+02:00</time>
      </trkpt>
      <trkpt lat="43.71857" lon="1.40652">
        <ele>121.90039</ele>
        <time>2024-07-13T17:54:57+02:00</time>
      </trkpt>
      <trkpt lat="43.71852" lon="1.4065">
        <ele>121.90039</ele>
        <time>2024-07-13T17:54:58+02:00</time>
      </trkpt>
      <trkpt lat="43.71833" lon="1.40649">
        <ele>121.600586</ele>
        <time>2024-07-13T17:55:02+02:00</time>
      </trkpt>
      <trkpt lat="43.7183" lon="1.40652">
        <ele>121.600586</ele>
        <time>2024-07-13T17:55:03+02:00</time>
      </trkpt>
      <trkpt lat="43.71815" lon="1.40677">
        <ele>121.40039</ele>
        <time>2024-07-13T17:55:07+02:00</time>
      </trkpt>
      <trkpt lat="43.71809" lon="1.40678">
        <ele>121</ele>
        <time>2024-07-13T17:55:08+02:00</time>
      </trkpt>
      <trkpt lat="43.71783" lon="1.40675">
        <ele>120</ele>
        <time>2024-07-13T17:55:12+02:00</time>
      </trkpt>
      <trkpt lat="43.71778" lon="1.4068">
        <ele>120.299805</ele>
        <time>2024-07-13T17:55:13+02:00</time>
      </trkpt>
      <trkpt lat="43.71769" lon="1.40713">
        <ele>119.90039</ele>
        <time>2024-07-13T17:55:17+02:00</time>
      </trkpt>
      <trkpt lat="43.71768" lon="1.40721">
        <ele>119.90039</ele>
        <time>2024-07-13T17:55:18+02:00</time>
      </trkpt>
      <trkpt lat="43.71762" lon="1.40751">
        <ele>119.600586</ele>
        <time>2024-07-13T17:55:22+02:00</time>
      </trkpt>
      <trkpt lat="43.71761" lon="1.40759">
        <ele>119.600586</ele>
        <time>2024-07-13T17:55:23+02:00</time>
      </trkpt>
      <trkpt lat="43.71753" lon="1.40789">
        <ele>119.700195</ele>
        <time>2024-07-13T17:55:27+02:00</time>
      </trkpt>
      <trkpt lat="43.71752" lon="1.40796">
        <ele>119.700195</ele>
        <time>2024-07-13T17:55:28+02:00</time>
      </trkpt>
      <trkpt lat="43.71744" lon="1.40825">
        <ele>120</ele>
        <time>2024-07-13T17:55:32+02:00</time>
      </trkpt>
      <trkpt lat="43.71742" lon="1.40832">
        <ele>120.200195</ele>
        <time>2024-07-13T17:55:33+02:00</time>
      </trkpt>
      <trkpt lat="43.71733" lon="1.40861">
        <ele>120.299805</ele>
        <time>2024-07-13T17:55:37+02:00</time>
      </trkpt>
      <trkpt lat="43.71731" lon="1.40867">
        <ele>120.40039</ele>
        <time>2024-07-13T17:55:38+02:00</time>
      </trkpt>
      <trkpt lat="43.71724" lon="1.40894">
        <ele>120.40039</ele>
        <time>2024-07-13T17:55:42+02:00</time>
      </trkpt>
      <trkpt lat="43.71722" lon="1.40901">
        <ele>120.5</ele>
        <time>2024-07-13T17:55:43+02:00</time>
      </trkpt>
      <trkpt lat="43.71712" lon="1.40926">
        <ele>120.299805</ele>
        <time>2024-07-13T17:55:47+02:00</time>
      </trkpt>
      <trkpt lat="43.7171" lon="1.40933">
        <ele>120.299805</ele>
        <time>2024-07-13T17:55:48+02:00</time>
      </trkpt>
      <trkpt lat="43.71702" lon="1.40959">
        <ele>120.40039</ele>
        <time>2024-07-13T17:55:52+02:00</time>
      </trkpt>
      <trkpt lat="43.71699" lon="1.40964">
        <ele>120.40039</ele>
        <time>2024-07-13T17:55:53+02:00</time>
      </trkpt>
      <trkpt lat="43.71681" lon="1.40981">
        <ele>120.5</ele>
        <time>2024-07-13T17:55:57+02:00</time>
      </trkpt>
      <trkpt lat="43.71677" lon="1.40985">
        <ele>120.40039</ele>
        <time>2024-07-13T17:55:58+02:00</time>
      </trkpt>
      <trkpt lat="43.71658" lon="1.41001">
        <ele>120.700195</ele>
        <time>2024-07-13T17:56:02+02:00</time>
      </trkpt>
      <trkpt lat="43.71652" lon="1.41003">
        <ele>121</ele>
        <time>2024-07-13T17:56:03+02:00</time>
      </trkpt>
      <trkpt lat="43.71631" lon="1.41011">
        <ele>121.100586</ele>
        <time>2024-07-13T17:56:07+02:00</time>
      </trkpt>
      <trkpt lat="43.71627" lon="1.41014">
        <ele>121.100586</ele>
        <time>2024-07-13T17:56:08+02:00</time>
      </trkpt>
      <trkpt lat="43.71608" lon="1.41024">
        <ele>121.5</ele>
        <time>2024-07-13T17:56:12+02:00</time>
      </trkpt>
      <trkpt lat="43.71602" lon="1.41025">
        <ele>121.5</ele>
        <time>2024-07-13T17:56:13+02:00</time>
      </trkpt>
      <trkpt lat="43.71579" lon="1.41028">
        <ele>121.40039</ele>
        <time>2024-07-13T17:56:17+02:00</time>
      </trkpt>
      <trkpt lat="43.71573" lon="1.41028">
        <ele>121.299805</ele>
        <time>2024-07-13T17:56:18+02:00</time>
      </trkpt>
      <trkpt lat="43.71549" lon="1.4103">
        <ele>121</ele>
        <time>2024-07-13T17:56:22+02:00</time>
      </trkpt>
      <trkpt lat="43.71543" lon="1.4103">
        <ele>121</ele>
        <time>2024-07-13T17:56:23+02:00</time>
      </trkpt>
      <trkpt lat="43.7152" lon="1.41031">
        <ele>120.799805</ele>
        <time>2024-07-13T17:56:27+02:00</time>
      </trkpt>
      <trkpt lat="43.71515" lon="1.41032">
        <ele>120.600586</ele>
        <time>2024-07-13T17:56:28+02:00</time>
      </trkpt>
      <trkpt lat="43.71491" lon="1.41034">
        <ele>120.5</ele>
        <time>2024-07-13T17:56:32+02:00</time>
      </trkpt>
      <trkpt lat="43.71485" lon="1.41034">
        <ele>120.5</ele>
        <time>2024-07-13T17:56:33+02:00</time>
      </trkpt>
      <trkpt lat="43.71462" lon="1.41036">
        <ele>120.5</ele>
        <time>2024-07-13T17:56:37+02:00</time>
      </trkpt>
      <trkpt lat="43.71456" lon="1.41035">
        <ele>120.5</ele>
        <time>2024-07-13T17:56:38+02:00</time>
      </trkpt>
      <trkpt lat="43.71433" lon="1.41033">
        <ele>120.40039</ele>
        <time>2024-07-13T17:56:42+02:00</time>
      </trkpt>
      <trkpt lat="43.71427" lon="1.41033">
        <ele>120.40039</ele>
        <time>2024-07-13T17:56:43+02:00</time>
      </trkpt>
      <trkpt lat="43.71403" lon="1.41032">
        <ele>120.40039</ele>
        <time>2024-07-13T17:56:47+02:00</time>
      </trkpt>
      <trkpt lat="43.71397" lon="1.41032">
        <ele>120.40039</ele>
        <time>2024-07-13T17:56:48+02:00</time>
      </trkpt>
      <trkpt lat="43.71373" lon="1.41032">
        <ele>120.40039</ele>
        <time>2024-07-13T17:56:52+02:00</time>
      </trkpt>
      <trkpt lat="43.71367" lon="1.41033">
        <ele>120.40039</ele>
        <time>2024-07-13T17:56:53+02:00</time>
      </trkpt>
      <trkpt lat="43.71342" lon="1.41038">
        <ele>120.600586</ele>
        <time>2024-07-13T17:56:57+02:00</time>
      </trkpt>
      <trkpt lat="43.71336" lon="1.41039">
        <ele>120.600586</ele>
        <time>2024-07-13T17:56:58+02:00</time>
      </trkpt>
      <trkpt lat="43.71312" lon="1.41044">
        <ele>120.600586</ele>
        <time>2024-07-13T17:57:02+02:00</time>
      </trkpt>
      <trkpt lat="43.71306" lon="1.41044">
        <ele>120.600586</ele>
        <time>2024-07-13T17:57:03+02:00</time>
      </trkpt>
      <trkpt lat="43.71282" lon="1.41038">
        <ele>120.600586</ele>
        <time>2024-07-13T17:57:07+02:00</time>
      </trkpt>
      <trkpt lat="43.71276" lon="1.41038">
        <ele>120.5</ele>
        <time>2024-07-13T17:57:08+02:00</time>
      </trkpt>
      <trkpt lat="43.71251" lon="1.41039">
        <ele>120.40039</ele>
        <time>2024-07-13T17:57:12+02:00</time>
      </trkpt>
      <trkpt lat="43.71245" lon="1.4104">
        <ele>120.40039</ele>
        <time>2024-07-13T17:57:13+02:00</time>
      </trkpt>
      <trkpt lat="43.7122" lon="1.41044">
        <ele>120.40039</ele>
        <time>2024-07-13T17:57:17+02:00</time>
      </trkpt>
      <trkpt lat="43.71214" lon="1.41045">
        <ele>120.40039</ele>
        <time>2024-07-13T17:57:18+02:00</time>
      </trkpt>
      <trkpt lat="43.71191" lon="1.41047">
        <ele>120.5</ele>
        <time>2024-07-13T17:57:22+02:00</time>
      </trkpt>
      <trkpt lat="43.71185" lon="1.41047">
        <ele>120.5</ele>
        <time>2024-07-13T17:57:23+02:00</time>
      </trkpt>
      <trkpt lat="43.71162" lon="1.41043">
        <ele>120.700195</ele>
        <time>2024-07-13T17:57:27+02:00</time>
      </trkpt>
      <trkpt lat="43.71156" lon="1.41042">
        <ele>120.799805</ele>
        <time>2024-07-13T17:57:28+02:00</time>
      </trkpt>
      <trkpt lat="43.71132" lon="1.41039">
        <ele>121</ele>
        <time>2024-07-13T17:57:32+02:00</time>
      </trkpt>
      <trkpt lat="43.71127" lon="1.41038">
        <ele>121.200195</ele>
        <time>2024-07-13T17:57:33+02:00</time>
      </trkpt>
      <trkpt lat="43.71105" lon="1.41038">
        <ele>121.600586</ele>
        <time>2024-07-13T17:57:37+02:00</time>
      </trkpt>
      <trkpt lat="43.71099" lon="1.41038">
        <ele>121.600586</ele>
        <time>2024-07-13T17:57:38+02:00</time>
      </trkpt>
      <trkpt lat="43.71078" lon="1.41042">
        <ele>121.90039</ele>
        <time>2024-07-13T17:57:42+02:00</time>
      </trkpt>
      <trkpt lat="43.71072" lon="1.41042">
        <ele>121.90039</ele>
        <time>2024-07-13T17:57:43+02:00</time>
      </trkpt>
      <trkpt lat="43.71047" lon="1.41045">
        <ele>122.100586</ele>
        <time>2024-07-13T17:57:47+02:00</time>
      </trkpt>
      <trkpt lat="43.71042" lon="1.41045">
        <ele>122.200195</ele>
        <time>2024-07-13T17:57:48+02:00</time>
      </trkpt>
      <trkpt lat="43.71018" lon="1.41048">
        <ele>122.200195</ele>
        <time>2024-07-13T17:57:52+02:00</time>
      </trkpt>
      <trkpt lat="43.71012" lon="1.41049">
        <ele>122.200195</ele>
        <time>2024-07-13T17:57:53+02:00</time>
      </trkpt>
      <trkpt lat="43.70988" lon="1.41052">
        <ele>122.200195</ele>
        <time>2024-07-13T17:57:57+02:00</time>
      </trkpt>
      <trkpt lat="43.70982" lon="1.41053">
        <ele>122.200195</ele>
        <time>2024-07-13T17:57:58+02:00</time>
      </trkpt>
      <trkpt lat="43.70957" lon="1.41058">
        <ele>122.600586</ele>
        <time>2024-07-13T17:58:02+02:00</time>
      </trkpt>
      <trkpt lat="43.70952" lon="1.4106">
        <ele>122.600586</ele>
        <time>2024-07-13T17:58:03+02:00</time>
      </trkpt>
      <trkpt lat="43.70933" lon="1.41067">
        <ele>122.600586</ele>
        <time>2024-07-13T17:58:07+02:00</time>
      </trkpt>
      <trkpt lat="43.7093" lon="1.41068">
        <ele>122.600586</ele>
        <time>2024-07-13T17:58:08+02:00</time>
      </trkpt>
      <trkpt lat="43.70922" lon="1.41068">
        <ele>122.600586</ele>
        <time>2024-07-13T17:58:12+02:00</time>
      </trkpt>
      <trkpt lat="43.70918" lon="1.41068">
        <ele>122.5</ele>
        <time>2024-07-13T17:58:13+02:00</time>
      </trkpt>
      <trkpt lat="43.709" lon="1.41073">
        <ele>122.90039</ele>
        <time>2024-07-13T17:58:17+02:00</time>
      </trkpt>
      <trkpt lat="43.70896" lon="1.41073">
        <ele>122.90039</ele>
        <time>2024-07-13T17:58:18+02:00</time>
      </trkpt>
      <trkpt lat="43.70879" lon="1.41073">
        <ele>122.90039</ele>
        <time>2024-07-13T17:58:22+02:00</time>
      </trkpt>
      <trkpt lat="43.70874" lon="1.41072">
        <ele>122.90039</ele>
        <time>2024-07-13T17:58:23+02:00</time>
      </trkpt>
      <trkpt lat="43.70854" lon="1.41067">
        <ele>122.40039</ele>
        <time>2024-07-13T17:58:27+02:00</time>
      </trkpt>
      <trkpt lat="43.70848" lon="1.41066">
        <ele>122.40039</ele>
        <time>2024-07-13T17:58:28+02:00</time>
      </trkpt>
      <trkpt lat="43.70829" lon="1.41062">
        <ele>122.299805</ele>
        <time>2024-07-13T17:58:32+02:00</time>
      </trkpt>
      <trkpt lat="43.70825" lon="1.41062">
        <ele>122.299805</ele>
        <time>2024-07-13T17:58:33+02:00</time>
      </trkpt>
      <trkpt lat="43.70809" lon="1.41062">
        <ele>122.200195</ele>
        <time>2024-07-13T17:58:37+02:00</time>
      </trkpt>
      <trkpt lat="43.70804" lon="1.41063">
        <ele>122.200195</ele>
        <time>2024-07-13T17:58:38+02:00</time>
      </trkpt>
      <trkpt lat="43.70787" lon="1.41067">
        <ele>122.100586</ele>
        <time>2024-07-13T17:58:42+02:00</time>
      </trkpt>
      <trkpt lat="43.70783" lon="1.41068">
        <ele>122.100586</ele>
        <time>2024-07-13T17:58:43+02:00</time>
      </trkpt>
      <trkpt lat="43.70765" lon="1.41072">
        <ele>122.5</ele>
        <time>2024-07-13T17:58:47+02:00</time>
      </trkpt>
      <trkpt lat="43.7076" lon="1.41073">
        <ele>122.5</ele>
        <time>2024-07-13T17:58:48+02:00</time>
      </trkpt>
      <trkpt lat="43.70742" lon="1.41076">
        <ele>122.40039</ele>
        <time>2024-07-13T17:58:52+02:00</time>
      </trkpt>
      <trkpt lat="43.70737" lon="1.41076">
        <ele>122.40039</ele>
        <time>2024-07-13T17:58:53+02:00</time>
      </trkpt>
      <trkpt lat="43.70717" lon="1.41077">
        <ele>122.299805</ele>
        <time>2024-07-13T17:58:57+02:00</time>
      </trkpt>
      <trkpt lat="43.70712" lon="1.41077">
        <ele>122.299805</ele>
        <time>2024-07-13T17:58:58+02:00</time>
      </trkpt>
      <trkpt lat="43.70693" lon="1.41077">
        <ele>122.5</ele>
        <time>2024-07-13T17:59:02+02:00</time>
      </trkpt>
      <trkpt lat="43.70688" lon="1.41077">
        <ele>122.5</ele>
        <time>2024-07-13T17:59:03+02:00</time>
      </trkpt>
      <trkpt lat="43.70669" lon="1.41075">
        <ele>122.799805</ele>
        <time>2024-07-13T17:59:07+02:00</time>
      </trkpt>
      <trkpt lat="43.70665" lon="1.41075">
        <ele>122.799805</ele>
        <time>2024-07-13T17:59:08+02:00</time>
      </trkpt>
      <trkpt lat="43.70647" lon="1.41072">
        <ele>123</ele>
        <time>2024-07-13T17:59:12+02:00</time>
      </trkpt>
      <trkpt lat="43.70642" lon="1.41071">
        <ele>122.600586</ele>
        <time>2024-07-13T17:59:13+02:00</time>
      </trkpt>
      <trkpt lat="43.70622" lon="1.41069">
        <ele>122.40039</ele>
        <time>2024-07-13T17:59:17+02:00</time>
      </trkpt>
      <trkpt lat="43.70617" lon="1.41069">
        <ele>122.40039</ele>
        <time>2024-07-13T17:59:18+02:00</time>
      </trkpt>
      <trkpt lat="43.70597" lon="1.41075">
        <ele>122.700195</ele>
        <time>2024-07-13T17:59:22+02:00</time>
      </trkpt>
      <trkpt lat="43.70591" lon="1.41074">
        <ele>122.700195</ele>
        <time>2024-07-13T17:59:23+02:00</time>
      </trkpt>
      <trkpt lat="43.70569" lon="1.41076">
        <ele>122.5</ele>
        <time>2024-07-13T17:59:27+02:00</time>
      </trkpt>
      <trkpt lat="43.70564" lon="1.41077">
        <ele>122.5</ele>
        <time>2024-07-13T17:59:28+02:00</time>
      </trkpt>
      <trkpt lat="43.70543" lon="1.41079">
        <ele>122.200195</ele>
        <time>2024-07-13T17:59:32+02:00</time>
      </trkpt>
      <trkpt lat="43.70538" lon="1.4108">
        <ele>122.200195</ele>
        <time>2024-07-13T17:59:33+02:00</time>
      </trkpt>
      <trkpt lat="43.70517" lon="1.41084">
        <ele>122</ele>
        <time>2024-07-13T17:59:37+02:00</time>
      </trkpt>
      <trkpt lat="43.70512" lon="1.41085">
        <ele>122</ele>
        <time>2024-07-13T17:59:38+02:00</time>
      </trkpt>
      <trkpt lat="43.70491" lon="1.41088">
        <ele>121.799805</ele>
        <time>2024-07-13T17:59:42+02:00</time>
      </trkpt>
      <trkpt lat="43.70485" lon="1.4109">
        <ele>122</ele>
        <time>2024-07-13T17:59:43+02:00</time>
      </trkpt>
      <trkpt lat="43.70463" lon="1.41093">
        <ele>121.90039</ele>
        <time>2024-07-13T17:59:47+02:00</time>
      </trkpt>
      <trkpt lat="43.70458" lon="1.41094">
        <ele>121.90039</ele>
        <time>2024-07-13T17:59:48+02:00</time>
      </trkpt>
      <trkpt lat="43.70438" lon="1.411">
        <ele>121.90039</ele>
        <time>2024-07-13T17:59:52+02:00</time>
      </trkpt>
      <trkpt lat="43.70432" lon="1.41102">
        <ele>121.90039</ele>
        <time>2024-07-13T17:59:53+02:00</time>
      </trkpt>
      <trkpt lat="43.70412" lon="1.41109">
        <ele>121.799805</ele>
        <time>2024-07-13T17:59:57+02:00</time>
      </trkpt>
      <trkpt lat="43.70406" lon="1.41111">
        <ele>121.799805</ele>
        <time>2024-07-13T17:59:58+02:00</time>
      </trkpt>
      <trkpt lat="43.70386" lon="1.41122">
        <ele>121.600586</ele>
        <time>2024-07-13T18:00:02+02:00</time>
      </trkpt>
      <trkpt lat="43.70381" lon="1.41124">
        <ele>121.700195</ele>
        <time>2024-07-13T18:00:03+02:00</time>
      </trkpt>
      <trkpt lat="43.70363" lon="1.41138">
        <ele>121.600586</ele>
        <time>2024-07-13T18:00:07+02:00</time>
      </trkpt>
      <trkpt lat="43.70358" lon="1.41141">
        <ele>121.700195</ele>
        <time>2024-07-13T18:00:08+02:00</time>
      </trkpt>
      <trkpt lat="43.70339" lon="1.41156">
        <ele>121.700195</ele>
        <time>2024-07-13T18:00:12+02:00</time>
      </trkpt>
      <trkpt lat="43.70334" lon="1.4116">
        <ele>121.90039</ele>
        <time>2024-07-13T18:00:13+02:00</time>
      </trkpt>
      <trkpt lat="43.70317" lon="1.41178">
        <ele>122</ele>
        <time>2024-07-13T18:00:17+02:00</time>
      </trkpt>
      <trkpt lat="43.70312" lon="1.41182">
        <ele>121.799805</ele>
        <time>2024-07-13T18:00:18+02:00</time>
      </trkpt>
      <trkpt lat="43.70296" lon="1.41203">
        <ele>121.90039</ele>
        <time>2024-07-13T18:00:22+02:00</time>
      </trkpt>
      <trkpt lat="43.70293" lon="1.41208">
        <ele>121.90039</ele>
        <time>2024-07-13T18:00:23+02:00</time>
      </trkpt>
      <trkpt lat="43.70278" lon="1.41227">
        <ele>122.200195</ele>
        <time>2024-07-13T18:00:27+02:00</time>
      </trkpt>
      <trkpt lat="43.70274" lon="1.41232">
        <ele>121.90039</ele>
        <time>2024-07-13T18:00:28+02:00</time>
      </trkpt>
      <trkpt lat="43.70259" lon="1.41254">
        <ele>122</ele>
        <time>2024-07-13T18:00:32+02:00</time>
      </trkpt>
      <trkpt lat="43.70255" lon="1.41259">
        <ele>122</ele>
        <time>2024-07-13T18:00:33+02:00</time>
      </trkpt>
      <trkpt lat="43.70239" lon="1.4128">
        <ele>123</ele>
        <time>2024-07-13T18:00:37+02:00</time>
      </trkpt>
      <trkpt lat="43.70235" lon="1.41285">
        <ele>122.600586</ele>
        <time>2024-07-13T18:00:38+02:00</time>
      </trkpt>
      <trkpt lat="43.70218" lon="1.41307">
        <ele>122.600586</ele>
        <time>2024-07-13T18:00:42+02:00</time>
      </trkpt>
      <trkpt lat="43.70214" lon="1.41313">
        <ele>123.100586</ele>
        <time>2024-07-13T18:00:43+02:00</time>
      </trkpt>
      <trkpt lat="43.70196" lon="1.41336">
        <ele>122.700195</ele>
        <time>2024-07-13T18:00:47+02:00</time>
      </trkpt>
      <trkpt lat="43.70191" lon="1.41341">
        <ele>122.700195</ele>
        <time>2024-07-13T18:00:48+02:00</time>
      </trkpt>
      <trkpt lat="43.70174" lon="1.41363">
        <ele>122.40039</ele>
        <time>2024-07-13T18:00:52+02:00</time>
      </trkpt>
      <trkpt lat="43.70169" lon="1.41367">
        <ele>122.700195</ele>
        <time>2024-07-13T18:00:53+02:00</time>
      </trkpt>
      <trkpt lat="43.7015" lon="1.41387">
        <ele>122.5</ele>
        <time>2024-07-13T18:00:57+02:00</time>
      </trkpt>
      <trkpt lat="43.70144" lon="1.41392">
        <ele>122.5</ele>
        <time>2024-07-13T18:00:58+02:00</time>
      </trkpt>
      <trkpt lat="43.70126" lon="1.41412">
        <ele>122.40039</ele>
        <time>2024-07-13T18:01:02+02:00</time>
      </trkpt>
      <trkpt lat="43.70122" lon="1.41416">
        <ele>122.700195</ele>
        <time>2024-07-13T18:01:03+02:00</time>
      </trkpt>
      <trkpt lat="43.70105" lon="1.41439">
        <ele>122.600586</ele>
        <time>2024-07-13T18:01:07+02:00</time>
      </trkpt>
      <trkpt lat="43.70101" lon="1.41445">
        <ele>122.200195</ele>
        <time>2024-07-13T18:01:08+02:00</time>
      </trkpt>
      <trkpt lat="43.70084" lon="1.41469">
        <ele>122.299805</ele>
        <time>2024-07-13T18:01:12+02:00</time>
      </trkpt>
      <trkpt lat="43.7008" lon="1.41475">
        <ele>122.299805</ele>
        <time>2024-07-13T18:01:13+02:00</time>
      </trkpt>
      <trkpt lat="43.7006" lon="1.41497">
        <ele>122</ele>
        <time>2024-07-13T18:01:17+02:00</time>
      </trkpt>
      <trkpt lat="43.70055" lon="1.41502">
        <ele>122.100586</ele>
        <time>2024-07-13T18:01:18+02:00</time>
      </trkpt>
      <trkpt lat="43.70036" lon="1.41523">
        <ele>121.90039</ele>
        <time>2024-07-13T18:01:22+02:00</time>
      </trkpt>
      <trkpt lat="43.70032" lon="1.41528">
        <ele>121.90039</ele>
        <time>2024-07-13T18:01:23+02:00</time>
      </trkpt>
      <trkpt lat="43.70013" lon="1.41548">
        <ele>121.799805</ele>
        <time>2024-07-13T18:01:27+02:00</time>
      </trkpt>
      <trkpt lat="43.70008" lon="1.41554">
        <ele>122.100586</ele>
        <time>2024-07-13T18:01:28+02:00</time>
      </trkpt>
      <trkpt lat="43.69992" lon="1.41578">
        <ele>122.299805</ele>
        <time>2024-07-13T18:01:32+02:00</time>
      </trkpt>
      <trkpt lat="43.69988" lon="1.41584">
        <ele>122.299805</ele>
        <time>2024-07-13T18:01:33+02:00</time>
      </trkpt>
      <trkpt lat="43.69971" lon="1.41608">
        <ele>122.799805</ele>
        <time>2024-07-13T18:01:37+02:00</time>
      </trkpt>
      <trkpt lat="43.69967" lon="1.41613">
        <ele>122.799805</ele>
        <time>2024-07-13T18:01:38+02:00</time>
      </trkpt>
      <trkpt lat="43.69949" lon="1.41635">
        <ele>122.90039</ele>
        <time>2024-07-13T18:01:42+02:00</time>
      </trkpt>
      <trkpt lat="43.69944" lon="1.4164">
        <ele>123.100586</ele>
        <time>2024-07-13T18:01:43+02:00</time>
      </trkpt>
      <trkpt lat="43.69925" lon="1.4166">
        <ele>122.90039</ele>
        <time>2024-07-13T18:01:47+02:00</time>
      </trkpt>
      <trkpt lat="43.69921" lon="1.41665">
        <ele>122.90039</ele>
        <time>2024-07-13T18:01:48+02:00</time>
      </trkpt>
      <trkpt lat="43.69903" lon="1.41684">
        <ele>122.799805</ele>
        <time>2024-07-13T18:01:52+02:00</time>
      </trkpt>
      <trkpt lat="43.69898" lon="1.41689">
        <ele>122.799805</ele>
        <time>2024-07-13T18:01:53+02:00</time>
      </trkpt>
      <trkpt lat="43.69879" lon="1.41709">
        <ele>123.100586</ele>
        <time>2024-07-13T18:01:57+02:00</time>
      </trkpt>
      <trkpt lat="43.69875" lon="1.41715">
        <ele>122.90039</ele>
        <time>2024-07-13T18:01:58+02:00</time>
      </trkpt>
      <trkpt lat="43.69859" lon="1.41736">
        <ele>123</ele>
        <time>2024-07-13T18:02:02+02:00</time>
      </trkpt>
      <trkpt lat="43.69855" lon="1.41742">
        <ele>123.200195</ele>
        <time>2024-07-13T18:02:03+02:00</time>
      </trkpt>
      <trkpt lat="43.69839" lon="1.41764">
        <ele>123.40039</ele>
        <time>2024-07-13T18:02:07+02:00</time>
      </trkpt>
      <trkpt lat="43.69834" lon="1.41769">
        <ele>123.40039</ele>
        <time>2024-07-13T18:02:08+02:00</time>
      </trkpt>
      <trkpt lat="43.69818" lon="1.4179">
        <ele>123.600586</ele>
        <time>2024-07-13T18:02:12+02:00</time>
      </trkpt>
      <trkpt lat="43.69814" lon="1.41796">
        <ele>123.600586</ele>
        <time>2024-07-13T18:02:13+02:00</time>
      </trkpt>
      <trkpt lat="43.69796" lon="1.41816">
        <ele>123.5</ele>
        <time>2024-07-13T18:02:17+02:00</time>
      </trkpt>
      <trkpt lat="43.69792" lon="1.41821">
        <ele>123.5</ele>
        <time>2024-07-13T18:02:18+02:00</time>
      </trkpt>
      <trkpt lat="43.69774" lon="1.41843">
        <ele>123.700195</ele>
        <time>2024-07-13T18:02:22+02:00</time>
      </trkpt>
      <trkpt lat="43.6977" lon="1.41849">
        <ele>124.100586</ele>
        <time>2024-07-13T18:02:23+02:00</time>
      </trkpt>
      <trkpt lat="43.69753" lon="1.41867">
        <ele>123.700195</ele>
        <time>2024-07-13T18:02:27+02:00</time>
      </trkpt>
      <trkpt lat="43.69748" lon="1.41872">
        <ele>123.700195</ele>
        <time>2024-07-13T18:02:28+02:00</time>
      </trkpt>
      <trkpt lat="43.69729" lon="1.41894">
        <ele>122.90039</ele>
        <time>2024-07-13T18:02:32+02:00</time>
      </trkpt>
      <trkpt lat="43.69725" lon="1.41899">
        <ele>123.40039</ele>
        <time>2024-07-13T18:02:33+02:00</time>
      </trkpt>
      <trkpt lat="43.69706" lon="1.41919">
        <ele>123.200195</ele>
        <time>2024-07-13T18:02:37+02:00</time>
      </trkpt>
      <trkpt lat="43.69702" lon="1.41924">
        <ele>122.90039</ele>
        <time>2024-07-13T18:02:38+02:00</time>
      </trkpt>
      <trkpt lat="43.69684" lon="1.41944">
        <ele>123.299805</ele>
        <time>2024-07-13T18:02:42+02:00</time>
      </trkpt>
      <trkpt lat="43.69679" lon="1.4195">
        <ele>123.40039</ele>
        <time>2024-07-13T18:02:43+02:00</time>
      </trkpt>
      <trkpt lat="43.69661" lon="1.41971">
        <ele>123.700195</ele>
        <time>2024-07-13T18:02:47+02:00</time>
      </trkpt>
      <trkpt lat="43.69657" lon="1.41976">
        <ele>123.700195</ele>
        <time>2024-07-13T18:02:48+02:00</time>
      </trkpt>
      <trkpt lat="43.69638" lon="1.41998">
        <ele>123.799805</ele>
        <time>2024-07-13T18:02:52+02:00</time>
      </trkpt>
      <trkpt lat="43.69634" lon="1.42004">
        <ele>124.100586</ele>
        <time>2024-07-13T18:02:53+02:00</time>
      </trkpt>
      <trkpt lat="43.69615" lon="1.42028">
        <ele>123.40039</ele>
        <time>2024-07-13T18:02:57+02:00</time>
      </trkpt>
      <trkpt lat="43.69611" lon="1.42034">
        <ele>123.799805</ele>
        <time>2024-07-13T18:02:58+02:00</time>
      </trkpt>
      <trkpt lat="43.69595" lon="1.42059">
        <ele>123.700195</ele>
        <time>2024-07-13T18:03:02+02:00</time>
      </trkpt>
      <trkpt lat="43.69591" lon="1.42065">
        <ele>123.100586</ele>
        <time>2024-07-13T18:03:03+02:00</time>
      </trkpt>
      <trkpt lat="43.69573" lon="1.42089">
        <ele>123.700195</ele>
        <time>2024-07-13T18:03:07+02:00</time>
      </trkpt>
      <trkpt lat="43.69568" lon="1.42094">
        <ele>123.700195</ele>
        <time>2024-07-13T18:03:08+02:00</time>
      </trkpt>
      <trkpt lat="43.6955" lon="1.42116">
        <ele>123.299805</ele>
        <time>2024-07-13T18:03:12+02:00</time>
      </trkpt>
      <trkpt lat="43.69545" lon="1.42121">
        <ele>123.40039</ele>
        <time>2024-07-13T18:03:13+02:00</time>
      </trkpt>
      <trkpt lat="43.69526" lon="1.42143">
        <ele>123.200195</ele>
        <time>2024-07-13T18:03:17+02:00</time>
      </trkpt>
      <trkpt lat="43.69521" lon="1.42149">
        <ele>123.200195</ele>
        <time>2024-07-13T18:03:18+02:00</time>
      </trkpt>
      <trkpt lat="43.69503" lon="1.42173">
        <ele>123</ele>
        <time>2024-07-13T18:03:22+02:00</time>
      </trkpt>
      <trkpt lat="43.695" lon="1.4218">
        <ele>123</ele>
        <time>2024-07-13T18:03:23+02:00</time>
      </trkpt>
      <trkpt lat="43.69484" lon="1.42204">
        <ele>123.100586</ele>
        <time>2024-07-13T18:03:27+02:00</time>
      </trkpt>
      <trkpt lat="43.69479" lon="1.4221">
        <ele>123.5</ele>
        <time>2024-07-13T18:03:28+02:00</time>
      </trkpt>
      <trkpt lat="43.6946" lon="1.42235">
        <ele>123.799805</ele>
        <time>2024-07-13T18:03:32+02:00</time>
      </trkpt>
      <trkpt lat="43.69457" lon="1.42242">
        <ele>124.299805</ele>
        <time>2024-07-13T18:03:33+02:00</time>
      </trkpt>
      <trkpt lat="43.6944" lon="1.42269">
        <ele>124.799805</ele>
        <time>2024-07-13T18:03:37+02:00</time>
      </trkpt>
      <trkpt lat="43.69434" lon="1.42277">
        <ele>125.40039</ele>
        <time>2024-07-13T18:03:38+02:00</time>
      </trkpt>
      <trkpt lat="43.69415" lon="1.42305">
        <ele>125.90039</ele>
        <time>2024-07-13T18:03:42+02:00</time>
      </trkpt>
      <trkpt lat="43.69411" lon="1.42311">
        <ele>126.299805</ele>
        <time>2024-07-13T18:03:43+02:00</time>
      </trkpt>
      <trkpt lat="43.69393" lon="1.42339">
        <ele>125.799805</ele>
        <time>2024-07-13T18:03:47+02:00</time>
      </trkpt>
      <trkpt lat="43.69389" lon="1.42346">
        <ele>126.100586</ele>
        <time>2024-07-13T18:03:48+02:00</time>
      </trkpt>
      <trkpt lat="43.69369" lon="1.42373">
        <ele>125.5</ele>
        <time>2024-07-13T18:03:52+02:00</time>
      </trkpt>
      <trkpt lat="43.69365" lon="1.42381">
        <ele>125.799805</ele>
        <time>2024-07-13T18:03:53+02:00</time>
      </trkpt>
      <trkpt lat="43.6935" lon="1.42413">
        <ele>125.90039</ele>
        <time>2024-07-13T18:03:57+02:00</time>
      </trkpt>
      <trkpt lat="43.69346" lon="1.4242">
        <ele>125.90039</ele>
        <time>2024-07-13T18:03:58+02:00</time>
      </trkpt>
      <trkpt lat="43.69332" lon="1.42449">
        <ele>125.600586</ele>
        <time>2024-07-13T18:04:02+02:00</time>
      </trkpt>
      <trkpt lat="43.69329" lon="1.42457">
        <ele>125.600586</ele>
        <time>2024-07-13T18:04:03+02:00</time>
      </trkpt>
      <trkpt lat="43.69314" lon="1.42486">
        <ele>125.799805</ele>
        <time>2024-07-13T18:04:07+02:00</time>
      </trkpt>
      <trkpt lat="43.69311" lon="1.42494">
        <ele>125.799805</ele>
        <time>2024-07-13T18:04:08+02:00</time>
      </trkpt>
      <trkpt lat="43.69293" lon="1.42521">
        <ele>125.799805</ele>
        <time>2024-07-13T18:04:12+02:00</time>
      </trkpt>
      <trkpt lat="43.69287" lon="1.42527">
        <ele>125.799805</ele>
        <time>2024-07-13T18:04:13+02:00</time>
      </trkpt>
      <trkpt lat="43.69265" lon="1.42546">
        <ele>125.799805</ele>
        <time>2024-07-13T18:04:17+02:00</time>
      </trkpt>
      <trkpt lat="43.69259" lon="1.4255">
        <ele>126.100586</ele>
        <time>2024-07-13T18:04:18+02:00</time>
      </trkpt>
      <trkpt lat="43.69236" lon="1.42565">
        <ele>125.90039</ele>
        <time>2024-07-13T18:04:22+02:00</time>
      </trkpt>
      <trkpt lat="43.6923" lon="1.4257">
        <ele>125.700195</ele>
        <time>2024-07-13T18:04:23+02:00</time>
      </trkpt>
      <trkpt lat="43.69205" lon="1.42585">
        <ele>125.700195</ele>
        <time>2024-07-13T18:04:27+02:00</time>
      </trkpt>
      <trkpt lat="43.69199" lon="1.42588">
        <ele>125.700195</ele>
        <time>2024-07-13T18:04:28+02:00</time>
      </trkpt>
      <trkpt lat="43.69171" lon="1.42593">
        <ele>125.600586</ele>
        <time>2024-07-13T18:04:32+02:00</time>
      </trkpt>
      <trkpt lat="43.69165" lon="1.42594">
        <ele>125.5</ele>
        <time>2024-07-13T18:04:33+02:00</time>
      </trkpt>
      <trkpt lat="43.69139" lon="1.42599">
        <ele>125.600586</ele>
        <time>2024-07-13T18:04:37+02:00</time>
      </trkpt>
      <trkpt lat="43.69133" lon="1.426">
        <ele>126.200195</ele>
        <time>2024-07-13T18:04:38+02:00</time>
      </trkpt>
      <trkpt lat="43.69109" lon="1.42609">
        <ele>126.200195</ele>
        <time>2024-07-13T18:04:42+02:00</time>
      </trkpt>
      <trkpt lat="43.69104" lon="1.42614">
        <ele>126.200195</ele>
        <time>2024-07-13T18:04:43+02:00</time>
      </trkpt>
      <trkpt lat="43.69087" lon="1.42634">
        <ele>127.90039</ele>
        <time>2024-07-13T18:04:47+02:00</time>
      </trkpt>
      <trkpt lat="43.69081" lon="1.4264">
        <ele>127.700195</ele>
        <time>2024-07-13T18:04:48+02:00</time>
      </trkpt>
      <trkpt lat="43.69059" lon="1.42652">
        <ele>128.60059</ele>
        <time>2024-07-13T18:04:52+02:00</time>
      </trkpt>
      <trkpt lat="43.69053" lon="1.42653">
        <ele>128.40039</ele>
        <time>2024-07-13T18:04:53+02:00</time>
      </trkpt>
      <trkpt lat="43.69025" lon="1.42654">
        <ele>127.90039</ele>
        <time>2024-07-13T18:04:57+02:00</time>
      </trkpt>
      <trkpt lat="43.69019" lon="1.42656">
        <ele>127.700195</ele>
        <time>2024-07-13T18:04:58+02:00</time>
      </trkpt>
      <trkpt lat="43.68992" lon="1.42663">
        <ele>127.700195</ele>
        <time>2024-07-13T18:05:02+02:00</time>
      </trkpt>
      <trkpt lat="43.68986" lon="1.42665">
        <ele>127.700195</ele>
        <time>2024-07-13T18:05:03+02:00</time>
      </trkpt>
      <trkpt lat="43.68959" lon="1.42677">
        <ele>128.7002</ele>
        <time>2024-07-13T18:05:07+02:00</time>
      </trkpt>
      <trkpt lat="43.68952" lon="1.42681">
        <ele>128.7002</ele>
        <time>2024-07-13T18:05:08+02:00</time>
      </trkpt>
      <trkpt lat="43.6893" lon="1.42698">
        <ele>129.2998</ele>
        <time>2024-07-13T18:05:12+02:00</time>
      </trkpt>
      <trkpt lat="43.68925" lon="1.42703">
        <ele>129.2998</ele>
        <time>2024-07-13T18:05:13+02:00</time>
      </trkpt>
      <trkpt lat="43.68904" lon="1.42717">
        <ele>129.40039</ele>
        <time>2024-07-13T18:05:17+02:00</time>
      </trkpt>
      <trkpt lat="43.68898" lon="1.42721">
        <ele>129.40039</ele>
        <time>2024-07-13T18:05:18+02:00</time>
      </trkpt>
      <trkpt lat="43.68877" lon="1.42734">
        <ele>129.5</ele>
        <time>2024-07-13T18:05:22+02:00</time>
      </trkpt>
      <trkpt lat="43.68872" lon="1.42736">
        <ele>129.60059</ele>
        <time>2024-07-13T18:05:23+02:00</time>
      </trkpt>
      <trkpt lat="43.68849" lon="1.42726">
        <ele>129.60059</ele>
        <time>2024-07-13T18:05:27+02:00</time>
      </trkpt>
      <trkpt lat="43.68843" lon="1.42722">
        <ele>129.60059</ele>
        <time>2024-07-13T18:05:28+02:00</time>
      </trkpt>
      <trkpt lat="43.68821" lon="1.4271">
        <ele>129.40039</ele>
        <time>2024-07-13T18:05:32+02:00</time>
      </trkpt>
      <trkpt lat="43.68816" lon="1.42707">
        <ele>129.40039</ele>
        <time>2024-07-13T18:05:33+02:00</time>
      </trkpt>
      <trkpt lat="43.68795" lon="1.42691">
        <ele>128.90039</ele>
        <time>2024-07-13T18:05:37+02:00</time>
      </trkpt>
      <trkpt lat="43.68794" lon="1.42684">
        <ele>128.7002</ele>
        <time>2024-07-13T18:05:38+02:00</time>
      </trkpt>
      <trkpt lat="43.688" lon="1.42672">
        <ele>128.90039</ele>
        <time>2024-07-13T18:05:40+02:00</time>
      </trkpt>
      <trkpt lat="43.68814" lon="1.42668">
        <ele>129</ele>
        <time>2024-07-13T18:05:42+02:00</time>
      </trkpt>
      <trkpt lat="43.68821" lon="1.42666">
        <ele>128.7002</ele>
        <time>2024-07-13T18:05:43+02:00</time>
      </trkpt>
      <trkpt lat="43.68834" lon="1.42654">
        <ele>128.90039</ele>
        <time>2024-07-13T18:05:47+02:00</time>
      </trkpt>
      <trkpt lat="43.68834" lon="1.42649">
        <ele>128.60059</ele>
        <time>2024-07-13T18:05:48+02:00</time>
      </trkpt>
      <trkpt lat="43.68832" lon="1.42625">
        <ele>128.2998</ele>
        <time>2024-07-13T18:05:52+02:00</time>
      </trkpt>
      <trkpt lat="43.68831" lon="1.42618">
        <ele>128.2998</ele>
        <time>2024-07-13T18:05:53+02:00</time>
      </trkpt>
      <trkpt lat="43.68821" lon="1.42593">
        <ele>127.40039</ele>
        <time>2024-07-13T18:05:57+02:00</time>
      </trkpt>
      <trkpt lat="43.68817" lon="1.42586">
        <ele>127.40039</ele>
        <time>2024-07-13T18:05:58+02:00</time>
      </trkpt>
      <trkpt lat="43.688" lon="1.42565">
        <ele>127.100586</ele>
        <time>2024-07-13T18:06:02+02:00</time>
      </trkpt>
      <trkpt lat="43.68794" lon="1.42563">
        <ele>126.600586</ele>
        <time>2024-07-13T18:06:03+02:00</time>
      </trkpt>
      <trkpt lat="43.6877" lon="1.42562">
        <ele>126.5</ele>
        <time>2024-07-13T18:06:07+02:00</time>
      </trkpt>
      <trkpt lat="43.68764" lon="1.42561">
        <ele>126.5</ele>
        <time>2024-07-13T18:06:08+02:00</time>
      </trkpt>
      <trkpt lat="43.6874" lon="1.42559">
        <ele>126.299805</ele>
        <time>2024-07-13T18:06:12+02:00</time>
      </trkpt>
      <trkpt lat="43.68734" lon="1.42561">
        <ele>126.200195</ele>
        <time>2024-07-13T18:06:13+02:00</time>
      </trkpt>
      <trkpt lat="43.68714" lon="1.42577">
        <ele>126.600586</ele>
        <time>2024-07-13T18:06:17+02:00</time>
      </trkpt>
      <trkpt lat="43.68709" lon="1.42582">
        <ele>126.799805</ele>
        <time>2024-07-13T18:06:18+02:00</time>
      </trkpt>
      <trkpt lat="43.68685" lon="1.42592">
        <ele>126.299805</ele>
        <time>2024-07-13T18:06:22+02:00</time>
      </trkpt>
      <trkpt lat="43.68679" lon="1.42595">
        <ele>126.299805</ele>
        <time>2024-07-13T18:06:23+02:00</time>
      </trkpt>
      <trkpt lat="43.68659" lon="1.42617">
        <ele>126.40039</ele>
        <time>2024-07-13T18:06:27+02:00</time>
      </trkpt>
      <trkpt lat="43.68655" lon="1.42623">
        <ele>126.40039</ele>
        <time>2024-07-13T18:06:28+02:00</time>
      </trkpt>
      <trkpt lat="43.68637" lon="1.42648">
        <ele>125.600586</ele>
        <time>2024-07-13T18:06:32+02:00</time>
      </trkpt>
      <trkpt lat="43.68631" lon="1.42654">
        <ele>126.5</ele>
        <time>2024-07-13T18:06:33+02:00</time>
      </trkpt>
      <trkpt lat="43.6861" lon="1.42677">
        <ele>126.299805</ele>
        <time>2024-07-13T18:06:37+02:00</time>
      </trkpt>
      <trkpt lat="43.68604" lon="1.42682">
        <ele>126.299805</ele>
        <time>2024-07-13T18:06:38+02:00</time>
      </trkpt>
      <trkpt lat="43.68586" lon="1.42708">
        <ele>126.299805</ele>
        <time>2024-07-13T18:06:42+02:00</time>
      </trkpt>
      <trkpt lat="43.68581" lon="1.42714">
        <ele>126.299805</ele>
        <time>2024-07-13T18:06:43+02:00</time>
      </trkpt>
      <trkpt lat="43.68562" lon="1.42738">
        <ele>126.90039</ele>
        <time>2024-07-13T18:06:47+02:00</time>
      </trkpt>
      <trkpt lat="43.68558" lon="1.42744">
        <ele>126.90039</ele>
        <time>2024-07-13T18:06:48+02:00</time>
      </trkpt>
      <trkpt lat="43.68537" lon="1.42767">
        <ele>126.299805</ele>
        <time>2024-07-13T18:06:52+02:00</time>
      </trkpt>
      <trkpt lat="43.68532" lon="1.42772">
        <ele>126.90039</ele>
        <time>2024-07-13T18:06:53+02:00</time>
      </trkpt>
      <trkpt lat="43.68513" lon="1.42792">
        <ele>126.40039</ele>
        <time>2024-07-13T18:06:57+02:00</time>
      </trkpt>
      <trkpt lat="43.68508" lon="1.42797">
        <ele>126.40039</ele>
        <time>2024-07-13T18:06:58+02:00</time>
      </trkpt>
      <trkpt lat="43.68493" lon="1.42815">
        <ele>126.90039</ele>
        <time>2024-07-13T18:07:02+02:00</time>
      </trkpt>
      <trkpt lat="43.6849" lon="1.42818">
        <ele>126.90039</ele>
        <time>2024-07-13T18:07:03+02:00</time>
      </trkpt>
      <trkpt lat="43.68474" lon="1.42833">
        <ele>126.299805</ele>
        <time>2024-07-13T18:07:07+02:00</time>
      </trkpt>
      <trkpt lat="43.68468" lon="1.42837">
        <ele>126.299805</ele>
        <time>2024-07-13T18:07:08+02:00</time>
      </trkpt>
      <trkpt lat="43.68446" lon="1.42857">
        <ele>126.100586</ele>
        <time>2024-07-13T18:07:12+02:00</time>
      </trkpt>
      <trkpt lat="43.68442" lon="1.42863">
        <ele>126.100586</ele>
        <time>2024-07-13T18:07:13+02:00</time>
      </trkpt>
      <trkpt lat="43.68423" lon="1.42885">
        <ele>125.799805</ele>
        <time>2024-07-13T18:07:17+02:00</time>
      </trkpt>
      <trkpt lat="43.68418" lon="1.42891">
        <ele>125.799805</ele>
        <time>2024-07-13T18:07:18+02:00</time>
      </trkpt>
      <trkpt lat="43.68399" lon="1.42913">
        <ele>125.600586</ele>
        <time>2024-07-13T18:07:22+02:00</time>
      </trkpt>
      <trkpt lat="43.68395" lon="1.42919">
        <ele>125.600586</ele>
        <time>2024-07-13T18:07:23+02:00</time>
      </trkpt>
      <trkpt lat="43.68376" lon="1.42941">
        <ele>125.40039</ele>
        <time>2024-07-13T18:07:27+02:00</time>
      </trkpt>
      <trkpt lat="43.68371" lon="1.42947">
        <ele>125.40039</ele>
        <time>2024-07-13T18:07:28+02:00</time>
      </trkpt>
      <trkpt lat="43.68351" lon="1.42968">
        <ele>125.200195</ele>
        <time>2024-07-13T18:07:32+02:00</time>
      </trkpt>
      <trkpt lat="43.68347" lon="1.42974">
        <ele>125.200195</ele>
        <time>2024-07-13T18:07:33+02:00</time>
      </trkpt>
      <trkpt lat="43.68328" lon="1.42996">
        <ele>125.5</ele>
        <time>2024-07-13T18:07:37+02:00</time>
      </trkpt>
      <trkpt lat="43.68324" lon="1.43001">
        <ele>125.700195</ele>
        <time>2024-07-13T18:07:38+02:00</time>
      </trkpt>
      <trkpt lat="43.68305" lon="1.43022">
        <ele>126</ele>
        <time>2024-07-13T18:07:42+02:00</time>
      </trkpt>
      <trkpt lat="43.683" lon="1.43027">
        <ele>126.200195</ele>
        <time>2024-07-13T18:07:43+02:00</time>
      </trkpt>
      <trkpt lat="43.68283" lon="1.43049">
        <ele>126.700195</ele>
        <time>2024-07-13T18:07:47+02:00</time>
      </trkpt>
      <trkpt lat="43.68279" lon="1.43055">
        <ele>126.700195</ele>
        <time>2024-07-13T18:07:48+02:00</time>
      </trkpt>
      <trkpt lat="43.6826" lon="1.43075">
        <ele>127</ele>
        <time>2024-07-13T18:07:52+02:00</time>
      </trkpt>
      <trkpt lat="43.68257" lon="1.43083">
        <ele>127.100586</ele>
        <time>2024-07-13T18:07:53+02:00</time>
      </trkpt>
      <trkpt lat="43.6824" lon="1.4311">
        <ele>127.200195</ele>
        <time>2024-07-13T18:07:57+02:00</time>
      </trkpt>
      <trkpt lat="43.68235" lon="1.43117">
        <ele>127.299805</ele>
        <time>2024-07-13T18:07:58+02:00</time>
      </trkpt>
      <trkpt lat="43.68216" lon="1.43138">
        <ele>127.40039</ele>
        <time>2024-07-13T18:08:02+02:00</time>
      </trkpt>
      <trkpt lat="43.68211" lon="1.43144">
        <ele>127.299805</ele>
        <time>2024-07-13T18:08:03+02:00</time>
      </trkpt>
      <trkpt lat="43.68191" lon="1.43167">
        <ele>127.40039</ele>
        <time>2024-07-13T18:08:07+02:00</time>
      </trkpt>
      <trkpt lat="43.68186" lon="1.43174">
        <ele>127.299805</ele>
        <time>2024-07-13T18:08:08+02:00</time>
      </trkpt>
      <trkpt lat="43.68167" lon="1.43199">
        <ele>127.200195</ele>
        <time>2024-07-13T18:08:12+02:00</time>
      </trkpt>
      <trkpt lat="43.68163" lon="1.43205">
        <ele>127.299805</ele>
        <time>2024-07-13T18:08:13+02:00</time>
      </trkpt>
      <trkpt lat="43.68144" lon="1.43228">
        <ele>127.40039</ele>
        <time>2024-07-13T18:08:17+02:00</time>
      </trkpt>
      <trkpt lat="43.68139" lon="1.43234">
        <ele>127.40039</ele>
        <time>2024-07-13T18:08:18+02:00</time>
      </trkpt>
      <trkpt lat="43.68119" lon="1.43257">
        <ele>127.700195</ele>
        <time>2024-07-13T18:08:22+02:00</time>
      </trkpt>
      <trkpt lat="43.68115" lon="1.43263">
        <ele>127.600586</ele>
        <time>2024-07-13T18:08:23+02:00</time>
      </trkpt>
      <trkpt lat="43.681" lon="1.43288">
        <ele>127.90039</ele>
        <time>2024-07-13T18:08:27+02:00</time>
      </trkpt>
      <trkpt lat="43.68096" lon="1.43295">
        <ele>127.90039</ele>
        <time>2024-07-13T18:08:28+02:00</time>
      </trkpt>
      <trkpt lat="43.68079" lon="1.43319">
        <ele>127.799805</ele>
        <time>2024-07-13T18:08:32+02:00</time>
      </trkpt>
      <trkpt lat="43.68076" lon="1.43326">
        <ele>127.90039</ele>
        <time>2024-07-13T18:08:33+02:00</time>
      </trkpt>
      <trkpt lat="43.68061" lon="1.43351">
        <ele>128.2002</ele>
        <time>2024-07-13T18:08:37+02:00</time>
      </trkpt>
      <trkpt lat="43.68059" lon="1.43359">
        <ele>128.2002</ele>
        <time>2024-07-13T18:08:38+02:00</time>
      </trkpt>
      <trkpt lat="43.68062" lon="1.43387">
        <ele>128.10059</ele>
        <time>2024-07-13T18:08:42+02:00</time>
      </trkpt>
      <trkpt lat="43.68061" lon="1.43389">
        <ele>128</ele>
        <time>2024-07-13T18:08:43+02:00</time>
      </trkpt>
      <trkpt lat="43.68056" lon="1.43391">
        <ele>128</ele>
        <time>2024-07-13T18:08:48+02:00</time>
      </trkpt>
      <trkpt lat="43.68054" lon="1.43392">
        <ele>128</ele>
        <time>2024-07-13T18:08:49+02:00</time>
      </trkpt>
      <trkpt lat="43.68035" lon="1.43411">
        <ele>128.2002</ele>
        <time>2024-07-13T18:08:53+02:00</time>
      </trkpt>
      <trkpt lat="43.6803" lon="1.43415">
        <ele>128.2002</ele>
        <time>2024-07-13T18:08:54+02:00</time>
      </trkpt>
      <trkpt lat="43.6801" lon="1.43431">
        <ele>128.2998</ele>
        <time>2024-07-13T18:08:58+02:00</time>
      </trkpt>
      <trkpt lat="43.68006" lon="1.43437">
        <ele>128.2998</ele>
        <time>2024-07-13T18:08:59+02:00</time>
      </trkpt>
      <trkpt lat="43.67993" lon="1.43462">
        <ele>128.2998</ele>
        <time>2024-07-13T18:09:03+02:00</time>
      </trkpt>
      <trkpt lat="43.67988" lon="1.43468">
        <ele>128.2998</ele>
        <time>2024-07-13T18:09:04+02:00</time>
      </trkpt>
      <trkpt lat="43.6797" lon="1.4349">
        <ele>128.40039</ele>
        <time>2024-07-13T18:09:08+02:00</time>
      </trkpt>
      <trkpt lat="43.67966" lon="1.43495">
        <ele>128.2002</ele>
        <time>2024-07-13T18:09:09+02:00</time>
      </trkpt>
      <trkpt lat="43.6795" lon="1.43518">
        <ele>128.2002</ele>
        <time>2024-07-13T18:09:13+02:00</time>
      </trkpt>
      <trkpt lat="43.67946" lon="1.43524">
        <ele>128.2002</ele>
        <time>2024-07-13T18:09:14+02:00</time>
      </trkpt>
      <trkpt lat="43.6793" lon="1.43551">
        <ele>128.2002</ele>
        <time>2024-07-13T18:09:18+02:00</time>
      </trkpt>
      <trkpt lat="43.67926" lon="1.43556">
        <ele>127.90039</ele>
        <time>2024-07-13T18:09:19+02:00</time>
      </trkpt>
      <trkpt lat="43.67912" lon="1.43581">
        <ele>128.2998</ele>
        <time>2024-07-13T18:09:23+02:00</time>
      </trkpt>
      <trkpt lat="43.67908" lon="1.43588">
        <ele>128.2998</ele>
        <time>2024-07-13T18:09:24+02:00</time>
      </trkpt>
      <trkpt lat="43.6789" lon="1.43612">
        <ele>128.2002</ele>
        <time>2024-07-13T18:09:28+02:00</time>
      </trkpt>
      <trkpt lat="43.67885" lon="1.43616">
        <ele>128.2002</ele>
        <time>2024-07-13T18:09:29+02:00</time>
      </trkpt>
      <trkpt lat="43.67865" lon="1.43636">
        <ele>127.700195</ele>
        <time>2024-07-13T18:09:33+02:00</time>
      </trkpt>
      <trkpt lat="43.6786" lon="1.43641">
        <ele>127.700195</ele>
        <time>2024-07-13T18:09:34+02:00</time>
      </trkpt>
      <trkpt lat="43.67846" lon="1.4366">
        <ele>127.600586</ele>
        <time>2024-07-13T18:09:38+02:00</time>
      </trkpt>
      <trkpt lat="43.67842" lon="1.43665">
        <ele>127.600586</ele>
        <time>2024-07-13T18:09:39+02:00</time>
      </trkpt>
      <trkpt lat="43.67829" lon="1.43681">
        <ele>127.700195</ele>
        <time>2024-07-13T18:09:43+02:00</time>
      </trkpt>
      <trkpt lat="43.67826" lon="1.43686">
        <ele>127.700195</ele>
        <time>2024-07-13T18:09:44+02:00</time>
      </trkpt>
      <trkpt lat="43.6781" lon="1.43707">
        <ele>127.700195</ele>
        <time>2024-07-13T18:09:48+02:00</time>
      </trkpt>
      <trkpt lat="43.67806" lon="1.43712">
        <ele>127.700195</ele>
        <time>2024-07-13T18:09:49+02:00</time>
      </trkpt>
      <trkpt lat="43.67791" lon="1.43732">
        <ele>127.700195</ele>
        <time>2024-07-13T18:09:53+02:00</time>
      </trkpt>
      <trkpt lat="43.67787" lon="1.43736">
        <ele>127.799805</ele>
        <time>2024-07-13T18:09:54+02:00</time>
      </trkpt>
      <trkpt lat="43.67773" lon="1.43754">
        <ele>128</ele>
        <time>2024-07-13T18:09:58+02:00</time>
      </trkpt>
      <trkpt lat="43.67769" lon="1.43757">
        <ele>128</ele>
        <time>2024-07-13T18:09:59+02:00</time>
      </trkpt>
      <trkpt lat="43.67751" lon="1.43772">
        <ele>128.10059</ele>
        <time>2024-07-13T18:10:03+02:00</time>
      </trkpt>
      <trkpt lat="43.67746" lon="1.43774">
        <ele>128.10059</ele>
        <time>2024-07-13T18:10:04+02:00</time>
      </trkpt>
      <trkpt lat="43.6774" lon="1.43778">
        <ele>127.90039</ele>
        <time>2024-07-13T18:10:08+02:00</time>
      </trkpt>
      <trkpt lat="43.67739" lon="1.43778">
        <ele>127.90039</ele>
        <time>2024-07-13T18:10:09+02:00</time>
      </trkpt>
      <trkpt lat="43.67735" lon="1.43781">
        <ele>127.90039</ele>
        <time>2024-07-13T18:10:13+02:00</time>
      </trkpt>
      <trkpt lat="43.67734" lon="1.43782">
        <ele>127.90039</ele>
        <time>2024-07-13T18:10:14+02:00</time>
      </trkpt>
      <trkpt lat="43.67731" lon="1.43783">
        <ele>127.90039</ele>
        <time>2024-07-13T18:10:18+02:00</time>
      </trkpt>
      <trkpt lat="43.6773" lon="1.43784">
        <ele>128.2002</ele>
        <time>2024-07-13T18:10:19+02:00</time>
      </trkpt>
      <trkpt lat="43.67727" lon="1.43785">
        <ele>128.2002</ele>
        <time>2024-07-13T18:10:23+02:00</time>
      </trkpt>
      <trkpt lat="43.67726" lon="1.43786">
        <ele>128.2002</ele>
        <time>2024-07-13T18:10:24+02:00</time>
      </trkpt>
      <trkpt lat="43.67724" lon="1.43788">
        <ele>128.2002</ele>
        <time>2024-07-13T18:10:28+02:00</time>
      </trkpt>
      <trkpt lat="43.67722" lon="1.4379">
        <ele>128.2002</ele>
        <time>2024-07-13T18:10:29+02:00</time>
      </trkpt>
      <trkpt lat="43.67713" lon="1.43799">
        <ele>128</ele>
        <time>2024-07-13T18:10:33+02:00</time>
      </trkpt>
      <trkpt lat="43.67709" lon="1.43802">
        <ele>128.40039</ele>
        <time>2024-07-13T18:10:34+02:00</time>
      </trkpt>
      <trkpt lat="43.67693" lon="1.43817">
        <ele>127.799805</ele>
        <time>2024-07-13T18:10:38+02:00</time>
      </trkpt>
      <trkpt lat="43.67689" lon="1.4382">
        <ele>128.2998</ele>
        <time>2024-07-13T18:10:39+02:00</time>
      </trkpt>
      <trkpt lat="43.67676" lon="1.43832">
        <ele>128.10059</ele>
        <time>2024-07-13T18:10:43+02:00</time>
      </trkpt>
      <trkpt lat="43.67672" lon="1.43834">
        <ele>128.10059</ele>
        <time>2024-07-13T18:10:44+02:00</time>
      </trkpt>
      <trkpt lat="43.67658" lon="1.43844">
        <ele>128.2998</ele>
        <time>2024-07-13T18:10:48+02:00</time>
      </trkpt>
      <trkpt lat="43.67655" lon="1.43848">
        <ele>128.2002</ele>
        <time>2024-07-13T18:10:49+02:00</time>
      </trkpt>
      <trkpt lat="43.67642" lon="1.43859">
        <ele>128.2002</ele>
        <time>2024-07-13T18:10:53+02:00</time>
      </trkpt>
      <trkpt lat="43.67636" lon="1.43863">
        <ele>128.2002</ele>
        <time>2024-07-13T18:10:54+02:00</time>
      </trkpt>
      <trkpt lat="43.67618" lon="1.43879">
        <ele>128.10059</ele>
        <time>2024-07-13T18:10:58+02:00</time>
      </trkpt>
      <trkpt lat="43.67615" lon="1.43882">
        <ele>128.10059</ele>
        <time>2024-07-13T18:10:59+02:00</time>
      </trkpt>
      <trkpt lat="43.67601" lon="1.43888">
        <ele>128.10059</ele>
        <time>2024-07-13T18:11:03+02:00</time>
      </trkpt>
      <trkpt lat="43.67599" lon="1.4389">
        <ele>128.10059</ele>
        <time>2024-07-13T18:11:04+02:00</time>
      </trkpt>
      <trkpt lat="43.67588" lon="1.43902">
        <ele>128.10059</ele>
        <time>2024-07-13T18:11:08+02:00</time>
      </trkpt>
      <trkpt lat="43.67585" lon="1.43906">
        <ele>128.10059</ele>
        <time>2024-07-13T18:11:09+02:00</time>
      </trkpt>
      <trkpt lat="43.67571" lon="1.4393">
        <ele>128.10059</ele>
        <time>2024-07-13T18:11:13+02:00</time>
      </trkpt>
      <trkpt lat="43.67568" lon="1.43937">
        <ele>128.2002</ele>
        <time>2024-07-13T18:11:14+02:00</time>
      </trkpt>
      <trkpt lat="43.67555" lon="1.43965">
        <ele>128.2998</ele>
        <time>2024-07-13T18:11:18+02:00</time>
      </trkpt>
      <trkpt lat="43.67552" lon="1.43972">
        <ele>128.2998</ele>
        <time>2024-07-13T18:11:19+02:00</time>
      </trkpt>
      <trkpt lat="43.6754" lon="1.43999">
        <ele>128.5</ele>
        <time>2024-07-13T18:11:23+02:00</time>
      </trkpt>
      <trkpt lat="43.67537" lon="1.44006">
        <ele>128.5</ele>
        <time>2024-07-13T18:11:24+02:00</time>
      </trkpt>
      <trkpt lat="43.67529" lon="1.44037">
        <ele>128.7998</ele>
        <time>2024-07-13T18:11:28+02:00</time>
      </trkpt>
      <trkpt lat="43.67526" lon="1.44045">
        <ele>128.7998</ele>
        <time>2024-07-13T18:11:29+02:00</time>
      </trkpt>
      <trkpt lat="43.67514" lon="1.44075">
        <ele>129</ele>
        <time>2024-07-13T18:11:33+02:00</time>
      </trkpt>
      <trkpt lat="43.67511" lon="1.44083">
        <ele>129</ele>
        <time>2024-07-13T18:11:34+02:00</time>
      </trkpt>
      <trkpt lat="43.67502" lon="1.44115">
        <ele>129</ele>
        <time>2024-07-13T18:11:38+02:00</time>
      </trkpt>
      <trkpt lat="43.675" lon="1.44123">
        <ele>129</ele>
        <time>2024-07-13T18:11:39+02:00</time>
      </trkpt>
      <trkpt lat="43.6749" lon="1.44155">
        <ele>129</ele>
        <time>2024-07-13T18:11:43+02:00</time>
      </trkpt>
      <trkpt lat="43.67488" lon="1.44163">
        <ele>129</ele>
        <time>2024-07-13T18:11:44+02:00</time>
      </trkpt>
      <trkpt lat="43.6748" lon="1.44193">
        <ele>129</ele>
        <time>2024-07-13T18:11:48+02:00</time>
      </trkpt>
      <trkpt lat="43.67478" lon="1.44201">
        <ele>129</ele>
        <time>2024-07-13T18:11:49+02:00</time>
      </trkpt>
      <trkpt lat="43.67472" lon="1.44235">
        <ele>129</ele>
        <time>2024-07-13T18:11:53+02:00</time>
      </trkpt>
      <trkpt lat="43.67471" lon="1.44243">
        <ele>128.90039</ele>
        <time>2024-07-13T18:11:54+02:00</time>
      </trkpt>
      <trkpt lat="43.67465" lon="1.44274">
        <ele>128.7002</ele>
        <time>2024-07-13T18:11:58+02:00</time>
      </trkpt>
      <trkpt lat="43.67463" lon="1.44282">
        <ele>128.7002</ele>
        <time>2024-07-13T18:11:59+02:00</time>
      </trkpt>
      <trkpt lat="43.67461" lon="1.44315">
        <ele>128.60059</ele>
        <time>2024-07-13T18:12:03+02:00</time>
      </trkpt>
      <trkpt lat="43.6746" lon="1.44323">
        <ele>128.5</ele>
        <time>2024-07-13T18:12:04+02:00</time>
      </trkpt>
      <trkpt lat="43.67457" lon="1.44354">
        <ele>128.60059</ele>
        <time>2024-07-13T18:12:08+02:00</time>
      </trkpt>
      <trkpt lat="43.67456" lon="1.44362">
        <ele>128.7002</ele>
        <time>2024-07-13T18:12:09+02:00</time>
      </trkpt>
      <trkpt lat="43.67455" lon="1.44395">
        <ele>128.90039</ele>
        <time>2024-07-13T18:12:13+02:00</time>
      </trkpt>
      <trkpt lat="43.67455" lon="1.44403">
        <ele>129</ele>
        <time>2024-07-13T18:12:14+02:00</time>
      </trkpt>
      <trkpt lat="43.67453" lon="1.44438">
        <ele>129.2998</ele>
        <time>2024-07-13T18:12:18+02:00</time>
      </trkpt>
      <trkpt lat="43.67453" lon="1.44446">
        <ele>129.40039</ele>
        <time>2024-07-13T18:12:19+02:00</time>
      </trkpt>
      <trkpt lat="43.67452" lon="1.4448">
        <ele>129.7998</ele>
        <time>2024-07-13T18:12:23+02:00</time>
      </trkpt>
      <trkpt lat="43.67451" lon="1.44488">
        <ele>129.90039</ele>
        <time>2024-07-13T18:12:24+02:00</time>
      </trkpt>
      <trkpt lat="43.6745" lon="1.44521">
        <ele>130.10059</ele>
        <time>2024-07-13T18:12:28+02:00</time>
      </trkpt>
      <trkpt lat="43.67449" lon="1.44529">
        <ele>130.2002</ele>
        <time>2024-07-13T18:12:29+02:00</time>
      </trkpt>
      <trkpt lat="43.67448" lon="1.44561">
        <ele>130.40039</ele>
        <time>2024-07-13T18:12:33+02:00</time>
      </trkpt>
      <trkpt lat="43.67447" lon="1.44569">
        <ele>130.5</ele>
        <time>2024-07-13T18:12:34+02:00</time>
      </trkpt>
      <trkpt lat="43.67446" lon="1.44601">
        <ele>130.7998</ele>
        <time>2024-07-13T18:12:38+02:00</time>
      </trkpt>
      <trkpt lat="43.67445" lon="1.44608">
        <ele>131</ele>
        <time>2024-07-13T18:12:39+02:00</time>
      </trkpt>
      <trkpt lat="43.67441" lon="1.44631">
        <ele>131.2002</ele>
        <time>2024-07-13T18:12:43+02:00</time>
      </trkpt>
      <trkpt lat="43.67441" lon="1.44636">
        <ele>131.2998</ele>
        <time>2024-07-13T18:12:44+02:00</time>
      </trkpt>
      <trkpt lat="43.6744" lon="1.4464">
        <ele>131.2998</ele>
        <time>2024-07-13T18:12:48+02:00</time>
      </trkpt>
      <trkpt lat="43.67441" lon="1.4464">
        <ele>131.2998</ele>
        <time>2024-07-13T18:12:49+02:00</time>
      </trkpt>
      <trkpt lat="43.67441" lon="1.44639">
        <ele>131.2998</ele>
        <time>2024-07-13T18:12:53+02:00</time>
      </trkpt>
      <trkpt lat="43.67441" lon="1.4464">
        <ele>131.2998</ele>
        <time>2024-07-13T18:12:54+02:00</time>
      </trkpt>
      <trkpt lat="43.6744" lon="1.44645">
        <ele>131.40039</ele>
        <time>2024-07-13T18:12:58+02:00</time>
      </trkpt>
      <trkpt lat="43.6744" lon="1.44647">
        <ele>131.40039</ele>
        <time>2024-07-13T18:12:59+02:00</time>
      </trkpt>
      <trkpt lat="43.6744" lon="1.44648">
        <ele>131.40039</ele>
        <time>2024-07-13T18:13:03+02:00</time>
      </trkpt>
      <trkpt lat="43.6744" lon="1.44648">
        <ele>131.40039</ele>
        <time>2024-07-13T18:13:04+02:00</time>
      </trkpt>
      <trkpt lat="43.6744" lon="1.44652">
        <ele>131.5</ele>
        <time>2024-07-13T18:13:08+02:00</time>
      </trkpt>
      <trkpt lat="43.67439" lon="1.44652">
        <ele>131.5</ele>
        <time>2024-07-13T18:13:09+02:00</time>
      </trkpt>
      <trkpt lat="43.67439" lon="1.44658">
        <ele>131.60059</ele>
        <time>2024-07-13T18:13:13+02:00</time>
      </trkpt>
      <trkpt lat="43.67439" lon="1.44662">
        <ele>131.60059</ele>
        <time>2024-07-13T18:13:14+02:00</time>
      </trkpt>
      <trkpt lat="43.67443" lon="1.44672">
        <ele>131.60059</ele>
        <time>2024-07-13T18:13:18+02:00</time>
      </trkpt>
      <trkpt lat="43.67443" lon="1.44675">
        <ele>131.60059</ele>
        <time>2024-07-13T18:13:19+02:00</time>
      </trkpt>
      <trkpt lat="43.67443" lon="1.44689">
        <ele>131.7002</ele>
        <time>2024-07-13T18:13:23+02:00</time>
      </trkpt>
      <trkpt lat="43.67444" lon="1.44692">
        <ele>131.7002</ele>
        <time>2024-07-13T18:13:24+02:00</time>
      </trkpt>
      <trkpt lat="43.67446" lon="1.44706">
        <ele>131.7998</ele>
        <time>2024-07-13T18:13:28+02:00</time>
      </trkpt>
      <trkpt lat="43.67446" lon="1.4471">
        <ele>131.7998</ele>
        <time>2024-07-13T18:13:29+02:00</time>
      </trkpt>
      <trkpt lat="43.67447" lon="1.44723">
        <ele>131.90039</ele>
        <time>2024-07-13T18:13:33+02:00</time>
      </trkpt>
      <trkpt lat="43.67447" lon="1.44726">
        <ele>131.90039</ele>
        <time>2024-07-13T18:13:34+02:00</time>
      </trkpt>
      <trkpt lat="43.67447" lon="1.44733">
        <ele>131.90039</ele>
        <time>2024-07-13T18:13:38+02:00</time>
      </trkpt>
      <trkpt lat="43.67448" lon="1.44733">
        <ele>131.90039</ele>
        <time>2024-07-13T18:13:39+02:00</time>
      </trkpt>
      <trkpt lat="43.67448" lon="1.44738">
        <ele>132</ele>
        <time>2024-07-13T18:13:43+02:00</time>
      </trkpt>
      <trkpt lat="43.67448" lon="1.4474">
        <ele>132</ele>
        <time>2024-07-13T18:13:44+02:00</time>
      </trkpt>
      <trkpt lat="43.67449" lon="1.44749">
        <ele>132.10059</ele>
        <time>2024-07-13T18:13:48+02:00</time>
      </trkpt>
      <trkpt lat="43.6745" lon="1.44751">
        <ele>132.10059</ele>
        <time>2024-07-13T18:13:49+02:00</time>
      </trkpt>
      <trkpt lat="43.6745" lon="1.44763">
        <ele>132.2002</ele>
        <time>2024-07-13T18:13:53+02:00</time>
      </trkpt>
      <trkpt lat="43.67451" lon="1.44766">
        <ele>132.2002</ele>
        <time>2024-07-13T18:13:54+02:00</time>
      </trkpt>
      <trkpt lat="43.67452" lon="1.44783">
        <ele>132.40039</ele>
        <time>2024-07-13T18:13:58+02:00</time>
      </trkpt>
      <trkpt lat="43.67453" lon="1.44787">
        <ele>132.40039</ele>
        <time>2024-07-13T18:13:59+02:00</time>
      </trkpt>
      <trkpt lat="43.67455" lon="1.44805">
        <ele>132.7002</ele>
        <time>2024-07-13T18:14:03+02:00</time>
      </trkpt>
      <trkpt lat="43.67456" lon="1.4481">
        <ele>132.7002</ele>
        <time>2024-07-13T18:14:04+02:00</time>
      </trkpt>
      <trkpt lat="43.67458" lon="1.44828">
        <ele>132.7998</ele>
        <time>2024-07-13T18:14:08+02:00</time>
      </trkpt>
      <trkpt lat="43.67458" lon="1.44832">
        <ele>132.90039</ele>
        <time>2024-07-13T18:14:09+02:00</time>
      </trkpt>
      <trkpt lat="43.6746" lon="1.44851">
        <ele>132.7998</ele>
        <time>2024-07-13T18:14:13+02:00</time>
      </trkpt>
      <trkpt lat="43.67461" lon="1.44856">
        <ele>132.7998</ele>
        <time>2024-07-13T18:14:14+02:00</time>
      </trkpt>
      <trkpt lat="43.67466" lon="1.44878">
        <ele>132.60059</ele>
        <time>2024-07-13T18:14:18+02:00</time>
      </trkpt>
      <trkpt lat="43.67467" lon="1.44884">
        <ele>132.5</ele>
        <time>2024-07-13T18:14:19+02:00</time>
      </trkpt>
      <trkpt lat="43.67474" lon="1.44909">
        <ele>132.2998</ele>
        <time>2024-07-13T18:14:23+02:00</time>
      </trkpt>
      <trkpt lat="43.67475" lon="1.44915">
        <ele>132.2998</ele>
        <time>2024-07-13T18:14:24+02:00</time>
      </trkpt>
      <trkpt lat="43.67482" lon="1.44939">
        <ele>132.10059</ele>
        <time>2024-07-13T18:14:28+02:00</time>
      </trkpt>
      <trkpt lat="43.67484" lon="1.44945">
        <ele>132</ele>
        <time>2024-07-13T18:14:29+02:00</time>
      </trkpt>
      <trkpt lat="43.67492" lon="1.44971">
        <ele>131.90039</ele>
        <time>2024-07-13T18:14:33+02:00</time>
      </trkpt>
      <trkpt lat="43.67494" lon="1.44978">
        <ele>131.90039</ele>
        <time>2024-07-13T18:14:34+02:00</time>
      </trkpt>
      <trkpt lat="43.67504" lon="1.45001">
        <ele>132</ele>
        <time>2024-07-13T18:14:38+02:00</time>
      </trkpt>
      <trkpt lat="43.67505" lon="1.45007">
        <ele>132.10059</ele>
        <time>2024-07-13T18:14:39+02:00</time>
      </trkpt>
      <trkpt lat="43.67491" lon="1.45023">
        <ele>132.10059</ele>
        <time>2024-07-13T18:14:43+02:00</time>
      </trkpt>
      <trkpt lat="43.67486" lon="1.45026">
        <ele>132.10059</ele>
        <time>2024-07-13T18:14:44+02:00</time>
      </trkpt>
      <trkpt lat="43.67468" lon="1.4504">
        <ele>131.7998</ele>
        <time>2024-07-13T18:14:48+02:00</time>
      </trkpt>
      <trkpt lat="43.67463" lon="1.45043">
        <ele>131.7002</ele>
        <time>2024-07-13T18:14:49+02:00</time>
      </trkpt>
      <trkpt lat="43.67446" lon="1.45054">
        <ele>131.2998</ele>
        <time>2024-07-13T18:14:53+02:00</time>
      </trkpt>
      <trkpt lat="43.67442" lon="1.45057">
        <ele>131.2002</ele>
        <time>2024-07-13T18:14:54+02:00</time>
      </trkpt>
      <trkpt lat="43.67429" lon="1.45069">
        <ele>130.90039</ele>
        <time>2024-07-13T18:14:58+02:00</time>
      </trkpt>
      <trkpt lat="43.67425" lon="1.45071">
        <ele>130.7002</ele>
        <time>2024-07-13T18:14:59+02:00</time>
      </trkpt>
      <trkpt lat="43.6741" lon="1.45082">
        <ele>130.60059</ele>
        <time>2024-07-13T18:15:03+02:00</time>
      </trkpt>
      <trkpt lat="43.67406" lon="1.45084">
        <ele>130.60059</ele>
        <time>2024-07-13T18:15:04+02:00</time>
      </trkpt>
      <trkpt lat="43.67397" lon="1.45091">
        <ele>130.7998</ele>
        <time>2024-07-13T18:15:08+02:00</time>
      </trkpt>
      <trkpt lat="43.67396" lon="1.45092">
        <ele>130.7998</ele>
        <time>2024-07-13T18:15:09+02:00</time>
      </trkpt>
      <trkpt lat="43.67388" lon="1.45086">
        <ele>130.7998</ele>
        <time>2024-07-13T18:15:13+02:00</time>
      </trkpt>
      <trkpt lat="43.67385" lon="1.45082">
        <ele>130.7998</ele>
        <time>2024-07-13T18:15:14+02:00</time>
      </trkpt>
      <trkpt lat="43.67378" lon="1.45064">
        <ele>130.7998</ele>
        <time>2024-07-13T18:15:18+02:00</time>
      </trkpt>
      <trkpt lat="43.67376" lon="1.45058">
        <ele>130.90039</ele>
        <time>2024-07-13T18:15:19+02:00</time>
      </trkpt>
      <trkpt lat="43.67366" lon="1.45037">
        <ele>131</ele>
        <time>2024-07-13T18:15:23+02:00</time>
      </trkpt>
      <trkpt lat="43.67362" lon="1.45033">
        <ele>131</ele>
        <time>2024-07-13T18:15:24+02:00</time>
      </trkpt>
      <trkpt lat="43.6734" lon="1.45026">
        <ele>131.2002</ele>
        <time>2024-07-13T18:15:28+02:00</time>
      </trkpt>
      <trkpt lat="43.67335" lon="1.45028">
        <ele>131.2002</ele>
        <time>2024-07-13T18:15:29+02:00</time>
      </trkpt>
      <trkpt lat="43.67316" lon="1.45045">
        <ele>131.5</ele>
        <time>2024-07-13T18:15:33+02:00</time>
      </trkpt>
      <trkpt lat="43.67311" lon="1.45049">
        <ele>131.60059</ele>
        <time>2024-07-13T18:15:34+02:00</time>
      </trkpt>
      <trkpt lat="43.67292" lon="1.45063">
        <ele>131.90039</ele>
        <time>2024-07-13T18:15:38+02:00</time>
      </trkpt>
      <trkpt lat="43.67286" lon="1.45066">
        <ele>131.90039</ele>
        <time>2024-07-13T18:15:39+02:00</time>
      </trkpt>
      <trkpt lat="43.67267" lon="1.45079">
        <ele>132.10059</ele>
        <time>2024-07-13T18:15:43+02:00</time>
      </trkpt>
      <trkpt lat="43.67262" lon="1.45082">
        <ele>132.2002</ele>
        <time>2024-07-13T18:15:44+02:00</time>
      </trkpt>
      <trkpt lat="43.67249" lon="1.45093">
        <ele>132.40039</ele>
        <time>2024-07-13T18:15:48+02:00</time>
      </trkpt>
      <trkpt lat="43.67245" lon="1.45094">
        <ele>132.40039</ele>
        <time>2024-07-13T18:15:49+02:00</time>
      </trkpt>
      <trkpt lat="43.67229" lon="1.45097">
        <ele>132.60059</ele>
        <time>2024-07-13T18:15:53+02:00</time>
      </trkpt>
      <trkpt lat="43.67225" lon="1.45097">
        <ele>132.7002</ele>
        <time>2024-07-13T18:15:54+02:00</time>
      </trkpt>
      <trkpt lat="43.67208" lon="1.45106">
        <ele>133</ele>
        <time>2024-07-13T18:15:58+02:00</time>
      </trkpt>
      <trkpt lat="43.67205" lon="1.45112">
        <ele>133</ele>
        <time>2024-07-13T18:15:59+02:00</time>
      </trkpt>
      <trkpt lat="43.67188" lon="1.45128">
        <ele>133.40039</ele>
        <time>2024-07-13T18:16:03+02:00</time>
      </trkpt>
      <trkpt lat="43.67183" lon="1.45132">
        <ele>133.5</ele>
        <time>2024-07-13T18:16:04+02:00</time>
      </trkpt>
      <trkpt lat="43.67164" lon="1.45143">
        <ele>133.5</ele>
        <time>2024-07-13T18:16:08+02:00</time>
      </trkpt>
      <trkpt lat="43.67159" lon="1.45144">
        <ele>133.40039</ele>
        <time>2024-07-13T18:16:09+02:00</time>
      </trkpt>
      <trkpt lat="43.67141" lon="1.45129">
        <ele>133.10059</ele>
        <time>2024-07-13T18:16:13+02:00</time>
      </trkpt>
      <trkpt lat="43.67136" lon="1.4513">
        <ele>133.10059</ele>
        <time>2024-07-13T18:16:14+02:00</time>
      </trkpt>
      <trkpt lat="43.67111" lon="1.45148">
        <ele>132.7002</ele>
        <time>2024-07-13T18:16:18+02:00</time>
      </trkpt>
      <trkpt lat="43.67105" lon="1.45151">
        <ele>132.60059</ele>
        <time>2024-07-13T18:16:19+02:00</time>
      </trkpt>
      <trkpt lat="43.67082" lon="1.45162">
        <ele>132</ele>
        <time>2024-07-13T18:16:23+02:00</time>
      </trkpt>
      <trkpt lat="43.67078" lon="1.4516">
        <ele>131.90039</ele>
        <time>2024-07-13T18:16:24+02:00</time>
      </trkpt>
      <trkpt lat="43.67058" lon="1.45139">
        <ele>131.5</ele>
        <time>2024-07-13T18:16:28+02:00</time>
      </trkpt>
      <trkpt lat="43.67053" lon="1.45142">
        <ele>131.2998</ele>
        <time>2024-07-13T18:16:29+02:00</time>
      </trkpt>
      <trkpt lat="43.67029" lon="1.45159">
        <ele>130.7002</ele>
        <time>2024-07-13T18:16:33+02:00</time>
      </trkpt>
      <trkpt lat="43.67022" lon="1.45161">
        <ele>130.5</ele>
        <time>2024-07-13T18:16:34+02:00</time>
      </trkpt>
      <trkpt lat="43.6701" lon="1.45153">
        <ele>130.2998</ele>
        <time>2024-07-13T18:16:36+02:00</time>
      </trkpt>
      <trkpt lat="43.67005" lon="1.45135">
        <ele>130.2998</ele>
        <time>2024-07-13T18:16:38+02:00</time>
      </trkpt>
      <trkpt lat="43.67003" lon="1.45126">
        <ele>130.2002</ele>
        <time>2024-07-13T18:16:39+02:00</time>
      </trkpt>
      <trkpt lat="43.66988" lon="1.45095">
        <ele>130</ele>
        <time>2024-07-13T18:16:43+02:00</time>
      </trkpt>
      <trkpt lat="43.66984" lon="1.45088">
        <ele>129.90039</ele>
        <time>2024-07-13T18:16:44+02:00</time>
      </trkpt>
      <trkpt lat="43.66969" lon="1.45058">
        <ele>129.7002</ele>
        <time>2024-07-13T18:16:48+02:00</time>
      </trkpt>
      <trkpt lat="43.66966" lon="1.4505">
        <ele>129.60059</ele>
        <time>2024-07-13T18:16:49+02:00</time>
      </trkpt>
      <trkpt lat="43.66952" lon="1.45019">
        <ele>129.5</ele>
        <time>2024-07-13T18:16:53+02:00</time>
      </trkpt>
      <trkpt lat="43.66949" lon="1.45011">
        <ele>129.5</ele>
        <time>2024-07-13T18:16:54+02:00</time>
      </trkpt>
      <trkpt lat="43.66938" lon="1.4498">
        <ele>129.5</ele>
        <time>2024-07-13T18:16:58+02:00</time>
      </trkpt>
      <trkpt lat="43.66935" lon="1.44972">
        <ele>129.5</ele>
        <time>2024-07-13T18:16:59+02:00</time>
      </trkpt>
      <trkpt lat="43.66919" lon="1.44944">
        <ele>129.7002</ele>
        <time>2024-07-13T18:17:03+02:00</time>
      </trkpt>
      <trkpt lat="43.66913" lon="1.4494">
        <ele>129.7002</ele>
        <time>2024-07-13T18:17:04+02:00</time>
      </trkpt>
      <trkpt lat="43.66886" lon="1.44934">
        <ele>129.7002</ele>
        <time>2024-07-13T18:17:08+02:00</time>
      </trkpt>
      <trkpt lat="43.6688" lon="1.44933">
        <ele>129.7002</ele>
        <time>2024-07-13T18:17:09+02:00</time>
      </trkpt>
      <trkpt lat="43.66854" lon="1.44927">
        <ele>129.7002</ele>
        <time>2024-07-13T18:17:13+02:00</time>
      </trkpt>
      <trkpt lat="43.66848" lon="1.44925">
        <ele>129.7002</ele>
        <time>2024-07-13T18:17:14+02:00</time>
      </trkpt>
      <trkpt lat="43.66823" lon="1.44917">
        <ele>129.7998</ele>
        <time>2024-07-13T18:17:18+02:00</time>
      </trkpt>
      <trkpt lat="43.66817" lon="1.44915">
        <ele>129.7998</ele>
        <time>2024-07-13T18:17:19+02:00</time>
      </trkpt>
      <trkpt lat="43.66792" lon="1.44903">
        <ele>129.90039</ele>
        <time>2024-07-13T18:17:23+02:00</time>
      </trkpt>
      <trkpt lat="43.66785" lon="1.44898">
        <ele>130</ele>
        <time>2024-07-13T18:17:24+02:00</time>
      </trkpt>
      <trkpt lat="43.66764" lon="1.44876">
        <ele>130.2002</ele>
        <time>2024-07-13T18:17:28+02:00</time>
      </trkpt>
      <trkpt lat="43.6676" lon="1.44868">
        <ele>130.2998</ele>
        <time>2024-07-13T18:17:29+02:00</time>
      </trkpt>
      <trkpt lat="43.66754" lon="1.44832">
        <ele>130.5</ele>
        <time>2024-07-13T18:17:33+02:00</time>
      </trkpt>
      <trkpt lat="43.66751" lon="1.44824">
        <ele>130.60059</ele>
        <time>2024-07-13T18:17:34+02:00</time>
      </trkpt>
      <trkpt lat="43.66741" lon="1.44815">
        <ele>130.60059</ele>
        <time>2024-07-13T18:17:36+02:00</time>
      </trkpt>
      <trkpt lat="43.66728" lon="1.44821">
        <ele>130.60059</ele>
        <time>2024-07-13T18:17:38+02:00</time>
      </trkpt>
      <trkpt lat="43.66722" lon="1.44827">
        <ele>130.40039</ele>
        <time>2024-07-13T18:17:39+02:00</time>
      </trkpt>
      <trkpt lat="43.66698" lon="1.44848">
        <ele>129.90039</ele>
        <time>2024-07-13T18:17:43+02:00</time>
      </trkpt>
      <trkpt lat="43.66692" lon="1.44852">
        <ele>129.7998</ele>
        <time>2024-07-13T18:17:44+02:00</time>
      </trkpt>
      <trkpt lat="43.66666" lon="1.44859">
        <ele>129.5</ele>
        <time>2024-07-13T18:17:48+02:00</time>
      </trkpt>
      <trkpt lat="43.6666" lon="1.44859">
        <ele>129.40039</ele>
        <time>2024-07-13T18:17:49+02:00</time>
      </trkpt>
      <trkpt lat="43.66634" lon="1.44852">
        <ele>129.2002</ele>
        <time>2024-07-13T18:17:53+02:00</time>
      </trkpt>
      <trkpt lat="43.66628" lon="1.44847">
        <ele>129.10059</ele>
        <time>2024-07-13T18:17:54+02:00</time>
      </trkpt>
      <trkpt lat="43.66609" lon="1.44819">
        <ele>129.2002</ele>
        <time>2024-07-13T18:17:58+02:00</time>
      </trkpt>
      <trkpt lat="43.66605" lon="1.44811">
        <ele>129.2998</ele>
        <time>2024-07-13T18:17:59+02:00</time>
      </trkpt>
      <trkpt lat="43.66588" lon="1.44783">
        <ele>129.7002</ele>
        <time>2024-07-13T18:18:03+02:00</time>
      </trkpt>
      <trkpt lat="43.66584" lon="1.44777">
        <ele>129.7998</ele>
        <time>2024-07-13T18:18:04+02:00</time>
      </trkpt>
      <trkpt lat="43.66567" lon="1.44752">
        <ele>129.7998</ele>
        <time>2024-07-13T18:18:08+02:00</time>
      </trkpt>
      <trkpt lat="43.66562" lon="1.44746">
        <ele>129.7002</ele>
        <time>2024-07-13T18:18:09+02:00</time>
      </trkpt>
      <trkpt lat="43.66544" lon="1.44726">
        <ele>129.40039</ele>
        <time>2024-07-13T18:18:13+02:00</time>
      </trkpt>
      <trkpt lat="43.66539" lon="1.44723">
        <ele>129.40039</ele>
        <time>2024-07-13T18:18:14+02:00</time>
      </trkpt>
      <trkpt lat="43.66522" lon="1.44713">
        <ele>129.5</ele>
        <time>2024-07-13T18:18:18+02:00</time>
      </trkpt>
      <trkpt lat="43.66519" lon="1.44711">
        <ele>129.7002</ele>
        <time>2024-07-13T18:18:19+02:00</time>
      </trkpt>
      <trkpt lat="43.66513" lon="1.44709">
        <ele>129.7998</ele>
        <time>2024-07-13T18:18:23+02:00</time>
      </trkpt>
      <trkpt lat="43.66511" lon="1.44712">
        <ele>129.7998</ele>
        <time>2024-07-13T18:18:24+02:00</time>
      </trkpt>
      <trkpt lat="43.66503" lon="1.44738">
        <ele>129.7998</ele>
        <time>2024-07-13T18:18:28+02:00</time>
      </trkpt>
      <trkpt lat="43.665" lon="1.44745">
        <ele>129.90039</ele>
        <time>2024-07-13T18:18:29+02:00</time>
      </trkpt>
      <trkpt lat="43.66487" lon="1.44778">
        <ele>130.40039</ele>
        <time>2024-07-13T18:18:33+02:00</time>
      </trkpt>
      <trkpt lat="43.66484" lon="1.44786">
        <ele>130.40039</ele>
        <time>2024-07-13T18:18:34+02:00</time>
      </trkpt>
      <trkpt lat="43.6647" lon="1.44817">
        <ele>130.60059</ele>
        <time>2024-07-13T18:18:38+02:00</time>
      </trkpt>
      <trkpt lat="43.66467" lon="1.44826">
        <ele>130.5</ele>
        <time>2024-07-13T18:18:39+02:00</time>
      </trkpt>
      <trkpt lat="43.66456" lon="1.44861">
        <ele>130.60059</ele>
        <time>2024-07-13T18:18:43+02:00</time>
      </trkpt>
      <trkpt lat="43.66454" lon="1.4487">
        <ele>130.5</ele>
        <time>2024-07-13T18:18:44+02:00</time>
      </trkpt>
      <trkpt lat="43.66443" lon="1.44905">
        <ele>130.7002</ele>
        <time>2024-07-13T18:18:48+02:00</time>
      </trkpt>
      <trkpt lat="43.66439" lon="1.44913">
        <ele>131</ele>
        <time>2024-07-13T18:18:49+02:00</time>
      </trkpt>
      <trkpt lat="43.66428" lon="1.44947">
        <ele>131.2002</ele>
        <time>2024-07-13T18:18:53+02:00</time>
      </trkpt>
      <trkpt lat="43.66426" lon="1.44955">
        <ele>131.40039</ele>
        <time>2024-07-13T18:18:54+02:00</time>
      </trkpt>
      <trkpt lat="43.66415" lon="1.44988">
        <ele>131.60059</ele>
        <time>2024-07-13T18:18:58+02:00</time>
      </trkpt>
      <trkpt lat="43.66413" lon="1.44996">
        <ele>132</ele>
        <time>2024-07-13T18:18:59+02:00</time>
      </trkpt>
      <trkpt lat="43.66401" lon="1.45027">
        <ele>132</ele>
        <time>2024-07-13T18:19:03+02:00</time>
      </trkpt>
      <trkpt lat="43.66399" lon="1.45035">
        <ele>131.7998</ele>
        <time>2024-07-13T18:19:04+02:00</time>
      </trkpt>
      <trkpt lat="43.66396" lon="1.4507">
        <ele>130.5</ele>
        <time>2024-07-13T18:19:08+02:00</time>
      </trkpt>
      <trkpt lat="43.66394" lon="1.45078">
        <ele>130.7998</ele>
        <time>2024-07-13T18:19:09+02:00</time>
      </trkpt>
      <trkpt lat="43.66384" lon="1.45108">
        <ele>131</ele>
        <time>2024-07-13T18:19:13+02:00</time>
      </trkpt>
      <trkpt lat="43.6638" lon="1.45115">
        <ele>131.10059</ele>
        <time>2024-07-13T18:19:14+02:00</time>
      </trkpt>
      <trkpt lat="43.66368" lon="1.45145">
        <ele>131</ele>
        <time>2024-07-13T18:19:18+02:00</time>
      </trkpt>
      <trkpt lat="43.66365" lon="1.45152">
        <ele>131.10059</ele>
        <time>2024-07-13T18:19:19+02:00</time>
      </trkpt>
      <trkpt lat="43.66358" lon="1.4518">
        <ele>130.5</ele>
        <time>2024-07-13T18:19:23+02:00</time>
      </trkpt>
      <trkpt lat="43.66359" lon="1.45188">
        <ele>129.90039</ele>
        <time>2024-07-13T18:19:24+02:00</time>
      </trkpt>
      <trkpt lat="43.6635" lon="1.45218">
        <ele>130.2002</ele>
        <time>2024-07-13T18:19:28+02:00</time>
      </trkpt>
      <trkpt lat="43.66346" lon="1.45225">
        <ele>130.2002</ele>
        <time>2024-07-13T18:19:29+02:00</time>
      </trkpt>
      <trkpt lat="43.66333" lon="1.45242">
        <ele>130.60059</ele>
        <time>2024-07-13T18:19:33+02:00</time>
      </trkpt>
      <trkpt lat="43.66329" lon="1.45246">
        <ele>130.5</ele>
        <time>2024-07-13T18:19:34+02:00</time>
      </trkpt>
      <trkpt lat="43.6631" lon="1.45272">
        <ele>130.40039</ele>
        <time>2024-07-13T18:19:38+02:00</time>
      </trkpt>
      <trkpt lat="43.66306" lon="1.45279">
        <ele>130.2998</ele>
        <time>2024-07-13T18:19:39+02:00</time>
      </trkpt>
      <trkpt lat="43.66285" lon="1.45295">
        <ele>130.10059</ele>
        <time>2024-07-13T18:19:43+02:00</time>
      </trkpt>
      <trkpt lat="43.66282" lon="1.453">
        <ele>130.2002</ele>
        <time>2024-07-13T18:19:44+02:00</time>
      </trkpt>
      <trkpt lat="43.66275" lon="1.45339">
        <ele>129.90039</ele>
        <time>2024-07-13T18:19:48+02:00</time>
      </trkpt>
      <trkpt lat="43.66273" lon="1.45349">
        <ele>129.90039</ele>
        <time>2024-07-13T18:19:49+02:00</time>
      </trkpt>
      <trkpt lat="43.6628" lon="1.45383">
        <ele>130</ele>
        <time>2024-07-13T18:19:53+02:00</time>
      </trkpt>
      <trkpt lat="43.66278" lon="1.4539">
        <ele>130</ele>
        <time>2024-07-13T18:19:54+02:00</time>
      </trkpt>
      <trkpt lat="43.66267" lon="1.45422">
        <ele>130.10059</ele>
        <time>2024-07-13T18:19:58+02:00</time>
      </trkpt>
      <trkpt lat="43.66264" lon="1.45431">
        <ele>130.2002</ele>
        <time>2024-07-13T18:19:59+02:00</time>
      </trkpt>
      <trkpt lat="43.66256" lon="1.45464">
        <ele>130.2002</ele>
        <time>2024-07-13T18:20:03+02:00</time>
      </trkpt>
      <trkpt lat="43.66254" lon="1.45472">
        <ele>130.2002</ele>
        <time>2024-07-13T18:20:04+02:00</time>
      </trkpt>
      <trkpt lat="43.66246" lon="1.45504">
        <ele>129.90039</ele>
        <time>2024-07-13T18:20:08+02:00</time>
      </trkpt>
      <trkpt lat="43.66244" lon="1.45513">
        <ele>129.7002</ele>
        <time>2024-07-13T18:20:09+02:00</time>
      </trkpt>
      <trkpt lat="43.66233" lon="1.45545">
        <ele>129.2002</ele>
        <time>2024-07-13T18:20:13+02:00</time>
      </trkpt>
      <trkpt lat="43.6623" lon="1.45553">
        <ele>129</ele>
        <time>2024-07-13T18:20:14+02:00</time>
      </trkpt>
      <trkpt lat="43.6622" lon="1.45586">
        <ele>129</ele>
        <time>2024-07-13T18:20:18+02:00</time>
      </trkpt>
      <trkpt lat="43.66218" lon="1.45594">
        <ele>129</ele>
        <time>2024-07-13T18:20:19+02:00</time>
      </trkpt>
      <trkpt lat="43.66209" lon="1.45626">
        <ele>129.2998</ele>
        <time>2024-07-13T18:20:23+02:00</time>
      </trkpt>
      <trkpt lat="43.66205" lon="1.45631">
        <ele>129.2998</ele>
        <time>2024-07-13T18:20:24+02:00</time>
      </trkpt>
      <trkpt lat="43.66193" lon="1.45632">
        <ele>129.60059</ele>
        <time>2024-07-13T18:20:26+02:00</time>
      </trkpt>
      <trkpt lat="43.66182" lon="1.45617">
        <ele>129.7002</ele>
        <time>2024-07-13T18:20:28+02:00</time>
      </trkpt>
      <trkpt lat="43.66177" lon="1.4561">
        <ele>129.90039</ele>
        <time>2024-07-13T18:20:29+02:00</time>
      </trkpt>
      <trkpt lat="43.6616" lon="1.45586">
        <ele>130.40039</ele>
        <time>2024-07-13T18:20:33+02:00</time>
      </trkpt>
      <trkpt lat="43.66157" lon="1.45582">
        <ele>130.7002</ele>
        <time>2024-07-13T18:20:34+02:00</time>
      </trkpt>
      <trkpt lat="43.6614" lon="1.45569">
        <ele>131.90039</ele>
        <time>2024-07-13T18:20:38+02:00</time>
      </trkpt>
      <trkpt lat="43.66136" lon="1.45565">
        <ele>131.90039</ele>
        <time>2024-07-13T18:20:39+02:00</time>
      </trkpt>
      <trkpt lat="43.66116" lon="1.45549">
        <ele>133.40039</ele>
        <time>2024-07-13T18:20:43+02:00</time>
      </trkpt>
      <trkpt lat="43.66111" lon="1.45545">
        <ele>133.40039</ele>
        <time>2024-07-13T18:20:44+02:00</time>
      </trkpt>
      <trkpt lat="43.6609" lon="1.45532">
        <ele>134.2998</ele>
        <time>2024-07-13T18:20:48+02:00</time>
      </trkpt>
      <trkpt lat="43.66085" lon="1.45531">
        <ele>134.40039</ele>
        <time>2024-07-13T18:20:49+02:00</time>
      </trkpt>
      <trkpt lat="43.66063" lon="1.45535">
        <ele>134.5</ele>
        <time>2024-07-13T18:20:53+02:00</time>
      </trkpt>
      <trkpt lat="43.66057" lon="1.45531">
        <ele>134.7002</ele>
        <time>2024-07-13T18:20:54+02:00</time>
      </trkpt>
      <trkpt lat="43.66032" lon="1.45513">
        <ele>135.2002</ele>
        <time>2024-07-13T18:20:58+02:00</time>
      </trkpt>
      <trkpt lat="43.66026" lon="1.45508">
        <ele>135.40039</ele>
        <time>2024-07-13T18:20:59+02:00</time>
      </trkpt>
      <trkpt lat="43.66006" lon="1.45488">
        <ele>135.7998</ele>
        <time>2024-07-13T18:21:03+02:00</time>
      </trkpt>
      <trkpt lat="43.66001" lon="1.45484">
        <ele>135.7998</ele>
        <time>2024-07-13T18:21:04+02:00</time>
      </trkpt>
      <trkpt lat="43.65979" lon="1.45473">
        <ele>135.90039</ele>
        <time>2024-07-13T18:21:08+02:00</time>
      </trkpt>
      <trkpt lat="43.65975" lon="1.45467">
        <ele>135.90039</ele>
        <time>2024-07-13T18:21:09+02:00</time>
      </trkpt>
      <trkpt lat="43.65955" lon="1.45452">
        <ele>135.7002</ele>
        <time>2024-07-13T18:21:13+02:00</time>
      </trkpt>
      <trkpt lat="43.65947" lon="1.45452">
        <ele>135.60059</ele>
        <time>2024-07-13T18:21:14+02:00</time>
      </trkpt>
      <trkpt lat="43.65921" lon="1.45469">
        <ele>134.90039</ele>
        <time>2024-07-13T18:21:18+02:00</time>
      </trkpt>
      <trkpt lat="43.65915" lon="1.45472">
        <ele>134.90039</ele>
        <time>2024-07-13T18:21:19+02:00</time>
      </trkpt>
      <trkpt lat="43.6589" lon="1.45475">
        <ele>134.7998</ele>
        <time>2024-07-13T18:21:23+02:00</time>
      </trkpt>
      <trkpt lat="43.65883" lon="1.45476">
        <ele>134.7998</ele>
        <time>2024-07-13T18:21:24+02:00</time>
      </trkpt>
      <trkpt lat="43.65858" lon="1.4548">
        <ele>135.2002</ele>
        <time>2024-07-13T18:21:28+02:00</time>
      </trkpt>
      <trkpt lat="43.65852" lon="1.45482">
        <ele>135.2998</ele>
        <time>2024-07-13T18:21:29+02:00</time>
      </trkpt>
      <trkpt lat="43.65828" lon="1.4549">
        <ele>135.60059</ele>
        <time>2024-07-13T18:21:33+02:00</time>
      </trkpt>
      <trkpt lat="43.65823" lon="1.45491">
        <ele>135.60059</ele>
        <time>2024-07-13T18:21:34+02:00</time>
      </trkpt>
      <trkpt lat="43.65798" lon="1.45494">
        <ele>135.7998</ele>
        <time>2024-07-13T18:21:38+02:00</time>
      </trkpt>
      <trkpt lat="43.65792" lon="1.45492">
        <ele>135.7998</ele>
        <time>2024-07-13T18:21:39+02:00</time>
      </trkpt>
      <trkpt lat="43.65768" lon="1.45483">
        <ele>135.5</ele>
        <time>2024-07-13T18:21:43+02:00</time>
      </trkpt>
      <trkpt lat="43.65761" lon="1.45482">
        <ele>135.5</ele>
        <time>2024-07-13T18:21:44+02:00</time>
      </trkpt>
      <trkpt lat="43.65733" lon="1.45477">
        <ele>135.2002</ele>
        <time>2024-07-13T18:21:48+02:00</time>
      </trkpt>
      <trkpt lat="43.65726" lon="1.45475">
        <ele>135.2002</ele>
        <time>2024-07-13T18:21:49+02:00</time>
      </trkpt>
      <trkpt lat="43.65698" lon="1.45463">
        <ele>134.5</ele>
        <time>2024-07-13T18:21:53+02:00</time>
      </trkpt>
      <trkpt lat="43.65691" lon="1.4546">
        <ele>134.40039</ele>
        <time>2024-07-13T18:21:54+02:00</time>
      </trkpt>
      <trkpt lat="43.65664" lon="1.45449">
        <ele>134</ele>
        <time>2024-07-13T18:21:58+02:00</time>
      </trkpt>
      <trkpt lat="43.65657" lon="1.45446">
        <ele>133.90039</ele>
        <time>2024-07-13T18:21:59+02:00</time>
      </trkpt>
      <trkpt lat="43.65631" lon="1.45435">
        <ele>133.7002</ele>
        <time>2024-07-13T18:22:03+02:00</time>
      </trkpt>
      <trkpt lat="43.65625" lon="1.45432">
        <ele>133.60059</ele>
        <time>2024-07-13T18:22:04+02:00</time>
      </trkpt>
      <trkpt lat="43.656" lon="1.45421">
        <ele>133.40039</ele>
        <time>2024-07-13T18:22:08+02:00</time>
      </trkpt>
      <trkpt lat="43.65594" lon="1.45419">
        <ele>133.40039</ele>
        <time>2024-07-13T18:22:09+02:00</time>
      </trkpt>
      <trkpt lat="43.65567" lon="1.4541">
        <ele>133.2998</ele>
        <time>2024-07-13T18:22:13+02:00</time>
      </trkpt>
      <trkpt lat="43.65561" lon="1.45407">
        <ele>133.2002</ele>
        <time>2024-07-13T18:22:14+02:00</time>
      </trkpt>
      <trkpt lat="43.65536" lon="1.45398">
        <ele>133.2998</ele>
        <time>2024-07-13T18:22:18+02:00</time>
      </trkpt>
      <trkpt lat="43.6553" lon="1.45396">
        <ele>133.2998</ele>
        <time>2024-07-13T18:22:19+02:00</time>
      </trkpt>
      <trkpt lat="43.65504" lon="1.45387">
        <ele>133.5</ele>
        <time>2024-07-13T18:22:23+02:00</time>
      </trkpt>
      <trkpt lat="43.65497" lon="1.45385">
        <ele>133.5</ele>
        <time>2024-07-13T18:22:24+02:00</time>
      </trkpt>
      <trkpt lat="43.65472" lon="1.45379">
        <ele>133.90039</ele>
        <time>2024-07-13T18:22:28+02:00</time>
      </trkpt>
      <trkpt lat="43.65466" lon="1.45377">
        <ele>134.10059</ele>
        <time>2024-07-13T18:22:29+02:00</time>
      </trkpt>
      <trkpt lat="43.65441" lon="1.45367">
        <ele>134.7002</ele>
        <time>2024-07-13T18:22:33+02:00</time>
      </trkpt>
      <trkpt lat="43.65436" lon="1.45362">
        <ele>134.7998</ele>
        <time>2024-07-13T18:22:34+02:00</time>
      </trkpt>
      <trkpt lat="43.65415" lon="1.45352">
        <ele>135</ele>
        <time>2024-07-13T18:22:38+02:00</time>
      </trkpt>
      <trkpt lat="43.65409" lon="1.4535">
        <ele>135</ele>
        <time>2024-07-13T18:22:39+02:00</time>
      </trkpt>
      <trkpt lat="43.65391" lon="1.45325">
        <ele>135.10059</ele>
        <time>2024-07-13T18:22:43+02:00</time>
      </trkpt>
      <trkpt lat="43.65387" lon="1.45319">
        <ele>135.2002</ele>
        <time>2024-07-13T18:22:44+02:00</time>
      </trkpt>
      <trkpt lat="43.6537" lon="1.45297">
        <ele>135.2998</ele>
        <time>2024-07-13T18:22:48+02:00</time>
      </trkpt>
      <trkpt lat="43.65368" lon="1.45293">
        <ele>135.40039</ele>
        <time>2024-07-13T18:22:49+02:00</time>
      </trkpt>
      <trkpt lat="43.65382" lon="1.4527">
        <ele>135.60059</ele>
        <time>2024-07-13T18:22:53+02:00</time>
      </trkpt>
      <trkpt lat="43.65387" lon="1.45263">
        <ele>135.7002</ele>
        <time>2024-07-13T18:22:54+02:00</time>
      </trkpt>
      <trkpt lat="43.65407" lon="1.4524">
        <ele>135.90039</ele>
        <time>2024-07-13T18:22:58+02:00</time>
      </trkpt>
      <trkpt lat="43.65413" lon="1.45237">
        <ele>136</ele>
        <time>2024-07-13T18:22:59+02:00</time>
      </trkpt>
      <trkpt lat="43.65446" lon="1.45225">
        <ele>136.2002</ele>
        <time>2024-07-13T18:23:04+02:00</time>
      </trkpt>
      <trkpt lat="43.65453" lon="1.4522">
        <ele>136.2998</ele>
        <time>2024-07-13T18:23:05+02:00</time>
      </trkpt>
      <trkpt lat="43.65477" lon="1.45202">
        <ele>136.2998</ele>
        <time>2024-07-13T18:23:09+02:00</time>
      </trkpt>
      <trkpt lat="43.65482" lon="1.45197">
        <ele>136.2002</ele>
        <time>2024-07-13T18:23:10+02:00</time>
      </trkpt>
      <trkpt lat="43.65506" lon="1.45182">
        <ele>135.7998</ele>
        <time>2024-07-13T18:23:14+02:00</time>
      </trkpt>
      <trkpt lat="43.65512" lon="1.45178">
        <ele>135.7002</ele>
        <time>2024-07-13T18:23:15+02:00</time>
      </trkpt>
      <trkpt lat="43.65534" lon="1.45163">
        <ele>135</ele>
        <time>2024-07-13T18:23:19+02:00</time>
      </trkpt>
      <trkpt lat="43.65539" lon="1.45159">
        <ele>134.90039</ele>
        <time>2024-07-13T18:23:20+02:00</time>
      </trkpt>
      <trkpt lat="43.65561" lon="1.45145">
        <ele>134.5</ele>
        <time>2024-07-13T18:23:24+02:00</time>
      </trkpt>
      <trkpt lat="43.65567" lon="1.45141">
        <ele>134.40039</ele>
        <time>2024-07-13T18:23:25+02:00</time>
      </trkpt>
      <trkpt lat="43.65587" lon="1.45125">
        <ele>134.10059</ele>
        <time>2024-07-13T18:23:29+02:00</time>
      </trkpt>
      <trkpt lat="43.65592" lon="1.45123">
        <ele>134</ele>
        <time>2024-07-13T18:23:30+02:00</time>
      </trkpt>
      <trkpt lat="43.65596" lon="1.4511">
        <ele>134.10059</ele>
        <time>2024-07-13T18:23:34+02:00</time>
      </trkpt>
      <trkpt lat="43.65593" lon="1.45106">
        <ele>134.2002</ele>
        <time>2024-07-13T18:23:35+02:00</time>
      </trkpt>
      <trkpt lat="43.65576" lon="1.45085">
        <ele>134.60059</ele>
        <time>2024-07-13T18:23:39+02:00</time>
      </trkpt>
      <trkpt lat="43.65572" lon="1.4508">
        <ele>134.60059</ele>
        <time>2024-07-13T18:23:40+02:00</time>
      </trkpt>
      <trkpt lat="43.65561" lon="1.45065">
        <ele>134.7002</ele>
        <time>2024-07-13T18:23:44+02:00</time>
      </trkpt>
      <trkpt lat="43.65558" lon="1.45061">
        <ele>134.7002</ele>
        <time>2024-07-13T18:23:45+02:00</time>
      </trkpt>
      <trkpt lat="43.65544" lon="1.4504">
        <ele>134.7002</ele>
        <time>2024-07-13T18:23:49+02:00</time>
      </trkpt>
      <trkpt lat="43.65541" lon="1.45034">
        <ele>134.7998</ele>
        <time>2024-07-13T18:23:50+02:00</time>
      </trkpt>
      <trkpt lat="43.65527" lon="1.45017">
        <ele>134.7998</ele>
        <time>2024-07-13T18:23:54+02:00</time>
      </trkpt>
      <trkpt lat="43.65524" lon="1.45013">
        <ele>134.7998</ele>
        <time>2024-07-13T18:23:55+02:00</time>
      </trkpt>
      <trkpt lat="43.65511" lon="1.44991">
        <ele>135.40039</ele>
        <time>2024-07-13T18:23:59+02:00</time>
      </trkpt>
      <trkpt lat="43.65507" lon="1.44985">
        <ele>136</ele>
        <time>2024-07-13T18:24:00+02:00</time>
      </trkpt>
      <trkpt lat="43.65489" lon="1.4496">
        <ele>137.90039</ele>
        <time>2024-07-13T18:24:04+02:00</time>
      </trkpt>
      <trkpt lat="43.65484" lon="1.44953">
        <ele>137.7998</ele>
        <time>2024-07-13T18:24:05+02:00</time>
      </trkpt>
      <trkpt lat="43.65475" lon="1.44922">
        <ele>138.2998</ele>
        <time>2024-07-13T18:24:09+02:00</time>
      </trkpt>
      <trkpt lat="43.65478" lon="1.44914">
        <ele>137.5</ele>
        <time>2024-07-13T18:24:10+02:00</time>
      </trkpt>
      <trkpt lat="43.65496" lon="1.44883">
        <ele>135.5</ele>
        <time>2024-07-13T18:24:14+02:00</time>
      </trkpt>
      <trkpt lat="43.655" lon="1.44875">
        <ele>135.2998</ele>
        <time>2024-07-13T18:24:15+02:00</time>
      </trkpt>
      <trkpt lat="43.65513" lon="1.44843">
        <ele>135</ele>
        <time>2024-07-13T18:24:19+02:00</time>
      </trkpt>
      <trkpt lat="43.65515" lon="1.44835">
        <ele>135</ele>
        <time>2024-07-13T18:24:20+02:00</time>
      </trkpt>
      <trkpt lat="43.65529" lon="1.44807">
        <ele>135.10059</ele>
        <time>2024-07-13T18:24:24+02:00</time>
      </trkpt>
      <trkpt lat="43.65534" lon="1.44801">
        <ele>135.10059</ele>
        <time>2024-07-13T18:24:25+02:00</time>
      </trkpt>
      <trkpt lat="43.6555" lon="1.44773">
        <ele>135.2002</ele>
        <time>2024-07-13T18:24:29+02:00</time>
      </trkpt>
      <trkpt lat="43.65554" lon="1.44765">
        <ele>135.2002</ele>
        <time>2024-07-13T18:24:30+02:00</time>
      </trkpt>
      <trkpt lat="43.65569" lon="1.44734">
        <ele>135.2002</ele>
        <time>2024-07-13T18:24:34+02:00</time>
      </trkpt>
      <trkpt lat="43.65573" lon="1.44727">
        <ele>135.2002</ele>
        <time>2024-07-13T18:24:35+02:00</time>
      </trkpt>
      <trkpt lat="43.65587" lon="1.44698">
        <ele>135.10059</ele>
        <time>2024-07-13T18:24:39+02:00</time>
      </trkpt>
      <trkpt lat="43.6559" lon="1.44691">
        <ele>135</ele>
        <time>2024-07-13T18:24:40+02:00</time>
      </trkpt>
      <trkpt lat="43.65602" lon="1.44666">
        <ele>134.90039</ele>
        <time>2024-07-13T18:24:44+02:00</time>
      </trkpt>
      <trkpt lat="43.65605" lon="1.44661">
        <ele>134.90039</ele>
        <time>2024-07-13T18:24:45+02:00</time>
      </trkpt>
      <trkpt lat="43.65603" lon="1.44644">
        <ele>134.7002</ele>
        <time>2024-07-13T18:24:49+02:00</time>
      </trkpt>
      <trkpt lat="43.65601" lon="1.44642">
        <ele>134.7002</ele>
        <time>2024-07-13T18:24:50+02:00</time>
      </trkpt>
      <trkpt lat="43.65588" lon="1.44635">
        <ele>134.7002</ele>
        <time>2024-07-13T18:24:54+02:00</time>
      </trkpt>
      <trkpt lat="43.65585" lon="1.44633">
        <ele>134.60059</ele>
        <time>2024-07-13T18:24:55+02:00</time>
      </trkpt>
      <trkpt lat="43.65572" lon="1.44627">
        <ele>134.7002</ele>
        <time>2024-07-13T18:24:59+02:00</time>
      </trkpt>
      <trkpt lat="43.65569" lon="1.44625">
        <ele>134.7002</ele>
        <time>2024-07-13T18:25:00+02:00</time>
      </trkpt>
      <trkpt lat="43.65558" lon="1.44619">
        <ele>134.60059</ele>
        <time>2024-07-13T18:25:04+02:00</time>
      </trkpt>
      <trkpt lat="43.65556" lon="1.44617">
        <ele>134.7002</ele>
        <time>2024-07-13T18:25:05+02:00</time>
      </trkpt>
      <trkpt lat="43.65558" lon="1.44608">
        <ele>134.5</ele>
        <time>2024-07-13T18:25:09+02:00</time>
      </trkpt>
      <trkpt lat="43.6556" lon="1.44608">
        <ele>134.2998</ele>
        <time>2024-07-13T18:25:10+02:00</time>
      </trkpt>
      <trkpt lat="43.65564" lon="1.44608">
        <ele>134.5</ele>
        <time>2024-07-13T18:25:14+02:00</time>
      </trkpt>
      <trkpt lat="43.65564" lon="1.44608">
        <ele>134.5</ele>
        <time>2024-07-13T18:25:15+02:00</time>
      </trkpt>
      <trkpt lat="43.65564" lon="1.44608">
        <ele>134.5</ele>
        <time>2024-07-13T18:25:18+02:00</time>
      </trkpt>
      <trkpt lat="43.65563" lon="1.44608">
        <ele>134.5</ele>
        <time>2024-07-13T18:25:22+02:00</time>
      </trkpt>
      <trkpt lat="43.65563" lon="1.44607">
        <ele>134.2998</ele>
        <time>2024-07-13T18:25:25+02:00</time>
      </trkpt>
      <trkpt lat="43.65563" lon="1.44607">
        <ele>134.2998</ele>
        <time>2024-07-13T18:25:31+02:00</time>
      </trkpt>
      <trkpt lat="43.65563" lon="1.44607">
        <ele>134.2998</ele>
        <time>2024-07-13T18:25:35+02:00</time>
      </trkpt>
      <trkpt lat="43.65564" lon="1.44608">
        <ele>134.5</ele>
        <time>2024-07-13T18:25:41+02:00</time>
      </trkpt>
      <trkpt lat="43.65564" lon="1.44608">
        <ele>134.5</ele>
        <time>2024-07-13T18:25:45+02:00</time>
      </trkpt>
      <trkpt lat="43.65564" lon="1.44608">
        <ele>134.5</ele>
        <time>2024-07-13T18:25:51+02:00</time>
      </trkpt>
      <trkpt lat="43.65564" lon="1.44608">
        <ele>134.5</ele>
        <time>2024-07-13T18:25:55+02:00</time>
      </trkpt>
      <trkpt lat="43.65564" lon="1.44608">
        <ele>134.5</ele>
        <time>2024-07-13T18:26:01+02:00</time>
      </trkpt>
      <trkpt lat="43.65564" lon="1.44608">
        <ele>134.5</ele>
        <time>2024-07-13T18:26:05+02:00</time>
      </trkpt>
      <trkpt lat="43.65564" lon="1.44608">
        <ele>134.5</ele>
        <time>2024-07-13T18:26:10+02:00</time>
      </trkpt>
    </trkseg>
  </trk>
</gpx>